<?xml version="1.0" encoding="UTF-8" standalone="no" ?>
<gpx xmlns="http://www.topografix.com/GPX/1/1" xmlns:xsi="http://www.w3.org/2001/XMLSchema-instance" xsi:schemaLocation="http://www.topografix.com/GPX/1/1 http://www.topografix.com/GPX/1/1/gpx.xsd" version="1.1" creator="VisuGPX - https://www.visugpx.com">
  <metadata>
    <name>Tour du môle avec Pascal. 1 ere sortie de l'année dur dur !!</name>
  </metadata>
  <trk>
    <name><![CDATA[Tour du môle avec Pascal. 1 ere sortie de l'année dur dur !!]]></name>
    <trkseg>
      <trkpt lat="46.19284" lon="6.25015">
        <ele>529.6</ele>
        <time>2022-02-05T09:45:43Z</time>
      </trkpt>
      <trkpt lat="46.19284" lon="6.25015">
        <ele>453.4</ele>
        <time>2022-02-05T12:01:12Z</time>
      </trkpt>
      <trkpt lat="46.19278" lon="6.25003">
        <ele>453.4</ele>
        <time>2022-02-05T12:01:13Z</time>
      </trkpt>
      <trkpt lat="46.19279" lon="6.25009">
        <ele>453.4</ele>
        <time>2022-02-05T12:01:15Z</time>
      </trkpt>
      <trkpt lat="46.19281" lon="6.25018">
        <ele>453.4</ele>
        <time>2022-02-05T12:01:17Z</time>
      </trkpt>
      <trkpt lat="46.19281" lon="6.25022">
        <ele>453.6</ele>
        <time>2022-02-05T12:01:18Z</time>
      </trkpt>
      <trkpt lat="46.19281" lon="6.25037">
        <ele>454</ele>
        <time>2022-02-05T12:01:23Z</time>
      </trkpt>
      <trkpt lat="46.19276" lon="6.2505">
        <ele>454</ele>
        <time>2022-02-05T12:01:29Z</time>
      </trkpt>
      <trkpt lat="46.19276" lon="6.25056">
        <ele>453.8</ele>
        <time>2022-02-05T12:01:31Z</time>
      </trkpt>
      <trkpt lat="46.19275" lon="6.25065">
        <ele>453.8</ele>
        <time>2022-02-05T12:01:34Z</time>
      </trkpt>
      <trkpt lat="46.19274" lon="6.25069">
        <ele>454.2</ele>
        <time>2022-02-05T12:01:38Z</time>
      </trkpt>
      <trkpt lat="46.19276" lon="6.25068">
        <ele>455</ele>
        <time>2022-02-05T12:01:46Z</time>
      </trkpt>
      <trkpt lat="46.19278" lon="6.25072">
        <ele>455.2</ele>
        <time>2022-02-05T12:01:56Z</time>
      </trkpt>
      <trkpt lat="46.19279" lon="6.25071">
        <ele>455</ele>
        <time>2022-02-05T12:01:59Z</time>
      </trkpt>
      <trkpt lat="46.19279" lon="6.25072">
        <ele>455</ele>
        <time>2022-02-05T12:02:00Z</time>
      </trkpt>
      <trkpt lat="46.19278" lon="6.25076">
        <ele>455</ele>
        <time>2022-02-05T12:02:02Z</time>
      </trkpt>
      <trkpt lat="46.19273" lon="6.25084">
        <ele>455.2</ele>
        <time>2022-02-05T12:02:04Z</time>
      </trkpt>
      <trkpt lat="46.19264" lon="6.25091">
        <ele>455.2</ele>
        <time>2022-02-05T12:02:07Z</time>
      </trkpt>
      <trkpt lat="46.19246" lon="6.25098">
        <ele>455.4</ele>
        <time>2022-02-05T12:02:12Z</time>
      </trkpt>
      <trkpt lat="46.19227" lon="6.25104">
        <ele>455.8</ele>
        <time>2022-02-05T12:02:16Z</time>
      </trkpt>
      <trkpt lat="46.19217" lon="6.25106">
        <ele>455.8</ele>
        <time>2022-02-05T12:02:18Z</time>
      </trkpt>
      <trkpt lat="46.19212" lon="6.25105">
        <ele>455.8</ele>
        <time>2022-02-05T12:02:19Z</time>
      </trkpt>
      <trkpt lat="46.19208" lon="6.25103">
        <ele>456</ele>
        <time>2022-02-05T12:02:20Z</time>
      </trkpt>
      <trkpt lat="46.192" lon="6.25096">
        <ele>456.2</ele>
        <time>2022-02-05T12:02:22Z</time>
      </trkpt>
      <trkpt lat="46.19197" lon="6.25091">
        <ele>456.4</ele>
        <time>2022-02-05T12:02:23Z</time>
      </trkpt>
      <trkpt lat="46.19183" lon="6.25071">
        <ele>457.2</ele>
        <time>2022-02-05T12:02:28Z</time>
      </trkpt>
      <trkpt lat="46.19162" lon="6.2506">
        <ele>458</ele>
        <time>2022-02-05T12:02:33Z</time>
      </trkpt>
      <trkpt lat="46.19151" lon="6.25051">
        <ele>458</ele>
        <time>2022-02-05T12:02:35Z</time>
      </trkpt>
      <trkpt lat="46.19138" lon="6.25047">
        <ele>458</ele>
        <time>2022-02-05T12:02:37Z</time>
      </trkpt>
      <trkpt lat="46.19126" lon="6.25054">
        <ele>458</ele>
        <time>2022-02-05T12:02:39Z</time>
      </trkpt>
      <trkpt lat="46.19122" lon="6.25061">
        <ele>458</ele>
        <time>2022-02-05T12:02:40Z</time>
      </trkpt>
      <trkpt lat="46.19118" lon="6.25069">
        <ele>458</ele>
        <time>2022-02-05T12:02:41Z</time>
      </trkpt>
      <trkpt lat="46.19115" lon="6.25078">
        <ele>458.2</ele>
        <time>2022-02-05T12:02:42Z</time>
      </trkpt>
      <trkpt lat="46.19113" lon="6.25085">
        <ele>458.2</ele>
        <time>2022-02-05T12:02:43Z</time>
      </trkpt>
      <trkpt lat="46.19105" lon="6.25098">
        <ele>458.4</ele>
        <time>2022-02-05T12:02:45Z</time>
      </trkpt>
      <trkpt lat="46.19095" lon="6.25107">
        <ele>458.4</ele>
        <time>2022-02-05T12:02:47Z</time>
      </trkpt>
      <trkpt lat="46.19089" lon="6.2511">
        <ele>458.2</ele>
        <time>2022-02-05T12:02:48Z</time>
      </trkpt>
      <trkpt lat="46.19082" lon="6.25112">
        <ele>458.4</ele>
        <time>2022-02-05T12:02:49Z</time>
      </trkpt>
      <trkpt lat="46.19075" lon="6.25114">
        <ele>458.2</ele>
        <time>2022-02-05T12:02:50Z</time>
      </trkpt>
      <trkpt lat="46.19068" lon="6.25114">
        <ele>458.2</ele>
        <time>2022-02-05T12:02:51Z</time>
      </trkpt>
      <trkpt lat="46.19057" lon="6.25112">
        <ele>458</ele>
        <time>2022-02-05T12:02:53Z</time>
      </trkpt>
      <trkpt lat="46.19053" lon="6.2511">
        <ele>457.8</ele>
        <time>2022-02-05T12:02:54Z</time>
      </trkpt>
      <trkpt lat="46.19038" lon="6.25102">
        <ele>457</ele>
        <time>2022-02-05T12:02:58Z</time>
      </trkpt>
      <trkpt lat="46.19028" lon="6.2509">
        <ele>456.8</ele>
        <time>2022-02-05T12:03:01Z</time>
      </trkpt>
      <trkpt lat="46.19019" lon="6.25085">
        <ele>456.4</ele>
        <time>2022-02-05T12:03:03Z</time>
      </trkpt>
      <trkpt lat="46.19009" lon="6.25082">
        <ele>456.6</ele>
        <time>2022-02-05T12:03:05Z</time>
      </trkpt>
      <trkpt lat="46.19004" lon="6.2508">
        <ele>456.6</ele>
        <time>2022-02-05T12:03:06Z</time>
      </trkpt>
      <trkpt lat="46.18993" lon="6.25075">
        <ele>456.6</ele>
        <time>2022-02-05T12:03:08Z</time>
      </trkpt>
      <trkpt lat="46.18987" lon="6.25073">
        <ele>456.6</ele>
        <time>2022-02-05T12:03:09Z</time>
      </trkpt>
      <trkpt lat="46.18982" lon="6.25071">
        <ele>456.6</ele>
        <time>2022-02-05T12:03:10Z</time>
      </trkpt>
      <trkpt lat="46.18964" lon="6.25067">
        <ele>456.8</ele>
        <time>2022-02-05T12:03:13Z</time>
      </trkpt>
      <trkpt lat="46.18958" lon="6.25066">
        <ele>456.8</ele>
        <time>2022-02-05T12:03:14Z</time>
      </trkpt>
      <trkpt lat="46.18933" lon="6.25069">
        <ele>458.2</ele>
        <time>2022-02-05T12:03:18Z</time>
      </trkpt>
      <trkpt lat="46.18927" lon="6.2507">
        <ele>458.6</ele>
        <time>2022-02-05T12:03:19Z</time>
      </trkpt>
      <trkpt lat="46.18881" lon="6.25078">
        <ele>460.4</ele>
        <time>2022-02-05T12:03:26Z</time>
      </trkpt>
      <trkpt lat="46.18821" lon="6.25082">
        <ele>462.2</ele>
        <time>2022-02-05T12:03:35Z</time>
      </trkpt>
      <trkpt lat="46.18814" lon="6.25082">
        <ele>462.2</ele>
        <time>2022-02-05T12:03:36Z</time>
      </trkpt>
      <trkpt lat="46.18759" lon="6.25092">
        <ele>463.4</ele>
        <time>2022-02-05T12:03:44Z</time>
      </trkpt>
      <trkpt lat="46.18726" lon="6.25103">
        <ele>463.8</ele>
        <time>2022-02-05T12:03:49Z</time>
      </trkpt>
      <trkpt lat="46.18707" lon="6.25112">
        <ele>464</ele>
        <time>2022-02-05T12:03:52Z</time>
      </trkpt>
      <trkpt lat="46.1867" lon="6.2513">
        <ele>464.4</ele>
        <time>2022-02-05T12:03:58Z</time>
      </trkpt>
      <trkpt lat="46.18651" lon="6.25138">
        <ele>465.6</ele>
        <time>2022-02-05T12:04:01Z</time>
      </trkpt>
      <trkpt lat="46.18638" lon="6.25143">
        <ele>466.2</ele>
        <time>2022-02-05T12:04:03Z</time>
      </trkpt>
      <trkpt lat="46.18631" lon="6.25146">
        <ele>466.4</ele>
        <time>2022-02-05T12:04:04Z</time>
      </trkpt>
      <trkpt lat="46.18612" lon="6.25154">
        <ele>466.8</ele>
        <time>2022-02-05T12:04:07Z</time>
      </trkpt>
      <trkpt lat="46.18599" lon="6.25159">
        <ele>466.8</ele>
        <time>2022-02-05T12:04:09Z</time>
      </trkpt>
      <trkpt lat="46.18583" lon="6.25164">
        <ele>467.2</ele>
        <time>2022-02-05T12:04:12Z</time>
      </trkpt>
      <trkpt lat="46.18579" lon="6.25165">
        <ele>467.6</ele>
        <time>2022-02-05T12:04:13Z</time>
      </trkpt>
      <trkpt lat="46.18539" lon="6.25174">
        <ele>469.4</ele>
        <time>2022-02-05T12:04:20Z</time>
      </trkpt>
      <trkpt lat="46.18496" lon="6.25183">
        <ele>470</ele>
        <time>2022-02-05T12:04:27Z</time>
      </trkpt>
      <trkpt lat="46.18478" lon="6.25187">
        <ele>470.4</ele>
        <time>2022-02-05T12:04:30Z</time>
      </trkpt>
      <trkpt lat="46.1846" lon="6.2519">
        <ele>470.8</ele>
        <time>2022-02-05T12:04:33Z</time>
      </trkpt>
      <trkpt lat="46.18432" lon="6.252">
        <ele>471.4</ele>
        <time>2022-02-05T12:04:38Z</time>
      </trkpt>
      <trkpt lat="46.1841" lon="6.25209">
        <ele>472.4</ele>
        <time>2022-02-05T12:04:42Z</time>
      </trkpt>
      <trkpt lat="46.18405" lon="6.25212">
        <ele>472.4</ele>
        <time>2022-02-05T12:04:43Z</time>
      </trkpt>
      <trkpt lat="46.18388" lon="6.25221">
        <ele>472.6</ele>
        <time>2022-02-05T12:04:46Z</time>
      </trkpt>
      <trkpt lat="46.18377" lon="6.25228">
        <ele>473</ele>
        <time>2022-02-05T12:04:48Z</time>
      </trkpt>
      <trkpt lat="46.18352" lon="6.25243">
        <ele>473.8</ele>
        <time>2022-02-05T12:04:53Z</time>
      </trkpt>
      <trkpt lat="46.18322" lon="6.25262">
        <ele>475</ele>
        <time>2022-02-05T12:04:59Z</time>
      </trkpt>
      <trkpt lat="46.18308" lon="6.25272">
        <ele>476</ele>
        <time>2022-02-05T12:05:02Z</time>
      </trkpt>
      <trkpt lat="46.18283" lon="6.25289">
        <ele>477</ele>
        <time>2022-02-05T12:05:07Z</time>
      </trkpt>
      <trkpt lat="46.18263" lon="6.25303">
        <ele>478</ele>
        <time>2022-02-05T12:05:11Z</time>
      </trkpt>
      <trkpt lat="46.18258" lon="6.25307">
        <ele>478.4</ele>
        <time>2022-02-05T12:05:12Z</time>
      </trkpt>
      <trkpt lat="46.18231" lon="6.25323">
        <ele>479.4</ele>
        <time>2022-02-05T12:05:17Z</time>
      </trkpt>
      <trkpt lat="46.18225" lon="6.25326">
        <ele>479.8</ele>
        <time>2022-02-05T12:05:18Z</time>
      </trkpt>
      <trkpt lat="46.18203" lon="6.25341">
        <ele>480.6</ele>
        <time>2022-02-05T12:05:22Z</time>
      </trkpt>
      <trkpt lat="46.18163" lon="6.25366">
        <ele>481.2</ele>
        <time>2022-02-05T12:05:29Z</time>
      </trkpt>
      <trkpt lat="46.18152" lon="6.25373">
        <ele>481.4</ele>
        <time>2022-02-05T12:05:31Z</time>
      </trkpt>
      <trkpt lat="46.18136" lon="6.25383">
        <ele>481.6</ele>
        <time>2022-02-05T12:05:34Z</time>
      </trkpt>
      <trkpt lat="46.18125" lon="6.2539">
        <ele>481.8</ele>
        <time>2022-02-05T12:05:36Z</time>
      </trkpt>
      <trkpt lat="46.18086" lon="6.25416">
        <ele>482.4</ele>
        <time>2022-02-05T12:05:43Z</time>
      </trkpt>
      <trkpt lat="46.18072" lon="6.25429">
        <ele>483</ele>
        <time>2022-02-05T12:05:46Z</time>
      </trkpt>
      <trkpt lat="46.18064" lon="6.25439">
        <ele>483.2</ele>
        <time>2022-02-05T12:05:48Z</time>
      </trkpt>
      <trkpt lat="46.18049" lon="6.2546">
        <ele>483.8</ele>
        <time>2022-02-05T12:05:52Z</time>
      </trkpt>
      <trkpt lat="46.18038" lon="6.25475">
        <ele>484.2</ele>
        <time>2022-02-05T12:05:55Z</time>
      </trkpt>
      <trkpt lat="46.18024" lon="6.25496">
        <ele>486</ele>
        <time>2022-02-05T12:05:59Z</time>
      </trkpt>
      <trkpt lat="46.18011" lon="6.25509">
        <ele>487.4</ele>
        <time>2022-02-05T12:06:02Z</time>
      </trkpt>
      <trkpt lat="46.17992" lon="6.25524">
        <ele>488.4</ele>
        <time>2022-02-05T12:06:06Z</time>
      </trkpt>
      <trkpt lat="46.17977" lon="6.25533">
        <ele>489.4</ele>
        <time>2022-02-05T12:06:09Z</time>
      </trkpt>
      <trkpt lat="46.17948" lon="6.25546">
        <ele>490.2</ele>
        <time>2022-02-05T12:06:14Z</time>
      </trkpt>
      <trkpt lat="46.17941" lon="6.25548">
        <ele>490.2</ele>
        <time>2022-02-05T12:06:15Z</time>
      </trkpt>
      <trkpt lat="46.17928" lon="6.25551">
        <ele>490.2</ele>
        <time>2022-02-05T12:06:17Z</time>
      </trkpt>
      <trkpt lat="46.17906" lon="6.25556">
        <ele>490.2</ele>
        <time>2022-02-05T12:06:20Z</time>
      </trkpt>
      <trkpt lat="46.17898" lon="6.25557">
        <ele>490</ele>
        <time>2022-02-05T12:06:21Z</time>
      </trkpt>
      <trkpt lat="46.17881" lon="6.25557">
        <ele>489.8</ele>
        <time>2022-02-05T12:06:23Z</time>
      </trkpt>
      <trkpt lat="46.17856" lon="6.25555">
        <ele>489.2</ele>
        <time>2022-02-05T12:06:26Z</time>
      </trkpt>
      <trkpt lat="46.17838" lon="6.25552">
        <ele>488</ele>
        <time>2022-02-05T12:06:28Z</time>
      </trkpt>
      <trkpt lat="46.17819" lon="6.25551">
        <ele>487.6</ele>
        <time>2022-02-05T12:06:30Z</time>
      </trkpt>
      <trkpt lat="46.1781" lon="6.25551">
        <ele>487</ele>
        <time>2022-02-05T12:06:31Z</time>
      </trkpt>
      <trkpt lat="46.17757" lon="6.25559">
        <ele>484.6</ele>
        <time>2022-02-05T12:06:37Z</time>
      </trkpt>
      <trkpt lat="46.1774" lon="6.25565">
        <ele>484.2</ele>
        <time>2022-02-05T12:06:39Z</time>
      </trkpt>
      <trkpt lat="46.17717" lon="6.25577">
        <ele>483.8</ele>
        <time>2022-02-05T12:06:42Z</time>
      </trkpt>
      <trkpt lat="46.17681" lon="6.25596">
        <ele>483.8</ele>
        <time>2022-02-05T12:06:47Z</time>
      </trkpt>
      <trkpt lat="46.17661" lon="6.25607">
        <ele>483.8</ele>
        <time>2022-02-05T12:06:50Z</time>
      </trkpt>
      <trkpt lat="46.17634" lon="6.25622">
        <ele>484.2</ele>
        <time>2022-02-05T12:06:54Z</time>
      </trkpt>
      <trkpt lat="46.17594" lon="6.25643">
        <ele>485.6</ele>
        <time>2022-02-05T12:07:00Z</time>
      </trkpt>
      <trkpt lat="46.17587" lon="6.25647">
        <ele>486</ele>
        <time>2022-02-05T12:07:01Z</time>
      </trkpt>
      <trkpt lat="46.17556" lon="6.25664">
        <ele>486.8</ele>
        <time>2022-02-05T12:07:06Z</time>
      </trkpt>
      <trkpt lat="46.17544" lon="6.25673">
        <ele>487.2</ele>
        <time>2022-02-05T12:07:08Z</time>
      </trkpt>
      <trkpt lat="46.17533" lon="6.25682">
        <ele>487.8</ele>
        <time>2022-02-05T12:07:10Z</time>
      </trkpt>
      <trkpt lat="46.17514" lon="6.25699">
        <ele>488.6</ele>
        <time>2022-02-05T12:07:14Z</time>
      </trkpt>
      <trkpt lat="46.17509" lon="6.25702">
        <ele>489.2</ele>
        <time>2022-02-05T12:07:15Z</time>
      </trkpt>
      <trkpt lat="46.17496" lon="6.25714">
        <ele>490</ele>
        <time>2022-02-05T12:07:18Z</time>
      </trkpt>
      <trkpt lat="46.17484" lon="6.25725">
        <ele>490.8</ele>
        <time>2022-02-05T12:07:21Z</time>
      </trkpt>
      <trkpt lat="46.17476" lon="6.25732">
        <ele>491.4</ele>
        <time>2022-02-05T12:07:23Z</time>
      </trkpt>
      <trkpt lat="46.17467" lon="6.25739">
        <ele>492.2</ele>
        <time>2022-02-05T12:07:25Z</time>
      </trkpt>
      <trkpt lat="46.17454" lon="6.25751">
        <ele>493.4</ele>
        <time>2022-02-05T12:07:28Z</time>
      </trkpt>
      <trkpt lat="46.17442" lon="6.25763">
        <ele>494</ele>
        <time>2022-02-05T12:07:31Z</time>
      </trkpt>
      <trkpt lat="46.17438" lon="6.25768">
        <ele>494.6</ele>
        <time>2022-02-05T12:07:32Z</time>
      </trkpt>
      <trkpt lat="46.17435" lon="6.25773">
        <ele>494.8</ele>
        <time>2022-02-05T12:07:33Z</time>
      </trkpt>
      <trkpt lat="46.17431" lon="6.25784">
        <ele>495.4</ele>
        <time>2022-02-05T12:07:35Z</time>
      </trkpt>
      <trkpt lat="46.1743" lon="6.25788">
        <ele>495.8</ele>
        <time>2022-02-05T12:07:36Z</time>
      </trkpt>
      <trkpt lat="46.17428" lon="6.25792">
        <ele>496.2</ele>
        <time>2022-02-05T12:07:37Z</time>
      </trkpt>
      <trkpt lat="46.17422" lon="6.25802">
        <ele>497.4</ele>
        <time>2022-02-05T12:07:40Z</time>
      </trkpt>
      <trkpt lat="46.17419" lon="6.25824">
        <ele>498.6</ele>
        <time>2022-02-05T12:07:45Z</time>
      </trkpt>
      <trkpt lat="46.1742" lon="6.2584">
        <ele>498.8</ele>
        <time>2022-02-05T12:07:49Z</time>
      </trkpt>
      <trkpt lat="46.17422" lon="6.25842">
        <ele>498.8</ele>
        <time>2022-02-05T12:07:50Z</time>
      </trkpt>
      <trkpt lat="46.17426" lon="6.25835">
        <ele>499</ele>
        <time>2022-02-05T12:07:53Z</time>
      </trkpt>
      <trkpt lat="46.17428" lon="6.2582">
        <ele>499.2</ele>
        <time>2022-02-05T12:07:57Z</time>
      </trkpt>
      <trkpt lat="46.1743" lon="6.25819">
        <ele>499.4</ele>
        <time>2022-02-05T12:07:58Z</time>
      </trkpt>
      <trkpt lat="46.17432" lon="6.25823">
        <ele>499.4</ele>
        <time>2022-02-05T12:08:00Z</time>
      </trkpt>
      <trkpt lat="46.17432" lon="6.25829">
        <ele>499.6</ele>
        <time>2022-02-05T12:08:02Z</time>
      </trkpt>
      <trkpt lat="46.17433" lon="6.25834">
        <ele>499.6</ele>
        <time>2022-02-05T12:08:04Z</time>
      </trkpt>
      <trkpt lat="46.17435" lon="6.25834">
        <ele>499.6</ele>
        <time>2022-02-05T12:08:05Z</time>
      </trkpt>
      <trkpt lat="46.17435" lon="6.25835">
        <ele>499.8</ele>
        <time>2022-02-05T12:08:11Z</time>
      </trkpt>
      <trkpt lat="46.17436" lon="6.25835">
        <ele>500.2</ele>
        <time>2022-02-05T12:08:19Z</time>
      </trkpt>
      <trkpt lat="46.17437" lon="6.25835">
        <ele>500.2</ele>
        <time>2022-02-05T12:08:26Z</time>
      </trkpt>
      <trkpt lat="46.17437" lon="6.25835">
        <ele>500</ele>
        <time>2022-02-05T12:08:30Z</time>
      </trkpt>
      <trkpt lat="46.17436" lon="6.25836">
        <ele>500</ele>
        <time>2022-02-05T12:08:43Z</time>
      </trkpt>
      <trkpt lat="46.17436" lon="6.25836">
        <ele>500</ele>
        <time>2022-02-05T12:08:55Z</time>
      </trkpt>
      <trkpt lat="46.17437" lon="6.25836">
        <ele>500</ele>
        <time>2022-02-05T12:09:16Z</time>
      </trkpt>
      <trkpt lat="46.17437" lon="6.25836">
        <ele>500</ele>
        <time>2022-02-05T12:09:44Z</time>
      </trkpt>
      <trkpt lat="46.17437" lon="6.25837">
        <ele>499.8</ele>
        <time>2022-02-05T12:11:08Z</time>
      </trkpt>
      <trkpt lat="46.17435" lon="6.25838">
        <ele>499.8</ele>
        <time>2022-02-05T12:12:12Z</time>
      </trkpt>
      <trkpt lat="46.17435" lon="6.25839">
        <ele>499.8</ele>
        <time>2022-02-05T12:12:30Z</time>
      </trkpt>
      <trkpt lat="46.17435" lon="6.25839">
        <ele>499.6</ele>
        <time>2022-02-05T12:12:41Z</time>
      </trkpt>
      <trkpt lat="46.17435" lon="6.2584">
        <ele>499.6</ele>
        <time>2022-02-05T12:13:05Z</time>
      </trkpt>
      <trkpt lat="46.17435" lon="6.2584">
        <ele>499.6</ele>
        <time>2022-02-05T12:13:09Z</time>
      </trkpt>
      <trkpt lat="46.17434" lon="6.25841">
        <ele>500</ele>
        <time>2022-02-05T12:13:38Z</time>
      </trkpt>
      <trkpt lat="46.17434" lon="6.25841">
        <ele>499.4</ele>
        <time>2022-02-05T12:14:08Z</time>
      </trkpt>
      <trkpt lat="46.17434" lon="6.25841">
        <ele>499.4</ele>
        <time>2022-02-05T12:14:12Z</time>
      </trkpt>
      <trkpt lat="46.17434" lon="6.25842">
        <ele>499.4</ele>
        <time>2022-02-05T12:14:51Z</time>
      </trkpt>
      <trkpt lat="46.17434" lon="6.25842">
        <ele>499.6</ele>
        <time>2022-02-05T12:15:18Z</time>
      </trkpt>
      <trkpt lat="46.17433" lon="6.25842">
        <ele>499.4</ele>
        <time>2022-02-05T12:15:28Z</time>
      </trkpt>
      <trkpt lat="46.17433" lon="6.25842">
        <ele>499</ele>
        <time>2022-02-05T12:15:41Z</time>
      </trkpt>
      <trkpt lat="46.17433" lon="6.25842">
        <ele>499</ele>
        <time>2022-02-05T12:15:44Z</time>
      </trkpt>
      <trkpt lat="46.17433" lon="6.25843">
        <ele>499.6</ele>
        <time>2022-02-05T12:16:02Z</time>
      </trkpt>
      <trkpt lat="46.17433" lon="6.25843">
        <ele>499.6</ele>
        <time>2022-02-05T12:16:08Z</time>
      </trkpt>
      <trkpt lat="46.17432" lon="6.25844">
        <ele>499.6</ele>
        <time>2022-02-05T12:16:56Z</time>
      </trkpt>
      <trkpt lat="46.17431" lon="6.25846">
        <ele>499.8</ele>
        <time>2022-02-05T12:18:15Z</time>
      </trkpt>
      <trkpt lat="46.17431" lon="6.25846">
        <ele>499.8</ele>
        <time>2022-02-05T12:18:18Z</time>
      </trkpt>
      <trkpt lat="46.17431" lon="6.25847">
        <ele>499.6</ele>
        <time>2022-02-05T12:19:04Z</time>
      </trkpt>
      <trkpt lat="46.17433" lon="6.25847">
        <ele>499.6</ele>
        <time>2022-02-05T12:19:13Z</time>
      </trkpt>
      <trkpt lat="46.17431" lon="6.2585">
        <ele>499.6</ele>
        <time>2022-02-05T12:19:18Z</time>
      </trkpt>
      <trkpt lat="46.17429" lon="6.25847">
        <ele>499.6</ele>
        <time>2022-02-05T12:19:20Z</time>
      </trkpt>
      <trkpt lat="46.17429" lon="6.25833">
        <ele>499.6</ele>
        <time>2022-02-05T12:19:26Z</time>
      </trkpt>
      <trkpt lat="46.17428" lon="6.25831">
        <ele>499.6</ele>
        <time>2022-02-05T12:19:28Z</time>
      </trkpt>
      <trkpt lat="46.17428" lon="6.25834">
        <ele>499.6</ele>
        <time>2022-02-05T12:19:30Z</time>
      </trkpt>
      <trkpt lat="46.17428" lon="6.25838">
        <ele>499.6</ele>
        <time>2022-02-05T12:19:32Z</time>
      </trkpt>
      <trkpt lat="46.17431" lon="6.2584">
        <ele>499.4</ele>
        <time>2022-02-05T12:19:35Z</time>
      </trkpt>
      <trkpt lat="46.17432" lon="6.25843">
        <ele>499.4</ele>
        <time>2022-02-05T12:19:40Z</time>
      </trkpt>
      <trkpt lat="46.17432" lon="6.25847">
        <ele>499.4</ele>
        <time>2022-02-05T12:19:49Z</time>
      </trkpt>
      <trkpt lat="46.17432" lon="6.25848">
        <ele>499.6</ele>
        <time>2022-02-05T12:19:59Z</time>
      </trkpt>
      <trkpt lat="46.17432" lon="6.25848">
        <ele>499.4</ele>
        <time>2022-02-05T12:20:07Z</time>
      </trkpt>
      <trkpt lat="46.17432" lon="6.25848">
        <ele>499.6</ele>
        <time>2022-02-05T12:20:17Z</time>
      </trkpt>
      <trkpt lat="46.17432" lon="6.25848">
        <ele>499.6</ele>
        <time>2022-02-05T12:20:26Z</time>
      </trkpt>
      <trkpt lat="46.17433" lon="6.25848">
        <ele>499.8</ele>
        <time>2022-02-05T12:20:34Z</time>
      </trkpt>
      <trkpt lat="46.17433" lon="6.25848">
        <ele>499.6</ele>
        <time>2022-02-05T12:20:43Z</time>
      </trkpt>
      <trkpt lat="46.17433" lon="6.25847">
        <ele>499.8</ele>
        <time>2022-02-05T12:20:49Z</time>
      </trkpt>
      <trkpt lat="46.17433" lon="6.25847">
        <ele>499.8</ele>
        <time>2022-02-05T12:20:58Z</time>
      </trkpt>
      <trkpt lat="46.17433" lon="6.25847">
        <ele>499.4</ele>
        <time>2022-02-05T12:21:12Z</time>
      </trkpt>
      <trkpt lat="46.17433" lon="6.25847">
        <ele>499.4</ele>
        <time>2022-02-05T12:21:28Z</time>
      </trkpt>
      <trkpt lat="46.17433" lon="6.25847">
        <ele>499.4</ele>
        <time>2022-02-05T12:21:45Z</time>
      </trkpt>
      <trkpt lat="46.17434" lon="6.25847">
        <ele>499.2</ele>
        <time>2022-02-05T12:21:54Z</time>
      </trkpt>
      <trkpt lat="46.17434" lon="6.25848">
        <ele>499.2</ele>
        <time>2022-02-05T12:22:06Z</time>
      </trkpt>
      <trkpt lat="46.17434" lon="6.25848">
        <ele>499.4</ele>
        <time>2022-02-05T12:22:19Z</time>
      </trkpt>
      <trkpt lat="46.17433" lon="6.25848">
        <ele>499</ele>
        <time>2022-02-05T12:22:31Z</time>
      </trkpt>
      <trkpt lat="46.17433" lon="6.25849">
        <ele>499</ele>
        <time>2022-02-05T12:22:36Z</time>
      </trkpt>
      <trkpt lat="46.17433" lon="6.25849">
        <ele>499.2</ele>
        <time>2022-02-05T12:22:49Z</time>
      </trkpt>
      <trkpt lat="46.17433" lon="6.25849">
        <ele>499.6</ele>
        <time>2022-02-05T12:23:34Z</time>
      </trkpt>
      <trkpt lat="46.17433" lon="6.2585">
        <ele>499.6</ele>
        <time>2022-02-05T12:23:42Z</time>
      </trkpt>
      <trkpt lat="46.17433" lon="6.2585">
        <ele>499.2</ele>
        <time>2022-02-05T12:23:51Z</time>
      </trkpt>
      <trkpt lat="46.17433" lon="6.2585">
        <ele>499.2</ele>
        <time>2022-02-05T12:24:02Z</time>
      </trkpt>
      <trkpt lat="46.17433" lon="6.2585">
        <ele>499.2</ele>
        <time>2022-02-05T12:24:18Z</time>
      </trkpt>
      <trkpt lat="46.17433" lon="6.25849">
        <ele>499.6</ele>
        <time>2022-02-05T12:24:37Z</time>
      </trkpt>
      <trkpt lat="46.17433" lon="6.25849">
        <ele>499.4</ele>
        <time>2022-02-05T12:24:51Z</time>
      </trkpt>
      <trkpt lat="46.17433" lon="6.25848">
        <ele>499.4</ele>
        <time>2022-02-05T12:25:09Z</time>
      </trkpt>
      <trkpt lat="46.17433" lon="6.25849">
        <ele>499.2</ele>
        <time>2022-02-05T12:25:25Z</time>
      </trkpt>
      <trkpt lat="46.17433" lon="6.25849">
        <ele>499.2</ele>
        <time>2022-02-05T12:25:37Z</time>
      </trkpt>
      <trkpt lat="46.17433" lon="6.25849">
        <ele>499.2</ele>
        <time>2022-02-05T12:25:40Z</time>
      </trkpt>
      <trkpt lat="46.17433" lon="6.25848">
        <ele>499.2</ele>
        <time>2022-02-05T12:25:58Z</time>
      </trkpt>
      <trkpt lat="46.17433" lon="6.25848">
        <ele>499.2</ele>
        <time>2022-02-05T12:26:19Z</time>
      </trkpt>
      <trkpt lat="46.17433" lon="6.25848">
        <ele>499.2</ele>
        <time>2022-02-05T12:26:41Z</time>
      </trkpt>
      <trkpt lat="46.17433" lon="6.25849">
        <ele>499.4</ele>
        <time>2022-02-05T12:27:28Z</time>
      </trkpt>
      <trkpt lat="46.17433" lon="6.2585">
        <ele>499.4</ele>
        <time>2022-02-05T12:27:44Z</time>
      </trkpt>
      <trkpt lat="46.17433" lon="6.2585">
        <ele>499.4</ele>
        <time>2022-02-05T12:27:59Z</time>
      </trkpt>
      <trkpt lat="46.17433" lon="6.2585">
        <ele>499.4</ele>
        <time>2022-02-05T12:28:16Z</time>
      </trkpt>
      <trkpt lat="46.17432" lon="6.25851">
        <ele>499.4</ele>
        <time>2022-02-05T12:28:34Z</time>
      </trkpt>
      <trkpt lat="46.17432" lon="6.25852">
        <ele>499.2</ele>
        <time>2022-02-05T12:29:04Z</time>
      </trkpt>
      <trkpt lat="46.17432" lon="6.25853">
        <ele>499.2</ele>
        <time>2022-02-05T12:29:50Z</time>
      </trkpt>
      <trkpt lat="46.17433" lon="6.25854">
        <ele>499.2</ele>
        <time>2022-02-05T12:30:03Z</time>
      </trkpt>
      <trkpt lat="46.17432" lon="6.25857">
        <ele>499.2</ele>
        <time>2022-02-05T12:30:12Z</time>
      </trkpt>
      <trkpt lat="46.17434" lon="6.25869">
        <ele>499.2</ele>
        <time>2022-02-05T12:30:17Z</time>
      </trkpt>
      <trkpt lat="46.17435" lon="6.25872">
        <ele>499.2</ele>
        <time>2022-02-05T12:30:19Z</time>
      </trkpt>
      <trkpt lat="46.17432" lon="6.25876">
        <ele>499.2</ele>
        <time>2022-02-05T12:30:21Z</time>
      </trkpt>
      <trkpt lat="46.17428" lon="6.25877">
        <ele>499.2</ele>
        <time>2022-02-05T12:30:22Z</time>
      </trkpt>
      <trkpt lat="46.17423" lon="6.25886">
        <ele>499.2</ele>
        <time>2022-02-05T12:30:24Z</time>
      </trkpt>
      <trkpt lat="46.17421" lon="6.25906">
        <ele>499</ele>
        <time>2022-02-05T12:30:27Z</time>
      </trkpt>
      <trkpt lat="46.17424" lon="6.25964">
        <ele>498</ele>
        <time>2022-02-05T12:30:35Z</time>
      </trkpt>
      <trkpt lat="46.17427" lon="6.26003">
        <ele>498</ele>
        <time>2022-02-05T12:30:41Z</time>
      </trkpt>
      <trkpt lat="46.17427" lon="6.2601">
        <ele>498</ele>
        <time>2022-02-05T12:30:42Z</time>
      </trkpt>
      <trkpt lat="46.17427" lon="6.26039">
        <ele>498.2</ele>
        <time>2022-02-05T12:30:46Z</time>
      </trkpt>
      <trkpt lat="46.17428" lon="6.26053">
        <ele>498.2</ele>
        <time>2022-02-05T12:30:48Z</time>
      </trkpt>
      <trkpt lat="46.17428" lon="6.2606">
        <ele>498.4</ele>
        <time>2022-02-05T12:30:49Z</time>
      </trkpt>
      <trkpt lat="46.17424" lon="6.26104">
        <ele>498.4</ele>
        <time>2022-02-05T12:30:55Z</time>
      </trkpt>
      <trkpt lat="46.17424" lon="6.26112">
        <ele>498.6</ele>
        <time>2022-02-05T12:30:56Z</time>
      </trkpt>
      <trkpt lat="46.17425" lon="6.26175">
        <ele>499.2</ele>
        <time>2022-02-05T12:31:04Z</time>
      </trkpt>
      <trkpt lat="46.17424" lon="6.26183">
        <ele>499</ele>
        <time>2022-02-05T12:31:05Z</time>
      </trkpt>
      <trkpt lat="46.17422" lon="6.26208">
        <ele>499.2</ele>
        <time>2022-02-05T12:31:08Z</time>
      </trkpt>
      <trkpt lat="46.17421" lon="6.26214">
        <ele>499.4</ele>
        <time>2022-02-05T12:31:09Z</time>
      </trkpt>
      <trkpt lat="46.17417" lon="6.26228">
        <ele>498.8</ele>
        <time>2022-02-05T12:31:13Z</time>
      </trkpt>
      <trkpt lat="46.17414" lon="6.26241">
        <ele>500</ele>
        <time>2022-02-05T12:31:16Z</time>
      </trkpt>
      <trkpt lat="46.17413" lon="6.26279">
        <ele>500.2</ele>
        <time>2022-02-05T12:31:22Z</time>
      </trkpt>
      <trkpt lat="46.17403" lon="6.26315">
        <ele>500.4</ele>
        <time>2022-02-05T12:31:27Z</time>
      </trkpt>
      <trkpt lat="46.17394" lon="6.26351">
        <ele>500.2</ele>
        <time>2022-02-05T12:31:31Z</time>
      </trkpt>
      <trkpt lat="46.17386" lon="6.26379">
        <ele>500.2</ele>
        <time>2022-02-05T12:31:34Z</time>
      </trkpt>
      <trkpt lat="46.17373" lon="6.26429">
        <ele>500</ele>
        <time>2022-02-05T12:31:39Z</time>
      </trkpt>
      <trkpt lat="46.1737" lon="6.26439">
        <ele>499.8</ele>
        <time>2022-02-05T12:31:40Z</time>
      </trkpt>
      <trkpt lat="46.17367" lon="6.2645">
        <ele>499.6</ele>
        <time>2022-02-05T12:31:41Z</time>
      </trkpt>
      <trkpt lat="46.17358" lon="6.26481">
        <ele>499.2</ele>
        <time>2022-02-05T12:31:44Z</time>
      </trkpt>
      <trkpt lat="46.17351" lon="6.2651">
        <ele>498.8</ele>
        <time>2022-02-05T12:31:47Z</time>
      </trkpt>
      <trkpt lat="46.17338" lon="6.26564">
        <ele>497.2</ele>
        <time>2022-02-05T12:31:53Z</time>
      </trkpt>
      <trkpt lat="46.17337" lon="6.26573">
        <ele>497</ele>
        <time>2022-02-05T12:31:54Z</time>
      </trkpt>
      <trkpt lat="46.1733" lon="6.26615">
        <ele>497.2</ele>
        <time>2022-02-05T12:31:59Z</time>
      </trkpt>
      <trkpt lat="46.17326" lon="6.26639">
        <ele>497</ele>
        <time>2022-02-05T12:32:02Z</time>
      </trkpt>
      <trkpt lat="46.17323" lon="6.26655">
        <ele>497.2</ele>
        <time>2022-02-05T12:32:04Z</time>
      </trkpt>
      <trkpt lat="46.17314" lon="6.26696">
        <ele>498.6</ele>
        <time>2022-02-05T12:32:09Z</time>
      </trkpt>
      <trkpt lat="46.17311" lon="6.26707">
        <ele>499.4</ele>
        <time>2022-02-05T12:32:11Z</time>
      </trkpt>
      <trkpt lat="46.17309" lon="6.26708">
        <ele>499.8</ele>
        <time>2022-02-05T12:32:12Z</time>
      </trkpt>
      <trkpt lat="46.17307" lon="6.26707">
        <ele>500.4</ele>
        <time>2022-02-05T12:32:13Z</time>
      </trkpt>
      <trkpt lat="46.17305" lon="6.26704">
        <ele>500.8</ele>
        <time>2022-02-05T12:32:14Z</time>
      </trkpt>
      <trkpt lat="46.17303" lon="6.267">
        <ele>500.8</ele>
        <time>2022-02-05T12:32:15Z</time>
      </trkpt>
      <trkpt lat="46.17296" lon="6.26672">
        <ele>501.2</ele>
        <time>2022-02-05T12:32:19Z</time>
      </trkpt>
      <trkpt lat="46.17282" lon="6.26631">
        <ele>501.8</ele>
        <time>2022-02-05T12:32:24Z</time>
      </trkpt>
      <trkpt lat="46.17276" lon="6.26613">
        <ele>501.6</ele>
        <time>2022-02-05T12:32:26Z</time>
      </trkpt>
      <trkpt lat="46.17249" lon="6.26538">
        <ele>500.4</ele>
        <time>2022-02-05T12:32:34Z</time>
      </trkpt>
      <trkpt lat="46.17225" lon="6.26467">
        <ele>499.6</ele>
        <time>2022-02-05T12:32:41Z</time>
      </trkpt>
      <trkpt lat="46.17208" lon="6.26414">
        <ele>499</ele>
        <time>2022-02-05T12:32:47Z</time>
      </trkpt>
      <trkpt lat="46.17203" lon="6.26409">
        <ele>499</ele>
        <time>2022-02-05T12:32:48Z</time>
      </trkpt>
      <trkpt lat="46.17198" lon="6.26406">
        <ele>499</ele>
        <time>2022-02-05T12:32:49Z</time>
      </trkpt>
      <trkpt lat="46.17187" lon="6.26407">
        <ele>498.8</ele>
        <time>2022-02-05T12:32:51Z</time>
      </trkpt>
      <trkpt lat="46.17174" lon="6.26408">
        <ele>498.8</ele>
        <time>2022-02-05T12:32:53Z</time>
      </trkpt>
      <trkpt lat="46.1716" lon="6.26409">
        <ele>498.8</ele>
        <time>2022-02-05T12:32:55Z</time>
      </trkpt>
      <trkpt lat="46.17153" lon="6.26409">
        <ele>498.8</ele>
        <time>2022-02-05T12:32:56Z</time>
      </trkpt>
      <trkpt lat="46.17139" lon="6.2641">
        <ele>498.8</ele>
        <time>2022-02-05T12:32:58Z</time>
      </trkpt>
      <trkpt lat="46.17098" lon="6.26411">
        <ele>499</ele>
        <time>2022-02-05T12:33:04Z</time>
      </trkpt>
      <trkpt lat="46.17082" lon="6.2641">
        <ele>499</ele>
        <time>2022-02-05T12:33:08Z</time>
      </trkpt>
      <trkpt lat="46.17075" lon="6.26417">
        <ele>499</ele>
        <time>2022-02-05T12:33:10Z</time>
      </trkpt>
      <trkpt lat="46.17071" lon="6.26424">
        <ele>498.8</ele>
        <time>2022-02-05T12:33:11Z</time>
      </trkpt>
      <trkpt lat="46.17057" lon="6.26447">
        <ele>498.6</ele>
        <time>2022-02-05T12:33:14Z</time>
      </trkpt>
      <trkpt lat="46.17047" lon="6.26465">
        <ele>498.4</ele>
        <time>2022-02-05T12:33:16Z</time>
      </trkpt>
      <trkpt lat="46.17042" lon="6.26475">
        <ele>498.2</ele>
        <time>2022-02-05T12:33:17Z</time>
      </trkpt>
      <trkpt lat="46.17036" lon="6.26484">
        <ele>498</ele>
        <time>2022-02-05T12:33:18Z</time>
      </trkpt>
      <trkpt lat="46.17031" lon="6.26495">
        <ele>497.6</ele>
        <time>2022-02-05T12:33:19Z</time>
      </trkpt>
      <trkpt lat="46.17025" lon="6.26506">
        <ele>497.2</ele>
        <time>2022-02-05T12:33:20Z</time>
      </trkpt>
      <trkpt lat="46.17018" lon="6.26517">
        <ele>496.6</ele>
        <time>2022-02-05T12:33:21Z</time>
      </trkpt>
      <trkpt lat="46.17012" lon="6.26528">
        <ele>496.6</ele>
        <time>2022-02-05T12:33:22Z</time>
      </trkpt>
      <trkpt lat="46.16997" lon="6.26553">
        <ele>495.6</ele>
        <time>2022-02-05T12:33:24Z</time>
      </trkpt>
      <trkpt lat="46.16989" lon="6.26565">
        <ele>495.2</ele>
        <time>2022-02-05T12:33:25Z</time>
      </trkpt>
      <trkpt lat="46.16967" lon="6.26602">
        <ele>492.2</ele>
        <time>2022-02-05T12:33:28Z</time>
      </trkpt>
      <trkpt lat="46.1696" lon="6.26613">
        <ele>491.2</ele>
        <time>2022-02-05T12:33:29Z</time>
      </trkpt>
      <trkpt lat="46.16934" lon="6.26657">
        <ele>487.2</ele>
        <time>2022-02-05T12:33:33Z</time>
      </trkpt>
      <trkpt lat="46.16908" lon="6.26713">
        <ele>485.2</ele>
        <time>2022-02-05T12:33:38Z</time>
      </trkpt>
      <trkpt lat="46.16905" lon="6.26726">
        <ele>485</ele>
        <time>2022-02-05T12:33:39Z</time>
      </trkpt>
      <trkpt lat="46.16901" lon="6.26752">
        <ele>484.8</ele>
        <time>2022-02-05T12:33:41Z</time>
      </trkpt>
      <trkpt lat="46.16892" lon="6.26817">
        <ele>484.6</ele>
        <time>2022-02-05T12:33:46Z</time>
      </trkpt>
      <trkpt lat="46.16888" lon="6.26829">
        <ele>484.6</ele>
        <time>2022-02-05T12:33:47Z</time>
      </trkpt>
      <trkpt lat="46.16872" lon="6.26862">
        <ele>484.6</ele>
        <time>2022-02-05T12:33:50Z</time>
      </trkpt>
      <trkpt lat="46.16865" lon="6.26872">
        <ele>484.6</ele>
        <time>2022-02-05T12:33:51Z</time>
      </trkpt>
      <trkpt lat="46.16849" lon="6.2689">
        <ele>484.4</ele>
        <time>2022-02-05T12:33:53Z</time>
      </trkpt>
      <trkpt lat="46.1684" lon="6.26897">
        <ele>484.4</ele>
        <time>2022-02-05T12:33:54Z</time>
      </trkpt>
      <trkpt lat="46.16822" lon="6.26909">
        <ele>484</ele>
        <time>2022-02-05T12:33:56Z</time>
      </trkpt>
      <trkpt lat="46.16803" lon="6.26921">
        <ele>483.4</ele>
        <time>2022-02-05T12:33:58Z</time>
      </trkpt>
      <trkpt lat="46.16783" lon="6.26935">
        <ele>482.2</ele>
        <time>2022-02-05T12:34:00Z</time>
      </trkpt>
      <trkpt lat="46.16764" lon="6.26951">
        <ele>481</ele>
        <time>2022-02-05T12:34:02Z</time>
      </trkpt>
      <trkpt lat="46.16747" lon="6.2697">
        <ele>480</ele>
        <time>2022-02-05T12:34:04Z</time>
      </trkpt>
      <trkpt lat="46.16731" lon="6.26988">
        <ele>478.8</ele>
        <time>2022-02-05T12:34:06Z</time>
      </trkpt>
      <trkpt lat="46.16724" lon="6.27">
        <ele>477.8</ele>
        <time>2022-02-05T12:34:07Z</time>
      </trkpt>
      <trkpt lat="46.16714" lon="6.27023">
        <ele>476</ele>
        <time>2022-02-05T12:34:09Z</time>
      </trkpt>
      <trkpt lat="46.16714" lon="6.27035">
        <ele>475.2</ele>
        <time>2022-02-05T12:34:10Z</time>
      </trkpt>
      <trkpt lat="46.16716" lon="6.2705">
        <ele>475.2</ele>
        <time>2022-02-05T12:34:11Z</time>
      </trkpt>
      <trkpt lat="46.16721" lon="6.27062">
        <ele>474.4</ele>
        <time>2022-02-05T12:34:12Z</time>
      </trkpt>
      <trkpt lat="46.16727" lon="6.27074">
        <ele>473.4</ele>
        <time>2022-02-05T12:34:13Z</time>
      </trkpt>
      <trkpt lat="46.16741" lon="6.27095">
        <ele>471.6</ele>
        <time>2022-02-05T12:34:15Z</time>
      </trkpt>
      <trkpt lat="46.16749" lon="6.27104">
        <ele>470.8</ele>
        <time>2022-02-05T12:34:16Z</time>
      </trkpt>
      <trkpt lat="46.16759" lon="6.27113">
        <ele>469.8</ele>
        <time>2022-02-05T12:34:17Z</time>
      </trkpt>
      <trkpt lat="46.16767" lon="6.27121">
        <ele>469.2</ele>
        <time>2022-02-05T12:34:18Z</time>
      </trkpt>
      <trkpt lat="46.16776" lon="6.27126">
        <ele>468.4</ele>
        <time>2022-02-05T12:34:19Z</time>
      </trkpt>
      <trkpt lat="46.16784" lon="6.27129">
        <ele>467.2</ele>
        <time>2022-02-05T12:34:20Z</time>
      </trkpt>
      <trkpt lat="46.16798" lon="6.27132">
        <ele>465.2</ele>
        <time>2022-02-05T12:34:22Z</time>
      </trkpt>
      <trkpt lat="46.16802" lon="6.27133">
        <ele>464.4</ele>
        <time>2022-02-05T12:34:23Z</time>
      </trkpt>
      <trkpt lat="46.16816" lon="6.27141">
        <ele>461.6</ele>
        <time>2022-02-05T12:34:26Z</time>
      </trkpt>
      <trkpt lat="46.16822" lon="6.27143">
        <ele>460.6</ele>
        <time>2022-02-05T12:34:27Z</time>
      </trkpt>
      <trkpt lat="46.16833" lon="6.27147">
        <ele>459.2</ele>
        <time>2022-02-05T12:34:29Z</time>
      </trkpt>
      <trkpt lat="46.16839" lon="6.27151">
        <ele>458.8</ele>
        <time>2022-02-05T12:34:30Z</time>
      </trkpt>
      <trkpt lat="46.16844" lon="6.27155">
        <ele>458.6</ele>
        <time>2022-02-05T12:34:31Z</time>
      </trkpt>
      <trkpt lat="46.16851" lon="6.27167">
        <ele>458.6</ele>
        <time>2022-02-05T12:34:33Z</time>
      </trkpt>
      <trkpt lat="46.16852" lon="6.27184">
        <ele>458.6</ele>
        <time>2022-02-05T12:34:35Z</time>
      </trkpt>
      <trkpt lat="46.16851" lon="6.27194">
        <ele>458.6</ele>
        <time>2022-02-05T12:34:36Z</time>
      </trkpt>
      <trkpt lat="46.16841" lon="6.27267">
        <ele>459</ele>
        <time>2022-02-05T12:34:43Z</time>
      </trkpt>
      <trkpt lat="46.16833" lon="6.27319">
        <ele>459</ele>
        <time>2022-02-05T12:34:48Z</time>
      </trkpt>
      <trkpt lat="46.16827" lon="6.27336">
        <ele>459.2</ele>
        <time>2022-02-05T12:34:50Z</time>
      </trkpt>
      <trkpt lat="46.16819" lon="6.27351">
        <ele>459.2</ele>
        <time>2022-02-05T12:34:52Z</time>
      </trkpt>
      <trkpt lat="46.1681" lon="6.27362">
        <ele>459</ele>
        <time>2022-02-05T12:34:54Z</time>
      </trkpt>
      <trkpt lat="46.16804" lon="6.27366">
        <ele>459.2</ele>
        <time>2022-02-05T12:34:55Z</time>
      </trkpt>
      <trkpt lat="46.16799" lon="6.27369">
        <ele>459.4</ele>
        <time>2022-02-05T12:34:56Z</time>
      </trkpt>
      <trkpt lat="46.16788" lon="6.27372">
        <ele>459.4</ele>
        <time>2022-02-05T12:34:58Z</time>
      </trkpt>
      <trkpt lat="46.16783" lon="6.27373">
        <ele>459.4</ele>
        <time>2022-02-05T12:34:59Z</time>
      </trkpt>
      <trkpt lat="46.16777" lon="6.27373">
        <ele>459.8</ele>
        <time>2022-02-05T12:35:00Z</time>
      </trkpt>
      <trkpt lat="46.1676" lon="6.27371">
        <ele>461</ele>
        <time>2022-02-05T12:35:03Z</time>
      </trkpt>
      <trkpt lat="46.16754" lon="6.2737">
        <ele>461.6</ele>
        <time>2022-02-05T12:35:04Z</time>
      </trkpt>
      <trkpt lat="46.16726" lon="6.27363">
        <ele>462.8</ele>
        <time>2022-02-05T12:35:09Z</time>
      </trkpt>
      <trkpt lat="46.16704" lon="6.27358">
        <ele>464</ele>
        <time>2022-02-05T12:35:13Z</time>
      </trkpt>
      <trkpt lat="46.16698" lon="6.27357">
        <ele>464</ele>
        <time>2022-02-05T12:35:14Z</time>
      </trkpt>
      <trkpt lat="46.16665" lon="6.27348">
        <ele>465.4</ele>
        <time>2022-02-05T12:35:20Z</time>
      </trkpt>
      <trkpt lat="46.1666" lon="6.27346">
        <ele>465.6</ele>
        <time>2022-02-05T12:35:21Z</time>
      </trkpt>
      <trkpt lat="46.16655" lon="6.27344">
        <ele>465.8</ele>
        <time>2022-02-05T12:35:22Z</time>
      </trkpt>
      <trkpt lat="46.1663" lon="6.27332">
        <ele>466.8</ele>
        <time>2022-02-05T12:35:27Z</time>
      </trkpt>
      <trkpt lat="46.16621" lon="6.27325">
        <ele>467.2</ele>
        <time>2022-02-05T12:35:29Z</time>
      </trkpt>
      <trkpt lat="46.16612" lon="6.27317">
        <ele>467.6</ele>
        <time>2022-02-05T12:35:31Z</time>
      </trkpt>
      <trkpt lat="46.16603" lon="6.27307">
        <ele>468</ele>
        <time>2022-02-05T12:35:33Z</time>
      </trkpt>
      <trkpt lat="46.16594" lon="6.27297">
        <ele>468.6</ele>
        <time>2022-02-05T12:35:35Z</time>
      </trkpt>
      <trkpt lat="46.16584" lon="6.27288">
        <ele>469.2</ele>
        <time>2022-02-05T12:35:37Z</time>
      </trkpt>
      <trkpt lat="46.16574" lon="6.27281">
        <ele>469.6</ele>
        <time>2022-02-05T12:35:39Z</time>
      </trkpt>
      <trkpt lat="46.16569" lon="6.27277">
        <ele>470</ele>
        <time>2022-02-05T12:35:40Z</time>
      </trkpt>
      <trkpt lat="46.16549" lon="6.27265">
        <ele>471.4</ele>
        <time>2022-02-05T12:35:44Z</time>
      </trkpt>
      <trkpt lat="46.16543" lon="6.27263">
        <ele>471.8</ele>
        <time>2022-02-05T12:35:45Z</time>
      </trkpt>
      <trkpt lat="46.16537" lon="6.27262">
        <ele>472</ele>
        <time>2022-02-05T12:35:46Z</time>
      </trkpt>
      <trkpt lat="46.16514" lon="6.27255">
        <ele>473</ele>
        <time>2022-02-05T12:35:50Z</time>
      </trkpt>
      <trkpt lat="46.16508" lon="6.27254">
        <ele>473.4</ele>
        <time>2022-02-05T12:35:51Z</time>
      </trkpt>
      <trkpt lat="46.16503" lon="6.27252">
        <ele>473.6</ele>
        <time>2022-02-05T12:35:52Z</time>
      </trkpt>
      <trkpt lat="46.16491" lon="6.27248">
        <ele>474</ele>
        <time>2022-02-05T12:35:54Z</time>
      </trkpt>
      <trkpt lat="46.16474" lon="6.27243">
        <ele>474.6</ele>
        <time>2022-02-05T12:35:57Z</time>
      </trkpt>
      <trkpt lat="46.16468" lon="6.27241">
        <ele>474.8</ele>
        <time>2022-02-05T12:35:58Z</time>
      </trkpt>
      <trkpt lat="46.16451" lon="6.27235">
        <ele>475.4</ele>
        <time>2022-02-05T12:36:01Z</time>
      </trkpt>
      <trkpt lat="46.16434" lon="6.2723">
        <ele>476.2</ele>
        <time>2022-02-05T12:36:04Z</time>
      </trkpt>
      <trkpt lat="46.16429" lon="6.27229">
        <ele>476.6</ele>
        <time>2022-02-05T12:36:05Z</time>
      </trkpt>
      <trkpt lat="46.16406" lon="6.27231">
        <ele>477.8</ele>
        <time>2022-02-05T12:36:09Z</time>
      </trkpt>
      <trkpt lat="46.16401" lon="6.27233">
        <ele>478</ele>
        <time>2022-02-05T12:36:10Z</time>
      </trkpt>
      <trkpt lat="46.16385" lon="6.27239">
        <ele>478.8</ele>
        <time>2022-02-05T12:36:13Z</time>
      </trkpt>
      <trkpt lat="46.16381" lon="6.27243">
        <ele>479.2</ele>
        <time>2022-02-05T12:36:14Z</time>
      </trkpt>
      <trkpt lat="46.16376" lon="6.27247">
        <ele>479.4</ele>
        <time>2022-02-05T12:36:15Z</time>
      </trkpt>
      <trkpt lat="46.16355" lon="6.27271">
        <ele>480.6</ele>
        <time>2022-02-05T12:36:20Z</time>
      </trkpt>
      <trkpt lat="46.16351" lon="6.27278">
        <ele>481.2</ele>
        <time>2022-02-05T12:36:21Z</time>
      </trkpt>
      <trkpt lat="46.16336" lon="6.27314">
        <ele>481.6</ele>
        <time>2022-02-05T12:36:26Z</time>
      </trkpt>
      <trkpt lat="46.16315" lon="6.2737">
        <ele>482.8</ele>
        <time>2022-02-05T12:36:33Z</time>
      </trkpt>
      <trkpt lat="46.16305" lon="6.27396">
        <ele>483</ele>
        <time>2022-02-05T12:36:36Z</time>
      </trkpt>
      <trkpt lat="46.16289" lon="6.27439">
        <ele>483.2</ele>
        <time>2022-02-05T12:36:41Z</time>
      </trkpt>
      <trkpt lat="46.16265" lon="6.275">
        <ele>482.8</ele>
        <time>2022-02-05T12:36:48Z</time>
      </trkpt>
      <trkpt lat="46.16236" lon="6.27576">
        <ele>482.8</ele>
        <time>2022-02-05T12:36:57Z</time>
      </trkpt>
      <trkpt lat="46.16231" lon="6.27584">
        <ele>482.8</ele>
        <time>2022-02-05T12:36:58Z</time>
      </trkpt>
      <trkpt lat="46.1621" lon="6.27614">
        <ele>482.6</ele>
        <time>2022-02-05T12:37:02Z</time>
      </trkpt>
      <trkpt lat="46.16208" lon="6.27624">
        <ele>482.6</ele>
        <time>2022-02-05T12:37:03Z</time>
      </trkpt>
      <trkpt lat="46.16207" lon="6.27634">
        <ele>482.6</ele>
        <time>2022-02-05T12:37:04Z</time>
      </trkpt>
      <trkpt lat="46.16206" lon="6.27644">
        <ele>482.6</ele>
        <time>2022-02-05T12:37:05Z</time>
      </trkpt>
      <trkpt lat="46.16204" lon="6.27654">
        <ele>482.6</ele>
        <time>2022-02-05T12:37:06Z</time>
      </trkpt>
      <trkpt lat="46.16194" lon="6.27682">
        <ele>482.6</ele>
        <time>2022-02-05T12:37:09Z</time>
      </trkpt>
      <trkpt lat="46.16167" lon="6.27755">
        <ele>482</ele>
        <time>2022-02-05T12:37:17Z</time>
      </trkpt>
      <trkpt lat="46.16139" lon="6.27828">
        <ele>481.8</ele>
        <time>2022-02-05T12:37:25Z</time>
      </trkpt>
      <trkpt lat="46.16135" lon="6.27838">
        <ele>481.8</ele>
        <time>2022-02-05T12:37:26Z</time>
      </trkpt>
      <trkpt lat="46.16106" lon="6.27913">
        <ele>481.8</ele>
        <time>2022-02-05T12:37:34Z</time>
      </trkpt>
      <trkpt lat="46.16103" lon="6.27922">
        <ele>481.8</ele>
        <time>2022-02-05T12:37:35Z</time>
      </trkpt>
      <trkpt lat="46.16073" lon="6.27999">
        <ele>481.6</ele>
        <time>2022-02-05T12:37:43Z</time>
      </trkpt>
      <trkpt lat="46.1607" lon="6.28009">
        <ele>481.6</ele>
        <time>2022-02-05T12:37:44Z</time>
      </trkpt>
      <trkpt lat="46.16062" lon="6.28028">
        <ele>481.6</ele>
        <time>2022-02-05T12:37:46Z</time>
      </trkpt>
      <trkpt lat="46.16036" lon="6.28098">
        <ele>481.4</ele>
        <time>2022-02-05T12:37:53Z</time>
      </trkpt>
      <trkpt lat="46.16028" lon="6.28119">
        <ele>481.6</ele>
        <time>2022-02-05T12:37:55Z</time>
      </trkpt>
      <trkpt lat="46.16" lon="6.28191">
        <ele>481.2</ele>
        <time>2022-02-05T12:38:02Z</time>
      </trkpt>
      <trkpt lat="46.15987" lon="6.28221">
        <ele>481</ele>
        <time>2022-02-05T12:38:05Z</time>
      </trkpt>
      <trkpt lat="46.15953" lon="6.28287">
        <ele>480.6</ele>
        <time>2022-02-05T12:38:12Z</time>
      </trkpt>
      <trkpt lat="46.15917" lon="6.28354">
        <ele>479.8</ele>
        <time>2022-02-05T12:38:19Z</time>
      </trkpt>
      <trkpt lat="46.15906" lon="6.28374">
        <ele>479.6</ele>
        <time>2022-02-05T12:38:21Z</time>
      </trkpt>
      <trkpt lat="46.15901" lon="6.28384">
        <ele>479.4</ele>
        <time>2022-02-05T12:38:22Z</time>
      </trkpt>
      <trkpt lat="46.1588" lon="6.28439">
        <ele>479</ele>
        <time>2022-02-05T12:38:27Z</time>
      </trkpt>
      <trkpt lat="46.15867" lon="6.2849">
        <ele>478.8</ele>
        <time>2022-02-05T12:38:31Z</time>
      </trkpt>
      <trkpt lat="46.15858" lon="6.28529">
        <ele>478.4</ele>
        <time>2022-02-05T12:38:34Z</time>
      </trkpt>
      <trkpt lat="46.15844" lon="6.28595">
        <ele>476.2</ele>
        <time>2022-02-05T12:38:39Z</time>
      </trkpt>
      <trkpt lat="46.15829" lon="6.28664">
        <ele>475.6</ele>
        <time>2022-02-05T12:38:44Z</time>
      </trkpt>
      <trkpt lat="46.15826" lon="6.28678">
        <ele>475.2</ele>
        <time>2022-02-05T12:38:45Z</time>
      </trkpt>
      <trkpt lat="46.15807" lon="6.28759">
        <ele>474</ele>
        <time>2022-02-05T12:38:51Z</time>
      </trkpt>
      <trkpt lat="46.15801" lon="6.28785">
        <ele>473.2</ele>
        <time>2022-02-05T12:38:53Z</time>
      </trkpt>
      <trkpt lat="46.15783" lon="6.28861">
        <ele>472.4</ele>
        <time>2022-02-05T12:38:59Z</time>
      </trkpt>
      <trkpt lat="46.15778" lon="6.28887">
        <ele>472.6</ele>
        <time>2022-02-05T12:39:01Z</time>
      </trkpt>
      <trkpt lat="46.15775" lon="6.28899">
        <ele>472.4</ele>
        <time>2022-02-05T12:39:02Z</time>
      </trkpt>
      <trkpt lat="46.15757" lon="6.28983">
        <ele>472.8</ele>
        <time>2022-02-05T12:39:09Z</time>
      </trkpt>
      <trkpt lat="46.15738" lon="6.29065">
        <ele>473.2</ele>
        <time>2022-02-05T12:39:16Z</time>
      </trkpt>
      <trkpt lat="46.15731" lon="6.29099">
        <ele>473.2</ele>
        <time>2022-02-05T12:39:19Z</time>
      </trkpt>
      <trkpt lat="46.15729" lon="6.2911">
        <ele>473.2</ele>
        <time>2022-02-05T12:39:20Z</time>
      </trkpt>
      <trkpt lat="46.15712" lon="6.29189">
        <ele>473.8</ele>
        <time>2022-02-05T12:39:27Z</time>
      </trkpt>
      <trkpt lat="46.15702" lon="6.29236">
        <ele>474.6</ele>
        <time>2022-02-05T12:39:31Z</time>
      </trkpt>
      <trkpt lat="46.15685" lon="6.29315">
        <ele>474.8</ele>
        <time>2022-02-05T12:39:38Z</time>
      </trkpt>
      <trkpt lat="46.15683" lon="6.29326">
        <ele>475</ele>
        <time>2022-02-05T12:39:39Z</time>
      </trkpt>
      <trkpt lat="46.15673" lon="6.2937">
        <ele>475</ele>
        <time>2022-02-05T12:39:43Z</time>
      </trkpt>
      <trkpt lat="46.15662" lon="6.29424">
        <ele>475</ele>
        <time>2022-02-05T12:39:48Z</time>
      </trkpt>
      <trkpt lat="46.15645" lon="6.29503">
        <ele>475.6</ele>
        <time>2022-02-05T12:39:55Z</time>
      </trkpt>
      <trkpt lat="46.15641" lon="6.29525">
        <ele>475.8</ele>
        <time>2022-02-05T12:39:57Z</time>
      </trkpt>
      <trkpt lat="46.15623" lon="6.29605">
        <ele>476</ele>
        <time>2022-02-05T12:40:04Z</time>
      </trkpt>
      <trkpt lat="46.15606" lon="6.29684">
        <ele>476</ele>
        <time>2022-02-05T12:40:11Z</time>
      </trkpt>
      <trkpt lat="46.1559" lon="6.29763">
        <ele>475.4</ele>
        <time>2022-02-05T12:40:18Z</time>
      </trkpt>
      <trkpt lat="46.15583" lon="6.29796">
        <ele>475.4</ele>
        <time>2022-02-05T12:40:21Z</time>
      </trkpt>
      <trkpt lat="46.15577" lon="6.29818">
        <ele>475.2</ele>
        <time>2022-02-05T12:40:23Z</time>
      </trkpt>
      <trkpt lat="46.15574" lon="6.29829">
        <ele>475</ele>
        <time>2022-02-05T12:40:24Z</time>
      </trkpt>
      <trkpt lat="46.15571" lon="6.2984">
        <ele>475</ele>
        <time>2022-02-05T12:40:25Z</time>
      </trkpt>
      <trkpt lat="46.15569" lon="6.29852">
        <ele>475</ele>
        <time>2022-02-05T12:40:26Z</time>
      </trkpt>
      <trkpt lat="46.15553" lon="6.29933">
        <ele>474.6</ele>
        <time>2022-02-05T12:40:33Z</time>
      </trkpt>
      <trkpt lat="46.15536" lon="6.30012">
        <ele>474.2</ele>
        <time>2022-02-05T12:40:40Z</time>
      </trkpt>
      <trkpt lat="46.15532" lon="6.30033">
        <ele>474.2</ele>
        <time>2022-02-05T12:40:42Z</time>
      </trkpt>
      <trkpt lat="46.15515" lon="6.30107">
        <ele>474.2</ele>
        <time>2022-02-05T12:40:49Z</time>
      </trkpt>
      <trkpt lat="46.15511" lon="6.30127">
        <ele>474.4</ele>
        <time>2022-02-05T12:40:51Z</time>
      </trkpt>
      <trkpt lat="46.15509" lon="6.30137">
        <ele>474.4</ele>
        <time>2022-02-05T12:40:52Z</time>
      </trkpt>
      <trkpt lat="46.15496" lon="6.30198">
        <ele>474.8</ele>
        <time>2022-02-05T12:40:58Z</time>
      </trkpt>
      <trkpt lat="46.15489" lon="6.30228">
        <ele>475.4</ele>
        <time>2022-02-05T12:41:01Z</time>
      </trkpt>
      <trkpt lat="46.15487" lon="6.30238">
        <ele>475.4</ele>
        <time>2022-02-05T12:41:02Z</time>
      </trkpt>
      <trkpt lat="46.1547" lon="6.30319">
        <ele>476.2</ele>
        <time>2022-02-05T12:41:10Z</time>
      </trkpt>
      <trkpt lat="46.15465" lon="6.30339">
        <ele>476.2</ele>
        <time>2022-02-05T12:41:12Z</time>
      </trkpt>
      <trkpt lat="46.15458" lon="6.30367">
        <ele>476.6</ele>
        <time>2022-02-05T12:41:15Z</time>
      </trkpt>
      <trkpt lat="46.15454" lon="6.30386">
        <ele>476.6</ele>
        <time>2022-02-05T12:41:17Z</time>
      </trkpt>
      <trkpt lat="46.15452" lon="6.30396">
        <ele>476.6</ele>
        <time>2022-02-05T12:41:18Z</time>
      </trkpt>
      <trkpt lat="46.15448" lon="6.30414">
        <ele>476.8</ele>
        <time>2022-02-05T12:41:20Z</time>
      </trkpt>
      <trkpt lat="46.15438" lon="6.30462">
        <ele>476.8</ele>
        <time>2022-02-05T12:41:25Z</time>
      </trkpt>
      <trkpt lat="46.15434" lon="6.30492">
        <ele>477</ele>
        <time>2022-02-05T12:41:28Z</time>
      </trkpt>
      <trkpt lat="46.15421" lon="6.3057">
        <ele>478</ele>
        <time>2022-02-05T12:41:36Z</time>
      </trkpt>
      <trkpt lat="46.15419" lon="6.30579">
        <ele>478.2</ele>
        <time>2022-02-05T12:41:37Z</time>
      </trkpt>
      <trkpt lat="46.15398" lon="6.30656">
        <ele>478.8</ele>
        <time>2022-02-05T12:41:45Z</time>
      </trkpt>
      <trkpt lat="46.1539" lon="6.30673">
        <ele>478.8</ele>
        <time>2022-02-05T12:41:47Z</time>
      </trkpt>
      <trkpt lat="46.15381" lon="6.30688">
        <ele>478.6</ele>
        <time>2022-02-05T12:41:49Z</time>
      </trkpt>
      <trkpt lat="46.15376" lon="6.30695">
        <ele>478.8</ele>
        <time>2022-02-05T12:41:50Z</time>
      </trkpt>
      <trkpt lat="46.15354" lon="6.30719">
        <ele>478.4</ele>
        <time>2022-02-05T12:41:54Z</time>
      </trkpt>
      <trkpt lat="46.15348" lon="6.30723">
        <ele>478.4</ele>
        <time>2022-02-05T12:41:55Z</time>
      </trkpt>
      <trkpt lat="46.15341" lon="6.30723">
        <ele>478.2</ele>
        <time>2022-02-05T12:41:56Z</time>
      </trkpt>
      <trkpt lat="46.15327" lon="6.3072">
        <ele>478.2</ele>
        <time>2022-02-05T12:41:58Z</time>
      </trkpt>
      <trkpt lat="46.1532" lon="6.30717">
        <ele>478.2</ele>
        <time>2022-02-05T12:41:59Z</time>
      </trkpt>
      <trkpt lat="46.15303" lon="6.30716">
        <ele>478</ele>
        <time>2022-02-05T12:42:01Z</time>
      </trkpt>
      <trkpt lat="46.15294" lon="6.30717">
        <ele>478</ele>
        <time>2022-02-05T12:42:02Z</time>
      </trkpt>
      <trkpt lat="46.15278" lon="6.30722">
        <ele>477.4</ele>
        <time>2022-02-05T12:42:04Z</time>
      </trkpt>
      <trkpt lat="46.15252" lon="6.30729">
        <ele>476.6</ele>
        <time>2022-02-05T12:42:07Z</time>
      </trkpt>
      <trkpt lat="46.15244" lon="6.30731">
        <ele>476.2</ele>
        <time>2022-02-05T12:42:08Z</time>
      </trkpt>
      <trkpt lat="46.15235" lon="6.30733">
        <ele>475.8</ele>
        <time>2022-02-05T12:42:09Z</time>
      </trkpt>
      <trkpt lat="46.15208" lon="6.3074">
        <ele>474.8</ele>
        <time>2022-02-05T12:42:12Z</time>
      </trkpt>
      <trkpt lat="46.15199" lon="6.3074">
        <ele>474.8</ele>
        <time>2022-02-05T12:42:13Z</time>
      </trkpt>
      <trkpt lat="46.15182" lon="6.30732">
        <ele>473.8</ele>
        <time>2022-02-05T12:42:15Z</time>
      </trkpt>
      <trkpt lat="46.15166" lon="6.30717">
        <ele>472.8</ele>
        <time>2022-02-05T12:42:17Z</time>
      </trkpt>
      <trkpt lat="46.15159" lon="6.30709">
        <ele>472.8</ele>
        <time>2022-02-05T12:42:18Z</time>
      </trkpt>
      <trkpt lat="46.15151" lon="6.307">
        <ele>472.6</ele>
        <time>2022-02-05T12:42:19Z</time>
      </trkpt>
      <trkpt lat="46.15134" lon="6.30686">
        <ele>472</ele>
        <time>2022-02-05T12:42:21Z</time>
      </trkpt>
      <trkpt lat="46.15124" lon="6.30682">
        <ele>471.4</ele>
        <time>2022-02-05T12:42:22Z</time>
      </trkpt>
      <trkpt lat="46.15114" lon="6.30681">
        <ele>471.4</ele>
        <time>2022-02-05T12:42:23Z</time>
      </trkpt>
      <trkpt lat="46.15092" lon="6.30685">
        <ele>470</ele>
        <time>2022-02-05T12:42:25Z</time>
      </trkpt>
      <trkpt lat="46.15081" lon="6.30689">
        <ele>469</ele>
        <time>2022-02-05T12:42:26Z</time>
      </trkpt>
      <trkpt lat="46.1507" lon="6.30692">
        <ele>468</ele>
        <time>2022-02-05T12:42:27Z</time>
      </trkpt>
      <trkpt lat="46.15059" lon="6.30696">
        <ele>467.2</ele>
        <time>2022-02-05T12:42:28Z</time>
      </trkpt>
      <trkpt lat="46.15037" lon="6.30702">
        <ele>465.4</ele>
        <time>2022-02-05T12:42:30Z</time>
      </trkpt>
      <trkpt lat="46.15026" lon="6.30702">
        <ele>464.8</ele>
        <time>2022-02-05T12:42:31Z</time>
      </trkpt>
      <trkpt lat="46.15005" lon="6.30698">
        <ele>463.4</ele>
        <time>2022-02-05T12:42:33Z</time>
      </trkpt>
      <trkpt lat="46.14995" lon="6.30694">
        <ele>462.8</ele>
        <time>2022-02-05T12:42:34Z</time>
      </trkpt>
      <trkpt lat="46.14969" lon="6.30675">
        <ele>460.2</ele>
        <time>2022-02-05T12:42:37Z</time>
      </trkpt>
      <trkpt lat="46.14952" lon="6.30663">
        <ele>459</ele>
        <time>2022-02-05T12:42:39Z</time>
      </trkpt>
      <trkpt lat="46.14935" lon="6.30648">
        <ele>458.6</ele>
        <time>2022-02-05T12:42:41Z</time>
      </trkpt>
      <trkpt lat="46.1492" lon="6.30633">
        <ele>458.4</ele>
        <time>2022-02-05T12:42:43Z</time>
      </trkpt>
      <trkpt lat="46.14881" lon="6.30605">
        <ele>458.2</ele>
        <time>2022-02-05T12:42:48Z</time>
      </trkpt>
      <trkpt lat="46.14826" lon="6.30572">
        <ele>458.6</ele>
        <time>2022-02-05T12:42:55Z</time>
      </trkpt>
      <trkpt lat="46.14803" lon="6.30559">
        <ele>458.8</ele>
        <time>2022-02-05T12:42:58Z</time>
      </trkpt>
      <trkpt lat="46.14772" lon="6.30547">
        <ele>458.8</ele>
        <time>2022-02-05T12:43:02Z</time>
      </trkpt>
      <trkpt lat="46.14739" lon="6.30538">
        <ele>459.2</ele>
        <time>2022-02-05T12:43:06Z</time>
      </trkpt>
      <trkpt lat="46.14713" lon="6.30532">
        <ele>459.2</ele>
        <time>2022-02-05T12:43:09Z</time>
      </trkpt>
      <trkpt lat="46.14704" lon="6.3053">
        <ele>459.2</ele>
        <time>2022-02-05T12:43:10Z</time>
      </trkpt>
      <trkpt lat="46.14685" lon="6.30524">
        <ele>459.2</ele>
        <time>2022-02-05T12:43:12Z</time>
      </trkpt>
      <trkpt lat="46.14656" lon="6.30514">
        <ele>459.2</ele>
        <time>2022-02-05T12:43:15Z</time>
      </trkpt>
      <trkpt lat="46.14646" lon="6.30511">
        <ele>459.2</ele>
        <time>2022-02-05T12:43:16Z</time>
      </trkpt>
      <trkpt lat="46.14615" lon="6.30504">
        <ele>458.8</ele>
        <time>2022-02-05T12:43:19Z</time>
      </trkpt>
      <trkpt lat="46.14604" lon="6.30507">
        <ele>458.4</ele>
        <time>2022-02-05T12:43:20Z</time>
      </trkpt>
      <trkpt lat="46.14594" lon="6.30514">
        <ele>457.6</ele>
        <time>2022-02-05T12:43:21Z</time>
      </trkpt>
      <trkpt lat="46.14585" lon="6.30524">
        <ele>456.8</ele>
        <time>2022-02-05T12:43:22Z</time>
      </trkpt>
      <trkpt lat="46.14569" lon="6.30547">
        <ele>455.2</ele>
        <time>2022-02-05T12:43:24Z</time>
      </trkpt>
      <trkpt lat="46.14543" lon="6.30581">
        <ele>453.2</ele>
        <time>2022-02-05T12:43:27Z</time>
      </trkpt>
      <trkpt lat="46.14534" lon="6.30589">
        <ele>452.6</ele>
        <time>2022-02-05T12:43:28Z</time>
      </trkpt>
      <trkpt lat="46.14514" lon="6.30599">
        <ele>451.4</ele>
        <time>2022-02-05T12:43:30Z</time>
      </trkpt>
      <trkpt lat="46.14503" lon="6.306">
        <ele>450.4</ele>
        <time>2022-02-05T12:43:31Z</time>
      </trkpt>
      <trkpt lat="46.14494" lon="6.30598">
        <ele>450</ele>
        <time>2022-02-05T12:43:32Z</time>
      </trkpt>
      <trkpt lat="46.14485" lon="6.30594">
        <ele>449.8</ele>
        <time>2022-02-05T12:43:33Z</time>
      </trkpt>
      <trkpt lat="46.14477" lon="6.30588">
        <ele>449.6</ele>
        <time>2022-02-05T12:43:34Z</time>
      </trkpt>
      <trkpt lat="46.1447" lon="6.30582">
        <ele>449.6</ele>
        <time>2022-02-05T12:43:35Z</time>
      </trkpt>
      <trkpt lat="46.14457" lon="6.30569">
        <ele>449.6</ele>
        <time>2022-02-05T12:43:37Z</time>
      </trkpt>
      <trkpt lat="46.14439" lon="6.30554">
        <ele>449.4</ele>
        <time>2022-02-05T12:43:40Z</time>
      </trkpt>
      <trkpt lat="46.14428" lon="6.30546">
        <ele>450.2</ele>
        <time>2022-02-05T12:43:42Z</time>
      </trkpt>
      <trkpt lat="46.14422" lon="6.30543">
        <ele>450.8</ele>
        <time>2022-02-05T12:43:43Z</time>
      </trkpt>
      <trkpt lat="46.14411" lon="6.30538">
        <ele>451.8</ele>
        <time>2022-02-05T12:43:45Z</time>
      </trkpt>
      <trkpt lat="46.14405" lon="6.30537">
        <ele>452.6</ele>
        <time>2022-02-05T12:43:46Z</time>
      </trkpt>
      <trkpt lat="46.14399" lon="6.30538">
        <ele>452.8</ele>
        <time>2022-02-05T12:43:47Z</time>
      </trkpt>
      <trkpt lat="46.14393" lon="6.30541">
        <ele>453.2</ele>
        <time>2022-02-05T12:43:48Z</time>
      </trkpt>
      <trkpt lat="46.14387" lon="6.30545">
        <ele>453.8</ele>
        <time>2022-02-05T12:43:49Z</time>
      </trkpt>
      <trkpt lat="46.14376" lon="6.30554">
        <ele>455</ele>
        <time>2022-02-05T12:43:51Z</time>
      </trkpt>
      <trkpt lat="46.14353" lon="6.30574">
        <ele>456.6</ele>
        <time>2022-02-05T12:43:55Z</time>
      </trkpt>
      <trkpt lat="46.1433" lon="6.30594">
        <ele>457.8</ele>
        <time>2022-02-05T12:43:59Z</time>
      </trkpt>
      <trkpt lat="46.14308" lon="6.30615">
        <ele>458.6</ele>
        <time>2022-02-05T12:44:03Z</time>
      </trkpt>
      <trkpt lat="46.14298" lon="6.30626">
        <ele>459</ele>
        <time>2022-02-05T12:44:05Z</time>
      </trkpt>
      <trkpt lat="46.14288" lon="6.30637">
        <ele>459.2</ele>
        <time>2022-02-05T12:44:07Z</time>
      </trkpt>
      <trkpt lat="46.14274" lon="6.30655">
        <ele>459.6</ele>
        <time>2022-02-05T12:44:10Z</time>
      </trkpt>
      <trkpt lat="46.14255" lon="6.30679">
        <ele>461.2</ele>
        <time>2022-02-05T12:44:14Z</time>
      </trkpt>
      <trkpt lat="46.14216" lon="6.30711">
        <ele>462.6</ele>
        <time>2022-02-05T12:44:21Z</time>
      </trkpt>
      <trkpt lat="46.14205" lon="6.30716">
        <ele>462.8</ele>
        <time>2022-02-05T12:44:23Z</time>
      </trkpt>
      <trkpt lat="46.14176" lon="6.30728">
        <ele>463.2</ele>
        <time>2022-02-05T12:44:28Z</time>
      </trkpt>
      <trkpt lat="46.14171" lon="6.30729">
        <ele>463.6</ele>
        <time>2022-02-05T12:44:29Z</time>
      </trkpt>
      <trkpt lat="46.14143" lon="6.30742">
        <ele>464.4</ele>
        <time>2022-02-05T12:44:35Z</time>
      </trkpt>
      <trkpt lat="46.14138" lon="6.30745">
        <ele>464.4</ele>
        <time>2022-02-05T12:44:36Z</time>
      </trkpt>
      <trkpt lat="46.14133" lon="6.3075">
        <ele>464.6</ele>
        <time>2022-02-05T12:44:37Z</time>
      </trkpt>
      <trkpt lat="46.14114" lon="6.30773">
        <ele>465.6</ele>
        <time>2022-02-05T12:44:42Z</time>
      </trkpt>
      <trkpt lat="46.14101" lon="6.30797">
        <ele>465.6</ele>
        <time>2022-02-05T12:44:46Z</time>
      </trkpt>
      <trkpt lat="46.14096" lon="6.30809">
        <ele>465.6</ele>
        <time>2022-02-05T12:44:48Z</time>
      </trkpt>
      <trkpt lat="46.14093" lon="6.30818">
        <ele>465.6</ele>
        <time>2022-02-05T12:44:50Z</time>
      </trkpt>
      <trkpt lat="46.14091" lon="6.30819">
        <ele>465.6</ele>
        <time>2022-02-05T12:44:51Z</time>
      </trkpt>
      <trkpt lat="46.14087" lon="6.30819">
        <ele>465.6</ele>
        <time>2022-02-05T12:44:52Z</time>
      </trkpt>
      <trkpt lat="46.14076" lon="6.30816">
        <ele>465.6</ele>
        <time>2022-02-05T12:44:54Z</time>
      </trkpt>
      <trkpt lat="46.1407" lon="6.30813">
        <ele>465.4</ele>
        <time>2022-02-05T12:44:55Z</time>
      </trkpt>
      <trkpt lat="46.14054" lon="6.30804">
        <ele>465.4</ele>
        <time>2022-02-05T12:44:58Z</time>
      </trkpt>
      <trkpt lat="46.14044" lon="6.30796">
        <ele>465.6</ele>
        <time>2022-02-05T12:45:00Z</time>
      </trkpt>
      <trkpt lat="46.14024" lon="6.30779">
        <ele>466</ele>
        <time>2022-02-05T12:45:04Z</time>
      </trkpt>
      <trkpt lat="46.14019" lon="6.30778">
        <ele>465.8</ele>
        <time>2022-02-05T12:45:05Z</time>
      </trkpt>
      <trkpt lat="46.14014" lon="6.30781">
        <ele>466</ele>
        <time>2022-02-05T12:45:06Z</time>
      </trkpt>
      <trkpt lat="46.14009" lon="6.30787">
        <ele>466</ele>
        <time>2022-02-05T12:45:07Z</time>
      </trkpt>
      <trkpt lat="46.14005" lon="6.30795">
        <ele>466.2</ele>
        <time>2022-02-05T12:45:08Z</time>
      </trkpt>
      <trkpt lat="46.13995" lon="6.3082">
        <ele>466.6</ele>
        <time>2022-02-05T12:45:11Z</time>
      </trkpt>
      <trkpt lat="46.13981" lon="6.3085">
        <ele>466.8</ele>
        <time>2022-02-05T12:45:15Z</time>
      </trkpt>
      <trkpt lat="46.13976" lon="6.30855">
        <ele>466.8</ele>
        <time>2022-02-05T12:45:16Z</time>
      </trkpt>
      <trkpt lat="46.13971" lon="6.30858">
        <ele>466.8</ele>
        <time>2022-02-05T12:45:17Z</time>
      </trkpt>
      <trkpt lat="46.13954" lon="6.30864">
        <ele>467</ele>
        <time>2022-02-05T12:45:20Z</time>
      </trkpt>
      <trkpt lat="46.13948" lon="6.30867">
        <ele>466.8</ele>
        <time>2022-02-05T12:45:21Z</time>
      </trkpt>
      <trkpt lat="46.13937" lon="6.30877">
        <ele>467</ele>
        <time>2022-02-05T12:45:23Z</time>
      </trkpt>
      <trkpt lat="46.13932" lon="6.30883">
        <ele>467</ele>
        <time>2022-02-05T12:45:24Z</time>
      </trkpt>
      <trkpt lat="46.139" lon="6.30932">
        <ele>467.4</ele>
        <time>2022-02-05T12:45:31Z</time>
      </trkpt>
      <trkpt lat="46.13876" lon="6.30965">
        <ele>467.6</ele>
        <time>2022-02-05T12:45:36Z</time>
      </trkpt>
      <trkpt lat="46.1387" lon="6.30972">
        <ele>467.6</ele>
        <time>2022-02-05T12:45:37Z</time>
      </trkpt>
      <trkpt lat="46.1384" lon="6.31014">
        <ele>468.2</ele>
        <time>2022-02-05T12:45:44Z</time>
      </trkpt>
      <trkpt lat="46.1382" lon="6.31055">
        <ele>468.2</ele>
        <time>2022-02-05T12:45:50Z</time>
      </trkpt>
      <trkpt lat="46.13817" lon="6.31063">
        <ele>468</ele>
        <time>2022-02-05T12:45:51Z</time>
      </trkpt>
      <trkpt lat="46.1381" lon="6.3108">
        <ele>468</ele>
        <time>2022-02-05T12:45:53Z</time>
      </trkpt>
      <trkpt lat="46.13803" lon="6.31101">
        <ele>467.8</ele>
        <time>2022-02-05T12:45:55Z</time>
      </trkpt>
      <trkpt lat="46.13799" lon="6.31113">
        <ele>467.6</ele>
        <time>2022-02-05T12:45:56Z</time>
      </trkpt>
      <trkpt lat="46.13791" lon="6.31136">
        <ele>467.4</ele>
        <time>2022-02-05T12:45:58Z</time>
      </trkpt>
      <trkpt lat="46.13787" lon="6.31148">
        <ele>467.4</ele>
        <time>2022-02-05T12:45:59Z</time>
      </trkpt>
      <trkpt lat="46.13779" lon="6.31169">
        <ele>466.4</ele>
        <time>2022-02-05T12:46:01Z</time>
      </trkpt>
      <trkpt lat="46.13775" lon="6.3118">
        <ele>465.8</ele>
        <time>2022-02-05T12:46:02Z</time>
      </trkpt>
      <trkpt lat="46.1377" lon="6.31191">
        <ele>465.2</ele>
        <time>2022-02-05T12:46:03Z</time>
      </trkpt>
      <trkpt lat="46.13765" lon="6.31203">
        <ele>464.8</ele>
        <time>2022-02-05T12:46:04Z</time>
      </trkpt>
      <trkpt lat="46.13758" lon="6.31216">
        <ele>463.8</ele>
        <time>2022-02-05T12:46:05Z</time>
      </trkpt>
      <trkpt lat="46.13751" lon="6.31229">
        <ele>463</ele>
        <time>2022-02-05T12:46:06Z</time>
      </trkpt>
      <trkpt lat="46.13744" lon="6.31242">
        <ele>462.2</ele>
        <time>2022-02-05T12:46:07Z</time>
      </trkpt>
      <trkpt lat="46.13729" lon="6.31266">
        <ele>461.4</ele>
        <time>2022-02-05T12:46:09Z</time>
      </trkpt>
      <trkpt lat="46.1371" lon="6.31293">
        <ele>459.8</ele>
        <time>2022-02-05T12:46:12Z</time>
      </trkpt>
      <trkpt lat="46.13705" lon="6.31301">
        <ele>458.4</ele>
        <time>2022-02-05T12:46:13Z</time>
      </trkpt>
      <trkpt lat="46.1369" lon="6.31323">
        <ele>453.2</ele>
        <time>2022-02-05T12:46:16Z</time>
      </trkpt>
      <trkpt lat="46.13685" lon="6.31328">
        <ele>452.2</ele>
        <time>2022-02-05T12:46:17Z</time>
      </trkpt>
      <trkpt lat="46.13675" lon="6.31328">
        <ele>451.6</ele>
        <time>2022-02-05T12:46:19Z</time>
      </trkpt>
      <trkpt lat="46.13671" lon="6.31323">
        <ele>451.4</ele>
        <time>2022-02-05T12:46:20Z</time>
      </trkpt>
      <trkpt lat="46.13666" lon="6.31317">
        <ele>451</ele>
        <time>2022-02-05T12:46:21Z</time>
      </trkpt>
      <trkpt lat="46.1366" lon="6.3131">
        <ele>450.6</ele>
        <time>2022-02-05T12:46:22Z</time>
      </trkpt>
      <trkpt lat="46.13635" lon="6.3128">
        <ele>449.4</ele>
        <time>2022-02-05T12:46:26Z</time>
      </trkpt>
      <trkpt lat="46.13627" lon="6.31271">
        <ele>448.8</ele>
        <time>2022-02-05T12:46:27Z</time>
      </trkpt>
      <trkpt lat="46.13612" lon="6.31254">
        <ele>447.6</ele>
        <time>2022-02-05T12:46:29Z</time>
      </trkpt>
      <trkpt lat="46.13604" lon="6.31245">
        <ele>446.8</ele>
        <time>2022-02-05T12:46:30Z</time>
      </trkpt>
      <trkpt lat="46.13588" lon="6.31226">
        <ele>445.8</ele>
        <time>2022-02-05T12:46:32Z</time>
      </trkpt>
      <trkpt lat="46.13579" lon="6.31217">
        <ele>445.6</ele>
        <time>2022-02-05T12:46:33Z</time>
      </trkpt>
      <trkpt lat="46.1356" lon="6.312">
        <ele>445.4</ele>
        <time>2022-02-05T12:46:35Z</time>
      </trkpt>
      <trkpt lat="46.1355" lon="6.31194">
        <ele>445</ele>
        <time>2022-02-05T12:46:36Z</time>
      </trkpt>
      <trkpt lat="46.13539" lon="6.31191">
        <ele>444.6</ele>
        <time>2022-02-05T12:46:37Z</time>
      </trkpt>
      <trkpt lat="46.13517" lon="6.3119">
        <ele>443.8</ele>
        <time>2022-02-05T12:46:39Z</time>
      </trkpt>
      <trkpt lat="46.13494" lon="6.31197">
        <ele>442.2</ele>
        <time>2022-02-05T12:46:41Z</time>
      </trkpt>
      <trkpt lat="46.13472" lon="6.31206">
        <ele>441.8</ele>
        <time>2022-02-05T12:46:43Z</time>
      </trkpt>
      <trkpt lat="46.13462" lon="6.31211">
        <ele>441.4</ele>
        <time>2022-02-05T12:46:44Z</time>
      </trkpt>
      <trkpt lat="46.13411" lon="6.31234">
        <ele>440.4</ele>
        <time>2022-02-05T12:46:49Z</time>
      </trkpt>
      <trkpt lat="46.13374" lon="6.31251">
        <ele>439.2</ele>
        <time>2022-02-05T12:46:53Z</time>
      </trkpt>
      <trkpt lat="46.13357" lon="6.31258">
        <ele>439</ele>
        <time>2022-02-05T12:46:55Z</time>
      </trkpt>
      <trkpt lat="46.13349" lon="6.31259">
        <ele>439</ele>
        <time>2022-02-05T12:46:56Z</time>
      </trkpt>
      <trkpt lat="46.13333" lon="6.31254">
        <ele>438.8</ele>
        <time>2022-02-05T12:46:58Z</time>
      </trkpt>
      <trkpt lat="46.1332" lon="6.31239">
        <ele>438.2</ele>
        <time>2022-02-05T12:47:00Z</time>
      </trkpt>
      <trkpt lat="46.13315" lon="6.3123">
        <ele>438.2</ele>
        <time>2022-02-05T12:47:01Z</time>
      </trkpt>
      <trkpt lat="46.13293" lon="6.31192">
        <ele>438</ele>
        <time>2022-02-05T12:47:05Z</time>
      </trkpt>
      <trkpt lat="46.13282" lon="6.31174">
        <ele>438</ele>
        <time>2022-02-05T12:47:07Z</time>
      </trkpt>
      <trkpt lat="46.1327" lon="6.3115">
        <ele>438.8</ele>
        <time>2022-02-05T12:47:10Z</time>
      </trkpt>
      <trkpt lat="46.13263" lon="6.31136">
        <ele>438.8</ele>
        <time>2022-02-05T12:47:12Z</time>
      </trkpt>
      <trkpt lat="46.13248" lon="6.31108">
        <ele>439.4</ele>
        <time>2022-02-05T12:47:16Z</time>
      </trkpt>
      <trkpt lat="46.13241" lon="6.31095">
        <ele>439.8</ele>
        <time>2022-02-05T12:47:18Z</time>
      </trkpt>
      <trkpt lat="46.13239" lon="6.31088">
        <ele>440.4</ele>
        <time>2022-02-05T12:47:19Z</time>
      </trkpt>
      <trkpt lat="46.13227" lon="6.31059">
        <ele>442.8</ele>
        <time>2022-02-05T12:47:23Z</time>
      </trkpt>
      <trkpt lat="46.13224" lon="6.31051">
        <ele>443.2</ele>
        <time>2022-02-05T12:47:24Z</time>
      </trkpt>
      <trkpt lat="46.13213" lon="6.31002">
        <ele>445</ele>
        <time>2022-02-05T12:47:30Z</time>
      </trkpt>
      <trkpt lat="46.13212" lon="6.30993">
        <ele>445.2</ele>
        <time>2022-02-05T12:47:31Z</time>
      </trkpt>
      <trkpt lat="46.13207" lon="6.30969">
        <ele>445.8</ele>
        <time>2022-02-05T12:47:34Z</time>
      </trkpt>
      <trkpt lat="46.13201" lon="6.30937">
        <ele>446</ele>
        <time>2022-02-05T12:47:38Z</time>
      </trkpt>
      <trkpt lat="46.13196" lon="6.30912">
        <ele>447</ele>
        <time>2022-02-05T12:47:41Z</time>
      </trkpt>
      <trkpt lat="46.13191" lon="6.30886">
        <ele>447.6</ele>
        <time>2022-02-05T12:47:44Z</time>
      </trkpt>
      <trkpt lat="46.13186" lon="6.3086">
        <ele>447.8</ele>
        <time>2022-02-05T12:47:47Z</time>
      </trkpt>
      <trkpt lat="46.13178" lon="6.30816">
        <ele>448</ele>
        <time>2022-02-05T12:47:52Z</time>
      </trkpt>
      <trkpt lat="46.13175" lon="6.30798">
        <ele>448</ele>
        <time>2022-02-05T12:47:54Z</time>
      </trkpt>
      <trkpt lat="46.13164" lon="6.30735">
        <ele>448</ele>
        <time>2022-02-05T12:48:01Z</time>
      </trkpt>
      <trkpt lat="46.13163" lon="6.30726">
        <ele>448</ele>
        <time>2022-02-05T12:48:02Z</time>
      </trkpt>
      <trkpt lat="46.13164" lon="6.30687">
        <ele>448</ele>
        <time>2022-02-05T12:48:06Z</time>
      </trkpt>
      <trkpt lat="46.13169" lon="6.3066">
        <ele>448.2</ele>
        <time>2022-02-05T12:48:09Z</time>
      </trkpt>
      <trkpt lat="46.13176" lon="6.30625">
        <ele>447.8</ele>
        <time>2022-02-05T12:48:13Z</time>
      </trkpt>
      <trkpt lat="46.13179" lon="6.30608">
        <ele>447.8</ele>
        <time>2022-02-05T12:48:15Z</time>
      </trkpt>
      <trkpt lat="46.13189" lon="6.30554">
        <ele>448</ele>
        <time>2022-02-05T12:48:21Z</time>
      </trkpt>
      <trkpt lat="46.13204" lon="6.30504">
        <ele>448.8</ele>
        <time>2022-02-05T12:48:27Z</time>
      </trkpt>
      <trkpt lat="46.13208" lon="6.30496">
        <ele>449</ele>
        <time>2022-02-05T12:48:28Z</time>
      </trkpt>
      <trkpt lat="46.13213" lon="6.30489">
        <ele>449</ele>
        <time>2022-02-05T12:48:29Z</time>
      </trkpt>
      <trkpt lat="46.13227" lon="6.3047">
        <ele>449.6</ele>
        <time>2022-02-05T12:48:32Z</time>
      </trkpt>
      <trkpt lat="46.13267" lon="6.30423">
        <ele>450</ele>
        <time>2022-02-05T12:48:40Z</time>
      </trkpt>
      <trkpt lat="46.13307" lon="6.30374">
        <ele>450</ele>
        <time>2022-02-05T12:48:48Z</time>
      </trkpt>
      <trkpt lat="46.13312" lon="6.30368">
        <ele>450</ele>
        <time>2022-02-05T12:48:49Z</time>
      </trkpt>
      <trkpt lat="46.13343" lon="6.30317">
        <ele>449.6</ele>
        <time>2022-02-05T12:48:56Z</time>
      </trkpt>
      <trkpt lat="46.13361" lon="6.30267">
        <ele>449.6</ele>
        <time>2022-02-05T12:49:02Z</time>
      </trkpt>
      <trkpt lat="46.13364" lon="6.30258">
        <ele>449.4</ele>
        <time>2022-02-05T12:49:03Z</time>
      </trkpt>
      <trkpt lat="46.13366" lon="6.30249">
        <ele>449.6</ele>
        <time>2022-02-05T12:49:04Z</time>
      </trkpt>
      <trkpt lat="46.1337" lon="6.30231">
        <ele>449.6</ele>
        <time>2022-02-05T12:49:06Z</time>
      </trkpt>
      <trkpt lat="46.13378" lon="6.30194">
        <ele>449.6</ele>
        <time>2022-02-05T12:49:10Z</time>
      </trkpt>
      <trkpt lat="46.13395" lon="6.3012">
        <ele>449.6</ele>
        <time>2022-02-05T12:49:18Z</time>
      </trkpt>
      <trkpt lat="46.13401" lon="6.30093">
        <ele>449.4</ele>
        <time>2022-02-05T12:49:21Z</time>
      </trkpt>
      <trkpt lat="46.1341" lon="6.30058">
        <ele>449.4</ele>
        <time>2022-02-05T12:49:25Z</time>
      </trkpt>
      <trkpt lat="46.13412" lon="6.30049">
        <ele>449.2</ele>
        <time>2022-02-05T12:49:26Z</time>
      </trkpt>
      <trkpt lat="46.13415" lon="6.30022">
        <ele>448.8</ele>
        <time>2022-02-05T12:49:29Z</time>
      </trkpt>
      <trkpt lat="46.13415" lon="6.30003">
        <ele>448.8</ele>
        <time>2022-02-05T12:49:31Z</time>
      </trkpt>
      <trkpt lat="46.13411" lon="6.29985">
        <ele>448.4</ele>
        <time>2022-02-05T12:49:33Z</time>
      </trkpt>
      <trkpt lat="46.13404" lon="6.29968">
        <ele>448.6</ele>
        <time>2022-02-05T12:49:35Z</time>
      </trkpt>
      <trkpt lat="46.13394" lon="6.29955">
        <ele>448.6</ele>
        <time>2022-02-05T12:49:37Z</time>
      </trkpt>
      <trkpt lat="46.13384" lon="6.29944">
        <ele>448.4</ele>
        <time>2022-02-05T12:49:39Z</time>
      </trkpt>
      <trkpt lat="46.13362" lon="6.29924">
        <ele>450</ele>
        <time>2022-02-05T12:49:43Z</time>
      </trkpt>
      <trkpt lat="46.13315" lon="6.29881">
        <ele>451.8</ele>
        <time>2022-02-05T12:49:52Z</time>
      </trkpt>
      <trkpt lat="46.1331" lon="6.29876">
        <ele>452</ele>
        <time>2022-02-05T12:49:53Z</time>
      </trkpt>
      <trkpt lat="46.13294" lon="6.29862">
        <ele>452.2</ele>
        <time>2022-02-05T12:49:56Z</time>
      </trkpt>
      <trkpt lat="46.13264" lon="6.29834">
        <ele>452.8</ele>
        <time>2022-02-05T12:50:02Z</time>
      </trkpt>
      <trkpt lat="46.1326" lon="6.29829">
        <ele>452.8</ele>
        <time>2022-02-05T12:50:03Z</time>
      </trkpt>
      <trkpt lat="46.13255" lon="6.29825">
        <ele>453</ele>
        <time>2022-02-05T12:50:04Z</time>
      </trkpt>
      <trkpt lat="46.13232" lon="6.29803">
        <ele>453.4</ele>
        <time>2022-02-05T12:50:09Z</time>
      </trkpt>
      <trkpt lat="46.13223" lon="6.29795">
        <ele>454</ele>
        <time>2022-02-05T12:50:11Z</time>
      </trkpt>
      <trkpt lat="46.1321" lon="6.29783">
        <ele>455.2</ele>
        <time>2022-02-05T12:50:14Z</time>
      </trkpt>
      <trkpt lat="46.13199" lon="6.29772">
        <ele>456</ele>
        <time>2022-02-05T12:50:17Z</time>
      </trkpt>
      <trkpt lat="46.13194" lon="6.29766">
        <ele>456.2</ele>
        <time>2022-02-05T12:50:19Z</time>
      </trkpt>
      <trkpt lat="46.13191" lon="6.29762">
        <ele>456.4</ele>
        <time>2022-02-05T12:50:21Z</time>
      </trkpt>
      <trkpt lat="46.1319" lon="6.2976">
        <ele>456.6</ele>
        <time>2022-02-05T12:50:23Z</time>
      </trkpt>
      <trkpt lat="46.13188" lon="6.29752">
        <ele>457.8</ele>
        <time>2022-02-05T12:50:26Z</time>
      </trkpt>
      <trkpt lat="46.13178" lon="6.29743">
        <ele>459.4</ele>
        <time>2022-02-05T12:50:29Z</time>
      </trkpt>
      <trkpt lat="46.13174" lon="6.29739">
        <ele>459.8</ele>
        <time>2022-02-05T12:50:30Z</time>
      </trkpt>
      <trkpt lat="46.1317" lon="6.29735">
        <ele>460</ele>
        <time>2022-02-05T12:50:31Z</time>
      </trkpt>
      <trkpt lat="46.13159" lon="6.2972">
        <ele>460.4</ele>
        <time>2022-02-05T12:50:34Z</time>
      </trkpt>
      <trkpt lat="46.13156" lon="6.29715">
        <ele>460.4</ele>
        <time>2022-02-05T12:50:35Z</time>
      </trkpt>
      <trkpt lat="46.1315" lon="6.29696">
        <ele>460.6</ele>
        <time>2022-02-05T12:50:38Z</time>
      </trkpt>
      <trkpt lat="46.13144" lon="6.29682">
        <ele>461</ele>
        <time>2022-02-05T12:50:40Z</time>
      </trkpt>
      <trkpt lat="46.13126" lon="6.29643">
        <ele>462.4</ele>
        <time>2022-02-05T12:50:46Z</time>
      </trkpt>
      <trkpt lat="46.13117" lon="6.29622">
        <ele>463</ele>
        <time>2022-02-05T12:50:49Z</time>
      </trkpt>
      <trkpt lat="46.13109" lon="6.29609">
        <ele>463.2</ele>
        <time>2022-02-05T12:50:51Z</time>
      </trkpt>
      <trkpt lat="46.1308" lon="6.29559">
        <ele>463.6</ele>
        <time>2022-02-05T12:50:58Z</time>
      </trkpt>
      <trkpt lat="46.13074" lon="6.29543">
        <ele>463.6</ele>
        <time>2022-02-05T12:51:00Z</time>
      </trkpt>
      <trkpt lat="46.1306" lon="6.29503">
        <ele>463.6</ele>
        <time>2022-02-05T12:51:05Z</time>
      </trkpt>
      <trkpt lat="46.13058" lon="6.29495">
        <ele>463.8</ele>
        <time>2022-02-05T12:51:06Z</time>
      </trkpt>
      <trkpt lat="46.13052" lon="6.29475">
        <ele>464</ele>
        <time>2022-02-05T12:51:09Z</time>
      </trkpt>
      <trkpt lat="46.13051" lon="6.29467">
        <ele>464.2</ele>
        <time>2022-02-05T12:51:10Z</time>
      </trkpt>
      <trkpt lat="46.13043" lon="6.29438">
        <ele>465</ele>
        <time>2022-02-05T12:51:14Z</time>
      </trkpt>
      <trkpt lat="46.13042" lon="6.29422">
        <ele>465.6</ele>
        <time>2022-02-05T12:51:16Z</time>
      </trkpt>
      <trkpt lat="46.13041" lon="6.2939">
        <ele>466.2</ele>
        <time>2022-02-05T12:51:20Z</time>
      </trkpt>
      <trkpt lat="46.13039" lon="6.29374">
        <ele>466.2</ele>
        <time>2022-02-05T12:51:22Z</time>
      </trkpt>
      <trkpt lat="46.13036" lon="6.29358">
        <ele>466.4</ele>
        <time>2022-02-05T12:51:24Z</time>
      </trkpt>
      <trkpt lat="46.13027" lon="6.29327">
        <ele>466.4</ele>
        <time>2022-02-05T12:51:28Z</time>
      </trkpt>
      <trkpt lat="46.13019" lon="6.29304">
        <ele>466.6</ele>
        <time>2022-02-05T12:51:31Z</time>
      </trkpt>
      <trkpt lat="46.13006" lon="6.29265">
        <ele>466.4</ele>
        <time>2022-02-05T12:51:36Z</time>
      </trkpt>
      <trkpt lat="46.13004" lon="6.29257">
        <ele>466.4</ele>
        <time>2022-02-05T12:51:37Z</time>
      </trkpt>
      <trkpt lat="46.12999" lon="6.29234">
        <ele>466.4</ele>
        <time>2022-02-05T12:51:40Z</time>
      </trkpt>
      <trkpt lat="46.12983" lon="6.29173">
        <ele>466.6</ele>
        <time>2022-02-05T12:51:48Z</time>
      </trkpt>
      <trkpt lat="46.1298" lon="6.29166">
        <ele>466.6</ele>
        <time>2022-02-05T12:51:49Z</time>
      </trkpt>
      <trkpt lat="46.12966" lon="6.29137">
        <ele>467</ele>
        <time>2022-02-05T12:51:53Z</time>
      </trkpt>
      <trkpt lat="46.12962" lon="6.2913">
        <ele>467.2</ele>
        <time>2022-02-05T12:51:54Z</time>
      </trkpt>
      <trkpt lat="46.12931" lon="6.29077">
        <ele>469.4</ele>
        <time>2022-02-05T12:52:02Z</time>
      </trkpt>
      <trkpt lat="46.12895" lon="6.29014">
        <ele>470</ele>
        <time>2022-02-05T12:52:11Z</time>
      </trkpt>
      <trkpt lat="46.12891" lon="6.29007">
        <ele>470.2</ele>
        <time>2022-02-05T12:52:12Z</time>
      </trkpt>
      <trkpt lat="46.12853" lon="6.2894">
        <ele>470.8</ele>
        <time>2022-02-05T12:52:21Z</time>
      </trkpt>
      <trkpt lat="46.12814" lon="6.28874">
        <ele>471.2</ele>
        <time>2022-02-05T12:52:30Z</time>
      </trkpt>
      <trkpt lat="46.1281" lon="6.28867">
        <ele>471.2</ele>
        <time>2022-02-05T12:52:31Z</time>
      </trkpt>
      <trkpt lat="46.12789" lon="6.28834">
        <ele>471.6</ele>
        <time>2022-02-05T12:52:36Z</time>
      </trkpt>
      <trkpt lat="46.12782" lon="6.2882">
        <ele>471.6</ele>
        <time>2022-02-05T12:52:38Z</time>
      </trkpt>
      <trkpt lat="46.12771" lon="6.28812">
        <ele>471.8</ele>
        <time>2022-02-05T12:52:40Z</time>
      </trkpt>
      <trkpt lat="46.12765" lon="6.28813">
        <ele>471.8</ele>
        <time>2022-02-05T12:52:41Z</time>
      </trkpt>
      <trkpt lat="46.12759" lon="6.28816">
        <ele>471.8</ele>
        <time>2022-02-05T12:52:42Z</time>
      </trkpt>
      <trkpt lat="46.1274" lon="6.28832">
        <ele>472</ele>
        <time>2022-02-05T12:52:45Z</time>
      </trkpt>
      <trkpt lat="46.1271" lon="6.28864">
        <ele>472.8</ele>
        <time>2022-02-05T12:52:50Z</time>
      </trkpt>
      <trkpt lat="46.12684" lon="6.28912">
        <ele>472.8</ele>
        <time>2022-02-05T12:52:56Z</time>
      </trkpt>
      <trkpt lat="46.12655" lon="6.28953">
        <ele>472.8</ele>
        <time>2022-02-05T12:53:02Z</time>
      </trkpt>
      <trkpt lat="46.12644" lon="6.28964">
        <ele>472.8</ele>
        <time>2022-02-05T12:53:04Z</time>
      </trkpt>
      <trkpt lat="46.12632" lon="6.28972">
        <ele>472.8</ele>
        <time>2022-02-05T12:53:06Z</time>
      </trkpt>
      <trkpt lat="46.12618" lon="6.28975">
        <ele>472.8</ele>
        <time>2022-02-05T12:53:08Z</time>
      </trkpt>
      <trkpt lat="46.1261" lon="6.28974">
        <ele>472.6</ele>
        <time>2022-02-05T12:53:09Z</time>
      </trkpt>
      <trkpt lat="46.12603" lon="6.28973">
        <ele>472.6</ele>
        <time>2022-02-05T12:53:10Z</time>
      </trkpt>
      <trkpt lat="46.12566" lon="6.28959">
        <ele>472.6</ele>
        <time>2022-02-05T12:53:15Z</time>
      </trkpt>
      <trkpt lat="46.12551" lon="6.28957">
        <ele>472.6</ele>
        <time>2022-02-05T12:53:17Z</time>
      </trkpt>
      <trkpt lat="46.12536" lon="6.28958">
        <ele>472.4</ele>
        <time>2022-02-05T12:53:19Z</time>
      </trkpt>
      <trkpt lat="46.12509" lon="6.28966">
        <ele>472.2</ele>
        <time>2022-02-05T12:53:23Z</time>
      </trkpt>
      <trkpt lat="46.12503" lon="6.28967">
        <ele>472.2</ele>
        <time>2022-02-05T12:53:24Z</time>
      </trkpt>
      <trkpt lat="46.12497" lon="6.28968">
        <ele>472.2</ele>
        <time>2022-02-05T12:53:25Z</time>
      </trkpt>
      <trkpt lat="46.12474" lon="6.28971">
        <ele>472.2</ele>
        <time>2022-02-05T12:53:29Z</time>
      </trkpt>
      <trkpt lat="46.12468" lon="6.28973">
        <ele>472.4</ele>
        <time>2022-02-05T12:53:30Z</time>
      </trkpt>
      <trkpt lat="46.12455" lon="6.2898">
        <ele>473</ele>
        <time>2022-02-05T12:53:32Z</time>
      </trkpt>
      <trkpt lat="46.1245" lon="6.28986">
        <ele>473.4</ele>
        <time>2022-02-05T12:53:33Z</time>
      </trkpt>
      <trkpt lat="46.12444" lon="6.28992">
        <ele>474</ele>
        <time>2022-02-05T12:53:34Z</time>
      </trkpt>
      <trkpt lat="46.12427" lon="6.29022">
        <ele>474.6</ele>
        <time>2022-02-05T12:53:38Z</time>
      </trkpt>
      <trkpt lat="46.12407" lon="6.2906">
        <ele>474.8</ele>
        <time>2022-02-05T12:53:43Z</time>
      </trkpt>
      <trkpt lat="46.12398" lon="6.29073">
        <ele>474.8</ele>
        <time>2022-02-05T12:53:45Z</time>
      </trkpt>
      <trkpt lat="46.12374" lon="6.29106">
        <ele>474.8</ele>
        <time>2022-02-05T12:53:50Z</time>
      </trkpt>
      <trkpt lat="46.12369" lon="6.29109">
        <ele>474.8</ele>
        <time>2022-02-05T12:53:51Z</time>
      </trkpt>
      <trkpt lat="46.12363" lon="6.29108">
        <ele>475</ele>
        <time>2022-02-05T12:53:52Z</time>
      </trkpt>
      <trkpt lat="46.12358" lon="6.29105">
        <ele>474.8</ele>
        <time>2022-02-05T12:53:53Z</time>
      </trkpt>
      <trkpt lat="46.12353" lon="6.29099">
        <ele>474.8</ele>
        <time>2022-02-05T12:53:54Z</time>
      </trkpt>
      <trkpt lat="46.12345" lon="6.29083">
        <ele>474.8</ele>
        <time>2022-02-05T12:53:56Z</time>
      </trkpt>
      <trkpt lat="46.12342" lon="6.29064">
        <ele>474.6</ele>
        <time>2022-02-05T12:53:58Z</time>
      </trkpt>
      <trkpt lat="46.1234" lon="6.29043">
        <ele>474.4</ele>
        <time>2022-02-05T12:54:00Z</time>
      </trkpt>
      <trkpt lat="46.12339" lon="6.29012">
        <ele>474.4</ele>
        <time>2022-02-05T12:54:03Z</time>
      </trkpt>
      <trkpt lat="46.12339" lon="6.28995">
        <ele>474.4</ele>
        <time>2022-02-05T12:54:05Z</time>
      </trkpt>
      <trkpt lat="46.12339" lon="6.28979">
        <ele>474.2</ele>
        <time>2022-02-05T12:54:07Z</time>
      </trkpt>
      <trkpt lat="46.12339" lon="6.28943">
        <ele>474.6</ele>
        <time>2022-02-05T12:54:12Z</time>
      </trkpt>
      <trkpt lat="46.12337" lon="6.28929">
        <ele>475.4</ele>
        <time>2022-02-05T12:54:14Z</time>
      </trkpt>
      <trkpt lat="46.12335" lon="6.28916">
        <ele>476.4</ele>
        <time>2022-02-05T12:54:16Z</time>
      </trkpt>
      <trkpt lat="46.12333" lon="6.28909">
        <ele>477</ele>
        <time>2022-02-05T12:54:17Z</time>
      </trkpt>
      <trkpt lat="46.12328" lon="6.28882">
        <ele>478</ele>
        <time>2022-02-05T12:54:21Z</time>
      </trkpt>
      <trkpt lat="46.12325" lon="6.28861">
        <ele>479.4</ele>
        <time>2022-02-05T12:54:24Z</time>
      </trkpt>
      <trkpt lat="46.12326" lon="6.28815">
        <ele>481.4</ele>
        <time>2022-02-05T12:54:30Z</time>
      </trkpt>
      <trkpt lat="46.12325" lon="6.28801">
        <ele>482</ele>
        <time>2022-02-05T12:54:32Z</time>
      </trkpt>
      <trkpt lat="46.12323" lon="6.28795">
        <ele>482.2</ele>
        <time>2022-02-05T12:54:33Z</time>
      </trkpt>
      <trkpt lat="46.12319" lon="6.2879">
        <ele>482.2</ele>
        <time>2022-02-05T12:54:34Z</time>
      </trkpt>
      <trkpt lat="46.1231" lon="6.2879">
        <ele>482.4</ele>
        <time>2022-02-05T12:54:36Z</time>
      </trkpt>
      <trkpt lat="46.12305" lon="6.28794">
        <ele>482.4</ele>
        <time>2022-02-05T12:54:37Z</time>
      </trkpt>
      <trkpt lat="46.123" lon="6.288">
        <ele>482.6</ele>
        <time>2022-02-05T12:54:38Z</time>
      </trkpt>
      <trkpt lat="46.12282" lon="6.28825">
        <ele>482.8</ele>
        <time>2022-02-05T12:54:42Z</time>
      </trkpt>
      <trkpt lat="46.12246" lon="6.28873">
        <ele>482.8</ele>
        <time>2022-02-05T12:54:50Z</time>
      </trkpt>
      <trkpt lat="46.12206" lon="6.28921">
        <ele>483</ele>
        <time>2022-02-05T12:54:58Z</time>
      </trkpt>
      <trkpt lat="46.12175" lon="6.28941">
        <ele>483</ele>
        <time>2022-02-05T12:55:03Z</time>
      </trkpt>
      <trkpt lat="46.12142" lon="6.28954">
        <ele>482.6</ele>
        <time>2022-02-05T12:55:08Z</time>
      </trkpt>
      <trkpt lat="46.12135" lon="6.28956">
        <ele>482.6</ele>
        <time>2022-02-05T12:55:09Z</time>
      </trkpt>
      <trkpt lat="46.12095" lon="6.28971">
        <ele>482.4</ele>
        <time>2022-02-05T12:55:15Z</time>
      </trkpt>
      <trkpt lat="46.12036" lon="6.28994">
        <ele>482.2</ele>
        <time>2022-02-05T12:55:24Z</time>
      </trkpt>
      <trkpt lat="46.11978" lon="6.29017">
        <ele>482</ele>
        <time>2022-02-05T12:55:33Z</time>
      </trkpt>
      <trkpt lat="46.11934" lon="6.29044">
        <ele>482</ele>
        <time>2022-02-05T12:55:40Z</time>
      </trkpt>
      <trkpt lat="46.11882" lon="6.2908">
        <ele>481.8</ele>
        <time>2022-02-05T12:55:48Z</time>
      </trkpt>
      <trkpt lat="46.11876" lon="6.29084">
        <ele>481.6</ele>
        <time>2022-02-05T12:55:49Z</time>
      </trkpt>
      <trkpt lat="46.11844" lon="6.29107">
        <ele>481.4</ele>
        <time>2022-02-05T12:55:54Z</time>
      </trkpt>
      <trkpt lat="46.11811" lon="6.29128">
        <ele>481.2</ele>
        <time>2022-02-05T12:55:59Z</time>
      </trkpt>
      <trkpt lat="46.11766" lon="6.29152">
        <ele>480.6</ele>
        <time>2022-02-05T12:56:06Z</time>
      </trkpt>
      <trkpt lat="46.11748" lon="6.29158">
        <ele>480.4</ele>
        <time>2022-02-05T12:56:09Z</time>
      </trkpt>
      <trkpt lat="46.11729" lon="6.29163">
        <ele>480.4</ele>
        <time>2022-02-05T12:56:12Z</time>
      </trkpt>
      <trkpt lat="46.1169" lon="6.29173">
        <ele>481.4</ele>
        <time>2022-02-05T12:56:18Z</time>
      </trkpt>
      <trkpt lat="46.11684" lon="6.29175">
        <ele>481.4</ele>
        <time>2022-02-05T12:56:19Z</time>
      </trkpt>
      <trkpt lat="46.11665" lon="6.2918">
        <ele>481.8</ele>
        <time>2022-02-05T12:56:22Z</time>
      </trkpt>
      <trkpt lat="46.11645" lon="6.29187">
        <ele>481.8</ele>
        <time>2022-02-05T12:56:25Z</time>
      </trkpt>
      <trkpt lat="46.11632" lon="6.29193">
        <ele>482</ele>
        <time>2022-02-05T12:56:27Z</time>
      </trkpt>
      <trkpt lat="46.11614" lon="6.29206">
        <ele>482</ele>
        <time>2022-02-05T12:56:30Z</time>
      </trkpt>
      <trkpt lat="46.11602" lon="6.29217">
        <ele>482</ele>
        <time>2022-02-05T12:56:32Z</time>
      </trkpt>
      <trkpt lat="46.11583" lon="6.29233">
        <ele>482</ele>
        <time>2022-02-05T12:56:35Z</time>
      </trkpt>
      <trkpt lat="46.11551" lon="6.2926">
        <ele>482</ele>
        <time>2022-02-05T12:56:40Z</time>
      </trkpt>
      <trkpt lat="46.11527" lon="6.29281">
        <ele>481.8</ele>
        <time>2022-02-05T12:56:44Z</time>
      </trkpt>
      <trkpt lat="46.11492" lon="6.29313">
        <ele>481.8</ele>
        <time>2022-02-05T12:56:50Z</time>
      </trkpt>
      <trkpt lat="46.11487" lon="6.29319">
        <ele>482</ele>
        <time>2022-02-05T12:56:51Z</time>
      </trkpt>
      <trkpt lat="46.11461" lon="6.29345">
        <ele>482.4</ele>
        <time>2022-02-05T12:56:56Z</time>
      </trkpt>
      <trkpt lat="46.11446" lon="6.2936">
        <ele>482.8</ele>
        <time>2022-02-05T12:56:59Z</time>
      </trkpt>
      <trkpt lat="46.11435" lon="6.2937">
        <ele>483.2</ele>
        <time>2022-02-05T12:57:01Z</time>
      </trkpt>
      <trkpt lat="46.11398" lon="6.29405">
        <ele>484</ele>
        <time>2022-02-05T12:57:08Z</time>
      </trkpt>
      <trkpt lat="46.11375" lon="6.29424">
        <ele>484.8</ele>
        <time>2022-02-05T12:57:12Z</time>
      </trkpt>
      <trkpt lat="46.11363" lon="6.29434">
        <ele>484.8</ele>
        <time>2022-02-05T12:57:14Z</time>
      </trkpt>
      <trkpt lat="46.11327" lon="6.29471">
        <ele>485</ele>
        <time>2022-02-05T12:57:21Z</time>
      </trkpt>
      <trkpt lat="46.11307" lon="6.29497">
        <ele>485</ele>
        <time>2022-02-05T12:57:25Z</time>
      </trkpt>
      <trkpt lat="46.11302" lon="6.29503">
        <ele>484.8</ele>
        <time>2022-02-05T12:57:26Z</time>
      </trkpt>
      <trkpt lat="46.11298" lon="6.2951">
        <ele>484.8</ele>
        <time>2022-02-05T12:57:27Z</time>
      </trkpt>
      <trkpt lat="46.1126" lon="6.29563">
        <ele>485.2</ele>
        <time>2022-02-05T12:57:35Z</time>
      </trkpt>
      <trkpt lat="46.11247" lon="6.29585">
        <ele>485.8</ele>
        <time>2022-02-05T12:57:38Z</time>
      </trkpt>
      <trkpt lat="46.11225" lon="6.29624">
        <ele>486</ele>
        <time>2022-02-05T12:57:43Z</time>
      </trkpt>
      <trkpt lat="46.11188" lon="6.29686">
        <ele>486.4</ele>
        <time>2022-02-05T12:57:51Z</time>
      </trkpt>
      <trkpt lat="46.11162" lon="6.29717">
        <ele>486.6</ele>
        <time>2022-02-05T12:57:56Z</time>
      </trkpt>
      <trkpt lat="46.11157" lon="6.29723">
        <ele>486.6</ele>
        <time>2022-02-05T12:57:57Z</time>
      </trkpt>
      <trkpt lat="46.11114" lon="6.29765">
        <ele>487.2</ele>
        <time>2022-02-05T12:58:05Z</time>
      </trkpt>
      <trkpt lat="46.11072" lon="6.29789">
        <ele>487.8</ele>
        <time>2022-02-05T12:58:12Z</time>
      </trkpt>
      <trkpt lat="46.11049" lon="6.29801">
        <ele>488.6</ele>
        <time>2022-02-05T12:58:16Z</time>
      </trkpt>
      <trkpt lat="46.11044" lon="6.29805">
        <ele>488.8</ele>
        <time>2022-02-05T12:58:17Z</time>
      </trkpt>
      <trkpt lat="46.11038" lon="6.2981">
        <ele>489</ele>
        <time>2022-02-05T12:58:18Z</time>
      </trkpt>
      <trkpt lat="46.11004" lon="6.2985">
        <ele>490</ele>
        <time>2022-02-05T12:58:25Z</time>
      </trkpt>
      <trkpt lat="46.10969" lon="6.29892">
        <ele>490.6</ele>
        <time>2022-02-05T12:58:32Z</time>
      </trkpt>
      <trkpt lat="46.10959" lon="6.29901">
        <ele>490.8</ele>
        <time>2022-02-05T12:58:34Z</time>
      </trkpt>
      <trkpt lat="46.10939" lon="6.29919">
        <ele>490.8</ele>
        <time>2022-02-05T12:58:38Z</time>
      </trkpt>
      <trkpt lat="46.10934" lon="6.29923">
        <ele>490.8</ele>
        <time>2022-02-05T12:58:39Z</time>
      </trkpt>
      <trkpt lat="46.10913" lon="6.29934">
        <ele>491.2</ele>
        <time>2022-02-05T12:58:43Z</time>
      </trkpt>
      <trkpt lat="46.10908" lon="6.29937">
        <ele>491.6</ele>
        <time>2022-02-05T12:58:44Z</time>
      </trkpt>
      <trkpt lat="46.10898" lon="6.29942">
        <ele>492</ele>
        <time>2022-02-05T12:58:46Z</time>
      </trkpt>
      <trkpt lat="46.10887" lon="6.29945">
        <ele>492.4</ele>
        <time>2022-02-05T12:58:48Z</time>
      </trkpt>
      <trkpt lat="46.10882" lon="6.29946">
        <ele>492.6</ele>
        <time>2022-02-05T12:58:49Z</time>
      </trkpt>
      <trkpt lat="46.10857" lon="6.2995">
        <ele>493.6</ele>
        <time>2022-02-05T12:58:54Z</time>
      </trkpt>
      <trkpt lat="46.10837" lon="6.29954">
        <ele>494.8</ele>
        <time>2022-02-05T12:58:58Z</time>
      </trkpt>
      <trkpt lat="46.10827" lon="6.29959">
        <ele>495.4</ele>
        <time>2022-02-05T12:59:00Z</time>
      </trkpt>
      <trkpt lat="46.10822" lon="6.29962">
        <ele>495.4</ele>
        <time>2022-02-05T12:59:01Z</time>
      </trkpt>
      <trkpt lat="46.10806" lon="6.29974">
        <ele>495.6</ele>
        <time>2022-02-05T12:59:04Z</time>
      </trkpt>
      <trkpt lat="46.10768" lon="6.3001">
        <ele>496.2</ele>
        <time>2022-02-05T12:59:11Z</time>
      </trkpt>
      <trkpt lat="46.10719" lon="6.30059">
        <ele>496.2</ele>
        <time>2022-02-05T12:59:20Z</time>
      </trkpt>
      <trkpt lat="46.10713" lon="6.30064">
        <ele>496</ele>
        <time>2022-02-05T12:59:21Z</time>
      </trkpt>
      <trkpt lat="46.10671" lon="6.30108">
        <ele>496.4</ele>
        <time>2022-02-05T12:59:29Z</time>
      </trkpt>
      <trkpt lat="46.10643" lon="6.30131">
        <ele>496.6</ele>
        <time>2022-02-05T12:59:34Z</time>
      </trkpt>
      <trkpt lat="46.10637" lon="6.30134">
        <ele>496.6</ele>
        <time>2022-02-05T12:59:35Z</time>
      </trkpt>
      <trkpt lat="46.10631" lon="6.30137">
        <ele>496.6</ele>
        <time>2022-02-05T12:59:36Z</time>
      </trkpt>
      <trkpt lat="46.10612" lon="6.30148">
        <ele>496.8</ele>
        <time>2022-02-05T12:59:39Z</time>
      </trkpt>
      <trkpt lat="46.10601" lon="6.30161">
        <ele>497</ele>
        <time>2022-02-05T12:59:41Z</time>
      </trkpt>
      <trkpt lat="46.10576" lon="6.30203">
        <ele>496.8</ele>
        <time>2022-02-05T12:59:46Z</time>
      </trkpt>
      <trkpt lat="46.1057" lon="6.3021">
        <ele>497</ele>
        <time>2022-02-05T12:59:47Z</time>
      </trkpt>
      <trkpt lat="46.10565" lon="6.30217">
        <ele>496.8</ele>
        <time>2022-02-05T12:59:48Z</time>
      </trkpt>
      <trkpt lat="46.10558" lon="6.30223">
        <ele>497</ele>
        <time>2022-02-05T12:59:49Z</time>
      </trkpt>
      <trkpt lat="46.10539" lon="6.30236">
        <ele>496.4</ele>
        <time>2022-02-05T12:59:52Z</time>
      </trkpt>
      <trkpt lat="46.10513" lon="6.30244">
        <ele>495.4</ele>
        <time>2022-02-05T12:59:56Z</time>
      </trkpt>
      <trkpt lat="46.10496" lon="6.30248">
        <ele>495.2</ele>
        <time>2022-02-05T12:59:59Z</time>
      </trkpt>
      <trkpt lat="46.1049" lon="6.30246">
        <ele>495</ele>
        <time>2022-02-05T13:00:00Z</time>
      </trkpt>
      <trkpt lat="46.10486" lon="6.3024">
        <ele>495</ele>
        <time>2022-02-05T13:00:01Z</time>
      </trkpt>
      <trkpt lat="46.10479" lon="6.30227">
        <ele>494.8</ele>
        <time>2022-02-05T13:00:03Z</time>
      </trkpt>
      <trkpt lat="46.10474" lon="6.3022">
        <ele>494.8</ele>
        <time>2022-02-05T13:00:04Z</time>
      </trkpt>
      <trkpt lat="46.10465" lon="6.30208">
        <ele>494.6</ele>
        <time>2022-02-05T13:00:06Z</time>
      </trkpt>
      <trkpt lat="46.10455" lon="6.30196">
        <ele>494.6</ele>
        <time>2022-02-05T13:00:08Z</time>
      </trkpt>
      <trkpt lat="46.10441" lon="6.30177">
        <ele>494.6</ele>
        <time>2022-02-05T13:00:11Z</time>
      </trkpt>
      <trkpt lat="46.10436" lon="6.30173">
        <ele>494.6</ele>
        <time>2022-02-05T13:00:12Z</time>
      </trkpt>
      <trkpt lat="46.10432" lon="6.30173">
        <ele>494.6</ele>
        <time>2022-02-05T13:00:13Z</time>
      </trkpt>
      <trkpt lat="46.10428" lon="6.30176">
        <ele>494.6</ele>
        <time>2022-02-05T13:00:14Z</time>
      </trkpt>
      <trkpt lat="46.10425" lon="6.30181">
        <ele>494.6</ele>
        <time>2022-02-05T13:00:15Z</time>
      </trkpt>
      <trkpt lat="46.10422" lon="6.30194">
        <ele>494.6</ele>
        <time>2022-02-05T13:00:17Z</time>
      </trkpt>
      <trkpt lat="46.10419" lon="6.30201">
        <ele>494.6</ele>
        <time>2022-02-05T13:00:18Z</time>
      </trkpt>
      <trkpt lat="46.10408" lon="6.30225">
        <ele>494.8</ele>
        <time>2022-02-05T13:00:21Z</time>
      </trkpt>
      <trkpt lat="46.10397" lon="6.30249">
        <ele>494.8</ele>
        <time>2022-02-05T13:00:24Z</time>
      </trkpt>
      <trkpt lat="46.10389" lon="6.30256">
        <ele>494.8</ele>
        <time>2022-02-05T13:00:26Z</time>
      </trkpt>
      <trkpt lat="46.10382" lon="6.30251">
        <ele>494.4</ele>
        <time>2022-02-05T13:00:28Z</time>
      </trkpt>
      <trkpt lat="46.10378" lon="6.30247">
        <ele>494.4</ele>
        <time>2022-02-05T13:00:29Z</time>
      </trkpt>
      <trkpt lat="46.10371" lon="6.30237">
        <ele>494</ele>
        <time>2022-02-05T13:00:31Z</time>
      </trkpt>
      <trkpt lat="46.10363" lon="6.30228">
        <ele>493.6</ele>
        <time>2022-02-05T13:00:33Z</time>
      </trkpt>
      <trkpt lat="46.10359" lon="6.30224">
        <ele>493.4</ele>
        <time>2022-02-05T13:00:34Z</time>
      </trkpt>
      <trkpt lat="46.10351" lon="6.30217">
        <ele>493.4</ele>
        <time>2022-02-05T13:00:36Z</time>
      </trkpt>
      <trkpt lat="46.10339" lon="6.30206">
        <ele>493.4</ele>
        <time>2022-02-05T13:00:39Z</time>
      </trkpt>
      <trkpt lat="46.10331" lon="6.30198">
        <ele>493.4</ele>
        <time>2022-02-05T13:00:41Z</time>
      </trkpt>
      <trkpt lat="46.10313" lon="6.30184">
        <ele>494.4</ele>
        <time>2022-02-05T13:00:45Z</time>
      </trkpt>
      <trkpt lat="46.10308" lon="6.30182">
        <ele>494.8</ele>
        <time>2022-02-05T13:00:46Z</time>
      </trkpt>
      <trkpt lat="46.10298" lon="6.30176">
        <ele>495.2</ele>
        <time>2022-02-05T13:00:48Z</time>
      </trkpt>
      <trkpt lat="46.10279" lon="6.30169">
        <ele>496</ele>
        <time>2022-02-05T13:00:51Z</time>
      </trkpt>
      <trkpt lat="46.10239" lon="6.30162">
        <ele>496.2</ele>
        <time>2022-02-05T13:00:57Z</time>
      </trkpt>
      <trkpt lat="46.10193" lon="6.30163">
        <ele>496</ele>
        <time>2022-02-05T13:01:04Z</time>
      </trkpt>
      <trkpt lat="46.10142" lon="6.30164">
        <ele>495.8</ele>
        <time>2022-02-05T13:01:12Z</time>
      </trkpt>
      <trkpt lat="46.1013" lon="6.30163">
        <ele>496</ele>
        <time>2022-02-05T13:01:14Z</time>
      </trkpt>
      <trkpt lat="46.10112" lon="6.30163">
        <ele>496.2</ele>
        <time>2022-02-05T13:01:17Z</time>
      </trkpt>
      <trkpt lat="46.101" lon="6.30163">
        <ele>496.2</ele>
        <time>2022-02-05T13:01:19Z</time>
      </trkpt>
      <trkpt lat="46.10044" lon="6.30162">
        <ele>498.4</ele>
        <time>2022-02-05T13:01:28Z</time>
      </trkpt>
      <trkpt lat="46.10037" lon="6.30161">
        <ele>498.6</ele>
        <time>2022-02-05T13:01:29Z</time>
      </trkpt>
      <trkpt lat="46.09999" lon="6.30152">
        <ele>499</ele>
        <time>2022-02-05T13:01:35Z</time>
      </trkpt>
      <trkpt lat="46.09949" lon="6.30121">
        <ele>499.2</ele>
        <time>2022-02-05T13:01:43Z</time>
      </trkpt>
      <trkpt lat="46.09923" lon="6.30105">
        <ele>499.2</ele>
        <time>2022-02-05T13:01:47Z</time>
      </trkpt>
      <trkpt lat="46.09896" lon="6.30094">
        <ele>499.4</ele>
        <time>2022-02-05T13:01:51Z</time>
      </trkpt>
      <trkpt lat="46.0985" lon="6.30083">
        <ele>499.8</ele>
        <time>2022-02-05T13:01:58Z</time>
      </trkpt>
      <trkpt lat="46.09827" lon="6.30073">
        <ele>500.2</ele>
        <time>2022-02-05T13:02:02Z</time>
      </trkpt>
      <trkpt lat="46.09822" lon="6.30068">
        <ele>500.2</ele>
        <time>2022-02-05T13:02:03Z</time>
      </trkpt>
      <trkpt lat="46.09807" lon="6.30053">
        <ele>500.4</ele>
        <time>2022-02-05T13:02:06Z</time>
      </trkpt>
      <trkpt lat="46.09792" lon="6.30037">
        <ele>500.6</ele>
        <time>2022-02-05T13:02:09Z</time>
      </trkpt>
      <trkpt lat="46.09757" lon="6.29998">
        <ele>500.8</ele>
        <time>2022-02-05T13:02:16Z</time>
      </trkpt>
      <trkpt lat="46.09732" lon="6.29972">
        <ele>501</ele>
        <time>2022-02-05T13:02:21Z</time>
      </trkpt>
      <trkpt lat="46.09721" lon="6.29964">
        <ele>501.4</ele>
        <time>2022-02-05T13:02:23Z</time>
      </trkpt>
      <trkpt lat="46.09699" lon="6.2995">
        <ele>501.6</ele>
        <time>2022-02-05T13:02:27Z</time>
      </trkpt>
      <trkpt lat="46.09681" lon="6.29941">
        <ele>501.6</ele>
        <time>2022-02-05T13:02:30Z</time>
      </trkpt>
      <trkpt lat="46.09638" lon="6.29927">
        <ele>503.2</ele>
        <time>2022-02-05T13:02:37Z</time>
      </trkpt>
      <trkpt lat="46.09618" lon="6.29926">
        <ele>503.4</ele>
        <time>2022-02-05T13:02:40Z</time>
      </trkpt>
      <trkpt lat="46.09612" lon="6.29927">
        <ele>503.6</ele>
        <time>2022-02-05T13:02:41Z</time>
      </trkpt>
      <trkpt lat="46.09593" lon="6.2993">
        <ele>503.8</ele>
        <time>2022-02-05T13:02:44Z</time>
      </trkpt>
      <trkpt lat="46.09536" lon="6.29945">
        <ele>505.8</ele>
        <time>2022-02-05T13:02:53Z</time>
      </trkpt>
      <trkpt lat="46.09512" lon="6.29952">
        <ele>506</ele>
        <time>2022-02-05T13:02:57Z</time>
      </trkpt>
      <trkpt lat="46.09488" lon="6.29958">
        <ele>506.2</ele>
        <time>2022-02-05T13:03:01Z</time>
      </trkpt>
      <trkpt lat="46.09477" lon="6.2996">
        <ele>506.6</ele>
        <time>2022-02-05T13:03:03Z</time>
      </trkpt>
      <trkpt lat="46.09467" lon="6.29959">
        <ele>507.2</ele>
        <time>2022-02-05T13:03:06Z</time>
      </trkpt>
      <trkpt lat="46.09462" lon="6.29959">
        <ele>507.8</ele>
        <time>2022-02-05T13:03:08Z</time>
      </trkpt>
      <trkpt lat="46.0946" lon="6.29961">
        <ele>507.8</ele>
        <time>2022-02-05T13:03:09Z</time>
      </trkpt>
      <trkpt lat="46.09451" lon="6.29968">
        <ele>508.4</ele>
        <time>2022-02-05T13:03:12Z</time>
      </trkpt>
      <trkpt lat="46.09446" lon="6.29969">
        <ele>508.6</ele>
        <time>2022-02-05T13:03:13Z</time>
      </trkpt>
      <trkpt lat="46.09412" lon="6.29976">
        <ele>509</ele>
        <time>2022-02-05T13:03:19Z</time>
      </trkpt>
      <trkpt lat="46.09394" lon="6.29979">
        <ele>509</ele>
        <time>2022-02-05T13:03:22Z</time>
      </trkpt>
      <trkpt lat="46.09386" lon="6.29972">
        <ele>509</ele>
        <time>2022-02-05T13:03:23Z</time>
      </trkpt>
      <trkpt lat="46.09357" lon="6.29937">
        <ele>509.2</ele>
        <time>2022-02-05T13:03:31Z</time>
      </trkpt>
      <trkpt lat="46.09348" lon="6.29932">
        <ele>509.2</ele>
        <time>2022-02-05T13:03:34Z</time>
      </trkpt>
      <trkpt lat="46.09345" lon="6.29933">
        <ele>509.4</ele>
        <time>2022-02-05T13:03:35Z</time>
      </trkpt>
      <trkpt lat="46.09341" lon="6.29936">
        <ele>509.4</ele>
        <time>2022-02-05T13:03:36Z</time>
      </trkpt>
      <trkpt lat="46.09335" lon="6.29947">
        <ele>509.6</ele>
        <time>2022-02-05T13:03:38Z</time>
      </trkpt>
      <trkpt lat="46.0932" lon="6.29976">
        <ele>510.2</ele>
        <time>2022-02-05T13:03:42Z</time>
      </trkpt>
      <trkpt lat="46.09315" lon="6.29982">
        <ele>510</ele>
        <time>2022-02-05T13:03:43Z</time>
      </trkpt>
      <trkpt lat="46.0931" lon="6.29987">
        <ele>510.2</ele>
        <time>2022-02-05T13:03:44Z</time>
      </trkpt>
      <trkpt lat="46.09299" lon="6.29994">
        <ele>510.2</ele>
        <time>2022-02-05T13:03:46Z</time>
      </trkpt>
      <trkpt lat="46.09288" lon="6.29995">
        <ele>510</ele>
        <time>2022-02-05T13:03:48Z</time>
      </trkpt>
      <trkpt lat="46.09283" lon="6.29992">
        <ele>510</ele>
        <time>2022-02-05T13:03:49Z</time>
      </trkpt>
      <trkpt lat="46.09278" lon="6.29988">
        <ele>510.2</ele>
        <time>2022-02-05T13:03:50Z</time>
      </trkpt>
      <trkpt lat="46.0926" lon="6.29968">
        <ele>510.4</ele>
        <time>2022-02-05T13:03:54Z</time>
      </trkpt>
      <trkpt lat="46.09248" lon="6.29955">
        <ele>510.4</ele>
        <time>2022-02-05T13:03:57Z</time>
      </trkpt>
      <trkpt lat="46.09233" lon="6.29939">
        <ele>510.8</ele>
        <time>2022-02-05T13:04:01Z</time>
      </trkpt>
      <trkpt lat="46.09225" lon="6.2993">
        <ele>511.2</ele>
        <time>2022-02-05T13:04:03Z</time>
      </trkpt>
      <trkpt lat="46.09215" lon="6.29916">
        <ele>511.6</ele>
        <time>2022-02-05T13:04:06Z</time>
      </trkpt>
      <trkpt lat="46.09208" lon="6.29906">
        <ele>512</ele>
        <time>2022-02-05T13:04:08Z</time>
      </trkpt>
      <trkpt lat="46.09179" lon="6.29869">
        <ele>514.2</ele>
        <time>2022-02-05T13:04:16Z</time>
      </trkpt>
      <trkpt lat="46.09175" lon="6.29865">
        <ele>514.2</ele>
        <time>2022-02-05T13:04:17Z</time>
      </trkpt>
      <trkpt lat="46.09161" lon="6.29845">
        <ele>514.8</ele>
        <time>2022-02-05T13:04:21Z</time>
      </trkpt>
      <trkpt lat="46.09144" lon="6.29821">
        <ele>515.8</ele>
        <time>2022-02-05T13:04:26Z</time>
      </trkpt>
      <trkpt lat="46.09137" lon="6.29812">
        <ele>516.6</ele>
        <time>2022-02-05T13:04:28Z</time>
      </trkpt>
      <trkpt lat="46.0913" lon="6.29803">
        <ele>516.8</ele>
        <time>2022-02-05T13:04:30Z</time>
      </trkpt>
      <trkpt lat="46.09119" lon="6.29793">
        <ele>517.4</ele>
        <time>2022-02-05T13:04:33Z</time>
      </trkpt>
      <trkpt lat="46.09115" lon="6.29789">
        <ele>517.6</ele>
        <time>2022-02-05T13:04:34Z</time>
      </trkpt>
      <trkpt lat="46.09108" lon="6.29773">
        <ele>517.8</ele>
        <time>2022-02-05T13:04:37Z</time>
      </trkpt>
      <trkpt lat="46.09096" lon="6.29754">
        <ele>518.6</ele>
        <time>2022-02-05T13:04:41Z</time>
      </trkpt>
      <trkpt lat="46.09088" lon="6.29743">
        <ele>519.4</ele>
        <time>2022-02-05T13:04:44Z</time>
      </trkpt>
      <trkpt lat="46.09068" lon="6.29717">
        <ele>521.8</ele>
        <time>2022-02-05T13:04:51Z</time>
      </trkpt>
      <trkpt lat="46.09062" lon="6.29709">
        <ele>522.2</ele>
        <time>2022-02-05T13:04:53Z</time>
      </trkpt>
      <trkpt lat="46.0905" lon="6.29694">
        <ele>522.8</ele>
        <time>2022-02-05T13:04:57Z</time>
      </trkpt>
      <trkpt lat="46.09047" lon="6.2969">
        <ele>523.2</ele>
        <time>2022-02-05T13:04:58Z</time>
      </trkpt>
      <trkpt lat="46.09035" lon="6.29676">
        <ele>523.6</ele>
        <time>2022-02-05T13:05:02Z</time>
      </trkpt>
      <trkpt lat="46.09022" lon="6.2966">
        <ele>524.8</ele>
        <time>2022-02-05T13:05:06Z</time>
      </trkpt>
      <trkpt lat="46.09006" lon="6.29634">
        <ele>526.4</ele>
        <time>2022-02-05T13:05:12Z</time>
      </trkpt>
      <trkpt lat="46.09002" lon="6.29624">
        <ele>527</ele>
        <time>2022-02-05T13:05:14Z</time>
      </trkpt>
      <trkpt lat="46.0899" lon="6.2959">
        <ele>528.6</ele>
        <time>2022-02-05T13:05:21Z</time>
      </trkpt>
      <trkpt lat="46.08989" lon="6.29585">
        <ele>528.8</ele>
        <time>2022-02-05T13:05:22Z</time>
      </trkpt>
      <trkpt lat="46.08987" lon="6.2958">
        <ele>529</ele>
        <time>2022-02-05T13:05:23Z</time>
      </trkpt>
      <trkpt lat="46.08981" lon="6.29558">
        <ele>529.6</ele>
        <time>2022-02-05T13:05:28Z</time>
      </trkpt>
      <trkpt lat="46.08974" lon="6.29536">
        <ele>531.8</ele>
        <time>2022-02-05T13:05:33Z</time>
      </trkpt>
      <trkpt lat="46.08971" lon="6.29525">
        <ele>532.2</ele>
        <time>2022-02-05T13:05:35Z</time>
      </trkpt>
      <trkpt lat="46.08968" lon="6.2951">
        <ele>533</ele>
        <time>2022-02-05T13:05:38Z</time>
      </trkpt>
      <trkpt lat="46.08968" lon="6.29504">
        <ele>533.4</ele>
        <time>2022-02-05T13:05:39Z</time>
      </trkpt>
      <trkpt lat="46.08967" lon="6.29492">
        <ele>533.6</ele>
        <time>2022-02-05T13:05:41Z</time>
      </trkpt>
      <trkpt lat="46.08971" lon="6.29471">
        <ele>534.4</ele>
        <time>2022-02-05T13:05:45Z</time>
      </trkpt>
      <trkpt lat="46.08973" lon="6.29466">
        <ele>534.6</ele>
        <time>2022-02-05T13:05:46Z</time>
      </trkpt>
      <trkpt lat="46.08986" lon="6.29439">
        <ele>536.8</ele>
        <time>2022-02-05T13:05:52Z</time>
      </trkpt>
      <trkpt lat="46.08991" lon="6.29431">
        <ele>537.2</ele>
        <time>2022-02-05T13:05:54Z</time>
      </trkpt>
      <trkpt lat="46.09" lon="6.29415">
        <ele>537.8</ele>
        <time>2022-02-05T13:05:58Z</time>
      </trkpt>
      <trkpt lat="46.09005" lon="6.29407">
        <ele>538.2</ele>
        <time>2022-02-05T13:06:00Z</time>
      </trkpt>
      <trkpt lat="46.09014" lon="6.29392">
        <ele>539.8</ele>
        <time>2022-02-05T13:06:04Z</time>
      </trkpt>
      <trkpt lat="46.09018" lon="6.29385">
        <ele>540.8</ele>
        <time>2022-02-05T13:06:06Z</time>
      </trkpt>
      <trkpt lat="46.09022" lon="6.29377">
        <ele>541.2</ele>
        <time>2022-02-05T13:06:08Z</time>
      </trkpt>
      <trkpt lat="46.0903" lon="6.29362">
        <ele>542</ele>
        <time>2022-02-05T13:06:12Z</time>
      </trkpt>
      <trkpt lat="46.09032" lon="6.29357">
        <ele>542.4</ele>
        <time>2022-02-05T13:06:13Z</time>
      </trkpt>
      <trkpt lat="46.09042" lon="6.29327">
        <ele>544</ele>
        <time>2022-02-05T13:06:20Z</time>
      </trkpt>
      <trkpt lat="46.09044" lon="6.29318">
        <ele>544.6</ele>
        <time>2022-02-05T13:06:22Z</time>
      </trkpt>
      <trkpt lat="46.09053" lon="6.29292">
        <ele>545.2</ele>
        <time>2022-02-05T13:06:28Z</time>
      </trkpt>
      <trkpt lat="46.09055" lon="6.29288">
        <ele>545.2</ele>
        <time>2022-02-05T13:06:29Z</time>
      </trkpt>
      <trkpt lat="46.09057" lon="6.29279">
        <ele>545.8</ele>
        <time>2022-02-05T13:06:31Z</time>
      </trkpt>
      <trkpt lat="46.09063" lon="6.29261">
        <ele>547</ele>
        <time>2022-02-05T13:06:35Z</time>
      </trkpt>
      <trkpt lat="46.09068" lon="6.29244">
        <ele>548.4</ele>
        <time>2022-02-05T13:06:39Z</time>
      </trkpt>
      <trkpt lat="46.0907" lon="6.2924">
        <ele>548.6</ele>
        <time>2022-02-05T13:06:40Z</time>
      </trkpt>
      <trkpt lat="46.09077" lon="6.29219">
        <ele>550.4</ele>
        <time>2022-02-05T13:06:45Z</time>
      </trkpt>
      <trkpt lat="46.09081" lon="6.29206">
        <ele>551</ele>
        <time>2022-02-05T13:06:48Z</time>
      </trkpt>
      <trkpt lat="46.09084" lon="6.29197">
        <ele>551.6</ele>
        <time>2022-02-05T13:06:50Z</time>
      </trkpt>
      <trkpt lat="46.09086" lon="6.29183">
        <ele>552.4</ele>
        <time>2022-02-05T13:06:53Z</time>
      </trkpt>
      <trkpt lat="46.09086" lon="6.29173">
        <ele>553</ele>
        <time>2022-02-05T13:06:55Z</time>
      </trkpt>
      <trkpt lat="46.09082" lon="6.29129">
        <ele>555.2</ele>
        <time>2022-02-05T13:07:03Z</time>
      </trkpt>
      <trkpt lat="46.09079" lon="6.29097">
        <ele>556</ele>
        <time>2022-02-05T13:07:08Z</time>
      </trkpt>
      <trkpt lat="46.09077" lon="6.29075">
        <ele>556.2</ele>
        <time>2022-02-05T13:07:11Z</time>
      </trkpt>
      <trkpt lat="46.09075" lon="6.29051">
        <ele>556.4</ele>
        <time>2022-02-05T13:07:14Z</time>
      </trkpt>
      <trkpt lat="46.09071" lon="6.29002">
        <ele>556.2</ele>
        <time>2022-02-05T13:07:20Z</time>
      </trkpt>
      <trkpt lat="46.0907" lon="6.28977">
        <ele>556.2</ele>
        <time>2022-02-05T13:07:23Z</time>
      </trkpt>
      <trkpt lat="46.09067" lon="6.28937">
        <ele>556.6</ele>
        <time>2022-02-05T13:07:28Z</time>
      </trkpt>
      <trkpt lat="46.09067" lon="6.28929">
        <ele>556.6</ele>
        <time>2022-02-05T13:07:29Z</time>
      </trkpt>
      <trkpt lat="46.09067" lon="6.28915">
        <ele>556.8</ele>
        <time>2022-02-05T13:07:31Z</time>
      </trkpt>
      <trkpt lat="46.09068" lon="6.28909">
        <ele>556.8</ele>
        <time>2022-02-05T13:07:32Z</time>
      </trkpt>
      <trkpt lat="46.09069" lon="6.28903">
        <ele>556.8</ele>
        <time>2022-02-05T13:07:33Z</time>
      </trkpt>
      <trkpt lat="46.09069" lon="6.28888">
        <ele>557.6</ele>
        <time>2022-02-05T13:07:36Z</time>
      </trkpt>
      <trkpt lat="46.09068" lon="6.28882">
        <ele>558</ele>
        <time>2022-02-05T13:07:37Z</time>
      </trkpt>
      <trkpt lat="46.09067" lon="6.28876">
        <ele>558.4</ele>
        <time>2022-02-05T13:07:38Z</time>
      </trkpt>
      <trkpt lat="46.09065" lon="6.28864">
        <ele>559</ele>
        <time>2022-02-05T13:07:40Z</time>
      </trkpt>
      <trkpt lat="46.09064" lon="6.28858">
        <ele>559.6</ele>
        <time>2022-02-05T13:07:41Z</time>
      </trkpt>
      <trkpt lat="46.09057" lon="6.28826">
        <ele>561.2</ele>
        <time>2022-02-05T13:07:47Z</time>
      </trkpt>
      <trkpt lat="46.09056" lon="6.28821">
        <ele>561.4</ele>
        <time>2022-02-05T13:07:48Z</time>
      </trkpt>
      <trkpt lat="46.09055" lon="6.28816">
        <ele>561.4</ele>
        <time>2022-02-05T13:07:49Z</time>
      </trkpt>
      <trkpt lat="46.09054" lon="6.28801">
        <ele>561.8</ele>
        <time>2022-02-05T13:07:52Z</time>
      </trkpt>
      <trkpt lat="46.09055" lon="6.28786">
        <ele>562.2</ele>
        <time>2022-02-05T13:07:55Z</time>
      </trkpt>
      <trkpt lat="46.09055" lon="6.28781">
        <ele>562.6</ele>
        <time>2022-02-05T13:07:56Z</time>
      </trkpt>
      <trkpt lat="46.09054" lon="6.28756">
        <ele>564.2</ele>
        <time>2022-02-05T13:08:01Z</time>
      </trkpt>
      <trkpt lat="46.09055" lon="6.2875">
        <ele>564.4</ele>
        <time>2022-02-05T13:08:02Z</time>
      </trkpt>
      <trkpt lat="46.09059" lon="6.28724">
        <ele>566</ele>
        <time>2022-02-05T13:08:07Z</time>
      </trkpt>
      <trkpt lat="46.09059" lon="6.28712">
        <ele>566.6</ele>
        <time>2022-02-05T13:08:09Z</time>
      </trkpt>
      <trkpt lat="46.09055" lon="6.287">
        <ele>566.8</ele>
        <time>2022-02-05T13:08:11Z</time>
      </trkpt>
      <trkpt lat="46.09049" lon="6.28691">
        <ele>567</ele>
        <time>2022-02-05T13:08:13Z</time>
      </trkpt>
      <trkpt lat="46.09042" lon="6.28685">
        <ele>567.2</ele>
        <time>2022-02-05T13:08:15Z</time>
      </trkpt>
      <trkpt lat="46.09038" lon="6.28681">
        <ele>567.2</ele>
        <time>2022-02-05T13:08:16Z</time>
      </trkpt>
      <trkpt lat="46.09033" lon="6.28671">
        <ele>567.6</ele>
        <time>2022-02-05T13:08:18Z</time>
      </trkpt>
      <trkpt lat="46.09032" lon="6.28665">
        <ele>567.4</ele>
        <time>2022-02-05T13:08:19Z</time>
      </trkpt>
      <trkpt lat="46.09032" lon="6.28658">
        <ele>567.6</ele>
        <time>2022-02-05T13:08:20Z</time>
      </trkpt>
      <trkpt lat="46.09033" lon="6.28652">
        <ele>567.6</ele>
        <time>2022-02-05T13:08:21Z</time>
      </trkpt>
      <trkpt lat="46.09036" lon="6.2864">
        <ele>567.6</ele>
        <time>2022-02-05T13:08:23Z</time>
      </trkpt>
      <trkpt lat="46.09051" lon="6.28585">
        <ele>569.6</ele>
        <time>2022-02-05T13:08:32Z</time>
      </trkpt>
      <trkpt lat="46.09054" lon="6.28579">
        <ele>570</ele>
        <time>2022-02-05T13:08:33Z</time>
      </trkpt>
      <trkpt lat="46.09074" lon="6.28532">
        <ele>570.6</ele>
        <time>2022-02-05T13:08:41Z</time>
      </trkpt>
      <trkpt lat="46.0908" lon="6.28521">
        <ele>570.8</ele>
        <time>2022-02-05T13:08:43Z</time>
      </trkpt>
      <trkpt lat="46.09083" lon="6.28515">
        <ele>571</ele>
        <time>2022-02-05T13:08:44Z</time>
      </trkpt>
      <trkpt lat="46.09085" lon="6.28502">
        <ele>571</ele>
        <time>2022-02-05T13:08:46Z</time>
      </trkpt>
      <trkpt lat="46.09084" lon="6.28489">
        <ele>571</ele>
        <time>2022-02-05T13:08:48Z</time>
      </trkpt>
      <trkpt lat="46.09081" lon="6.28477">
        <ele>571</ele>
        <time>2022-02-05T13:08:50Z</time>
      </trkpt>
      <trkpt lat="46.09079" lon="6.28472">
        <ele>571.2</ele>
        <time>2022-02-05T13:08:51Z</time>
      </trkpt>
      <trkpt lat="46.09075" lon="6.28457">
        <ele>571.6</ele>
        <time>2022-02-05T13:08:54Z</time>
      </trkpt>
      <trkpt lat="46.09071" lon="6.28441">
        <ele>572.2</ele>
        <time>2022-02-05T13:08:57Z</time>
      </trkpt>
      <trkpt lat="46.09067" lon="6.28433">
        <ele>573</ele>
        <time>2022-02-05T13:08:59Z</time>
      </trkpt>
      <trkpt lat="46.0906" lon="6.28418">
        <ele>575</ele>
        <time>2022-02-05T13:09:03Z</time>
      </trkpt>
      <trkpt lat="46.09058" lon="6.28415">
        <ele>575.2</ele>
        <time>2022-02-05T13:09:04Z</time>
      </trkpt>
      <trkpt lat="46.09046" lon="6.28408">
        <ele>576.4</ele>
        <time>2022-02-05T13:09:08Z</time>
      </trkpt>
      <trkpt lat="46.0904" lon="6.28406">
        <ele>576.8</ele>
        <time>2022-02-05T13:09:10Z</time>
      </trkpt>
      <trkpt lat="46.09037" lon="6.28405">
        <ele>577.4</ele>
        <time>2022-02-05T13:09:11Z</time>
      </trkpt>
      <trkpt lat="46.09022" lon="6.28405">
        <ele>579</ele>
        <time>2022-02-05T13:09:16Z</time>
      </trkpt>
      <trkpt lat="46.09019" lon="6.28406">
        <ele>579.2</ele>
        <time>2022-02-05T13:09:17Z</time>
      </trkpt>
      <trkpt lat="46.09013" lon="6.28408">
        <ele>580</ele>
        <time>2022-02-05T13:09:19Z</time>
      </trkpt>
      <trkpt lat="46.09005" lon="6.28411">
        <ele>580.6</ele>
        <time>2022-02-05T13:09:22Z</time>
      </trkpt>
      <trkpt lat="46.08995" lon="6.28415">
        <ele>581</ele>
        <time>2022-02-05T13:09:26Z</time>
      </trkpt>
      <trkpt lat="46.08985" lon="6.28418">
        <ele>583.2</ele>
        <time>2022-02-05T13:09:30Z</time>
      </trkpt>
      <trkpt lat="46.08982" lon="6.28419">
        <ele>583.6</ele>
        <time>2022-02-05T13:09:31Z</time>
      </trkpt>
      <trkpt lat="46.0897" lon="6.28422">
        <ele>584.2</ele>
        <time>2022-02-05T13:09:35Z</time>
      </trkpt>
      <trkpt lat="46.08964" lon="6.28423">
        <ele>584.4</ele>
        <time>2022-02-05T13:09:37Z</time>
      </trkpt>
      <trkpt lat="46.08959" lon="6.28425">
        <ele>585</ele>
        <time>2022-02-05T13:09:39Z</time>
      </trkpt>
      <trkpt lat="46.0895" lon="6.28428">
        <ele>586</ele>
        <time>2022-02-05T13:09:42Z</time>
      </trkpt>
      <trkpt lat="46.08947" lon="6.2843">
        <ele>586.2</ele>
        <time>2022-02-05T13:09:43Z</time>
      </trkpt>
      <trkpt lat="46.08932" lon="6.28442">
        <ele>588.2</ele>
        <time>2022-02-05T13:09:49Z</time>
      </trkpt>
      <trkpt lat="46.08931" lon="6.28444">
        <ele>588.6</ele>
        <time>2022-02-05T13:09:50Z</time>
      </trkpt>
      <trkpt lat="46.08927" lon="6.2845">
        <ele>589.6</ele>
        <time>2022-02-05T13:09:53Z</time>
      </trkpt>
      <trkpt lat="46.08926" lon="6.28451">
        <ele>589.8</ele>
        <time>2022-02-05T13:09:54Z</time>
      </trkpt>
      <trkpt lat="46.08918" lon="6.28462">
        <ele>590.4</ele>
        <time>2022-02-05T13:10:00Z</time>
      </trkpt>
      <trkpt lat="46.08917" lon="6.28464">
        <ele>590.6</ele>
        <time>2022-02-05T13:10:01Z</time>
      </trkpt>
      <trkpt lat="46.08907" lon="6.28472">
        <ele>590.8</ele>
        <time>2022-02-05T13:10:06Z</time>
      </trkpt>
      <trkpt lat="46.08895" lon="6.28478">
        <ele>591.6</ele>
        <time>2022-02-05T13:10:11Z</time>
      </trkpt>
      <trkpt lat="46.08873" lon="6.28487">
        <ele>591.6</ele>
        <time>2022-02-05T13:10:18Z</time>
      </trkpt>
      <trkpt lat="46.08846" lon="6.28496">
        <ele>591.6</ele>
        <time>2022-02-05T13:10:25Z</time>
      </trkpt>
      <trkpt lat="46.08805" lon="6.28513">
        <ele>591.4</ele>
        <time>2022-02-05T13:10:35Z</time>
      </trkpt>
      <trkpt lat="46.08789" lon="6.2852">
        <ele>591.6</ele>
        <time>2022-02-05T13:10:40Z</time>
      </trkpt>
      <trkpt lat="46.08783" lon="6.28522">
        <ele>591.8</ele>
        <time>2022-02-05T13:10:42Z</time>
      </trkpt>
      <trkpt lat="46.08769" lon="6.28529">
        <ele>592.2</ele>
        <time>2022-02-05T13:10:46Z</time>
      </trkpt>
      <trkpt lat="46.08747" lon="6.28539">
        <ele>592.6</ele>
        <time>2022-02-05T13:10:52Z</time>
      </trkpt>
      <trkpt lat="46.08739" lon="6.28542">
        <ele>592.6</ele>
        <time>2022-02-05T13:10:54Z</time>
      </trkpt>
      <trkpt lat="46.08726" lon="6.28546">
        <ele>593</ele>
        <time>2022-02-05T13:10:57Z</time>
      </trkpt>
      <trkpt lat="46.08704" lon="6.2855">
        <ele>593.8</ele>
        <time>2022-02-05T13:11:02Z</time>
      </trkpt>
      <trkpt lat="46.08691" lon="6.28549">
        <ele>594.4</ele>
        <time>2022-02-05T13:11:05Z</time>
      </trkpt>
      <trkpt lat="46.0867" lon="6.28546">
        <ele>595.6</ele>
        <time>2022-02-05T13:11:09Z</time>
      </trkpt>
      <trkpt lat="46.08649" lon="6.28544">
        <ele>596</ele>
        <time>2022-02-05T13:11:13Z</time>
      </trkpt>
      <trkpt lat="46.08625" lon="6.28539">
        <ele>596.6</ele>
        <time>2022-02-05T13:11:17Z</time>
      </trkpt>
      <trkpt lat="46.08568" lon="6.2853">
        <ele>597.4</ele>
        <time>2022-02-05T13:11:26Z</time>
      </trkpt>
      <trkpt lat="46.08531" lon="6.28534">
        <ele>597.6</ele>
        <time>2022-02-05T13:11:32Z</time>
      </trkpt>
      <trkpt lat="46.08525" lon="6.28537">
        <ele>597.6</ele>
        <time>2022-02-05T13:11:33Z</time>
      </trkpt>
      <trkpt lat="46.08502" lon="6.28552">
        <ele>597.8</ele>
        <time>2022-02-05T13:11:37Z</time>
      </trkpt>
      <trkpt lat="46.08477" lon="6.28559">
        <ele>598</ele>
        <time>2022-02-05T13:11:41Z</time>
      </trkpt>
      <trkpt lat="46.08471" lon="6.2856">
        <ele>598</ele>
        <time>2022-02-05T13:11:42Z</time>
      </trkpt>
      <trkpt lat="46.08465" lon="6.28559">
        <ele>598</ele>
        <time>2022-02-05T13:11:43Z</time>
      </trkpt>
      <trkpt lat="46.08453" lon="6.28556">
        <ele>598</ele>
        <time>2022-02-05T13:11:45Z</time>
      </trkpt>
      <trkpt lat="46.08447" lon="6.28553">
        <ele>598.4</ele>
        <time>2022-02-05T13:11:46Z</time>
      </trkpt>
      <trkpt lat="46.08442" lon="6.28548">
        <ele>598.4</ele>
        <time>2022-02-05T13:11:47Z</time>
      </trkpt>
      <trkpt lat="46.08433" lon="6.28537">
        <ele>598.4</ele>
        <time>2022-02-05T13:11:49Z</time>
      </trkpt>
      <trkpt lat="46.0843" lon="6.2853">
        <ele>598.6</ele>
        <time>2022-02-05T13:11:50Z</time>
      </trkpt>
      <trkpt lat="46.08425" lon="6.28517">
        <ele>598.4</ele>
        <time>2022-02-05T13:11:52Z</time>
      </trkpt>
      <trkpt lat="46.08418" lon="6.28499">
        <ele>598.8</ele>
        <time>2022-02-05T13:11:55Z</time>
      </trkpt>
      <trkpt lat="46.08416" lon="6.28494">
        <ele>598.8</ele>
        <time>2022-02-05T13:11:56Z</time>
      </trkpt>
      <trkpt lat="46.08407" lon="6.2848">
        <ele>599.2</ele>
        <time>2022-02-05T13:11:59Z</time>
      </trkpt>
      <trkpt lat="46.084" lon="6.28473">
        <ele>600</ele>
        <time>2022-02-05T13:12:01Z</time>
      </trkpt>
      <trkpt lat="46.08396" lon="6.28471">
        <ele>600.4</ele>
        <time>2022-02-05T13:12:02Z</time>
      </trkpt>
      <trkpt lat="46.08392" lon="6.28471">
        <ele>601</ele>
        <time>2022-02-05T13:12:03Z</time>
      </trkpt>
      <trkpt lat="46.08383" lon="6.28475">
        <ele>601.6</ele>
        <time>2022-02-05T13:12:05Z</time>
      </trkpt>
      <trkpt lat="46.08364" lon="6.28493">
        <ele>603.2</ele>
        <time>2022-02-05T13:12:09Z</time>
      </trkpt>
      <trkpt lat="46.08351" lon="6.28502">
        <ele>603.6</ele>
        <time>2022-02-05T13:12:11Z</time>
      </trkpt>
      <trkpt lat="46.08324" lon="6.28522">
        <ele>603.6</ele>
        <time>2022-02-05T13:12:15Z</time>
      </trkpt>
      <trkpt lat="46.0828" lon="6.28546">
        <ele>603</ele>
        <time>2022-02-05T13:12:21Z</time>
      </trkpt>
      <trkpt lat="46.08264" lon="6.2855">
        <ele>602.8</ele>
        <time>2022-02-05T13:12:23Z</time>
      </trkpt>
      <trkpt lat="46.08242" lon="6.28551">
        <ele>602.6</ele>
        <time>2022-02-05T13:12:26Z</time>
      </trkpt>
      <trkpt lat="46.08235" lon="6.2855">
        <ele>602.6</ele>
        <time>2022-02-05T13:12:27Z</time>
      </trkpt>
      <trkpt lat="46.08224" lon="6.28547">
        <ele>602.6</ele>
        <time>2022-02-05T13:12:29Z</time>
      </trkpt>
      <trkpt lat="46.08219" lon="6.28546">
        <ele>602.8</ele>
        <time>2022-02-05T13:12:30Z</time>
      </trkpt>
      <trkpt lat="46.0821" lon="6.28543">
        <ele>602.8</ele>
        <time>2022-02-05T13:12:32Z</time>
      </trkpt>
      <trkpt lat="46.08206" lon="6.28542">
        <ele>602.8</ele>
        <time>2022-02-05T13:12:33Z</time>
      </trkpt>
      <trkpt lat="46.08201" lon="6.2854">
        <ele>602.8</ele>
        <time>2022-02-05T13:12:34Z</time>
      </trkpt>
      <trkpt lat="46.08193" lon="6.28538">
        <ele>603.4</ele>
        <time>2022-02-05T13:12:36Z</time>
      </trkpt>
      <trkpt lat="46.08178" lon="6.2854">
        <ele>604.8</ele>
        <time>2022-02-05T13:12:39Z</time>
      </trkpt>
      <trkpt lat="46.08163" lon="6.28543">
        <ele>606.2</ele>
        <time>2022-02-05T13:12:42Z</time>
      </trkpt>
      <trkpt lat="46.08153" lon="6.28545">
        <ele>607.6</ele>
        <time>2022-02-05T13:12:44Z</time>
      </trkpt>
      <trkpt lat="46.08126" lon="6.28551">
        <ele>608.8</ele>
        <time>2022-02-05T13:12:49Z</time>
      </trkpt>
      <trkpt lat="46.08079" lon="6.28563">
        <ele>610</ele>
        <time>2022-02-05T13:12:57Z</time>
      </trkpt>
      <trkpt lat="46.08038" lon="6.28586">
        <ele>610.2</ele>
        <time>2022-02-05T13:13:04Z</time>
      </trkpt>
      <trkpt lat="46.08022" lon="6.28596">
        <ele>610.2</ele>
        <time>2022-02-05T13:13:07Z</time>
      </trkpt>
      <trkpt lat="46.08001" lon="6.28606">
        <ele>610.4</ele>
        <time>2022-02-05T13:13:11Z</time>
      </trkpt>
      <trkpt lat="46.07996" lon="6.28607">
        <ele>610.4</ele>
        <time>2022-02-05T13:13:12Z</time>
      </trkpt>
      <trkpt lat="46.07977" lon="6.28608">
        <ele>611.2</ele>
        <time>2022-02-05T13:13:16Z</time>
      </trkpt>
      <trkpt lat="46.07962" lon="6.28606">
        <ele>612</ele>
        <time>2022-02-05T13:13:19Z</time>
      </trkpt>
      <trkpt lat="46.07953" lon="6.28604">
        <ele>612.8</ele>
        <time>2022-02-05T13:13:21Z</time>
      </trkpt>
      <trkpt lat="46.07943" lon="6.28603">
        <ele>613.2</ele>
        <time>2022-02-05T13:13:23Z</time>
      </trkpt>
      <trkpt lat="46.0793" lon="6.286">
        <ele>614.2</ele>
        <time>2022-02-05T13:13:26Z</time>
      </trkpt>
      <trkpt lat="46.07926" lon="6.28599">
        <ele>614.4</ele>
        <time>2022-02-05T13:13:27Z</time>
      </trkpt>
      <trkpt lat="46.07903" lon="6.28599">
        <ele>616.2</ele>
        <time>2022-02-05T13:13:32Z</time>
      </trkpt>
      <trkpt lat="46.07899" lon="6.286">
        <ele>616.6</ele>
        <time>2022-02-05T13:13:33Z</time>
      </trkpt>
      <trkpt lat="46.0789" lon="6.28605">
        <ele>617.4</ele>
        <time>2022-02-05T13:13:35Z</time>
      </trkpt>
      <trkpt lat="46.07881" lon="6.28613">
        <ele>618</ele>
        <time>2022-02-05T13:13:37Z</time>
      </trkpt>
      <trkpt lat="46.07871" lon="6.28623">
        <ele>618.2</ele>
        <time>2022-02-05T13:13:39Z</time>
      </trkpt>
      <trkpt lat="46.0785" lon="6.28647">
        <ele>618.2</ele>
        <time>2022-02-05T13:13:43Z</time>
      </trkpt>
      <trkpt lat="46.07829" lon="6.28674">
        <ele>618.2</ele>
        <time>2022-02-05T13:13:47Z</time>
      </trkpt>
      <trkpt lat="46.07822" lon="6.28691">
        <ele>618</ele>
        <time>2022-02-05T13:13:49Z</time>
      </trkpt>
      <trkpt lat="46.07818" lon="6.287">
        <ele>617.6</ele>
        <time>2022-02-05T13:13:50Z</time>
      </trkpt>
      <trkpt lat="46.07809" lon="6.28719">
        <ele>617.6</ele>
        <time>2022-02-05T13:13:52Z</time>
      </trkpt>
      <trkpt lat="46.07798" lon="6.28736">
        <ele>617.2</ele>
        <time>2022-02-05T13:13:54Z</time>
      </trkpt>
      <trkpt lat="46.07791" lon="6.28743">
        <ele>617</ele>
        <time>2022-02-05T13:13:55Z</time>
      </trkpt>
      <trkpt lat="46.07762" lon="6.2877">
        <ele>616.6</ele>
        <time>2022-02-05T13:13:59Z</time>
      </trkpt>
      <trkpt lat="46.07714" lon="6.28812">
        <ele>615</ele>
        <time>2022-02-05T13:14:06Z</time>
      </trkpt>
      <trkpt lat="46.07707" lon="6.28817">
        <ele>615</ele>
        <time>2022-02-05T13:14:07Z</time>
      </trkpt>
      <trkpt lat="46.07701" lon="6.28823">
        <ele>614.8</ele>
        <time>2022-02-05T13:14:08Z</time>
      </trkpt>
      <trkpt lat="46.07676" lon="6.28847">
        <ele>614.8</ele>
        <time>2022-02-05T13:14:12Z</time>
      </trkpt>
      <trkpt lat="46.07665" lon="6.2886">
        <ele>615</ele>
        <time>2022-02-05T13:14:14Z</time>
      </trkpt>
      <trkpt lat="46.0764" lon="6.28895">
        <ele>616.4</ele>
        <time>2022-02-05T13:14:19Z</time>
      </trkpt>
      <trkpt lat="46.07634" lon="6.28901">
        <ele>616.6</ele>
        <time>2022-02-05T13:14:20Z</time>
      </trkpt>
      <trkpt lat="46.07613" lon="6.28923">
        <ele>617.8</ele>
        <time>2022-02-05T13:14:24Z</time>
      </trkpt>
      <trkpt lat="46.07608" lon="6.28927">
        <ele>617.8</ele>
        <time>2022-02-05T13:14:25Z</time>
      </trkpt>
      <trkpt lat="46.07597" lon="6.28936">
        <ele>618</ele>
        <time>2022-02-05T13:14:27Z</time>
      </trkpt>
      <trkpt lat="46.07572" lon="6.28955">
        <ele>618.8</ele>
        <time>2022-02-05T13:14:32Z</time>
      </trkpt>
      <trkpt lat="46.07563" lon="6.28963">
        <ele>619.6</ele>
        <time>2022-02-05T13:14:34Z</time>
      </trkpt>
      <trkpt lat="46.07558" lon="6.28977">
        <ele>620</ele>
        <time>2022-02-05T13:14:36Z</time>
      </trkpt>
      <trkpt lat="46.07558" lon="6.28985">
        <ele>620.4</ele>
        <time>2022-02-05T13:14:37Z</time>
      </trkpt>
      <trkpt lat="46.07556" lon="6.28994">
        <ele>620.6</ele>
        <time>2022-02-05T13:14:38Z</time>
      </trkpt>
      <trkpt lat="46.07548" lon="6.2901">
        <ele>620.8</ele>
        <time>2022-02-05T13:14:40Z</time>
      </trkpt>
      <trkpt lat="46.07536" lon="6.29024">
        <ele>620.8</ele>
        <time>2022-02-05T13:14:42Z</time>
      </trkpt>
      <trkpt lat="46.07522" lon="6.29038">
        <ele>620.6</ele>
        <time>2022-02-05T13:14:44Z</time>
      </trkpt>
      <trkpt lat="46.07514" lon="6.29044">
        <ele>620.8</ele>
        <time>2022-02-05T13:14:45Z</time>
      </trkpt>
      <trkpt lat="46.07497" lon="6.2905">
        <ele>620.8</ele>
        <time>2022-02-05T13:14:47Z</time>
      </trkpt>
      <trkpt lat="46.0748" lon="6.29051">
        <ele>619.6</ele>
        <time>2022-02-05T13:14:49Z</time>
      </trkpt>
      <trkpt lat="46.07464" lon="6.2905">
        <ele>619.4</ele>
        <time>2022-02-05T13:14:51Z</time>
      </trkpt>
      <trkpt lat="46.07457" lon="6.29049">
        <ele>619.2</ele>
        <time>2022-02-05T13:14:52Z</time>
      </trkpt>
      <trkpt lat="46.07437" lon="6.29045">
        <ele>619</ele>
        <time>2022-02-05T13:14:55Z</time>
      </trkpt>
      <trkpt lat="46.07431" lon="6.29044">
        <ele>619.2</ele>
        <time>2022-02-05T13:14:56Z</time>
      </trkpt>
      <trkpt lat="46.0742" lon="6.29042">
        <ele>619</ele>
        <time>2022-02-05T13:14:58Z</time>
      </trkpt>
      <trkpt lat="46.07407" lon="6.29037">
        <ele>619.4</ele>
        <time>2022-02-05T13:15:01Z</time>
      </trkpt>
      <trkpt lat="46.07403" lon="6.29037">
        <ele>619.8</ele>
        <time>2022-02-05T13:15:02Z</time>
      </trkpt>
      <trkpt lat="46.07382" lon="6.29034">
        <ele>622</ele>
        <time>2022-02-05T13:15:06Z</time>
      </trkpt>
      <trkpt lat="46.07371" lon="6.29031">
        <ele>623</ele>
        <time>2022-02-05T13:15:08Z</time>
      </trkpt>
      <trkpt lat="46.07366" lon="6.29028">
        <ele>623.4</ele>
        <time>2022-02-05T13:15:09Z</time>
      </trkpt>
      <trkpt lat="46.07361" lon="6.29025">
        <ele>624</ele>
        <time>2022-02-05T13:15:10Z</time>
      </trkpt>
      <trkpt lat="46.07357" lon="6.29021">
        <ele>624.2</ele>
        <time>2022-02-05T13:15:11Z</time>
      </trkpt>
      <trkpt lat="46.07349" lon="6.29012">
        <ele>624.2</ele>
        <time>2022-02-05T13:15:13Z</time>
      </trkpt>
      <trkpt lat="46.07345" lon="6.29007">
        <ele>624.4</ele>
        <time>2022-02-05T13:15:14Z</time>
      </trkpt>
      <trkpt lat="46.07339" lon="6.28998">
        <ele>624.6</ele>
        <time>2022-02-05T13:15:16Z</time>
      </trkpt>
      <trkpt lat="46.07334" lon="6.2899">
        <ele>625.2</ele>
        <time>2022-02-05T13:15:18Z</time>
      </trkpt>
      <trkpt lat="46.07326" lon="6.28979">
        <ele>626</ele>
        <time>2022-02-05T13:15:21Z</time>
      </trkpt>
      <trkpt lat="46.07323" lon="6.28977">
        <ele>626.4</ele>
        <time>2022-02-05T13:15:22Z</time>
      </trkpt>
      <trkpt lat="46.07314" lon="6.28971">
        <ele>627.2</ele>
        <time>2022-02-05T13:15:25Z</time>
      </trkpt>
      <trkpt lat="46.07308" lon="6.28971">
        <ele>627.8</ele>
        <time>2022-02-05T13:15:27Z</time>
      </trkpt>
      <trkpt lat="46.07305" lon="6.28971">
        <ele>628.4</ele>
        <time>2022-02-05T13:15:28Z</time>
      </trkpt>
      <trkpt lat="46.07293" lon="6.28978">
        <ele>630.2</ele>
        <time>2022-02-05T13:15:32Z</time>
      </trkpt>
      <trkpt lat="46.07283" lon="6.28998">
        <ele>631.8</ele>
        <time>2022-02-05T13:15:37Z</time>
      </trkpt>
      <trkpt lat="46.07277" lon="6.29037">
        <ele>634</ele>
        <time>2022-02-05T13:15:44Z</time>
      </trkpt>
      <trkpt lat="46.07266" lon="6.2909">
        <ele>635</ele>
        <time>2022-02-05T13:15:52Z</time>
      </trkpt>
      <trkpt lat="46.0726" lon="6.29105">
        <ele>635</ele>
        <time>2022-02-05T13:15:54Z</time>
      </trkpt>
      <trkpt lat="46.07256" lon="6.29112">
        <ele>635</ele>
        <time>2022-02-05T13:15:55Z</time>
      </trkpt>
      <trkpt lat="46.07252" lon="6.2912">
        <ele>635</ele>
        <time>2022-02-05T13:15:56Z</time>
      </trkpt>
      <trkpt lat="46.07246" lon="6.29127">
        <ele>635.2</ele>
        <time>2022-02-05T13:15:57Z</time>
      </trkpt>
      <trkpt lat="46.0724" lon="6.29133">
        <ele>635</ele>
        <time>2022-02-05T13:15:58Z</time>
      </trkpt>
      <trkpt lat="46.07226" lon="6.29145">
        <ele>634.8</ele>
        <time>2022-02-05T13:16:00Z</time>
      </trkpt>
      <trkpt lat="46.07218" lon="6.29151">
        <ele>634.8</ele>
        <time>2022-02-05T13:16:01Z</time>
      </trkpt>
      <trkpt lat="46.07191" lon="6.29168">
        <ele>633.8</ele>
        <time>2022-02-05T13:16:04Z</time>
      </trkpt>
      <trkpt lat="46.07157" lon="6.29188">
        <ele>631.8</ele>
        <time>2022-02-05T13:16:08Z</time>
      </trkpt>
      <trkpt lat="46.07123" lon="6.29205">
        <ele>629.4</ele>
        <time>2022-02-05T13:16:12Z</time>
      </trkpt>
      <trkpt lat="46.07106" lon="6.29212">
        <ele>629.2</ele>
        <time>2022-02-05T13:16:14Z</time>
      </trkpt>
      <trkpt lat="46.07098" lon="6.29216">
        <ele>629</ele>
        <time>2022-02-05T13:16:15Z</time>
      </trkpt>
      <trkpt lat="46.07072" lon="6.29225">
        <ele>628.8</ele>
        <time>2022-02-05T13:16:18Z</time>
      </trkpt>
      <trkpt lat="46.07064" lon="6.29229">
        <ele>628.4</ele>
        <time>2022-02-05T13:16:19Z</time>
      </trkpt>
      <trkpt lat="46.07056" lon="6.29235">
        <ele>628.6</ele>
        <time>2022-02-05T13:16:20Z</time>
      </trkpt>
      <trkpt lat="46.07048" lon="6.29241">
        <ele>628.6</ele>
        <time>2022-02-05T13:16:21Z</time>
      </trkpt>
      <trkpt lat="46.07027" lon="6.29263">
        <ele>628.4</ele>
        <time>2022-02-05T13:16:24Z</time>
      </trkpt>
      <trkpt lat="46.0702" lon="6.29269">
        <ele>628.4</ele>
        <time>2022-02-05T13:16:25Z</time>
      </trkpt>
      <trkpt lat="46.07001" lon="6.29282">
        <ele>628.6</ele>
        <time>2022-02-05T13:16:28Z</time>
      </trkpt>
      <trkpt lat="46.06995" lon="6.29286">
        <ele>628.6</ele>
        <time>2022-02-05T13:16:29Z</time>
      </trkpt>
      <trkpt lat="46.06989" lon="6.2929">
        <ele>628.4</ele>
        <time>2022-02-05T13:16:30Z</time>
      </trkpt>
      <trkpt lat="46.06978" lon="6.29296">
        <ele>628.4</ele>
        <time>2022-02-05T13:16:32Z</time>
      </trkpt>
      <trkpt lat="46.06957" lon="6.29308">
        <ele>629.2</ele>
        <time>2022-02-05T13:16:36Z</time>
      </trkpt>
      <trkpt lat="46.06951" lon="6.29311">
        <ele>629.8</ele>
        <time>2022-02-05T13:16:37Z</time>
      </trkpt>
      <trkpt lat="46.06909" lon="6.29332">
        <ele>633.6</ele>
        <time>2022-02-05T13:16:44Z</time>
      </trkpt>
      <trkpt lat="46.06875" lon="6.29368">
        <ele>634</ele>
        <time>2022-02-05T13:16:50Z</time>
      </trkpt>
      <trkpt lat="46.06843" lon="6.294">
        <ele>634</ele>
        <time>2022-02-05T13:16:55Z</time>
      </trkpt>
      <trkpt lat="46.06836" lon="6.29406">
        <ele>633.8</ele>
        <time>2022-02-05T13:16:56Z</time>
      </trkpt>
      <trkpt lat="46.06828" lon="6.29412">
        <ele>633.4</ele>
        <time>2022-02-05T13:16:57Z</time>
      </trkpt>
      <trkpt lat="46.0679" lon="6.29434">
        <ele>632.6</ele>
        <time>2022-02-05T13:17:02Z</time>
      </trkpt>
      <trkpt lat="46.06785" lon="6.29437">
        <ele>632.4</ele>
        <time>2022-02-05T13:17:03Z</time>
      </trkpt>
      <trkpt lat="46.06778" lon="6.29449">
        <ele>631.6</ele>
        <time>2022-02-05T13:17:05Z</time>
      </trkpt>
      <trkpt lat="46.06779" lon="6.29456">
        <ele>631</ele>
        <time>2022-02-05T13:17:06Z</time>
      </trkpt>
      <trkpt lat="46.06781" lon="6.29464">
        <ele>630.8</ele>
        <time>2022-02-05T13:17:07Z</time>
      </trkpt>
      <trkpt lat="46.06784" lon="6.29483">
        <ele>630.8</ele>
        <time>2022-02-05T13:17:09Z</time>
      </trkpt>
      <trkpt lat="46.06785" lon="6.29494">
        <ele>630.4</ele>
        <time>2022-02-05T13:17:10Z</time>
      </trkpt>
      <trkpt lat="46.06783" lon="6.29506">
        <ele>630.2</ele>
        <time>2022-02-05T13:17:11Z</time>
      </trkpt>
      <trkpt lat="46.06779" lon="6.29518">
        <ele>630.2</ele>
        <time>2022-02-05T13:17:12Z</time>
      </trkpt>
      <trkpt lat="46.06775" lon="6.2953">
        <ele>630</ele>
        <time>2022-02-05T13:17:13Z</time>
      </trkpt>
      <trkpt lat="46.06771" lon="6.29541">
        <ele>629.4</ele>
        <time>2022-02-05T13:17:14Z</time>
      </trkpt>
      <trkpt lat="46.06766" lon="6.29553">
        <ele>628.6</ele>
        <time>2022-02-05T13:17:15Z</time>
      </trkpt>
      <trkpt lat="46.06756" lon="6.29578">
        <ele>627.8</ele>
        <time>2022-02-05T13:17:17Z</time>
      </trkpt>
      <trkpt lat="46.06747" lon="6.29605">
        <ele>626.6</ele>
        <time>2022-02-05T13:17:19Z</time>
      </trkpt>
      <trkpt lat="46.06745" lon="6.29617">
        <ele>625.8</ele>
        <time>2022-02-05T13:17:20Z</time>
      </trkpt>
      <trkpt lat="46.06745" lon="6.29631">
        <ele>625.2</ele>
        <time>2022-02-05T13:17:21Z</time>
      </trkpt>
      <trkpt lat="46.06747" lon="6.29644">
        <ele>624.8</ele>
        <time>2022-02-05T13:17:22Z</time>
      </trkpt>
      <trkpt lat="46.06752" lon="6.29657">
        <ele>623.8</ele>
        <time>2022-02-05T13:17:23Z</time>
      </trkpt>
      <trkpt lat="46.06768" lon="6.29693">
        <ele>621.4</ele>
        <time>2022-02-05T13:17:26Z</time>
      </trkpt>
      <trkpt lat="46.06779" lon="6.29718">
        <ele>620.6</ele>
        <time>2022-02-05T13:17:28Z</time>
      </trkpt>
      <trkpt lat="46.06785" lon="6.29731">
        <ele>620.4</ele>
        <time>2022-02-05T13:17:29Z</time>
      </trkpt>
      <trkpt lat="46.06796" lon="6.29757">
        <ele>618.2</ele>
        <time>2022-02-05T13:17:31Z</time>
      </trkpt>
      <trkpt lat="46.06807" lon="6.29783">
        <ele>616.2</ele>
        <time>2022-02-05T13:17:33Z</time>
      </trkpt>
      <trkpt lat="46.06814" lon="6.29795">
        <ele>615.6</ele>
        <time>2022-02-05T13:17:34Z</time>
      </trkpt>
      <trkpt lat="46.0683" lon="6.29811">
        <ele>614.8</ele>
        <time>2022-02-05T13:17:36Z</time>
      </trkpt>
      <trkpt lat="46.0685" lon="6.29819">
        <ele>613.2</ele>
        <time>2022-02-05T13:17:38Z</time>
      </trkpt>
      <trkpt lat="46.0686" lon="6.29823">
        <ele>612.4</ele>
        <time>2022-02-05T13:17:39Z</time>
      </trkpt>
      <trkpt lat="46.0687" lon="6.29827">
        <ele>611.2</ele>
        <time>2022-02-05T13:17:40Z</time>
      </trkpt>
      <trkpt lat="46.06881" lon="6.29831">
        <ele>610.6</ele>
        <time>2022-02-05T13:17:41Z</time>
      </trkpt>
      <trkpt lat="46.06891" lon="6.29836">
        <ele>610</ele>
        <time>2022-02-05T13:17:42Z</time>
      </trkpt>
      <trkpt lat="46.069" lon="6.29841">
        <ele>609.4</ele>
        <time>2022-02-05T13:17:43Z</time>
      </trkpt>
      <trkpt lat="46.06909" lon="6.29848">
        <ele>608.8</ele>
        <time>2022-02-05T13:17:44Z</time>
      </trkpt>
      <trkpt lat="46.06917" lon="6.29857">
        <ele>608</ele>
        <time>2022-02-05T13:17:45Z</time>
      </trkpt>
      <trkpt lat="46.06933" lon="6.29874">
        <ele>606.8</ele>
        <time>2022-02-05T13:17:47Z</time>
      </trkpt>
      <trkpt lat="46.06957" lon="6.299">
        <ele>604.2</ele>
        <time>2022-02-05T13:17:50Z</time>
      </trkpt>
      <trkpt lat="46.06973" lon="6.29917">
        <ele>601.8</ele>
        <time>2022-02-05T13:17:52Z</time>
      </trkpt>
      <trkpt lat="46.06981" lon="6.29924">
        <ele>601.2</ele>
        <time>2022-02-05T13:17:53Z</time>
      </trkpt>
      <trkpt lat="46.07002" lon="6.29942">
        <ele>599.4</ele>
        <time>2022-02-05T13:17:56Z</time>
      </trkpt>
      <trkpt lat="46.07007" lon="6.29948">
        <ele>599</ele>
        <time>2022-02-05T13:17:57Z</time>
      </trkpt>
      <trkpt lat="46.0701" lon="6.29963">
        <ele>598</ele>
        <time>2022-02-05T13:17:59Z</time>
      </trkpt>
      <trkpt lat="46.07004" lon="6.29979">
        <ele>597.2</ele>
        <time>2022-02-05T13:18:01Z</time>
      </trkpt>
      <trkpt lat="46.06999" lon="6.29987">
        <ele>596.6</ele>
        <time>2022-02-05T13:18:02Z</time>
      </trkpt>
      <trkpt lat="46.06979" lon="6.30022">
        <ele>595.6</ele>
        <time>2022-02-05T13:18:06Z</time>
      </trkpt>
      <trkpt lat="46.06969" lon="6.30041">
        <ele>595.6</ele>
        <time>2022-02-05T13:18:08Z</time>
      </trkpt>
      <trkpt lat="46.06963" lon="6.3005">
        <ele>595.4</ele>
        <time>2022-02-05T13:18:09Z</time>
      </trkpt>
      <trkpt lat="46.06948" lon="6.30079">
        <ele>595.2</ele>
        <time>2022-02-05T13:18:12Z</time>
      </trkpt>
      <trkpt lat="46.06928" lon="6.30118">
        <ele>593.6</ele>
        <time>2022-02-05T13:18:16Z</time>
      </trkpt>
      <trkpt lat="46.06918" lon="6.30138">
        <ele>593</ele>
        <time>2022-02-05T13:18:18Z</time>
      </trkpt>
      <trkpt lat="46.06908" lon="6.30156">
        <ele>592.2</ele>
        <time>2022-02-05T13:18:20Z</time>
      </trkpt>
      <trkpt lat="46.06903" lon="6.30165">
        <ele>591.8</ele>
        <time>2022-02-05T13:18:21Z</time>
      </trkpt>
      <trkpt lat="46.06894" lon="6.30181">
        <ele>591.2</ele>
        <time>2022-02-05T13:18:23Z</time>
      </trkpt>
      <trkpt lat="46.06875" lon="6.30216">
        <ele>589.6</ele>
        <time>2022-02-05T13:18:28Z</time>
      </trkpt>
      <trkpt lat="46.06861" lon="6.30235">
        <ele>588.4</ele>
        <time>2022-02-05T13:18:32Z</time>
      </trkpt>
      <trkpt lat="46.06857" lon="6.30245">
        <ele>588</ele>
        <time>2022-02-05T13:18:35Z</time>
      </trkpt>
      <trkpt lat="46.06857" lon="6.30246">
        <ele>588</ele>
        <time>2022-02-05T13:18:36Z</time>
      </trkpt>
      <trkpt lat="46.06857" lon="6.30245">
        <ele>587.2</ele>
        <time>2022-02-05T13:18:44Z</time>
      </trkpt>
      <trkpt lat="46.06857" lon="6.30245">
        <ele>587.4</ele>
        <time>2022-02-05T13:19:26Z</time>
      </trkpt>
      <trkpt lat="46.06858" lon="6.30247">
        <ele>587.4</ele>
        <time>2022-02-05T13:19:31Z</time>
      </trkpt>
      <trkpt lat="46.06859" lon="6.30253">
        <ele>587.6</ele>
        <time>2022-02-05T13:19:33Z</time>
      </trkpt>
      <trkpt lat="46.06859" lon="6.30261">
        <ele>587.4</ele>
        <time>2022-02-05T13:19:35Z</time>
      </trkpt>
      <trkpt lat="46.06858" lon="6.30276">
        <ele>587.4</ele>
        <time>2022-02-05T13:19:38Z</time>
      </trkpt>
      <trkpt lat="46.06855" lon="6.30303">
        <ele>587</ele>
        <time>2022-02-05T13:19:43Z</time>
      </trkpt>
      <trkpt lat="46.06853" lon="6.30318">
        <ele>586.6</ele>
        <time>2022-02-05T13:19:45Z</time>
      </trkpt>
      <trkpt lat="46.06853" lon="6.30326">
        <ele>586.4</ele>
        <time>2022-02-05T13:19:46Z</time>
      </trkpt>
      <trkpt lat="46.06854" lon="6.30343">
        <ele>586.2</ele>
        <time>2022-02-05T13:19:48Z</time>
      </trkpt>
      <trkpt lat="46.06856" lon="6.30352">
        <ele>586.2</ele>
        <time>2022-02-05T13:19:49Z</time>
      </trkpt>
      <trkpt lat="46.06856" lon="6.30362">
        <ele>586.2</ele>
        <time>2022-02-05T13:19:50Z</time>
      </trkpt>
      <trkpt lat="46.06853" lon="6.30384">
        <ele>586</ele>
        <time>2022-02-05T13:19:52Z</time>
      </trkpt>
      <trkpt lat="46.0685" lon="6.30394">
        <ele>586</ele>
        <time>2022-02-05T13:19:53Z</time>
      </trkpt>
      <trkpt lat="46.06847" lon="6.30405">
        <ele>585.8</ele>
        <time>2022-02-05T13:19:54Z</time>
      </trkpt>
      <trkpt lat="46.06836" lon="6.30438">
        <ele>584.4</ele>
        <time>2022-02-05T13:19:57Z</time>
      </trkpt>
      <trkpt lat="46.06817" lon="6.30495">
        <ele>581.4</ele>
        <time>2022-02-05T13:20:02Z</time>
      </trkpt>
      <trkpt lat="46.06814" lon="6.30506">
        <ele>580.8</ele>
        <time>2022-02-05T13:20:03Z</time>
      </trkpt>
      <trkpt lat="46.06805" lon="6.30538">
        <ele>579</ele>
        <time>2022-02-05T13:20:06Z</time>
      </trkpt>
      <trkpt lat="46.06798" lon="6.3056">
        <ele>578.8</ele>
        <time>2022-02-05T13:20:08Z</time>
      </trkpt>
      <trkpt lat="46.06792" lon="6.3058">
        <ele>578.6</ele>
        <time>2022-02-05T13:20:10Z</time>
      </trkpt>
      <trkpt lat="46.06784" lon="6.30599">
        <ele>577.8</ele>
        <time>2022-02-05T13:20:12Z</time>
      </trkpt>
      <trkpt lat="46.0678" lon="6.30609">
        <ele>577.4</ele>
        <time>2022-02-05T13:20:13Z</time>
      </trkpt>
      <trkpt lat="46.06768" lon="6.3064">
        <ele>576.2</ele>
        <time>2022-02-05T13:20:16Z</time>
      </trkpt>
      <trkpt lat="46.06764" lon="6.30651">
        <ele>575.8</ele>
        <time>2022-02-05T13:20:17Z</time>
      </trkpt>
      <trkpt lat="46.06759" lon="6.30662">
        <ele>575.6</ele>
        <time>2022-02-05T13:20:18Z</time>
      </trkpt>
      <trkpt lat="46.06751" lon="6.30684">
        <ele>575</ele>
        <time>2022-02-05T13:20:20Z</time>
      </trkpt>
      <trkpt lat="46.06738" lon="6.30715">
        <ele>573.8</ele>
        <time>2022-02-05T13:20:23Z</time>
      </trkpt>
      <trkpt lat="46.06734" lon="6.30725">
        <ele>573.4</ele>
        <time>2022-02-05T13:20:24Z</time>
      </trkpt>
      <trkpt lat="46.06728" lon="6.30735">
        <ele>573</ele>
        <time>2022-02-05T13:20:25Z</time>
      </trkpt>
      <trkpt lat="46.06706" lon="6.30776">
        <ele>570.6</ele>
        <time>2022-02-05T13:20:29Z</time>
      </trkpt>
      <trkpt lat="46.06701" lon="6.30787">
        <ele>570</ele>
        <time>2022-02-05T13:20:30Z</time>
      </trkpt>
      <trkpt lat="46.06695" lon="6.30797">
        <ele>569.8</ele>
        <time>2022-02-05T13:20:31Z</time>
      </trkpt>
      <trkpt lat="46.06662" lon="6.30857">
        <ele>566.8</ele>
        <time>2022-02-05T13:20:37Z</time>
      </trkpt>
      <trkpt lat="46.06631" lon="6.30912">
        <ele>565</ele>
        <time>2022-02-05T13:20:43Z</time>
      </trkpt>
      <trkpt lat="46.06626" lon="6.30921">
        <ele>565</ele>
        <time>2022-02-05T13:20:44Z</time>
      </trkpt>
      <trkpt lat="46.06618" lon="6.30939">
        <ele>564.6</ele>
        <time>2022-02-05T13:20:46Z</time>
      </trkpt>
      <trkpt lat="46.06616" lon="6.30949">
        <ele>564.4</ele>
        <time>2022-02-05T13:20:47Z</time>
      </trkpt>
      <trkpt lat="46.06614" lon="6.30959">
        <ele>564.4</ele>
        <time>2022-02-05T13:20:48Z</time>
      </trkpt>
      <trkpt lat="46.06612" lon="6.3097">
        <ele>564.2</ele>
        <time>2022-02-05T13:20:49Z</time>
      </trkpt>
      <trkpt lat="46.06603" lon="6.31016">
        <ele>563.6</ele>
        <time>2022-02-05T13:20:53Z</time>
      </trkpt>
      <trkpt lat="46.06598" lon="6.31048">
        <ele>561.8</ele>
        <time>2022-02-05T13:20:56Z</time>
      </trkpt>
      <trkpt lat="46.06595" lon="6.31057">
        <ele>561.2</ele>
        <time>2022-02-05T13:20:57Z</time>
      </trkpt>
      <trkpt lat="46.06594" lon="6.31065">
        <ele>560.4</ele>
        <time>2022-02-05T13:20:58Z</time>
      </trkpt>
      <trkpt lat="46.06593" lon="6.31078">
        <ele>559.8</ele>
        <time>2022-02-05T13:21:00Z</time>
      </trkpt>
      <trkpt lat="46.06589" lon="6.3109">
        <ele>557.8</ele>
        <time>2022-02-05T13:21:04Z</time>
      </trkpt>
      <trkpt lat="46.06587" lon="6.31089">
        <ele>557.6</ele>
        <time>2022-02-05T13:21:05Z</time>
      </trkpt>
      <trkpt lat="46.0658" lon="6.31088">
        <ele>557.2</ele>
        <time>2022-02-05T13:21:07Z</time>
      </trkpt>
      <trkpt lat="46.06555" lon="6.31088">
        <ele>557</ele>
        <time>2022-02-05T13:21:12Z</time>
      </trkpt>
      <trkpt lat="46.06519" lon="6.31088">
        <ele>557</ele>
        <time>2022-02-05T13:21:18Z</time>
      </trkpt>
      <trkpt lat="46.06482" lon="6.31087">
        <ele>557</ele>
        <time>2022-02-05T13:21:24Z</time>
      </trkpt>
      <trkpt lat="46.06472" lon="6.31089">
        <ele>557</ele>
        <time>2022-02-05T13:21:26Z</time>
      </trkpt>
      <trkpt lat="46.06464" lon="6.31098">
        <ele>557.4</ele>
        <time>2022-02-05T13:21:28Z</time>
      </trkpt>
      <trkpt lat="46.06462" lon="6.31105">
        <ele>557.2</ele>
        <time>2022-02-05T13:21:29Z</time>
      </trkpt>
      <trkpt lat="46.06458" lon="6.3112">
        <ele>557.4</ele>
        <time>2022-02-05T13:21:31Z</time>
      </trkpt>
      <trkpt lat="46.0645" lon="6.31136">
        <ele>557.4</ele>
        <time>2022-02-05T13:21:33Z</time>
      </trkpt>
      <trkpt lat="46.06438" lon="6.31164">
        <ele>557.2</ele>
        <time>2022-02-05T13:21:36Z</time>
      </trkpt>
      <trkpt lat="46.0643" lon="6.31185">
        <ele>557</ele>
        <time>2022-02-05T13:21:38Z</time>
      </trkpt>
      <trkpt lat="46.06426" lon="6.31196">
        <ele>557</ele>
        <time>2022-02-05T13:21:39Z</time>
      </trkpt>
      <trkpt lat="46.06419" lon="6.31219">
        <ele>556.8</ele>
        <time>2022-02-05T13:21:41Z</time>
      </trkpt>
      <trkpt lat="46.06412" lon="6.31243">
        <ele>556.6</ele>
        <time>2022-02-05T13:21:43Z</time>
      </trkpt>
      <trkpt lat="46.06409" lon="6.31255">
        <ele>556.2</ele>
        <time>2022-02-05T13:21:44Z</time>
      </trkpt>
      <trkpt lat="46.06393" lon="6.31328">
        <ele>553.2</ele>
        <time>2022-02-05T13:21:50Z</time>
      </trkpt>
      <trkpt lat="46.06374" lon="6.31412">
        <ele>551.2</ele>
        <time>2022-02-05T13:21:57Z</time>
      </trkpt>
      <trkpt lat="46.06359" lon="6.31464">
        <ele>551.4</ele>
        <time>2022-02-05T13:22:02Z</time>
      </trkpt>
      <trkpt lat="46.06356" lon="6.31473">
        <ele>551.2</ele>
        <time>2022-02-05T13:22:03Z</time>
      </trkpt>
      <trkpt lat="46.06337" lon="6.31503">
        <ele>551.6</ele>
        <time>2022-02-05T13:22:07Z</time>
      </trkpt>
      <trkpt lat="46.06332" lon="6.3151">
        <ele>551.6</ele>
        <time>2022-02-05T13:22:08Z</time>
      </trkpt>
      <trkpt lat="46.0629" lon="6.31576">
        <ele>554.2</ele>
        <time>2022-02-05T13:22:16Z</time>
      </trkpt>
      <trkpt lat="46.06262" lon="6.31616">
        <ele>554.6</ele>
        <time>2022-02-05T13:22:21Z</time>
      </trkpt>
      <trkpt lat="46.06254" lon="6.31621">
        <ele>554.6</ele>
        <time>2022-02-05T13:22:22Z</time>
      </trkpt>
      <trkpt lat="46.0624" lon="6.31629">
        <ele>554.6</ele>
        <time>2022-02-05T13:22:24Z</time>
      </trkpt>
      <trkpt lat="46.06211" lon="6.31642">
        <ele>554.6</ele>
        <time>2022-02-05T13:22:28Z</time>
      </trkpt>
      <trkpt lat="46.06198" lon="6.31646">
        <ele>554.6</ele>
        <time>2022-02-05T13:22:30Z</time>
      </trkpt>
      <trkpt lat="46.06185" lon="6.31644">
        <ele>554.8</ele>
        <time>2022-02-05T13:22:32Z</time>
      </trkpt>
      <trkpt lat="46.06171" lon="6.31635">
        <ele>555</ele>
        <time>2022-02-05T13:22:34Z</time>
      </trkpt>
      <trkpt lat="46.06156" lon="6.31625">
        <ele>555.2</ele>
        <time>2022-02-05T13:22:36Z</time>
      </trkpt>
      <trkpt lat="46.06105" lon="6.31588">
        <ele>555.2</ele>
        <time>2022-02-05T13:22:43Z</time>
      </trkpt>
      <trkpt lat="46.06077" lon="6.3157">
        <ele>555</ele>
        <time>2022-02-05T13:22:47Z</time>
      </trkpt>
      <trkpt lat="46.0607" lon="6.31569">
        <ele>555</ele>
        <time>2022-02-05T13:22:48Z</time>
      </trkpt>
      <trkpt lat="46.06063" lon="6.31571">
        <ele>554.8</ele>
        <time>2022-02-05T13:22:49Z</time>
      </trkpt>
      <trkpt lat="46.0605" lon="6.31583">
        <ele>554.6</ele>
        <time>2022-02-05T13:22:51Z</time>
      </trkpt>
      <trkpt lat="46.0604" lon="6.31599">
        <ele>554.6</ele>
        <time>2022-02-05T13:22:53Z</time>
      </trkpt>
      <trkpt lat="46.06034" lon="6.31618">
        <ele>554.6</ele>
        <time>2022-02-05T13:22:55Z</time>
      </trkpt>
      <trkpt lat="46.06033" lon="6.31628">
        <ele>554.6</ele>
        <time>2022-02-05T13:22:56Z</time>
      </trkpt>
      <trkpt lat="46.06034" lon="6.31636">
        <ele>554.6</ele>
        <time>2022-02-05T13:22:57Z</time>
      </trkpt>
      <trkpt lat="46.06035" lon="6.31644">
        <ele>554.4</ele>
        <time>2022-02-05T13:22:58Z</time>
      </trkpt>
      <trkpt lat="46.06038" lon="6.31652">
        <ele>554.6</ele>
        <time>2022-02-05T13:22:59Z</time>
      </trkpt>
      <trkpt lat="46.06046" lon="6.31669">
        <ele>554.6</ele>
        <time>2022-02-05T13:23:02Z</time>
      </trkpt>
      <trkpt lat="46.06054" lon="6.31685">
        <ele>555</ele>
        <time>2022-02-05T13:23:05Z</time>
      </trkpt>
      <trkpt lat="46.06059" lon="6.31695">
        <ele>556.2</ele>
        <time>2022-02-05T13:23:07Z</time>
      </trkpt>
      <trkpt lat="46.06067" lon="6.31711">
        <ele>557.2</ele>
        <time>2022-02-05T13:23:10Z</time>
      </trkpt>
      <trkpt lat="46.06077" lon="6.3173">
        <ele>558</ele>
        <time>2022-02-05T13:23:14Z</time>
      </trkpt>
      <trkpt lat="46.06084" lon="6.31744">
        <ele>559</ele>
        <time>2022-02-05T13:23:17Z</time>
      </trkpt>
      <trkpt lat="46.06086" lon="6.31749">
        <ele>559.4</ele>
        <time>2022-02-05T13:23:18Z</time>
      </trkpt>
      <trkpt lat="46.06087" lon="6.31755">
        <ele>559.8</ele>
        <time>2022-02-05T13:23:19Z</time>
      </trkpt>
      <trkpt lat="46.06091" lon="6.3177">
        <ele>560.8</ele>
        <time>2022-02-05T13:23:22Z</time>
      </trkpt>
      <trkpt lat="46.0609" lon="6.31775">
        <ele>561</ele>
        <time>2022-02-05T13:23:23Z</time>
      </trkpt>
      <trkpt lat="46.06088" lon="6.31784">
        <ele>561.6</ele>
        <time>2022-02-05T13:23:25Z</time>
      </trkpt>
      <trkpt lat="46.06083" lon="6.31796">
        <ele>562.6</ele>
        <time>2022-02-05T13:23:28Z</time>
      </trkpt>
      <trkpt lat="46.06072" lon="6.31808">
        <ele>564</ele>
        <time>2022-02-05T13:23:32Z</time>
      </trkpt>
      <trkpt lat="46.06066" lon="6.31812">
        <ele>564.8</ele>
        <time>2022-02-05T13:23:34Z</time>
      </trkpt>
      <trkpt lat="46.06059" lon="6.31815">
        <ele>565.8</ele>
        <time>2022-02-05T13:23:36Z</time>
      </trkpt>
      <trkpt lat="46.06045" lon="6.3182">
        <ele>567.2</ele>
        <time>2022-02-05T13:23:40Z</time>
      </trkpt>
      <trkpt lat="46.06035" lon="6.31823">
        <ele>568</ele>
        <time>2022-02-05T13:23:43Z</time>
      </trkpt>
      <trkpt lat="46.06029" lon="6.31825">
        <ele>568.8</ele>
        <time>2022-02-05T13:23:45Z</time>
      </trkpt>
      <trkpt lat="46.06016" lon="6.31829">
        <ele>569.8</ele>
        <time>2022-02-05T13:23:49Z</time>
      </trkpt>
      <trkpt lat="46.06006" lon="6.31832">
        <ele>570.6</ele>
        <time>2022-02-05T13:23:52Z</time>
      </trkpt>
      <trkpt lat="46.06003" lon="6.31833">
        <ele>570.8</ele>
        <time>2022-02-05T13:23:53Z</time>
      </trkpt>
      <trkpt lat="46.05987" lon="6.31837">
        <ele>571.8</ele>
        <time>2022-02-05T13:23:58Z</time>
      </trkpt>
      <trkpt lat="46.0598" lon="6.31839">
        <ele>572.6</ele>
        <time>2022-02-05T13:24:00Z</time>
      </trkpt>
      <trkpt lat="46.05959" lon="6.31844">
        <ele>574</ele>
        <time>2022-02-05T13:24:06Z</time>
      </trkpt>
      <trkpt lat="46.05944" lon="6.31848">
        <ele>574.6</ele>
        <time>2022-02-05T13:24:10Z</time>
      </trkpt>
      <trkpt lat="46.05938" lon="6.31851">
        <ele>575.2</ele>
        <time>2022-02-05T13:24:12Z</time>
      </trkpt>
      <trkpt lat="46.05926" lon="6.3186">
        <ele>575.6</ele>
        <time>2022-02-05T13:24:16Z</time>
      </trkpt>
      <trkpt lat="46.05921" lon="6.31867">
        <ele>575.8</ele>
        <time>2022-02-05T13:24:18Z</time>
      </trkpt>
      <trkpt lat="46.05915" lon="6.31879">
        <ele>576.4</ele>
        <time>2022-02-05T13:24:21Z</time>
      </trkpt>
      <trkpt lat="46.05908" lon="6.31892">
        <ele>577</ele>
        <time>2022-02-05T13:24:24Z</time>
      </trkpt>
      <trkpt lat="46.05906" lon="6.31897">
        <ele>577</ele>
        <time>2022-02-05T13:24:25Z</time>
      </trkpt>
      <trkpt lat="46.05902" lon="6.31906">
        <ele>577.4</ele>
        <time>2022-02-05T13:24:27Z</time>
      </trkpt>
      <trkpt lat="46.05897" lon="6.3192">
        <ele>578.2</ele>
        <time>2022-02-05T13:24:30Z</time>
      </trkpt>
      <trkpt lat="46.05896" lon="6.31924">
        <ele>578.4</ele>
        <time>2022-02-05T13:24:31Z</time>
      </trkpt>
      <trkpt lat="46.05889" lon="6.31941">
        <ele>579.2</ele>
        <time>2022-02-05T13:24:35Z</time>
      </trkpt>
      <trkpt lat="46.05887" lon="6.31949">
        <ele>580</ele>
        <time>2022-02-05T13:24:37Z</time>
      </trkpt>
      <trkpt lat="46.05882" lon="6.31966">
        <ele>581</ele>
        <time>2022-02-05T13:24:41Z</time>
      </trkpt>
      <trkpt lat="46.05878" lon="6.31979">
        <ele>582.2</ele>
        <time>2022-02-05T13:24:44Z</time>
      </trkpt>
      <trkpt lat="46.05871" lon="6.31999">
        <ele>583.2</ele>
        <time>2022-02-05T13:24:49Z</time>
      </trkpt>
      <trkpt lat="46.05868" lon="6.32007">
        <ele>583.6</ele>
        <time>2022-02-05T13:24:51Z</time>
      </trkpt>
      <trkpt lat="46.05864" lon="6.32013">
        <ele>584.2</ele>
        <time>2022-02-05T13:24:53Z</time>
      </trkpt>
      <trkpt lat="46.05857" lon="6.32022">
        <ele>585</ele>
        <time>2022-02-05T13:24:56Z</time>
      </trkpt>
      <trkpt lat="46.05851" lon="6.32026">
        <ele>585.4</ele>
        <time>2022-02-05T13:24:58Z</time>
      </trkpt>
      <trkpt lat="46.05846" lon="6.3203">
        <ele>585.8</ele>
        <time>2022-02-05T13:25:00Z</time>
      </trkpt>
      <trkpt lat="46.05834" lon="6.32035">
        <ele>587</ele>
        <time>2022-02-05T13:25:04Z</time>
      </trkpt>
      <trkpt lat="46.0583" lon="6.32037">
        <ele>587.4</ele>
        <time>2022-02-05T13:25:05Z</time>
      </trkpt>
      <trkpt lat="46.05818" lon="6.32042">
        <ele>588.4</ele>
        <time>2022-02-05T13:25:09Z</time>
      </trkpt>
      <trkpt lat="46.05806" lon="6.32048">
        <ele>589.4</ele>
        <time>2022-02-05T13:25:13Z</time>
      </trkpt>
      <trkpt lat="46.0579" lon="6.32058">
        <ele>590.2</ele>
        <time>2022-02-05T13:25:18Z</time>
      </trkpt>
      <trkpt lat="46.05787" lon="6.3206">
        <ele>590.6</ele>
        <time>2022-02-05T13:25:19Z</time>
      </trkpt>
      <trkpt lat="46.05777" lon="6.32065">
        <ele>591.4</ele>
        <time>2022-02-05T13:25:22Z</time>
      </trkpt>
      <trkpt lat="46.05771" lon="6.32069">
        <ele>591.8</ele>
        <time>2022-02-05T13:25:24Z</time>
      </trkpt>
      <trkpt lat="46.05755" lon="6.32078">
        <ele>593</ele>
        <time>2022-02-05T13:25:29Z</time>
      </trkpt>
      <trkpt lat="46.05747" lon="6.32085">
        <ele>593.6</ele>
        <time>2022-02-05T13:25:32Z</time>
      </trkpt>
      <trkpt lat="46.05733" lon="6.32098">
        <ele>594.6</ele>
        <time>2022-02-05T13:25:37Z</time>
      </trkpt>
      <trkpt lat="46.05728" lon="6.32103">
        <ele>594.8</ele>
        <time>2022-02-05T13:25:39Z</time>
      </trkpt>
      <trkpt lat="46.0572" lon="6.32111">
        <ele>595.2</ele>
        <time>2022-02-05T13:25:42Z</time>
      </trkpt>
      <trkpt lat="46.05705" lon="6.3213">
        <ele>596.6</ele>
        <time>2022-02-05T13:25:48Z</time>
      </trkpt>
      <trkpt lat="46.05701" lon="6.32137">
        <ele>596.8</ele>
        <time>2022-02-05T13:25:50Z</time>
      </trkpt>
      <trkpt lat="46.05699" lon="6.32141">
        <ele>597.2</ele>
        <time>2022-02-05T13:25:51Z</time>
      </trkpt>
      <trkpt lat="46.05688" lon="6.32158">
        <ele>598.2</ele>
        <time>2022-02-05T13:25:56Z</time>
      </trkpt>
      <trkpt lat="46.0568" lon="6.32174">
        <ele>599.2</ele>
        <time>2022-02-05T13:26:00Z</time>
      </trkpt>
      <trkpt lat="46.05678" lon="6.32178">
        <ele>599.4</ele>
        <time>2022-02-05T13:26:01Z</time>
      </trkpt>
      <trkpt lat="46.05664" lon="6.32207">
        <ele>601.2</ele>
        <time>2022-02-05T13:26:08Z</time>
      </trkpt>
      <trkpt lat="46.05658" lon="6.3222">
        <ele>601.8</ele>
        <time>2022-02-05T13:26:11Z</time>
      </trkpt>
      <trkpt lat="46.05652" lon="6.32233">
        <ele>602.2</ele>
        <time>2022-02-05T13:26:14Z</time>
      </trkpt>
      <trkpt lat="46.05641" lon="6.32258">
        <ele>603.6</ele>
        <time>2022-02-05T13:26:20Z</time>
      </trkpt>
      <trkpt lat="46.05637" lon="6.32267">
        <ele>603.6</ele>
        <time>2022-02-05T13:26:22Z</time>
      </trkpt>
      <trkpt lat="46.0562" lon="6.32304">
        <ele>605.4</ele>
        <time>2022-02-05T13:26:30Z</time>
      </trkpt>
      <trkpt lat="46.05618" lon="6.32309">
        <ele>605.4</ele>
        <time>2022-02-05T13:26:31Z</time>
      </trkpt>
      <trkpt lat="46.05598" lon="6.32357">
        <ele>606.4</ele>
        <time>2022-02-05T13:26:39Z</time>
      </trkpt>
      <trkpt lat="46.05575" lon="6.32417">
        <ele>606.6</ele>
        <time>2022-02-05T13:26:47Z</time>
      </trkpt>
      <trkpt lat="46.05547" lon="6.32481">
        <ele>606.4</ele>
        <time>2022-02-05T13:26:55Z</time>
      </trkpt>
      <trkpt lat="46.05519" lon="6.3254">
        <ele>606</ele>
        <time>2022-02-05T13:27:02Z</time>
      </trkpt>
      <trkpt lat="46.05507" lon="6.32566">
        <ele>606</ele>
        <time>2022-02-05T13:27:05Z</time>
      </trkpt>
      <trkpt lat="46.05484" lon="6.3261">
        <ele>605.2</ele>
        <time>2022-02-05T13:27:10Z</time>
      </trkpt>
      <trkpt lat="46.0547" lon="6.32635">
        <ele>605</ele>
        <time>2022-02-05T13:27:13Z</time>
      </trkpt>
      <trkpt lat="46.05435" lon="6.32695">
        <ele>603.8</ele>
        <time>2022-02-05T13:27:20Z</time>
      </trkpt>
      <trkpt lat="46.05431" lon="6.32704">
        <ele>603.8</ele>
        <time>2022-02-05T13:27:21Z</time>
      </trkpt>
      <trkpt lat="46.05422" lon="6.32721">
        <ele>603.8</ele>
        <time>2022-02-05T13:27:23Z</time>
      </trkpt>
      <trkpt lat="46.05415" lon="6.32736">
        <ele>603.8</ele>
        <time>2022-02-05T13:27:25Z</time>
      </trkpt>
      <trkpt lat="46.05412" lon="6.32743">
        <ele>603.6</ele>
        <time>2022-02-05T13:27:26Z</time>
      </trkpt>
      <trkpt lat="46.05409" lon="6.3275">
        <ele>603.8</ele>
        <time>2022-02-05T13:27:27Z</time>
      </trkpt>
      <trkpt lat="46.054" lon="6.32767">
        <ele>603.6</ele>
        <time>2022-02-05T13:27:30Z</time>
      </trkpt>
      <trkpt lat="46.05395" lon="6.32777">
        <ele>604.2</ele>
        <time>2022-02-05T13:27:32Z</time>
      </trkpt>
      <trkpt lat="46.05389" lon="6.32786">
        <ele>605</ele>
        <time>2022-02-05T13:27:34Z</time>
      </trkpt>
      <trkpt lat="46.05376" lon="6.3281">
        <ele>607.8</ele>
        <time>2022-02-05T13:27:39Z</time>
      </trkpt>
      <trkpt lat="46.05372" lon="6.32819">
        <ele>608.8</ele>
        <time>2022-02-05T13:27:41Z</time>
      </trkpt>
      <trkpt lat="46.05369" lon="6.32823">
        <ele>609.4</ele>
        <time>2022-02-05T13:27:42Z</time>
      </trkpt>
      <trkpt lat="46.05363" lon="6.32836">
        <ele>610.2</ele>
        <time>2022-02-05T13:27:45Z</time>
      </trkpt>
      <trkpt lat="46.05353" lon="6.32857">
        <ele>612.2</ele>
        <time>2022-02-05T13:27:50Z</time>
      </trkpt>
      <trkpt lat="46.05349" lon="6.32866">
        <ele>613.2</ele>
        <time>2022-02-05T13:27:52Z</time>
      </trkpt>
      <trkpt lat="46.05345" lon="6.32875">
        <ele>613.8</ele>
        <time>2022-02-05T13:27:54Z</time>
      </trkpt>
      <trkpt lat="46.05337" lon="6.3289">
        <ele>615</ele>
        <time>2022-02-05T13:27:58Z</time>
      </trkpt>
      <trkpt lat="46.05331" lon="6.32897">
        <ele>615.6</ele>
        <time>2022-02-05T13:28:00Z</time>
      </trkpt>
      <trkpt lat="46.05326" lon="6.32904">
        <ele>616</ele>
        <time>2022-02-05T13:28:02Z</time>
      </trkpt>
      <trkpt lat="46.05318" lon="6.3292">
        <ele>617.2</ele>
        <time>2022-02-05T13:28:06Z</time>
      </trkpt>
      <trkpt lat="46.05316" lon="6.32925">
        <ele>617.4</ele>
        <time>2022-02-05T13:28:07Z</time>
      </trkpt>
      <trkpt lat="46.05306" lon="6.32946">
        <ele>618.8</ele>
        <time>2022-02-05T13:28:12Z</time>
      </trkpt>
      <trkpt lat="46.05299" lon="6.32957">
        <ele>619.6</ele>
        <time>2022-02-05T13:28:15Z</time>
      </trkpt>
      <trkpt lat="46.05293" lon="6.32964">
        <ele>620</ele>
        <time>2022-02-05T13:28:17Z</time>
      </trkpt>
      <trkpt lat="46.05282" lon="6.32976">
        <ele>621</ele>
        <time>2022-02-05T13:28:21Z</time>
      </trkpt>
      <trkpt lat="46.05276" lon="6.32982">
        <ele>621.6</ele>
        <time>2022-02-05T13:28:23Z</time>
      </trkpt>
      <trkpt lat="46.05245" lon="6.33003">
        <ele>623.4</ele>
        <time>2022-02-05T13:28:31Z</time>
      </trkpt>
      <trkpt lat="46.05233" lon="6.33012">
        <ele>623.6</ele>
        <time>2022-02-05T13:28:34Z</time>
      </trkpt>
      <trkpt lat="46.05219" lon="6.33027">
        <ele>623.8</ele>
        <time>2022-02-05T13:28:38Z</time>
      </trkpt>
      <trkpt lat="46.05204" lon="6.33048">
        <ele>624.2</ele>
        <time>2022-02-05T13:28:43Z</time>
      </trkpt>
      <trkpt lat="46.05198" lon="6.3306">
        <ele>624.6</ele>
        <time>2022-02-05T13:28:46Z</time>
      </trkpt>
      <trkpt lat="46.05194" lon="6.3307">
        <ele>624.8</ele>
        <time>2022-02-05T13:28:48Z</time>
      </trkpt>
      <trkpt lat="46.05189" lon="6.33086">
        <ele>625.2</ele>
        <time>2022-02-05T13:28:51Z</time>
      </trkpt>
      <trkpt lat="46.05185" lon="6.33096">
        <ele>625.6</ele>
        <time>2022-02-05T13:28:53Z</time>
      </trkpt>
      <trkpt lat="46.0518" lon="6.33112">
        <ele>625.8</ele>
        <time>2022-02-05T13:28:56Z</time>
      </trkpt>
      <trkpt lat="46.05172" lon="6.33134">
        <ele>626.4</ele>
        <time>2022-02-05T13:29:00Z</time>
      </trkpt>
      <trkpt lat="46.05166" lon="6.33152">
        <ele>627.2</ele>
        <time>2022-02-05T13:29:03Z</time>
      </trkpt>
      <trkpt lat="46.05153" lon="6.33189">
        <ele>628.2</ele>
        <time>2022-02-05T13:29:09Z</time>
      </trkpt>
      <trkpt lat="46.05138" lon="6.33236">
        <ele>629</ele>
        <time>2022-02-05T13:29:16Z</time>
      </trkpt>
      <trkpt lat="46.05133" lon="6.33249">
        <ele>629.4</ele>
        <time>2022-02-05T13:29:18Z</time>
      </trkpt>
      <trkpt lat="46.05113" lon="6.33308">
        <ele>630</ele>
        <time>2022-02-05T13:29:26Z</time>
      </trkpt>
      <trkpt lat="46.05089" lon="6.33358">
        <ele>630.4</ele>
        <time>2022-02-05T13:29:33Z</time>
      </trkpt>
      <trkpt lat="46.05061" lon="6.33395">
        <ele>630.4</ele>
        <time>2022-02-05T13:29:39Z</time>
      </trkpt>
      <trkpt lat="46.05056" lon="6.33401">
        <ele>630.6</ele>
        <time>2022-02-05T13:29:40Z</time>
      </trkpt>
      <trkpt lat="46.05011" lon="6.33453">
        <ele>631.2</ele>
        <time>2022-02-05T13:29:49Z</time>
      </trkpt>
      <trkpt lat="46.05001" lon="6.33464">
        <ele>631.4</ele>
        <time>2022-02-05T13:29:51Z</time>
      </trkpt>
      <trkpt lat="46.04983" lon="6.33486">
        <ele>631.4</ele>
        <time>2022-02-05T13:29:55Z</time>
      </trkpt>
      <trkpt lat="46.04967" lon="6.33507">
        <ele>632.2</ele>
        <time>2022-02-05T13:29:59Z</time>
      </trkpt>
      <trkpt lat="46.04963" lon="6.33512">
        <ele>632.6</ele>
        <time>2022-02-05T13:30:00Z</time>
      </trkpt>
      <trkpt lat="46.04959" lon="6.33518">
        <ele>632.8</ele>
        <time>2022-02-05T13:30:01Z</time>
      </trkpt>
      <trkpt lat="46.04954" lon="6.33532">
        <ele>633.4</ele>
        <time>2022-02-05T13:30:03Z</time>
      </trkpt>
      <trkpt lat="46.04951" lon="6.3354">
        <ele>633.8</ele>
        <time>2022-02-05T13:30:04Z</time>
      </trkpt>
      <trkpt lat="46.04947" lon="6.33555">
        <ele>634.4</ele>
        <time>2022-02-05T13:30:06Z</time>
      </trkpt>
      <trkpt lat="46.04946" lon="6.33562">
        <ele>634.4</ele>
        <time>2022-02-05T13:30:07Z</time>
      </trkpt>
      <trkpt lat="46.04944" lon="6.33578">
        <ele>635</ele>
        <time>2022-02-05T13:30:09Z</time>
      </trkpt>
      <trkpt lat="46.04937" lon="6.33634">
        <ele>636.4</ele>
        <time>2022-02-05T13:30:16Z</time>
      </trkpt>
      <trkpt lat="46.04934" lon="6.33682">
        <ele>636.4</ele>
        <time>2022-02-05T13:30:22Z</time>
      </trkpt>
      <trkpt lat="46.04932" lon="6.33732">
        <ele>636.6</ele>
        <time>2022-02-05T13:30:28Z</time>
      </trkpt>
      <trkpt lat="46.0493" lon="6.33764">
        <ele>636.6</ele>
        <time>2022-02-05T13:30:32Z</time>
      </trkpt>
      <trkpt lat="46.0493" lon="6.33772">
        <ele>636.8</ele>
        <time>2022-02-05T13:30:33Z</time>
      </trkpt>
      <trkpt lat="46.04928" lon="6.33817">
        <ele>637.6</ele>
        <time>2022-02-05T13:30:39Z</time>
      </trkpt>
      <trkpt lat="46.04928" lon="6.33831">
        <ele>638.2</ele>
        <time>2022-02-05T13:30:41Z</time>
      </trkpt>
      <trkpt lat="46.04928" lon="6.33846">
        <ele>638.6</ele>
        <time>2022-02-05T13:30:43Z</time>
      </trkpt>
      <trkpt lat="46.04927" lon="6.33868">
        <ele>639.2</ele>
        <time>2022-02-05T13:30:46Z</time>
      </trkpt>
      <trkpt lat="46.04926" lon="6.33912">
        <ele>641</ele>
        <time>2022-02-05T13:30:52Z</time>
      </trkpt>
      <trkpt lat="46.04921" lon="6.33956">
        <ele>642.6</ele>
        <time>2022-02-05T13:30:58Z</time>
      </trkpt>
      <trkpt lat="46.04919" lon="6.3397">
        <ele>643.2</ele>
        <time>2022-02-05T13:31:00Z</time>
      </trkpt>
      <trkpt lat="46.04914" lon="6.33997">
        <ele>643.8</ele>
        <time>2022-02-05T13:31:04Z</time>
      </trkpt>
      <trkpt lat="46.04908" lon="6.3403">
        <ele>645</ele>
        <time>2022-02-05T13:31:09Z</time>
      </trkpt>
      <trkpt lat="46.04907" lon="6.34036">
        <ele>645</ele>
        <time>2022-02-05T13:31:10Z</time>
      </trkpt>
      <trkpt lat="46.04904" lon="6.34047">
        <ele>645.6</ele>
        <time>2022-02-05T13:31:12Z</time>
      </trkpt>
      <trkpt lat="46.04899" lon="6.3407">
        <ele>646.6</ele>
        <time>2022-02-05T13:31:16Z</time>
      </trkpt>
      <trkpt lat="46.04895" lon="6.34086">
        <ele>647.4</ele>
        <time>2022-02-05T13:31:19Z</time>
      </trkpt>
      <trkpt lat="46.04893" lon="6.34091">
        <ele>647.6</ele>
        <time>2022-02-05T13:31:20Z</time>
      </trkpt>
      <trkpt lat="46.0489" lon="6.34105">
        <ele>648.6</ele>
        <time>2022-02-05T13:31:23Z</time>
      </trkpt>
      <trkpt lat="46.04884" lon="6.3413">
        <ele>649.8</ele>
        <time>2022-02-05T13:31:28Z</time>
      </trkpt>
      <trkpt lat="46.04883" lon="6.34135">
        <ele>650.4</ele>
        <time>2022-02-05T13:31:29Z</time>
      </trkpt>
      <trkpt lat="46.0488" lon="6.34155">
        <ele>651.8</ele>
        <time>2022-02-05T13:31:33Z</time>
      </trkpt>
      <trkpt lat="46.04878" lon="6.34177">
        <ele>652.8</ele>
        <time>2022-02-05T13:31:37Z</time>
      </trkpt>
      <trkpt lat="46.04877" lon="6.34182">
        <ele>653</ele>
        <time>2022-02-05T13:31:38Z</time>
      </trkpt>
      <trkpt lat="46.04872" lon="6.34227">
        <ele>655.2</ele>
        <time>2022-02-05T13:31:46Z</time>
      </trkpt>
      <trkpt lat="46.04869" lon="6.34263">
        <ele>656</ele>
        <time>2022-02-05T13:31:52Z</time>
      </trkpt>
      <trkpt lat="46.04867" lon="6.34281">
        <ele>656.4</ele>
        <time>2022-02-05T13:31:55Z</time>
      </trkpt>
      <trkpt lat="46.04867" lon="6.34287">
        <ele>656.6</ele>
        <time>2022-02-05T13:31:56Z</time>
      </trkpt>
      <trkpt lat="46.04868" lon="6.34323">
        <ele>657.6</ele>
        <time>2022-02-05T13:32:02Z</time>
      </trkpt>
      <trkpt lat="46.0487" lon="6.34342">
        <ele>658.4</ele>
        <time>2022-02-05T13:32:05Z</time>
      </trkpt>
      <trkpt lat="46.04876" lon="6.34385">
        <ele>659.2</ele>
        <time>2022-02-05T13:32:11Z</time>
      </trkpt>
      <trkpt lat="46.04885" lon="6.3445">
        <ele>659.2</ele>
        <time>2022-02-05T13:32:18Z</time>
      </trkpt>
      <trkpt lat="46.04886" lon="6.3446">
        <ele>659.2</ele>
        <time>2022-02-05T13:32:19Z</time>
      </trkpt>
      <trkpt lat="46.04889" lon="6.3448">
        <ele>658.8</ele>
        <time>2022-02-05T13:32:21Z</time>
      </trkpt>
      <trkpt lat="46.04895" lon="6.34533">
        <ele>658.2</ele>
        <time>2022-02-05T13:32:26Z</time>
      </trkpt>
      <trkpt lat="46.049" lon="6.34612">
        <ele>656.4</ele>
        <time>2022-02-05T13:32:33Z</time>
      </trkpt>
      <trkpt lat="46.049" lon="6.34623">
        <ele>656.2</ele>
        <time>2022-02-05T13:32:34Z</time>
      </trkpt>
      <trkpt lat="46.04898" lon="6.34693">
        <ele>655.6</ele>
        <time>2022-02-05T13:32:40Z</time>
      </trkpt>
      <trkpt lat="46.04896" lon="6.34729">
        <ele>655.2</ele>
        <time>2022-02-05T13:32:43Z</time>
      </trkpt>
      <trkpt lat="46.0489" lon="6.34811">
        <ele>654.8</ele>
        <time>2022-02-05T13:32:50Z</time>
      </trkpt>
      <trkpt lat="46.0488" lon="6.34892">
        <ele>654.8</ele>
        <time>2022-02-05T13:32:57Z</time>
      </trkpt>
      <trkpt lat="46.04875" lon="6.34915">
        <ele>654.8</ele>
        <time>2022-02-05T13:32:59Z</time>
      </trkpt>
      <trkpt lat="46.0486" lon="6.34995">
        <ele>654.6</ele>
        <time>2022-02-05T13:33:06Z</time>
      </trkpt>
      <trkpt lat="46.04858" lon="6.35006">
        <ele>654.6</ele>
        <time>2022-02-05T13:33:07Z</time>
      </trkpt>
      <trkpt lat="46.04853" lon="6.35029">
        <ele>654.6</ele>
        <time>2022-02-05T13:33:09Z</time>
      </trkpt>
      <trkpt lat="46.0484" lon="6.35073">
        <ele>654.4</ele>
        <time>2022-02-05T13:33:13Z</time>
      </trkpt>
      <trkpt lat="46.04835" lon="6.35083">
        <ele>654.4</ele>
        <time>2022-02-05T13:33:14Z</time>
      </trkpt>
      <trkpt lat="46.048" lon="6.35131">
        <ele>654.2</ele>
        <time>2022-02-05T13:33:20Z</time>
      </trkpt>
      <trkpt lat="46.04773" lon="6.35169">
        <ele>654.2</ele>
        <time>2022-02-05T13:33:25Z</time>
      </trkpt>
      <trkpt lat="46.04769" lon="6.35178">
        <ele>654.2</ele>
        <time>2022-02-05T13:33:26Z</time>
      </trkpt>
      <trkpt lat="46.04767" lon="6.35188">
        <ele>654.2</ele>
        <time>2022-02-05T13:33:27Z</time>
      </trkpt>
      <trkpt lat="46.04766" lon="6.3521">
        <ele>654.2</ele>
        <time>2022-02-05T13:33:29Z</time>
      </trkpt>
      <trkpt lat="46.04768" lon="6.35244">
        <ele>653.8</ele>
        <time>2022-02-05T13:33:32Z</time>
      </trkpt>
      <trkpt lat="46.0477" lon="6.35276">
        <ele>653.8</ele>
        <time>2022-02-05T13:33:35Z</time>
      </trkpt>
      <trkpt lat="46.0477" lon="6.35299">
        <ele>653.6</ele>
        <time>2022-02-05T13:33:37Z</time>
      </trkpt>
      <trkpt lat="46.04771" lon="6.35322">
        <ele>653.4</ele>
        <time>2022-02-05T13:33:39Z</time>
      </trkpt>
      <trkpt lat="46.04771" lon="6.35347">
        <ele>653.2</ele>
        <time>2022-02-05T13:33:41Z</time>
      </trkpt>
      <trkpt lat="46.04772" lon="6.3536">
        <ele>652.8</ele>
        <time>2022-02-05T13:33:42Z</time>
      </trkpt>
      <trkpt lat="46.04775" lon="6.35439">
        <ele>650.6</ele>
        <time>2022-02-05T13:33:48Z</time>
      </trkpt>
      <trkpt lat="46.04778" lon="6.35502">
        <ele>649</ele>
        <time>2022-02-05T13:33:53Z</time>
      </trkpt>
      <trkpt lat="46.04774" lon="6.35539">
        <ele>648.8</ele>
        <time>2022-02-05T13:33:56Z</time>
      </trkpt>
      <trkpt lat="46.04769" lon="6.356">
        <ele>648.6</ele>
        <time>2022-02-05T13:34:01Z</time>
      </trkpt>
      <trkpt lat="46.04765" lon="6.35647">
        <ele>648.4</ele>
        <time>2022-02-05T13:34:05Z</time>
      </trkpt>
      <trkpt lat="46.04759" lon="6.35692">
        <ele>648.4</ele>
        <time>2022-02-05T13:34:09Z</time>
      </trkpt>
      <trkpt lat="46.04754" lon="6.35749">
        <ele>648.4</ele>
        <time>2022-02-05T13:34:14Z</time>
      </trkpt>
      <trkpt lat="46.04754" lon="6.35759">
        <ele>648.6</ele>
        <time>2022-02-05T13:34:15Z</time>
      </trkpt>
      <trkpt lat="46.04753" lon="6.35789">
        <ele>648.6</ele>
        <time>2022-02-05T13:34:18Z</time>
      </trkpt>
      <trkpt lat="46.0475" lon="6.35817">
        <ele>649</ele>
        <time>2022-02-05T13:34:21Z</time>
      </trkpt>
      <trkpt lat="46.04748" lon="6.35834">
        <ele>649.4</ele>
        <time>2022-02-05T13:34:23Z</time>
      </trkpt>
      <trkpt lat="46.04745" lon="6.35857">
        <ele>650.4</ele>
        <time>2022-02-05T13:34:26Z</time>
      </trkpt>
      <trkpt lat="46.04745" lon="6.35864">
        <ele>650.8</ele>
        <time>2022-02-05T13:34:27Z</time>
      </trkpt>
      <trkpt lat="46.04748" lon="6.35869">
        <ele>651.2</ele>
        <time>2022-02-05T13:34:28Z</time>
      </trkpt>
      <trkpt lat="46.04759" lon="6.35873">
        <ele>651.4</ele>
        <time>2022-02-05T13:34:30Z</time>
      </trkpt>
      <trkpt lat="46.04766" lon="6.35873">
        <ele>651.4</ele>
        <time>2022-02-05T13:34:31Z</time>
      </trkpt>
      <trkpt lat="46.04773" lon="6.35873">
        <ele>651.4</ele>
        <time>2022-02-05T13:34:32Z</time>
      </trkpt>
      <trkpt lat="46.04782" lon="6.35873">
        <ele>651.4</ele>
        <time>2022-02-05T13:34:33Z</time>
      </trkpt>
      <trkpt lat="46.04799" lon="6.35872">
        <ele>651.4</ele>
        <time>2022-02-05T13:34:35Z</time>
      </trkpt>
      <trkpt lat="46.04808" lon="6.35873">
        <ele>651.4</ele>
        <time>2022-02-05T13:34:36Z</time>
      </trkpt>
      <trkpt lat="46.04827" lon="6.35874">
        <ele>651.4</ele>
        <time>2022-02-05T13:34:38Z</time>
      </trkpt>
      <trkpt lat="46.04864" lon="6.35882">
        <ele>649.6</ele>
        <time>2022-02-05T13:34:42Z</time>
      </trkpt>
      <trkpt lat="46.04883" lon="6.3589">
        <ele>648</ele>
        <time>2022-02-05T13:34:44Z</time>
      </trkpt>
      <trkpt lat="46.04911" lon="6.35904">
        <ele>646.2</ele>
        <time>2022-02-05T13:34:47Z</time>
      </trkpt>
      <trkpt lat="46.0493" lon="6.35916">
        <ele>645.4</ele>
        <time>2022-02-05T13:34:49Z</time>
      </trkpt>
      <trkpt lat="46.04975" lon="6.35946">
        <ele>644.2</ele>
        <time>2022-02-05T13:34:54Z</time>
      </trkpt>
      <trkpt lat="46.04984" lon="6.35952">
        <ele>644</ele>
        <time>2022-02-05T13:34:55Z</time>
      </trkpt>
      <trkpt lat="46.05035" lon="6.35982">
        <ele>642.6</ele>
        <time>2022-02-05T13:35:01Z</time>
      </trkpt>
      <trkpt lat="46.0505" lon="6.35993">
        <ele>642.4</ele>
        <time>2022-02-05T13:35:03Z</time>
      </trkpt>
      <trkpt lat="46.05054" lon="6.36002">
        <ele>641.8</ele>
        <time>2022-02-05T13:35:04Z</time>
      </trkpt>
      <trkpt lat="46.05057" lon="6.36013">
        <ele>641.6</ele>
        <time>2022-02-05T13:35:05Z</time>
      </trkpt>
      <trkpt lat="46.05059" lon="6.36039">
        <ele>641</ele>
        <time>2022-02-05T13:35:07Z</time>
      </trkpt>
      <trkpt lat="46.05057" lon="6.36066">
        <ele>640.8</ele>
        <time>2022-02-05T13:35:09Z</time>
      </trkpt>
      <trkpt lat="46.05055" lon="6.36094">
        <ele>640.6</ele>
        <time>2022-02-05T13:35:11Z</time>
      </trkpt>
      <trkpt lat="46.05054" lon="6.36109">
        <ele>640.4</ele>
        <time>2022-02-05T13:35:12Z</time>
      </trkpt>
      <trkpt lat="46.05054" lon="6.36138">
        <ele>639.4</ele>
        <time>2022-02-05T13:35:14Z</time>
      </trkpt>
      <trkpt lat="46.05055" lon="6.36167">
        <ele>638</ele>
        <time>2022-02-05T13:35:16Z</time>
      </trkpt>
      <trkpt lat="46.05056" lon="6.36182">
        <ele>637.4</ele>
        <time>2022-02-05T13:35:17Z</time>
      </trkpt>
      <trkpt lat="46.05057" lon="6.36198">
        <ele>636.8</ele>
        <time>2022-02-05T13:35:18Z</time>
      </trkpt>
      <trkpt lat="46.05057" lon="6.3623">
        <ele>635</ele>
        <time>2022-02-05T13:35:20Z</time>
      </trkpt>
      <trkpt lat="46.05058" lon="6.36245">
        <ele>634.2</ele>
        <time>2022-02-05T13:35:21Z</time>
      </trkpt>
      <trkpt lat="46.05058" lon="6.36262">
        <ele>633.4</ele>
        <time>2022-02-05T13:35:22Z</time>
      </trkpt>
      <trkpt lat="46.05059" lon="6.36294">
        <ele>631.8</ele>
        <time>2022-02-05T13:35:24Z</time>
      </trkpt>
      <trkpt lat="46.0506" lon="6.36327">
        <ele>630.2</ele>
        <time>2022-02-05T13:35:26Z</time>
      </trkpt>
      <trkpt lat="46.05063" lon="6.36361">
        <ele>628.8</ele>
        <time>2022-02-05T13:35:28Z</time>
      </trkpt>
      <trkpt lat="46.05063" lon="6.36378">
        <ele>628</ele>
        <time>2022-02-05T13:35:29Z</time>
      </trkpt>
      <trkpt lat="46.05064" lon="6.36395">
        <ele>627</ele>
        <time>2022-02-05T13:35:30Z</time>
      </trkpt>
      <trkpt lat="46.05065" lon="6.36411">
        <ele>626</ele>
        <time>2022-02-05T13:35:31Z</time>
      </trkpt>
      <trkpt lat="46.05067" lon="6.36445">
        <ele>624.4</ele>
        <time>2022-02-05T13:35:33Z</time>
      </trkpt>
      <trkpt lat="46.05069" lon="6.3648">
        <ele>623.6</ele>
        <time>2022-02-05T13:35:35Z</time>
      </trkpt>
      <trkpt lat="46.05069" lon="6.36498">
        <ele>622.8</ele>
        <time>2022-02-05T13:35:36Z</time>
      </trkpt>
      <trkpt lat="46.05072" lon="6.36533">
        <ele>621</ele>
        <time>2022-02-05T13:35:38Z</time>
      </trkpt>
      <trkpt lat="46.05073" lon="6.3655">
        <ele>620.2</ele>
        <time>2022-02-05T13:35:39Z</time>
      </trkpt>
      <trkpt lat="46.05078" lon="6.36583">
        <ele>618.2</ele>
        <time>2022-02-05T13:35:41Z</time>
      </trkpt>
      <trkpt lat="46.05081" lon="6.366">
        <ele>617.4</ele>
        <time>2022-02-05T13:35:42Z</time>
      </trkpt>
      <trkpt lat="46.05086" lon="6.36634">
        <ele>615.6</ele>
        <time>2022-02-05T13:35:44Z</time>
      </trkpt>
      <trkpt lat="46.05089" lon="6.36667">
        <ele>614.4</ele>
        <time>2022-02-05T13:35:46Z</time>
      </trkpt>
      <trkpt lat="46.05095" lon="6.36699">
        <ele>612.8</ele>
        <time>2022-02-05T13:35:48Z</time>
      </trkpt>
      <trkpt lat="46.05099" lon="6.36732">
        <ele>611.4</ele>
        <time>2022-02-05T13:35:50Z</time>
      </trkpt>
      <trkpt lat="46.05101" lon="6.36765">
        <ele>610</ele>
        <time>2022-02-05T13:35:52Z</time>
      </trkpt>
      <trkpt lat="46.05107" lon="6.36815">
        <ele>607.4</ele>
        <time>2022-02-05T13:35:55Z</time>
      </trkpt>
      <trkpt lat="46.05109" lon="6.36831">
        <ele>607</ele>
        <time>2022-02-05T13:35:56Z</time>
      </trkpt>
      <trkpt lat="46.05111" lon="6.36848">
        <ele>606.2</ele>
        <time>2022-02-05T13:35:57Z</time>
      </trkpt>
      <trkpt lat="46.05114" lon="6.36864">
        <ele>605.4</ele>
        <time>2022-02-05T13:35:58Z</time>
      </trkpt>
      <trkpt lat="46.05117" lon="6.3688">
        <ele>604.6</ele>
        <time>2022-02-05T13:35:59Z</time>
      </trkpt>
      <trkpt lat="46.05122" lon="6.3693">
        <ele>602.6</ele>
        <time>2022-02-05T13:36:02Z</time>
      </trkpt>
      <trkpt lat="46.05124" lon="6.36962">
        <ele>601.4</ele>
        <time>2022-02-05T13:36:04Z</time>
      </trkpt>
      <trkpt lat="46.05126" lon="6.36977">
        <ele>601</ele>
        <time>2022-02-05T13:36:05Z</time>
      </trkpt>
      <trkpt lat="46.05128" lon="6.36993">
        <ele>600.4</ele>
        <time>2022-02-05T13:36:06Z</time>
      </trkpt>
      <trkpt lat="46.05133" lon="6.37024">
        <ele>598.4</ele>
        <time>2022-02-05T13:36:08Z</time>
      </trkpt>
      <trkpt lat="46.05134" lon="6.3704">
        <ele>597.6</ele>
        <time>2022-02-05T13:36:09Z</time>
      </trkpt>
      <trkpt lat="46.05133" lon="6.37056">
        <ele>597.2</ele>
        <time>2022-02-05T13:36:10Z</time>
      </trkpt>
      <trkpt lat="46.05133" lon="6.37072">
        <ele>596.4</ele>
        <time>2022-02-05T13:36:11Z</time>
      </trkpt>
      <trkpt lat="46.05131" lon="6.37119">
        <ele>594.2</ele>
        <time>2022-02-05T13:36:14Z</time>
      </trkpt>
      <trkpt lat="46.0513" lon="6.3715">
        <ele>593.6</ele>
        <time>2022-02-05T13:36:16Z</time>
      </trkpt>
      <trkpt lat="46.05128" lon="6.37191">
        <ele>591.4</ele>
        <time>2022-02-05T13:36:19Z</time>
      </trkpt>
      <trkpt lat="46.05127" lon="6.37203">
        <ele>590.6</ele>
        <time>2022-02-05T13:36:20Z</time>
      </trkpt>
      <trkpt lat="46.05127" lon="6.37213">
        <ele>590.2</ele>
        <time>2022-02-05T13:36:21Z</time>
      </trkpt>
      <trkpt lat="46.05128" lon="6.37223">
        <ele>589.6</ele>
        <time>2022-02-05T13:36:22Z</time>
      </trkpt>
      <trkpt lat="46.0513" lon="6.37231">
        <ele>589</ele>
        <time>2022-02-05T13:36:23Z</time>
      </trkpt>
      <trkpt lat="46.05139" lon="6.37242">
        <ele>588.2</ele>
        <time>2022-02-05T13:36:25Z</time>
      </trkpt>
      <trkpt lat="46.05144" lon="6.37244">
        <ele>588</ele>
        <time>2022-02-05T13:36:26Z</time>
      </trkpt>
      <trkpt lat="46.05151" lon="6.37243">
        <ele>587.8</ele>
        <time>2022-02-05T13:36:27Z</time>
      </trkpt>
      <trkpt lat="46.05158" lon="6.37239">
        <ele>587.6</ele>
        <time>2022-02-05T13:36:28Z</time>
      </trkpt>
      <trkpt lat="46.05163" lon="6.37232">
        <ele>587.4</ele>
        <time>2022-02-05T13:36:29Z</time>
      </trkpt>
      <trkpt lat="46.05167" lon="6.37223">
        <ele>587.2</ele>
        <time>2022-02-05T13:36:30Z</time>
      </trkpt>
      <trkpt lat="46.05168" lon="6.37212">
        <ele>587.2</ele>
        <time>2022-02-05T13:36:31Z</time>
      </trkpt>
      <trkpt lat="46.05169" lon="6.372">
        <ele>587.2</ele>
        <time>2022-02-05T13:36:32Z</time>
      </trkpt>
      <trkpt lat="46.05169" lon="6.37187">
        <ele>587.2</ele>
        <time>2022-02-05T13:36:33Z</time>
      </trkpt>
      <trkpt lat="46.05169" lon="6.3716">
        <ele>586.6</ele>
        <time>2022-02-05T13:36:35Z</time>
      </trkpt>
      <trkpt lat="46.05169" lon="6.37132">
        <ele>585.6</ele>
        <time>2022-02-05T13:36:37Z</time>
      </trkpt>
      <trkpt lat="46.0517" lon="6.37118">
        <ele>584.8</ele>
        <time>2022-02-05T13:36:38Z</time>
      </trkpt>
      <trkpt lat="46.05171" lon="6.37103">
        <ele>584</ele>
        <time>2022-02-05T13:36:39Z</time>
      </trkpt>
      <trkpt lat="46.05172" lon="6.37088">
        <ele>583.2</ele>
        <time>2022-02-05T13:36:40Z</time>
      </trkpt>
      <trkpt lat="46.05176" lon="6.37059">
        <ele>581.4</ele>
        <time>2022-02-05T13:36:42Z</time>
      </trkpt>
      <trkpt lat="46.05181" lon="6.3703">
        <ele>580</ele>
        <time>2022-02-05T13:36:44Z</time>
      </trkpt>
      <trkpt lat="46.05184" lon="6.37016">
        <ele>579.4</ele>
        <time>2022-02-05T13:36:45Z</time>
      </trkpt>
      <trkpt lat="46.05189" lon="6.37002">
        <ele>578.8</ele>
        <time>2022-02-05T13:36:46Z</time>
      </trkpt>
      <trkpt lat="46.05195" lon="6.36989">
        <ele>578.6</ele>
        <time>2022-02-05T13:36:47Z</time>
      </trkpt>
      <trkpt lat="46.05202" lon="6.36977">
        <ele>577.8</ele>
        <time>2022-02-05T13:36:48Z</time>
      </trkpt>
      <trkpt lat="46.05218" lon="6.36953">
        <ele>576.2</ele>
        <time>2022-02-05T13:36:50Z</time>
      </trkpt>
      <trkpt lat="46.05226" lon="6.36942">
        <ele>575.6</ele>
        <time>2022-02-05T13:36:51Z</time>
      </trkpt>
      <trkpt lat="46.05234" lon="6.3693">
        <ele>575.2</ele>
        <time>2022-02-05T13:36:52Z</time>
      </trkpt>
      <trkpt lat="46.05241" lon="6.36918">
        <ele>574.6</ele>
        <time>2022-02-05T13:36:53Z</time>
      </trkpt>
      <trkpt lat="46.05249" lon="6.36906">
        <ele>573.8</ele>
        <time>2022-02-05T13:36:54Z</time>
      </trkpt>
      <trkpt lat="46.05257" lon="6.36894">
        <ele>573</ele>
        <time>2022-02-05T13:36:55Z</time>
      </trkpt>
      <trkpt lat="46.05271" lon="6.36868">
        <ele>571.4</ele>
        <time>2022-02-05T13:36:57Z</time>
      </trkpt>
      <trkpt lat="46.05276" lon="6.36853">
        <ele>570.6</ele>
        <time>2022-02-05T13:36:58Z</time>
      </trkpt>
      <trkpt lat="46.0528" lon="6.36838">
        <ele>570</ele>
        <time>2022-02-05T13:36:59Z</time>
      </trkpt>
      <trkpt lat="46.05282" lon="6.36822">
        <ele>569.4</ele>
        <time>2022-02-05T13:37:00Z</time>
      </trkpt>
      <trkpt lat="46.05285" lon="6.36805">
        <ele>568.6</ele>
        <time>2022-02-05T13:37:01Z</time>
      </trkpt>
      <trkpt lat="46.05288" lon="6.36789">
        <ele>567.6</ele>
        <time>2022-02-05T13:37:02Z</time>
      </trkpt>
      <trkpt lat="46.05291" lon="6.36772">
        <ele>566.6</ele>
        <time>2022-02-05T13:37:03Z</time>
      </trkpt>
      <trkpt lat="46.05298" lon="6.3674">
        <ele>565</ele>
        <time>2022-02-05T13:37:05Z</time>
      </trkpt>
      <trkpt lat="46.05308" lon="6.36709">
        <ele>563.2</ele>
        <time>2022-02-05T13:37:07Z</time>
      </trkpt>
      <trkpt lat="46.05313" lon="6.36695">
        <ele>562.4</ele>
        <time>2022-02-05T13:37:08Z</time>
      </trkpt>
      <trkpt lat="46.05331" lon="6.36635">
        <ele>558</ele>
        <time>2022-02-05T13:37:12Z</time>
      </trkpt>
      <trkpt lat="46.05335" lon="6.3662">
        <ele>557.2</ele>
        <time>2022-02-05T13:37:13Z</time>
      </trkpt>
      <trkpt lat="46.05343" lon="6.3659">
        <ele>555.6</ele>
        <time>2022-02-05T13:37:15Z</time>
      </trkpt>
      <trkpt lat="46.05352" lon="6.36562">
        <ele>554.2</ele>
        <time>2022-02-05T13:37:17Z</time>
      </trkpt>
      <trkpt lat="46.05362" lon="6.36534">
        <ele>553.4</ele>
        <time>2022-02-05T13:37:19Z</time>
      </trkpt>
      <trkpt lat="46.05372" lon="6.36505">
        <ele>552.4</ele>
        <time>2022-02-05T13:37:21Z</time>
      </trkpt>
      <trkpt lat="46.0538" lon="6.36475">
        <ele>551.2</ele>
        <time>2022-02-05T13:37:23Z</time>
      </trkpt>
      <trkpt lat="46.05383" lon="6.36459">
        <ele>550.8</ele>
        <time>2022-02-05T13:37:24Z</time>
      </trkpt>
      <trkpt lat="46.05386" lon="6.36443">
        <ele>550.2</ele>
        <time>2022-02-05T13:37:25Z</time>
      </trkpt>
      <trkpt lat="46.05388" lon="6.36427">
        <ele>549.4</ele>
        <time>2022-02-05T13:37:26Z</time>
      </trkpt>
      <trkpt lat="46.05389" lon="6.36411">
        <ele>549</ele>
        <time>2022-02-05T13:37:27Z</time>
      </trkpt>
      <trkpt lat="46.0539" lon="6.36394">
        <ele>548.4</ele>
        <time>2022-02-05T13:37:28Z</time>
      </trkpt>
      <trkpt lat="46.05393" lon="6.36316">
        <ele>544.2</ele>
        <time>2022-02-05T13:37:33Z</time>
      </trkpt>
      <trkpt lat="46.05394" lon="6.36304">
        <ele>543.4</ele>
        <time>2022-02-05T13:37:34Z</time>
      </trkpt>
      <trkpt lat="46.05399" lon="6.36271">
        <ele>540.8</ele>
        <time>2022-02-05T13:37:37Z</time>
      </trkpt>
      <trkpt lat="46.05402" lon="6.36262">
        <ele>540.4</ele>
        <time>2022-02-05T13:37:38Z</time>
      </trkpt>
      <trkpt lat="46.05407" lon="6.36256">
        <ele>540</ele>
        <time>2022-02-05T13:37:39Z</time>
      </trkpt>
      <trkpt lat="46.05412" lon="6.36252">
        <ele>539.8</ele>
        <time>2022-02-05T13:37:40Z</time>
      </trkpt>
      <trkpt lat="46.05419" lon="6.3625">
        <ele>539.8</ele>
        <time>2022-02-05T13:37:41Z</time>
      </trkpt>
      <trkpt lat="46.05425" lon="6.36252">
        <ele>539.8</ele>
        <time>2022-02-05T13:37:42Z</time>
      </trkpt>
      <trkpt lat="46.05431" lon="6.36257">
        <ele>539.8</ele>
        <time>2022-02-05T13:37:43Z</time>
      </trkpt>
      <trkpt lat="46.05436" lon="6.36265">
        <ele>539.6</ele>
        <time>2022-02-05T13:37:44Z</time>
      </trkpt>
      <trkpt lat="46.05439" lon="6.36275">
        <ele>539.6</ele>
        <time>2022-02-05T13:37:45Z</time>
      </trkpt>
      <trkpt lat="46.0544" lon="6.36298">
        <ele>539.4</ele>
        <time>2022-02-05T13:37:47Z</time>
      </trkpt>
      <trkpt lat="46.05438" lon="6.36323">
        <ele>538</ele>
        <time>2022-02-05T13:37:49Z</time>
      </trkpt>
      <trkpt lat="46.05437" lon="6.36349">
        <ele>536.8</ele>
        <time>2022-02-05T13:37:51Z</time>
      </trkpt>
      <trkpt lat="46.05437" lon="6.36363">
        <ele>536</ele>
        <time>2022-02-05T13:37:52Z</time>
      </trkpt>
      <trkpt lat="46.05437" lon="6.36377">
        <ele>535.4</ele>
        <time>2022-02-05T13:37:53Z</time>
      </trkpt>
      <trkpt lat="46.05437" lon="6.3642">
        <ele>533</ele>
        <time>2022-02-05T13:37:56Z</time>
      </trkpt>
      <trkpt lat="46.05436" lon="6.3645">
        <ele>531.8</ele>
        <time>2022-02-05T13:37:58Z</time>
      </trkpt>
      <trkpt lat="46.05434" lon="6.36496">
        <ele>529.4</ele>
        <time>2022-02-05T13:38:01Z</time>
      </trkpt>
      <trkpt lat="46.05434" lon="6.36528">
        <ele>528</ele>
        <time>2022-02-05T13:38:03Z</time>
      </trkpt>
      <trkpt lat="46.05436" lon="6.3656">
        <ele>527</ele>
        <time>2022-02-05T13:38:05Z</time>
      </trkpt>
      <trkpt lat="46.05446" lon="6.36607">
        <ele>524.4</ele>
        <time>2022-02-05T13:38:08Z</time>
      </trkpt>
      <trkpt lat="46.05452" lon="6.36622">
        <ele>523.8</ele>
        <time>2022-02-05T13:38:09Z</time>
      </trkpt>
      <trkpt lat="46.05458" lon="6.36635">
        <ele>523.4</ele>
        <time>2022-02-05T13:38:10Z</time>
      </trkpt>
      <trkpt lat="46.05466" lon="6.36647">
        <ele>522.6</ele>
        <time>2022-02-05T13:38:11Z</time>
      </trkpt>
      <trkpt lat="46.05474" lon="6.36658">
        <ele>522</ele>
        <time>2022-02-05T13:38:12Z</time>
      </trkpt>
      <trkpt lat="46.05483" lon="6.36669">
        <ele>521.4</ele>
        <time>2022-02-05T13:38:13Z</time>
      </trkpt>
      <trkpt lat="46.05491" lon="6.36681">
        <ele>520.4</ele>
        <time>2022-02-05T13:38:14Z</time>
      </trkpt>
      <trkpt lat="46.05498" lon="6.36694">
        <ele>519.6</ele>
        <time>2022-02-05T13:38:15Z</time>
      </trkpt>
      <trkpt lat="46.05503" lon="6.36708">
        <ele>519.2</ele>
        <time>2022-02-05T13:38:16Z</time>
      </trkpt>
      <trkpt lat="46.05515" lon="6.36753">
        <ele>517.4</ele>
        <time>2022-02-05T13:38:19Z</time>
      </trkpt>
      <trkpt lat="46.05517" lon="6.36768">
        <ele>516.8</ele>
        <time>2022-02-05T13:38:20Z</time>
      </trkpt>
      <trkpt lat="46.05523" lon="6.36799">
        <ele>515</ele>
        <time>2022-02-05T13:38:22Z</time>
      </trkpt>
      <trkpt lat="46.05531" lon="6.36827">
        <ele>513.4</ele>
        <time>2022-02-05T13:38:24Z</time>
      </trkpt>
      <trkpt lat="46.05536" lon="6.36841">
        <ele>512.6</ele>
        <time>2022-02-05T13:38:25Z</time>
      </trkpt>
      <trkpt lat="46.05539" lon="6.36855">
        <ele>512.4</ele>
        <time>2022-02-05T13:38:26Z</time>
      </trkpt>
      <trkpt lat="46.05541" lon="6.36883">
        <ele>511.8</ele>
        <time>2022-02-05T13:38:28Z</time>
      </trkpt>
      <trkpt lat="46.05539" lon="6.36912">
        <ele>510.2</ele>
        <time>2022-02-05T13:38:30Z</time>
      </trkpt>
      <trkpt lat="46.05536" lon="6.36942">
        <ele>508.8</ele>
        <time>2022-02-05T13:38:32Z</time>
      </trkpt>
      <trkpt lat="46.05534" lon="6.36957">
        <ele>508.2</ele>
        <time>2022-02-05T13:38:33Z</time>
      </trkpt>
      <trkpt lat="46.05531" lon="6.36987">
        <ele>507.6</ele>
        <time>2022-02-05T13:38:35Z</time>
      </trkpt>
      <trkpt lat="46.05528" lon="6.37018">
        <ele>507</ele>
        <time>2022-02-05T13:38:37Z</time>
      </trkpt>
      <trkpt lat="46.05525" lon="6.37049">
        <ele>505.6</ele>
        <time>2022-02-05T13:38:39Z</time>
      </trkpt>
      <trkpt lat="46.05525" lon="6.37065">
        <ele>505</ele>
        <time>2022-02-05T13:38:40Z</time>
      </trkpt>
      <trkpt lat="46.05525" lon="6.3708">
        <ele>504.2</ele>
        <time>2022-02-05T13:38:41Z</time>
      </trkpt>
      <trkpt lat="46.05519" lon="6.37139">
        <ele>502.8</ele>
        <time>2022-02-05T13:38:45Z</time>
      </trkpt>
      <trkpt lat="46.05511" lon="6.3718">
        <ele>500.6</ele>
        <time>2022-02-05T13:38:49Z</time>
      </trkpt>
      <trkpt lat="46.0551" lon="6.37187">
        <ele>500.2</ele>
        <time>2022-02-05T13:38:50Z</time>
      </trkpt>
      <trkpt lat="46.05513" lon="6.37199">
        <ele>499.2</ele>
        <time>2022-02-05T13:38:52Z</time>
      </trkpt>
      <trkpt lat="46.05517" lon="6.37204">
        <ele>498.8</ele>
        <time>2022-02-05T13:38:53Z</time>
      </trkpt>
      <trkpt lat="46.05523" lon="6.3721">
        <ele>498.6</ele>
        <time>2022-02-05T13:38:54Z</time>
      </trkpt>
      <trkpt lat="46.05529" lon="6.37215">
        <ele>498.4</ele>
        <time>2022-02-05T13:38:55Z</time>
      </trkpt>
      <trkpt lat="46.05541" lon="6.37228">
        <ele>498.2</ele>
        <time>2022-02-05T13:38:57Z</time>
      </trkpt>
      <trkpt lat="46.05555" lon="6.37242">
        <ele>498.2</ele>
        <time>2022-02-05T13:38:59Z</time>
      </trkpt>
      <trkpt lat="46.05561" lon="6.3725">
        <ele>498.2</ele>
        <time>2022-02-05T13:39:00Z</time>
      </trkpt>
      <trkpt lat="46.05569" lon="6.37258">
        <ele>498</ele>
        <time>2022-02-05T13:39:01Z</time>
      </trkpt>
      <trkpt lat="46.05599" lon="6.37291">
        <ele>495.8</ele>
        <time>2022-02-05T13:39:05Z</time>
      </trkpt>
      <trkpt lat="46.05614" lon="6.37308">
        <ele>494.4</ele>
        <time>2022-02-05T13:39:07Z</time>
      </trkpt>
      <trkpt lat="46.05659" lon="6.37357">
        <ele>490.8</ele>
        <time>2022-02-05T13:39:13Z</time>
      </trkpt>
      <trkpt lat="46.05672" lon="6.37375">
        <ele>489.8</ele>
        <time>2022-02-05T13:39:15Z</time>
      </trkpt>
      <trkpt lat="46.05681" lon="6.37397">
        <ele>489.2</ele>
        <time>2022-02-05T13:39:17Z</time>
      </trkpt>
      <trkpt lat="46.05685" lon="6.37408">
        <ele>489.2</ele>
        <time>2022-02-05T13:39:18Z</time>
      </trkpt>
      <trkpt lat="46.05689" lon="6.3742">
        <ele>489</ele>
        <time>2022-02-05T13:39:19Z</time>
      </trkpt>
      <trkpt lat="46.05717" lon="6.37494">
        <ele>487.8</ele>
        <time>2022-02-05T13:39:26Z</time>
      </trkpt>
      <trkpt lat="46.0572" lon="6.37503">
        <ele>487.6</ele>
        <time>2022-02-05T13:39:27Z</time>
      </trkpt>
      <trkpt lat="46.05725" lon="6.3753">
        <ele>487.4</ele>
        <time>2022-02-05T13:39:30Z</time>
      </trkpt>
      <trkpt lat="46.0573" lon="6.37549">
        <ele>487.4</ele>
        <time>2022-02-05T13:39:32Z</time>
      </trkpt>
      <trkpt lat="46.05732" lon="6.3756">
        <ele>487.2</ele>
        <time>2022-02-05T13:39:33Z</time>
      </trkpt>
      <trkpt lat="46.05736" lon="6.37581">
        <ele>487.2</ele>
        <time>2022-02-05T13:39:35Z</time>
      </trkpt>
      <trkpt lat="46.05751" lon="6.37633">
        <ele>487</ele>
        <time>2022-02-05T13:39:40Z</time>
      </trkpt>
      <trkpt lat="46.05761" lon="6.37661">
        <ele>486.4</ele>
        <time>2022-02-05T13:39:43Z</time>
      </trkpt>
      <trkpt lat="46.05777" lon="6.37696">
        <ele>485.6</ele>
        <time>2022-02-05T13:39:47Z</time>
      </trkpt>
      <trkpt lat="46.05781" lon="6.37705">
        <ele>485.4</ele>
        <time>2022-02-05T13:39:48Z</time>
      </trkpt>
      <trkpt lat="46.05788" lon="6.37724">
        <ele>485.4</ele>
        <time>2022-02-05T13:39:50Z</time>
      </trkpt>
      <trkpt lat="46.05793" lon="6.37746">
        <ele>485.2</ele>
        <time>2022-02-05T13:39:52Z</time>
      </trkpt>
      <trkpt lat="46.05794" lon="6.37757">
        <ele>485</ele>
        <time>2022-02-05T13:39:53Z</time>
      </trkpt>
      <trkpt lat="46.05797" lon="6.37803">
        <ele>484.2</ele>
        <time>2022-02-05T13:39:57Z</time>
      </trkpt>
      <trkpt lat="46.05806" lon="6.37873">
        <ele>483.4</ele>
        <time>2022-02-05T13:40:03Z</time>
      </trkpt>
      <trkpt lat="46.05827" lon="6.37926">
        <ele>483</ele>
        <time>2022-02-05T13:40:08Z</time>
      </trkpt>
      <trkpt lat="46.05855" lon="6.37977">
        <ele>482.4</ele>
        <time>2022-02-05T13:40:13Z</time>
      </trkpt>
      <trkpt lat="46.05866" lon="6.37997">
        <ele>482.2</ele>
        <time>2022-02-05T13:40:15Z</time>
      </trkpt>
      <trkpt lat="46.05905" lon="6.38065">
        <ele>480.4</ele>
        <time>2022-02-05T13:40:22Z</time>
      </trkpt>
      <trkpt lat="46.0591" lon="6.38074">
        <ele>480.2</ele>
        <time>2022-02-05T13:40:23Z</time>
      </trkpt>
      <trkpt lat="46.0592" lon="6.38092">
        <ele>479.8</ele>
        <time>2022-02-05T13:40:25Z</time>
      </trkpt>
      <trkpt lat="46.05937" lon="6.38127">
        <ele>479.8</ele>
        <time>2022-02-05T13:40:29Z</time>
      </trkpt>
      <trkpt lat="46.05937" lon="6.38146">
        <ele>479.6</ele>
        <time>2022-02-05T13:40:31Z</time>
      </trkpt>
      <trkpt lat="46.0593" lon="6.38163">
        <ele>479.2</ele>
        <time>2022-02-05T13:40:33Z</time>
      </trkpt>
      <trkpt lat="46.05926" lon="6.3817">
        <ele>479</ele>
        <time>2022-02-05T13:40:34Z</time>
      </trkpt>
      <trkpt lat="46.0589" lon="6.38237">
        <ele>478.8</ele>
        <time>2022-02-05T13:40:42Z</time>
      </trkpt>
      <trkpt lat="46.05857" lon="6.38304">
        <ele>478.6</ele>
        <time>2022-02-05T13:40:49Z</time>
      </trkpt>
      <trkpt lat="46.05844" lon="6.38334">
        <ele>478.6</ele>
        <time>2022-02-05T13:40:52Z</time>
      </trkpt>
      <trkpt lat="46.05837" lon="6.38356">
        <ele>478.6</ele>
        <time>2022-02-05T13:40:54Z</time>
      </trkpt>
      <trkpt lat="46.05831" lon="6.38379">
        <ele>478.2</ele>
        <time>2022-02-05T13:40:56Z</time>
      </trkpt>
      <trkpt lat="46.05827" lon="6.38403">
        <ele>478.2</ele>
        <time>2022-02-05T13:40:58Z</time>
      </trkpt>
      <trkpt lat="46.05825" lon="6.38415">
        <ele>478</ele>
        <time>2022-02-05T13:40:59Z</time>
      </trkpt>
      <trkpt lat="46.05824" lon="6.38476">
        <ele>477.4</ele>
        <time>2022-02-05T13:41:04Z</time>
      </trkpt>
      <trkpt lat="46.05828" lon="6.38555">
        <ele>477.2</ele>
        <time>2022-02-05T13:41:11Z</time>
      </trkpt>
      <trkpt lat="46.05831" lon="6.38578">
        <ele>477</ele>
        <time>2022-02-05T13:41:13Z</time>
      </trkpt>
      <trkpt lat="46.05838" lon="6.38613">
        <ele>477</ele>
        <time>2022-02-05T13:41:16Z</time>
      </trkpt>
      <trkpt lat="46.05857" lon="6.38679">
        <ele>476.4</ele>
        <time>2022-02-05T13:41:22Z</time>
      </trkpt>
      <trkpt lat="46.0586" lon="6.3869">
        <ele>476.4</ele>
        <time>2022-02-05T13:41:23Z</time>
      </trkpt>
      <trkpt lat="46.05872" lon="6.38735">
        <ele>475.6</ele>
        <time>2022-02-05T13:41:27Z</time>
      </trkpt>
      <trkpt lat="46.05893" lon="6.38801">
        <ele>475</ele>
        <time>2022-02-05T13:41:33Z</time>
      </trkpt>
      <trkpt lat="46.05914" lon="6.3884">
        <ele>474.4</ele>
        <time>2022-02-05T13:41:37Z</time>
      </trkpt>
      <trkpt lat="46.05919" lon="6.38849">
        <ele>474.4</ele>
        <time>2022-02-05T13:41:38Z</time>
      </trkpt>
      <trkpt lat="46.05958" lon="6.38911">
        <ele>473.4</ele>
        <time>2022-02-05T13:41:45Z</time>
      </trkpt>
      <trkpt lat="46.05999" lon="6.38974">
        <ele>472.4</ele>
        <time>2022-02-05T13:41:52Z</time>
      </trkpt>
      <trkpt lat="46.06004" lon="6.38983">
        <ele>472.6</ele>
        <time>2022-02-05T13:41:53Z</time>
      </trkpt>
      <trkpt lat="46.06013" lon="6.39002">
        <ele>472.4</ele>
        <time>2022-02-05T13:41:55Z</time>
      </trkpt>
      <trkpt lat="46.06032" lon="6.39038">
        <ele>471.8</ele>
        <time>2022-02-05T13:41:59Z</time>
      </trkpt>
      <trkpt lat="46.06063" lon="6.39076">
        <ele>471.4</ele>
        <time>2022-02-05T13:42:04Z</time>
      </trkpt>
      <trkpt lat="46.06099" lon="6.39107">
        <ele>470.8</ele>
        <time>2022-02-05T13:42:09Z</time>
      </trkpt>
      <trkpt lat="46.06121" lon="6.39129">
        <ele>470.6</ele>
        <time>2022-02-05T13:42:12Z</time>
      </trkpt>
      <trkpt lat="46.06134" lon="6.39146">
        <ele>470.2</ele>
        <time>2022-02-05T13:42:14Z</time>
      </trkpt>
      <trkpt lat="46.0616" lon="6.39194">
        <ele>469.8</ele>
        <time>2022-02-05T13:42:19Z</time>
      </trkpt>
      <trkpt lat="46.0617" lon="6.39216">
        <ele>469.4</ele>
        <time>2022-02-05T13:42:21Z</time>
      </trkpt>
      <trkpt lat="46.06202" lon="6.39293">
        <ele>468</ele>
        <time>2022-02-05T13:42:28Z</time>
      </trkpt>
      <trkpt lat="46.06212" lon="6.39315">
        <ele>467.4</ele>
        <time>2022-02-05T13:42:30Z</time>
      </trkpt>
      <trkpt lat="46.06235" lon="6.39371">
        <ele>466.8</ele>
        <time>2022-02-05T13:42:35Z</time>
      </trkpt>
      <trkpt lat="46.06239" lon="6.39382">
        <ele>466.8</ele>
        <time>2022-02-05T13:42:36Z</time>
      </trkpt>
      <trkpt lat="46.06266" lon="6.39446">
        <ele>466.6</ele>
        <time>2022-02-05T13:42:42Z</time>
      </trkpt>
      <trkpt lat="46.06275" lon="6.39467">
        <ele>466.4</ele>
        <time>2022-02-05T13:42:44Z</time>
      </trkpt>
      <trkpt lat="46.06302" lon="6.39532">
        <ele>466</ele>
        <time>2022-02-05T13:42:50Z</time>
      </trkpt>
      <trkpt lat="46.06319" lon="6.39575">
        <ele>465.8</ele>
        <time>2022-02-05T13:42:54Z</time>
      </trkpt>
      <trkpt lat="46.06351" lon="6.39649">
        <ele>464.8</ele>
        <time>2022-02-05T13:43:01Z</time>
      </trkpt>
      <trkpt lat="46.06356" lon="6.3966">
        <ele>465</ele>
        <time>2022-02-05T13:43:02Z</time>
      </trkpt>
      <trkpt lat="46.06372" lon="6.39689">
        <ele>464.6</ele>
        <time>2022-02-05T13:43:05Z</time>
      </trkpt>
      <trkpt lat="46.06413" lon="6.39755">
        <ele>463.8</ele>
        <time>2022-02-05T13:43:12Z</time>
      </trkpt>
      <trkpt lat="46.0643" lon="6.39782">
        <ele>463.6</ele>
        <time>2022-02-05T13:43:15Z</time>
      </trkpt>
      <trkpt lat="46.06452" lon="6.39817">
        <ele>463.4</ele>
        <time>2022-02-05T13:43:19Z</time>
      </trkpt>
      <trkpt lat="46.06458" lon="6.39827">
        <ele>463.4</ele>
        <time>2022-02-05T13:43:20Z</time>
      </trkpt>
      <trkpt lat="46.06468" lon="6.39847">
        <ele>463</ele>
        <time>2022-02-05T13:43:22Z</time>
      </trkpt>
      <trkpt lat="46.06474" lon="6.3987">
        <ele>462.6</ele>
        <time>2022-02-05T13:43:24Z</time>
      </trkpt>
      <trkpt lat="46.06477" lon="6.39894">
        <ele>461.8</ele>
        <time>2022-02-05T13:43:26Z</time>
      </trkpt>
      <trkpt lat="46.06477" lon="6.3992">
        <ele>461.8</ele>
        <time>2022-02-05T13:43:28Z</time>
      </trkpt>
      <trkpt lat="46.06476" lon="6.39983">
        <ele>461</ele>
        <time>2022-02-05T13:43:33Z</time>
      </trkpt>
      <trkpt lat="46.06478" lon="6.39995">
        <ele>460.8</ele>
        <time>2022-02-05T13:43:34Z</time>
      </trkpt>
      <trkpt lat="46.0648" lon="6.40007">
        <ele>460.8</ele>
        <time>2022-02-05T13:43:35Z</time>
      </trkpt>
      <trkpt lat="46.06488" lon="6.40027">
        <ele>460.8</ele>
        <time>2022-02-05T13:43:37Z</time>
      </trkpt>
      <trkpt lat="46.065" lon="6.40044">
        <ele>460.6</ele>
        <time>2022-02-05T13:43:39Z</time>
      </trkpt>
      <trkpt lat="46.06513" lon="6.40058">
        <ele>460.4</ele>
        <time>2022-02-05T13:43:41Z</time>
      </trkpt>
      <trkpt lat="46.06552" lon="6.40089">
        <ele>459.2</ele>
        <time>2022-02-05T13:43:46Z</time>
      </trkpt>
      <trkpt lat="46.06565" lon="6.40105">
        <ele>459.2</ele>
        <time>2022-02-05T13:43:48Z</time>
      </trkpt>
      <trkpt lat="46.06576" lon="6.40123">
        <ele>459</ele>
        <time>2022-02-05T13:43:50Z</time>
      </trkpt>
      <trkpt lat="46.06581" lon="6.40132">
        <ele>459</ele>
        <time>2022-02-05T13:43:51Z</time>
      </trkpt>
      <trkpt lat="46.06595" lon="6.40163">
        <ele>459</ele>
        <time>2022-02-05T13:43:54Z</time>
      </trkpt>
      <trkpt lat="46.06613" lon="6.40205">
        <ele>459</ele>
        <time>2022-02-05T13:43:58Z</time>
      </trkpt>
      <trkpt lat="46.06626" lon="6.40237">
        <ele>459</ele>
        <time>2022-02-05T13:44:01Z</time>
      </trkpt>
      <trkpt lat="46.0663" lon="6.40248">
        <ele>459</ele>
        <time>2022-02-05T13:44:02Z</time>
      </trkpt>
      <trkpt lat="46.06659" lon="6.40322">
        <ele>458</ele>
        <time>2022-02-05T13:44:09Z</time>
      </trkpt>
      <trkpt lat="46.06672" lon="6.40354">
        <ele>457.4</ele>
        <time>2022-02-05T13:44:12Z</time>
      </trkpt>
      <trkpt lat="46.0668" lon="6.40376">
        <ele>457.2</ele>
        <time>2022-02-05T13:44:14Z</time>
      </trkpt>
      <trkpt lat="46.0671" lon="6.40453">
        <ele>456.2</ele>
        <time>2022-02-05T13:44:21Z</time>
      </trkpt>
      <trkpt lat="46.06743" lon="6.40525">
        <ele>455.6</ele>
        <time>2022-02-05T13:44:28Z</time>
      </trkpt>
      <trkpt lat="46.06777" lon="6.40578">
        <ele>455.4</ele>
        <time>2022-02-05T13:44:34Z</time>
      </trkpt>
      <trkpt lat="46.06804" lon="6.40619">
        <ele>455.2</ele>
        <time>2022-02-05T13:44:39Z</time>
      </trkpt>
      <trkpt lat="46.06809" lon="6.40625">
        <ele>455.2</ele>
        <time>2022-02-05T13:44:40Z</time>
      </trkpt>
      <trkpt lat="46.06816" lon="6.4063">
        <ele>455.4</ele>
        <time>2022-02-05T13:44:41Z</time>
      </trkpt>
      <trkpt lat="46.06829" lon="6.40637">
        <ele>455.4</ele>
        <time>2022-02-05T13:44:43Z</time>
      </trkpt>
      <trkpt lat="46.06853" lon="6.40641">
        <ele>455.2</ele>
        <time>2022-02-05T13:44:46Z</time>
      </trkpt>
      <trkpt lat="46.06861" lon="6.40642">
        <ele>455</ele>
        <time>2022-02-05T13:44:47Z</time>
      </trkpt>
      <trkpt lat="46.06913" lon="6.40647">
        <ele>454.6</ele>
        <time>2022-02-05T13:44:53Z</time>
      </trkpt>
      <trkpt lat="46.06949" lon="6.40648">
        <ele>453.8</ele>
        <time>2022-02-05T13:44:57Z</time>
      </trkpt>
      <trkpt lat="46.06975" lon="6.40648">
        <ele>453.2</ele>
        <time>2022-02-05T13:45:00Z</time>
      </trkpt>
      <trkpt lat="46.07035" lon="6.40648">
        <ele>452.8</ele>
        <time>2022-02-05T13:45:07Z</time>
      </trkpt>
      <trkpt lat="46.07044" lon="6.40648">
        <ele>452.8</ele>
        <time>2022-02-05T13:45:08Z</time>
      </trkpt>
      <trkpt lat="46.0706" lon="6.40647">
        <ele>452.8</ele>
        <time>2022-02-05T13:45:10Z</time>
      </trkpt>
      <trkpt lat="46.07084" lon="6.40648">
        <ele>452.8</ele>
        <time>2022-02-05T13:45:13Z</time>
      </trkpt>
      <trkpt lat="46.07092" lon="6.40647">
        <ele>453</ele>
        <time>2022-02-05T13:45:14Z</time>
      </trkpt>
      <trkpt lat="46.07107" lon="6.40647">
        <ele>453</ele>
        <time>2022-02-05T13:45:16Z</time>
      </trkpt>
      <trkpt lat="46.07123" lon="6.40646">
        <ele>453.2</ele>
        <time>2022-02-05T13:45:18Z</time>
      </trkpt>
      <trkpt lat="46.07149" lon="6.40644">
        <ele>453.2</ele>
        <time>2022-02-05T13:45:21Z</time>
      </trkpt>
      <trkpt lat="46.07183" lon="6.40641">
        <ele>453.2</ele>
        <time>2022-02-05T13:45:25Z</time>
      </trkpt>
      <trkpt lat="46.07217" lon="6.40639">
        <ele>452.6</ele>
        <time>2022-02-05T13:45:29Z</time>
      </trkpt>
      <trkpt lat="46.0725" lon="6.40636">
        <ele>452.4</ele>
        <time>2022-02-05T13:45:33Z</time>
      </trkpt>
      <trkpt lat="46.07264" lon="6.40638">
        <ele>452.4</ele>
        <time>2022-02-05T13:45:35Z</time>
      </trkpt>
      <trkpt lat="46.07278" lon="6.40642">
        <ele>452.2</ele>
        <time>2022-02-05T13:45:38Z</time>
      </trkpt>
      <trkpt lat="46.07283" lon="6.40644">
        <ele>452.4</ele>
        <time>2022-02-05T13:45:42Z</time>
      </trkpt>
      <trkpt lat="46.07285" lon="6.40644">
        <ele>453.2</ele>
        <time>2022-02-05T13:45:52Z</time>
      </trkpt>
      <trkpt lat="46.07291" lon="6.40638">
        <ele>453.4</ele>
        <time>2022-02-05T13:45:55Z</time>
      </trkpt>
      <trkpt lat="46.07296" lon="6.4061">
        <ele>453.4</ele>
        <time>2022-02-05T13:45:59Z</time>
      </trkpt>
      <trkpt lat="46.07297" lon="6.40602">
        <ele>453.4</ele>
        <time>2022-02-05T13:46:00Z</time>
      </trkpt>
      <trkpt lat="46.07305" lon="6.40566">
        <ele>453</ele>
        <time>2022-02-05T13:46:04Z</time>
      </trkpt>
      <trkpt lat="46.07326" lon="6.40511">
        <ele>452.6</ele>
        <time>2022-02-05T13:46:10Z</time>
      </trkpt>
      <trkpt lat="46.07352" lon="6.40455">
        <ele>452.2</ele>
        <time>2022-02-05T13:46:16Z</time>
      </trkpt>
      <trkpt lat="46.07382" lon="6.4039">
        <ele>452.2</ele>
        <time>2022-02-05T13:46:23Z</time>
      </trkpt>
      <trkpt lat="46.07396" lon="6.40364">
        <ele>452.2</ele>
        <time>2022-02-05T13:46:26Z</time>
      </trkpt>
      <trkpt lat="46.0741" lon="6.40342">
        <ele>452.2</ele>
        <time>2022-02-05T13:46:29Z</time>
      </trkpt>
      <trkpt lat="46.07415" lon="6.40338">
        <ele>452.2</ele>
        <time>2022-02-05T13:46:30Z</time>
      </trkpt>
      <trkpt lat="46.0742" lon="6.40335">
        <ele>452.2</ele>
        <time>2022-02-05T13:46:31Z</time>
      </trkpt>
      <trkpt lat="46.07432" lon="6.40334">
        <ele>452.4</ele>
        <time>2022-02-05T13:46:33Z</time>
      </trkpt>
      <trkpt lat="46.07444" lon="6.4034">
        <ele>452.2</ele>
        <time>2022-02-05T13:46:35Z</time>
      </trkpt>
      <trkpt lat="46.07449" lon="6.40347">
        <ele>452.4</ele>
        <time>2022-02-05T13:46:36Z</time>
      </trkpt>
      <trkpt lat="46.07453" lon="6.40355">
        <ele>452.2</ele>
        <time>2022-02-05T13:46:37Z</time>
      </trkpt>
      <trkpt lat="46.0747" lon="6.40391">
        <ele>452.4</ele>
        <time>2022-02-05T13:46:41Z</time>
      </trkpt>
      <trkpt lat="46.07474" lon="6.40401">
        <ele>452.4</ele>
        <time>2022-02-05T13:46:42Z</time>
      </trkpt>
      <trkpt lat="46.07503" lon="6.40463">
        <ele>451.6</ele>
        <time>2022-02-05T13:46:49Z</time>
      </trkpt>
      <trkpt lat="46.07509" lon="6.40481">
        <ele>451.6</ele>
        <time>2022-02-05T13:46:51Z</time>
      </trkpt>
      <trkpt lat="46.07512" lon="6.40501">
        <ele>451.4</ele>
        <time>2022-02-05T13:46:53Z</time>
      </trkpt>
      <trkpt lat="46.07509" lon="6.4052">
        <ele>451.2</ele>
        <time>2022-02-05T13:46:55Z</time>
      </trkpt>
      <trkpt lat="46.07507" lon="6.40529">
        <ele>451.4</ele>
        <time>2022-02-05T13:46:56Z</time>
      </trkpt>
      <trkpt lat="46.07506" lon="6.40538">
        <ele>451.4</ele>
        <time>2022-02-05T13:46:57Z</time>
      </trkpt>
      <trkpt lat="46.07507" lon="6.40548">
        <ele>451.2</ele>
        <time>2022-02-05T13:46:58Z</time>
      </trkpt>
      <trkpt lat="46.0751" lon="6.40556">
        <ele>451.2</ele>
        <time>2022-02-05T13:46:59Z</time>
      </trkpt>
      <trkpt lat="46.07523" lon="6.40561">
        <ele>451.4</ele>
        <time>2022-02-05T13:47:01Z</time>
      </trkpt>
      <trkpt lat="46.07535" lon="6.40558">
        <ele>451.4</ele>
        <time>2022-02-05T13:47:03Z</time>
      </trkpt>
      <trkpt lat="46.07541" lon="6.40557">
        <ele>451.6</ele>
        <time>2022-02-05T13:47:04Z</time>
      </trkpt>
      <trkpt lat="46.07547" lon="6.40559">
        <ele>451.8</ele>
        <time>2022-02-05T13:47:05Z</time>
      </trkpt>
      <trkpt lat="46.07556" lon="6.4057">
        <ele>452.8</ele>
        <time>2022-02-05T13:47:07Z</time>
      </trkpt>
      <trkpt lat="46.07559" lon="6.40577">
        <ele>452.8</ele>
        <time>2022-02-05T13:47:08Z</time>
      </trkpt>
      <trkpt lat="46.07574" lon="6.40605">
        <ele>453.4</ele>
        <time>2022-02-05T13:47:12Z</time>
      </trkpt>
      <trkpt lat="46.07593" lon="6.40641">
        <ele>455.2</ele>
        <time>2022-02-05T13:47:17Z</time>
      </trkpt>
      <trkpt lat="46.07602" lon="6.40656">
        <ele>455.6</ele>
        <time>2022-02-05T13:47:19Z</time>
      </trkpt>
      <trkpt lat="46.07615" lon="6.40682">
        <ele>455.8</ele>
        <time>2022-02-05T13:47:22Z</time>
      </trkpt>
      <trkpt lat="46.07617" lon="6.40692">
        <ele>455.6</ele>
        <time>2022-02-05T13:47:23Z</time>
      </trkpt>
      <trkpt lat="46.07616" lon="6.40702">
        <ele>455.6</ele>
        <time>2022-02-05T13:47:24Z</time>
      </trkpt>
      <trkpt lat="46.0761" lon="6.40723">
        <ele>455.6</ele>
        <time>2022-02-05T13:47:26Z</time>
      </trkpt>
      <trkpt lat="46.07593" lon="6.40789">
        <ele>454</ele>
        <time>2022-02-05T13:47:32Z</time>
      </trkpt>
      <trkpt lat="46.07585" lon="6.40836">
        <ele>452.6</ele>
        <time>2022-02-05T13:47:36Z</time>
      </trkpt>
      <trkpt lat="46.07585" lon="6.40847">
        <ele>452.6</ele>
        <time>2022-02-05T13:47:37Z</time>
      </trkpt>
      <trkpt lat="46.07585" lon="6.40858">
        <ele>452.6</ele>
        <time>2022-02-05T13:47:38Z</time>
      </trkpt>
      <trkpt lat="46.07589" lon="6.40878">
        <ele>452.6</ele>
        <time>2022-02-05T13:47:40Z</time>
      </trkpt>
      <trkpt lat="46.07607" lon="6.40931">
        <ele>452.8</ele>
        <time>2022-02-05T13:47:46Z</time>
      </trkpt>
      <trkpt lat="46.07631" lon="6.41002">
        <ele>453</ele>
        <time>2022-02-05T13:47:54Z</time>
      </trkpt>
      <trkpt lat="46.07653" lon="6.41064">
        <ele>453</ele>
        <time>2022-02-05T13:48:01Z</time>
      </trkpt>
      <trkpt lat="46.07675" lon="6.41131">
        <ele>452.6</ele>
        <time>2022-02-05T13:48:08Z</time>
      </trkpt>
      <trkpt lat="46.077" lon="6.41208">
        <ele>452.8</ele>
        <time>2022-02-05T13:48:16Z</time>
      </trkpt>
      <trkpt lat="46.07725" lon="6.41282">
        <ele>452.8</ele>
        <time>2022-02-05T13:48:24Z</time>
      </trkpt>
      <trkpt lat="46.07728" lon="6.41292">
        <ele>452.6</ele>
        <time>2022-02-05T13:48:25Z</time>
      </trkpt>
      <trkpt lat="46.07752" lon="6.41363">
        <ele>452.8</ele>
        <time>2022-02-05T13:48:33Z</time>
      </trkpt>
      <trkpt lat="46.07758" lon="6.41381">
        <ele>452.8</ele>
        <time>2022-02-05T13:48:35Z</time>
      </trkpt>
      <trkpt lat="46.0777" lon="6.41416">
        <ele>453.2</ele>
        <time>2022-02-05T13:48:39Z</time>
      </trkpt>
      <trkpt lat="46.07783" lon="6.41453">
        <ele>453.6</ele>
        <time>2022-02-05T13:48:44Z</time>
      </trkpt>
      <trkpt lat="46.0779" lon="6.41477">
        <ele>453.8</ele>
        <time>2022-02-05T13:48:47Z</time>
      </trkpt>
      <trkpt lat="46.07792" lon="6.41495">
        <ele>454.2</ele>
        <time>2022-02-05T13:48:49Z</time>
      </trkpt>
      <trkpt lat="46.07792" lon="6.41505">
        <ele>454.4</ele>
        <time>2022-02-05T13:48:50Z</time>
      </trkpt>
      <trkpt lat="46.07789" lon="6.41536">
        <ele>454.4</ele>
        <time>2022-02-05T13:48:53Z</time>
      </trkpt>
      <trkpt lat="46.07787" lon="6.41558">
        <ele>454.4</ele>
        <time>2022-02-05T13:48:55Z</time>
      </trkpt>
      <trkpt lat="46.07787" lon="6.4158">
        <ele>454.4</ele>
        <time>2022-02-05T13:48:57Z</time>
      </trkpt>
      <trkpt lat="46.07788" lon="6.41591">
        <ele>454.4</ele>
        <time>2022-02-05T13:48:58Z</time>
      </trkpt>
      <trkpt lat="46.0779" lon="6.41601">
        <ele>454.4</ele>
        <time>2022-02-05T13:48:59Z</time>
      </trkpt>
      <trkpt lat="46.07797" lon="6.41624">
        <ele>454.6</ele>
        <time>2022-02-05T13:49:02Z</time>
      </trkpt>
      <trkpt lat="46.07811" lon="6.4166">
        <ele>455</ele>
        <time>2022-02-05T13:49:08Z</time>
      </trkpt>
      <trkpt lat="46.07816" lon="6.41676">
        <ele>455.2</ele>
        <time>2022-02-05T13:49:11Z</time>
      </trkpt>
      <trkpt lat="46.07823" lon="6.41696">
        <ele>455</ele>
        <time>2022-02-05T13:49:14Z</time>
      </trkpt>
      <trkpt lat="46.0784" lon="6.41748">
        <ele>455</ele>
        <time>2022-02-05T13:49:20Z</time>
      </trkpt>
      <trkpt lat="46.07859" lon="6.41821">
        <ele>455</ele>
        <time>2022-02-05T13:49:27Z</time>
      </trkpt>
      <trkpt lat="46.07862" lon="6.41832">
        <ele>455</ele>
        <time>2022-02-05T13:49:28Z</time>
      </trkpt>
      <trkpt lat="46.07879" lon="6.41914">
        <ele>455</ele>
        <time>2022-02-05T13:49:35Z</time>
      </trkpt>
      <trkpt lat="46.07881" lon="6.41926">
        <ele>455</ele>
        <time>2022-02-05T13:49:36Z</time>
      </trkpt>
      <trkpt lat="46.07894" lon="6.4201">
        <ele>455.2</ele>
        <time>2022-02-05T13:49:43Z</time>
      </trkpt>
      <trkpt lat="46.07898" lon="6.42033">
        <ele>455.2</ele>
        <time>2022-02-05T13:49:45Z</time>
      </trkpt>
      <trkpt lat="46.07903" lon="6.42077">
        <ele>455.2</ele>
        <time>2022-02-05T13:49:49Z</time>
      </trkpt>
      <trkpt lat="46.07906" lon="6.42096">
        <ele>455.4</ele>
        <time>2022-02-05T13:49:51Z</time>
      </trkpt>
      <trkpt lat="46.07916" lon="6.42104">
        <ele>455.4</ele>
        <time>2022-02-05T13:49:53Z</time>
      </trkpt>
      <trkpt lat="46.07942" lon="6.42116">
        <ele>455.6</ele>
        <time>2022-02-05T13:49:57Z</time>
      </trkpt>
      <trkpt lat="46.07949" lon="6.42121">
        <ele>455.6</ele>
        <time>2022-02-05T13:49:58Z</time>
      </trkpt>
      <trkpt lat="46.07967" lon="6.42143">
        <ele>455.6</ele>
        <time>2022-02-05T13:50:01Z</time>
      </trkpt>
      <trkpt lat="46.07971" lon="6.42152">
        <ele>455.4</ele>
        <time>2022-02-05T13:50:02Z</time>
      </trkpt>
      <trkpt lat="46.07976" lon="6.42162">
        <ele>455.6</ele>
        <time>2022-02-05T13:50:03Z</time>
      </trkpt>
      <trkpt lat="46.07983" lon="6.42183">
        <ele>455.6</ele>
        <time>2022-02-05T13:50:05Z</time>
      </trkpt>
      <trkpt lat="46.08008" lon="6.42257">
        <ele>454</ele>
        <time>2022-02-05T13:50:12Z</time>
      </trkpt>
      <trkpt lat="46.08011" lon="6.42267">
        <ele>454</ele>
        <time>2022-02-05T13:50:13Z</time>
      </trkpt>
      <trkpt lat="46.08035" lon="6.42342">
        <ele>453.8</ele>
        <time>2022-02-05T13:50:20Z</time>
      </trkpt>
      <trkpt lat="46.08043" lon="6.42413">
        <ele>454</ele>
        <time>2022-02-05T13:50:26Z</time>
      </trkpt>
      <trkpt lat="46.08045" lon="6.42436">
        <ele>454</ele>
        <time>2022-02-05T13:50:28Z</time>
      </trkpt>
      <trkpt lat="46.08052" lon="6.42505">
        <ele>453.8</ele>
        <time>2022-02-05T13:50:34Z</time>
      </trkpt>
      <trkpt lat="46.08056" lon="6.42539">
        <ele>453.8</ele>
        <time>2022-02-05T13:50:37Z</time>
      </trkpt>
      <trkpt lat="46.08064" lon="6.42616">
        <ele>453.6</ele>
        <time>2022-02-05T13:50:44Z</time>
      </trkpt>
      <trkpt lat="46.08067" lon="6.42647">
        <ele>453.6</ele>
        <time>2022-02-05T13:50:47Z</time>
      </trkpt>
      <trkpt lat="46.08068" lon="6.42658">
        <ele>453.8</ele>
        <time>2022-02-05T13:50:48Z</time>
      </trkpt>
      <trkpt lat="46.08079" lon="6.42718">
        <ele>454.2</ele>
        <time>2022-02-05T13:50:54Z</time>
      </trkpt>
      <trkpt lat="46.08081" lon="6.42727">
        <ele>454</ele>
        <time>2022-02-05T13:50:55Z</time>
      </trkpt>
      <trkpt lat="46.08094" lon="6.42774">
        <ele>454.8</ele>
        <time>2022-02-05T13:51:00Z</time>
      </trkpt>
      <trkpt lat="46.08104" lon="6.42811">
        <ele>456</ele>
        <time>2022-02-05T13:51:04Z</time>
      </trkpt>
      <trkpt lat="46.08111" lon="6.42838">
        <ele>456.4</ele>
        <time>2022-02-05T13:51:07Z</time>
      </trkpt>
      <trkpt lat="46.08129" lon="6.42901">
        <ele>457.8</ele>
        <time>2022-02-05T13:51:14Z</time>
      </trkpt>
      <trkpt lat="46.08144" lon="6.42942">
        <ele>458.4</ele>
        <time>2022-02-05T13:51:19Z</time>
      </trkpt>
      <trkpt lat="46.08154" lon="6.42966">
        <ele>459</ele>
        <time>2022-02-05T13:51:22Z</time>
      </trkpt>
      <trkpt lat="46.08171" lon="6.42991">
        <ele>459.4</ele>
        <time>2022-02-05T13:51:26Z</time>
      </trkpt>
      <trkpt lat="46.08175" lon="6.42996">
        <ele>459.4</ele>
        <time>2022-02-05T13:51:27Z</time>
      </trkpt>
      <trkpt lat="46.08188" lon="6.43007">
        <ele>460.2</ele>
        <time>2022-02-05T13:51:30Z</time>
      </trkpt>
      <trkpt lat="46.08201" lon="6.43015">
        <ele>460.8</ele>
        <time>2022-02-05T13:51:33Z</time>
      </trkpt>
      <trkpt lat="46.08205" lon="6.43017">
        <ele>461.2</ele>
        <time>2022-02-05T13:51:34Z</time>
      </trkpt>
      <trkpt lat="46.08213" lon="6.4302">
        <ele>461.8</ele>
        <time>2022-02-05T13:51:36Z</time>
      </trkpt>
      <trkpt lat="46.0823" lon="6.43026">
        <ele>463</ele>
        <time>2022-02-05T13:51:40Z</time>
      </trkpt>
      <trkpt lat="46.08245" lon="6.4303">
        <ele>464.6</ele>
        <time>2022-02-05T13:51:44Z</time>
      </trkpt>
      <trkpt lat="46.08261" lon="6.43034">
        <ele>466</ele>
        <time>2022-02-05T13:51:48Z</time>
      </trkpt>
      <trkpt lat="46.08269" lon="6.43036">
        <ele>466.6</ele>
        <time>2022-02-05T13:51:50Z</time>
      </trkpt>
      <trkpt lat="46.08273" lon="6.43037">
        <ele>466.8</ele>
        <time>2022-02-05T13:51:51Z</time>
      </trkpt>
      <trkpt lat="46.08283" lon="6.43042">
        <ele>467.6</ele>
        <time>2022-02-05T13:51:54Z</time>
      </trkpt>
      <trkpt lat="46.08288" lon="6.43047">
        <ele>468.2</ele>
        <time>2022-02-05T13:51:56Z</time>
      </trkpt>
      <trkpt lat="46.08294" lon="6.43059">
        <ele>469.2</ele>
        <time>2022-02-05T13:51:59Z</time>
      </trkpt>
      <trkpt lat="46.08296" lon="6.43064">
        <ele>469.4</ele>
        <time>2022-02-05T13:52:00Z</time>
      </trkpt>
      <trkpt lat="46.08305" lon="6.43091">
        <ele>471.2</ele>
        <time>2022-02-05T13:52:05Z</time>
      </trkpt>
      <trkpt lat="46.08313" lon="6.43113">
        <ele>472</ele>
        <time>2022-02-05T13:52:09Z</time>
      </trkpt>
      <trkpt lat="46.08317" lon="6.4313">
        <ele>472.6</ele>
        <time>2022-02-05T13:52:12Z</time>
      </trkpt>
      <trkpt lat="46.08324" lon="6.43153">
        <ele>473.6</ele>
        <time>2022-02-05T13:52:16Z</time>
      </trkpt>
      <trkpt lat="46.08326" lon="6.43159">
        <ele>473.6</ele>
        <time>2022-02-05T13:52:17Z</time>
      </trkpt>
      <trkpt lat="46.08328" lon="6.43164">
        <ele>473.6</ele>
        <time>2022-02-05T13:52:18Z</time>
      </trkpt>
      <trkpt lat="46.08341" lon="6.432">
        <ele>475</ele>
        <time>2022-02-05T13:52:25Z</time>
      </trkpt>
      <trkpt lat="46.08346" lon="6.43211">
        <ele>475.6</ele>
        <time>2022-02-05T13:52:27Z</time>
      </trkpt>
      <trkpt lat="46.0836" lon="6.43245">
        <ele>476.4</ele>
        <time>2022-02-05T13:52:33Z</time>
      </trkpt>
      <trkpt lat="46.08375" lon="6.43271">
        <ele>476.8</ele>
        <time>2022-02-05T13:52:37Z</time>
      </trkpt>
      <trkpt lat="46.08379" lon="6.43278">
        <ele>477</ele>
        <time>2022-02-05T13:52:38Z</time>
      </trkpt>
      <trkpt lat="46.08381" lon="6.43287">
        <ele>477</ele>
        <time>2022-02-05T13:52:39Z</time>
      </trkpt>
      <trkpt lat="46.08385" lon="6.43306">
        <ele>477</ele>
        <time>2022-02-05T13:52:41Z</time>
      </trkpt>
      <trkpt lat="46.08386" lon="6.43316">
        <ele>476.8</ele>
        <time>2022-02-05T13:52:42Z</time>
      </trkpt>
      <trkpt lat="46.08391" lon="6.4338">
        <ele>476.2</ele>
        <time>2022-02-05T13:52:48Z</time>
      </trkpt>
      <trkpt lat="46.08391" lon="6.4339">
        <ele>476</ele>
        <time>2022-02-05T13:52:49Z</time>
      </trkpt>
      <trkpt lat="46.08386" lon="6.43434">
        <ele>474.2</ele>
        <time>2022-02-05T13:52:54Z</time>
      </trkpt>
      <trkpt lat="46.08379" lon="6.43475">
        <ele>474.2</ele>
        <time>2022-02-05T13:52:59Z</time>
      </trkpt>
      <trkpt lat="46.08375" lon="6.4349">
        <ele>474.6</ele>
        <time>2022-02-05T13:53:01Z</time>
      </trkpt>
      <trkpt lat="46.08366" lon="6.43517">
        <ele>474.8</ele>
        <time>2022-02-05T13:53:05Z</time>
      </trkpt>
      <trkpt lat="46.08359" lon="6.43541">
        <ele>475.2</ele>
        <time>2022-02-05T13:53:09Z</time>
      </trkpt>
      <trkpt lat="46.08352" lon="6.43562">
        <ele>475.6</ele>
        <time>2022-02-05T13:53:13Z</time>
      </trkpt>
      <trkpt lat="46.08345" lon="6.4358">
        <ele>477.8</ele>
        <time>2022-02-05T13:53:17Z</time>
      </trkpt>
      <trkpt lat="46.08344" lon="6.43585">
        <ele>478</ele>
        <time>2022-02-05T13:53:18Z</time>
      </trkpt>
      <trkpt lat="46.08338" lon="6.43599">
        <ele>479</ele>
        <time>2022-02-05T13:53:21Z</time>
      </trkpt>
      <trkpt lat="46.08334" lon="6.43608">
        <ele>479.8</ele>
        <time>2022-02-05T13:53:23Z</time>
      </trkpt>
      <trkpt lat="46.08329" lon="6.43616">
        <ele>480.2</ele>
        <time>2022-02-05T13:53:25Z</time>
      </trkpt>
      <trkpt lat="46.08327" lon="6.4362">
        <ele>480.6</ele>
        <time>2022-02-05T13:53:26Z</time>
      </trkpt>
      <trkpt lat="46.08311" lon="6.43637">
        <ele>482.2</ele>
        <time>2022-02-05T13:53:31Z</time>
      </trkpt>
      <trkpt lat="46.08303" lon="6.43647">
        <ele>483.6</ele>
        <time>2022-02-05T13:53:34Z</time>
      </trkpt>
      <trkpt lat="46.08292" lon="6.43659">
        <ele>484.6</ele>
        <time>2022-02-05T13:53:38Z</time>
      </trkpt>
      <trkpt lat="46.08284" lon="6.43668">
        <ele>485.2</ele>
        <time>2022-02-05T13:53:41Z</time>
      </trkpt>
      <trkpt lat="46.08281" lon="6.43671">
        <ele>485.4</ele>
        <time>2022-02-05T13:53:42Z</time>
      </trkpt>
      <trkpt lat="46.08276" lon="6.43676">
        <ele>486.2</ele>
        <time>2022-02-05T13:53:44Z</time>
      </trkpt>
      <trkpt lat="46.08267" lon="6.43688">
        <ele>487.6</ele>
        <time>2022-02-05T13:53:48Z</time>
      </trkpt>
      <trkpt lat="46.08263" lon="6.43694">
        <ele>488.2</ele>
        <time>2022-02-05T13:53:50Z</time>
      </trkpt>
      <trkpt lat="46.0825" lon="6.4372">
        <ele>490.6</ele>
        <time>2022-02-05T13:53:56Z</time>
      </trkpt>
      <trkpt lat="46.08245" lon="6.43739">
        <ele>491</ele>
        <time>2022-02-05T13:53:59Z</time>
      </trkpt>
      <trkpt lat="46.0824" lon="6.43762">
        <ele>491</ele>
        <time>2022-02-05T13:54:02Z</time>
      </trkpt>
      <trkpt lat="46.08234" lon="6.43797">
        <ele>491</ele>
        <time>2022-02-05T13:54:06Z</time>
      </trkpt>
      <trkpt lat="46.08231" lon="6.43817">
        <ele>490.6</ele>
        <time>2022-02-05T13:54:08Z</time>
      </trkpt>
      <trkpt lat="46.08224" lon="6.4386">
        <ele>490</ele>
        <time>2022-02-05T13:54:12Z</time>
      </trkpt>
      <trkpt lat="46.08219" lon="6.43893">
        <ele>489.2</ele>
        <time>2022-02-05T13:54:15Z</time>
      </trkpt>
      <trkpt lat="46.08217" lon="6.43904">
        <ele>488.8</ele>
        <time>2022-02-05T13:54:16Z</time>
      </trkpt>
      <trkpt lat="46.08208" lon="6.43937">
        <ele>488</ele>
        <time>2022-02-05T13:54:19Z</time>
      </trkpt>
      <trkpt lat="46.08202" lon="6.43956">
        <ele>487.6</ele>
        <time>2022-02-05T13:54:21Z</time>
      </trkpt>
      <trkpt lat="46.08199" lon="6.43966">
        <ele>487.4</ele>
        <time>2022-02-05T13:54:22Z</time>
      </trkpt>
      <trkpt lat="46.08175" lon="6.44029">
        <ele>485.4</ele>
        <time>2022-02-05T13:54:29Z</time>
      </trkpt>
      <trkpt lat="46.08169" lon="6.44046">
        <ele>485.2</ele>
        <time>2022-02-05T13:54:31Z</time>
      </trkpt>
      <trkpt lat="46.08158" lon="6.44081">
        <ele>485.4</ele>
        <time>2022-02-05T13:54:35Z</time>
      </trkpt>
      <trkpt lat="46.08155" lon="6.44089">
        <ele>485.4</ele>
        <time>2022-02-05T13:54:36Z</time>
      </trkpt>
      <trkpt lat="46.08151" lon="6.44105">
        <ele>485.2</ele>
        <time>2022-02-05T13:54:38Z</time>
      </trkpt>
      <trkpt lat="46.08149" lon="6.44113">
        <ele>485.2</ele>
        <time>2022-02-05T13:54:39Z</time>
      </trkpt>
      <trkpt lat="46.08146" lon="6.44134">
        <ele>485.4</ele>
        <time>2022-02-05T13:54:42Z</time>
      </trkpt>
      <trkpt lat="46.08146" lon="6.44161">
        <ele>486.6</ele>
        <time>2022-02-05T13:54:46Z</time>
      </trkpt>
      <trkpt lat="46.08147" lon="6.44173">
        <ele>487.4</ele>
        <time>2022-02-05T13:54:48Z</time>
      </trkpt>
      <trkpt lat="46.08148" lon="6.44191">
        <ele>488.4</ele>
        <time>2022-02-05T13:54:51Z</time>
      </trkpt>
      <trkpt lat="46.08148" lon="6.44213">
        <ele>489.6</ele>
        <time>2022-02-05T13:54:55Z</time>
      </trkpt>
      <trkpt lat="46.08147" lon="6.44219">
        <ele>490.2</ele>
        <time>2022-02-05T13:54:56Z</time>
      </trkpt>
      <trkpt lat="46.08146" lon="6.4425">
        <ele>492.6</ele>
        <time>2022-02-05T13:55:01Z</time>
      </trkpt>
      <trkpt lat="46.08146" lon="6.44274">
        <ele>493.6</ele>
        <time>2022-02-05T13:55:05Z</time>
      </trkpt>
      <trkpt lat="46.08147" lon="6.44279">
        <ele>494</ele>
        <time>2022-02-05T13:55:06Z</time>
      </trkpt>
      <trkpt lat="46.08149" lon="6.44285">
        <ele>494</ele>
        <time>2022-02-05T13:55:07Z</time>
      </trkpt>
      <trkpt lat="46.08153" lon="6.44298">
        <ele>494.6</ele>
        <time>2022-02-05T13:55:10Z</time>
      </trkpt>
      <trkpt lat="46.08158" lon="6.44312">
        <ele>495</ele>
        <time>2022-02-05T13:55:13Z</time>
      </trkpt>
      <trkpt lat="46.08163" lon="6.44324">
        <ele>495.8</ele>
        <time>2022-02-05T13:55:16Z</time>
      </trkpt>
      <trkpt lat="46.08164" lon="6.44328">
        <ele>496.2</ele>
        <time>2022-02-05T13:55:17Z</time>
      </trkpt>
      <trkpt lat="46.08168" lon="6.4434">
        <ele>497.2</ele>
        <time>2022-02-05T13:55:20Z</time>
      </trkpt>
      <trkpt lat="46.08171" lon="6.44352">
        <ele>498.4</ele>
        <time>2022-02-05T13:55:23Z</time>
      </trkpt>
      <trkpt lat="46.08172" lon="6.44356">
        <ele>498.8</ele>
        <time>2022-02-05T13:55:24Z</time>
      </trkpt>
      <trkpt lat="46.08176" lon="6.44373">
        <ele>500</ele>
        <time>2022-02-05T13:55:28Z</time>
      </trkpt>
      <trkpt lat="46.08179" lon="6.44389">
        <ele>501.4</ele>
        <time>2022-02-05T13:55:32Z</time>
      </trkpt>
      <trkpt lat="46.08177" lon="6.44415">
        <ele>502.8</ele>
        <time>2022-02-05T13:55:38Z</time>
      </trkpt>
      <trkpt lat="46.08175" lon="6.44424">
        <ele>503.4</ele>
        <time>2022-02-05T13:55:40Z</time>
      </trkpt>
      <trkpt lat="46.08168" lon="6.44451">
        <ele>504.8</ele>
        <time>2022-02-05T13:55:46Z</time>
      </trkpt>
      <trkpt lat="46.08166" lon="6.44461">
        <ele>505</ele>
        <time>2022-02-05T13:55:48Z</time>
      </trkpt>
      <trkpt lat="46.08161" lon="6.44482">
        <ele>506.2</ele>
        <time>2022-02-05T13:55:53Z</time>
      </trkpt>
      <trkpt lat="46.0816" lon="6.44487">
        <ele>506.2</ele>
        <time>2022-02-05T13:55:54Z</time>
      </trkpt>
      <trkpt lat="46.08157" lon="6.44501">
        <ele>506.8</ele>
        <time>2022-02-05T13:55:57Z</time>
      </trkpt>
      <trkpt lat="46.08154" lon="6.44514">
        <ele>507</ele>
        <time>2022-02-05T13:56:00Z</time>
      </trkpt>
      <trkpt lat="46.08153" lon="6.44523">
        <ele>507.4</ele>
        <time>2022-02-05T13:56:02Z</time>
      </trkpt>
      <trkpt lat="46.08146" lon="6.44545">
        <ele>508.8</ele>
        <time>2022-02-05T13:56:07Z</time>
      </trkpt>
      <trkpt lat="46.08141" lon="6.44567">
        <ele>510.2</ele>
        <time>2022-02-05T13:56:12Z</time>
      </trkpt>
      <trkpt lat="46.0814" lon="6.44572">
        <ele>510.4</ele>
        <time>2022-02-05T13:56:13Z</time>
      </trkpt>
      <trkpt lat="46.08137" lon="6.4459">
        <ele>511.2</ele>
        <time>2022-02-05T13:56:17Z</time>
      </trkpt>
      <trkpt lat="46.08133" lon="6.44608">
        <ele>512</ele>
        <time>2022-02-05T13:56:21Z</time>
      </trkpt>
      <trkpt lat="46.08132" lon="6.44612">
        <ele>512.4</ele>
        <time>2022-02-05T13:56:22Z</time>
      </trkpt>
      <trkpt lat="46.08128" lon="6.4463">
        <ele>513.4</ele>
        <time>2022-02-05T13:56:26Z</time>
      </trkpt>
      <trkpt lat="46.08127" lon="6.44635">
        <ele>513.6</ele>
        <time>2022-02-05T13:56:27Z</time>
      </trkpt>
      <trkpt lat="46.08122" lon="6.44657">
        <ele>514.6</ele>
        <time>2022-02-05T13:56:32Z</time>
      </trkpt>
      <trkpt lat="46.08117" lon="6.44676">
        <ele>515.4</ele>
        <time>2022-02-05T13:56:36Z</time>
      </trkpt>
      <trkpt lat="46.08113" lon="6.4469">
        <ele>516</ele>
        <time>2022-02-05T13:56:39Z</time>
      </trkpt>
      <trkpt lat="46.08108" lon="6.44715">
        <ele>517</ele>
        <time>2022-02-05T13:56:44Z</time>
      </trkpt>
      <trkpt lat="46.08096" lon="6.44765">
        <ele>519</ele>
        <time>2022-02-05T13:56:54Z</time>
      </trkpt>
      <trkpt lat="46.08095" lon="6.44771">
        <ele>519.2</ele>
        <time>2022-02-05T13:56:55Z</time>
      </trkpt>
      <trkpt lat="46.08088" lon="6.44808">
        <ele>520</ele>
        <time>2022-02-05T13:57:01Z</time>
      </trkpt>
      <trkpt lat="46.08088" lon="6.44814">
        <ele>519.8</ele>
        <time>2022-02-05T13:57:02Z</time>
      </trkpt>
      <trkpt lat="46.08087" lon="6.44826">
        <ele>520</ele>
        <time>2022-02-05T13:57:04Z</time>
      </trkpt>
      <trkpt lat="46.08086" lon="6.44832">
        <ele>520.2</ele>
        <time>2022-02-05T13:57:05Z</time>
      </trkpt>
      <trkpt lat="46.08086" lon="6.44865">
        <ele>520.4</ele>
        <time>2022-02-05T13:57:10Z</time>
      </trkpt>
      <trkpt lat="46.08087" lon="6.44925">
        <ele>522.2</ele>
        <time>2022-02-05T13:57:19Z</time>
      </trkpt>
      <trkpt lat="46.08087" lon="6.44939">
        <ele>522.6</ele>
        <time>2022-02-05T13:57:21Z</time>
      </trkpt>
      <trkpt lat="46.08089" lon="6.44984">
        <ele>523.2</ele>
        <time>2022-02-05T13:57:27Z</time>
      </trkpt>
      <trkpt lat="46.08091" lon="6.45036">
        <ele>523.2</ele>
        <time>2022-02-05T13:57:33Z</time>
      </trkpt>
      <trkpt lat="46.08092" lon="6.45079">
        <ele>523.4</ele>
        <time>2022-02-05T13:57:38Z</time>
      </trkpt>
      <trkpt lat="46.08092" lon="6.45086">
        <ele>523.4</ele>
        <time>2022-02-05T13:57:39Z</time>
      </trkpt>
      <trkpt lat="46.0809" lon="6.45101">
        <ele>523.4</ele>
        <time>2022-02-05T13:57:41Z</time>
      </trkpt>
      <trkpt lat="46.08089" lon="6.45108">
        <ele>523.4</ele>
        <time>2022-02-05T13:57:42Z</time>
      </trkpt>
      <trkpt lat="46.08086" lon="6.45126">
        <ele>523.8</ele>
        <time>2022-02-05T13:57:45Z</time>
      </trkpt>
      <trkpt lat="46.08084" lon="6.45132">
        <ele>524.2</ele>
        <time>2022-02-05T13:57:46Z</time>
      </trkpt>
      <trkpt lat="46.08083" lon="6.45138">
        <ele>524.2</ele>
        <time>2022-02-05T13:57:47Z</time>
      </trkpt>
      <trkpt lat="46.08078" lon="6.45166">
        <ele>525.6</ele>
        <time>2022-02-05T13:57:52Z</time>
      </trkpt>
      <trkpt lat="46.08077" lon="6.45173">
        <ele>526</ele>
        <time>2022-02-05T13:57:53Z</time>
      </trkpt>
      <trkpt lat="46.08069" lon="6.45215">
        <ele>528</ele>
        <time>2022-02-05T13:58:00Z</time>
      </trkpt>
      <trkpt lat="46.08066" lon="6.45228">
        <ele>528.2</ele>
        <time>2022-02-05T13:58:02Z</time>
      </trkpt>
      <trkpt lat="46.08057" lon="6.45277">
        <ele>529.2</ele>
        <time>2022-02-05T13:58:09Z</time>
      </trkpt>
      <trkpt lat="46.0805" lon="6.45311">
        <ele>530.6</ele>
        <time>2022-02-05T13:58:14Z</time>
      </trkpt>
      <trkpt lat="46.08046" lon="6.45331">
        <ele>530.8</ele>
        <time>2022-02-05T13:58:17Z</time>
      </trkpt>
      <trkpt lat="46.08043" lon="6.45344">
        <ele>530.8</ele>
        <time>2022-02-05T13:58:19Z</time>
      </trkpt>
      <trkpt lat="46.08033" lon="6.45391">
        <ele>532.4</ele>
        <time>2022-02-05T13:58:26Z</time>
      </trkpt>
      <trkpt lat="46.08026" lon="6.45448">
        <ele>534.2</ele>
        <time>2022-02-05T13:58:34Z</time>
      </trkpt>
      <trkpt lat="46.08024" lon="6.45472">
        <ele>534.6</ele>
        <time>2022-02-05T13:58:37Z</time>
      </trkpt>
      <trkpt lat="46.08022" lon="6.45491">
        <ele>534.6</ele>
        <time>2022-02-05T13:58:39Z</time>
      </trkpt>
      <trkpt lat="46.08019" lon="6.45513">
        <ele>534.6</ele>
        <time>2022-02-05T13:58:41Z</time>
      </trkpt>
      <trkpt lat="46.08018" lon="6.45525">
        <ele>534.8</ele>
        <time>2022-02-05T13:58:42Z</time>
      </trkpt>
      <trkpt lat="46.08016" lon="6.45537">
        <ele>534.8</ele>
        <time>2022-02-05T13:58:43Z</time>
      </trkpt>
      <trkpt lat="46.08013" lon="6.4555">
        <ele>534.8</ele>
        <time>2022-02-05T13:58:44Z</time>
      </trkpt>
      <trkpt lat="46.08006" lon="6.45577">
        <ele>533.6</ele>
        <time>2022-02-05T13:58:46Z</time>
      </trkpt>
      <trkpt lat="46.08003" lon="6.45592">
        <ele>533.2</ele>
        <time>2022-02-05T13:58:47Z</time>
      </trkpt>
      <trkpt lat="46.07999" lon="6.45606">
        <ele>532.6</ele>
        <time>2022-02-05T13:58:48Z</time>
      </trkpt>
      <trkpt lat="46.07996" lon="6.45622">
        <ele>532</ele>
        <time>2022-02-05T13:58:49Z</time>
      </trkpt>
      <trkpt lat="46.07994" lon="6.45638">
        <ele>531.2</ele>
        <time>2022-02-05T13:58:50Z</time>
      </trkpt>
      <trkpt lat="46.07992" lon="6.45655">
        <ele>530.2</ele>
        <time>2022-02-05T13:58:51Z</time>
      </trkpt>
      <trkpt lat="46.07991" lon="6.45673">
        <ele>529</ele>
        <time>2022-02-05T13:58:52Z</time>
      </trkpt>
      <trkpt lat="46.0799" lon="6.45691">
        <ele>527.8</ele>
        <time>2022-02-05T13:58:53Z</time>
      </trkpt>
      <trkpt lat="46.07987" lon="6.45709">
        <ele>527</ele>
        <time>2022-02-05T13:58:54Z</time>
      </trkpt>
      <trkpt lat="46.07985" lon="6.45727">
        <ele>525.8</ele>
        <time>2022-02-05T13:58:55Z</time>
      </trkpt>
      <trkpt lat="46.07979" lon="6.45763">
        <ele>523.6</ele>
        <time>2022-02-05T13:58:57Z</time>
      </trkpt>
      <trkpt lat="46.07976" lon="6.4578">
        <ele>522.4</ele>
        <time>2022-02-05T13:58:58Z</time>
      </trkpt>
      <trkpt lat="46.07973" lon="6.45798">
        <ele>521</ele>
        <time>2022-02-05T13:58:59Z</time>
      </trkpt>
      <trkpt lat="46.07959" lon="6.45881">
        <ele>513.8</ele>
        <time>2022-02-05T13:59:04Z</time>
      </trkpt>
      <trkpt lat="46.07948" lon="6.45945">
        <ele>510.4</ele>
        <time>2022-02-05T13:59:08Z</time>
      </trkpt>
      <trkpt lat="46.0794" lon="6.45992">
        <ele>508.6</ele>
        <time>2022-02-05T13:59:11Z</time>
      </trkpt>
      <trkpt lat="46.07934" lon="6.46022">
        <ele>508.4</ele>
        <time>2022-02-05T13:59:13Z</time>
      </trkpt>
      <trkpt lat="46.07928" lon="6.46052">
        <ele>507.6</ele>
        <time>2022-02-05T13:59:15Z</time>
      </trkpt>
      <trkpt lat="46.07923" lon="6.46083">
        <ele>506.8</ele>
        <time>2022-02-05T13:59:17Z</time>
      </trkpt>
      <trkpt lat="46.07922" lon="6.46099">
        <ele>506.4</ele>
        <time>2022-02-05T13:59:18Z</time>
      </trkpt>
      <trkpt lat="46.07918" lon="6.46132">
        <ele>505.4</ele>
        <time>2022-02-05T13:59:20Z</time>
      </trkpt>
      <trkpt lat="46.07915" lon="6.46166">
        <ele>504.6</ele>
        <time>2022-02-05T13:59:22Z</time>
      </trkpt>
      <trkpt lat="46.07913" lon="6.46183">
        <ele>504</ele>
        <time>2022-02-05T13:59:23Z</time>
      </trkpt>
      <trkpt lat="46.07911" lon="6.46201">
        <ele>503.6</ele>
        <time>2022-02-05T13:59:24Z</time>
      </trkpt>
      <trkpt lat="46.07907" lon="6.46235">
        <ele>502.4</ele>
        <time>2022-02-05T13:59:26Z</time>
      </trkpt>
      <trkpt lat="46.07903" lon="6.4627">
        <ele>501.2</ele>
        <time>2022-02-05T13:59:28Z</time>
      </trkpt>
      <trkpt lat="46.07895" lon="6.4634">
        <ele>498.2</ele>
        <time>2022-02-05T13:59:32Z</time>
      </trkpt>
      <trkpt lat="46.07893" lon="6.46358">
        <ele>496.8</ele>
        <time>2022-02-05T13:59:33Z</time>
      </trkpt>
      <trkpt lat="46.07885" lon="6.46429">
        <ele>493.2</ele>
        <time>2022-02-05T13:59:37Z</time>
      </trkpt>
      <trkpt lat="46.07883" lon="6.46447">
        <ele>492.6</ele>
        <time>2022-02-05T13:59:38Z</time>
      </trkpt>
      <trkpt lat="46.07881" lon="6.46464">
        <ele>492</ele>
        <time>2022-02-05T13:59:39Z</time>
      </trkpt>
      <trkpt lat="46.07874" lon="6.46516">
        <ele>490</ele>
        <time>2022-02-05T13:59:42Z</time>
      </trkpt>
      <trkpt lat="46.07873" lon="6.46534">
        <ele>489.4</ele>
        <time>2022-02-05T13:59:43Z</time>
      </trkpt>
      <trkpt lat="46.07874" lon="6.46551">
        <ele>488.8</ele>
        <time>2022-02-05T13:59:44Z</time>
      </trkpt>
      <trkpt lat="46.07875" lon="6.46569">
        <ele>488.6</ele>
        <time>2022-02-05T13:59:45Z</time>
      </trkpt>
      <trkpt lat="46.07876" lon="6.46622">
        <ele>486.4</ele>
        <time>2022-02-05T13:59:48Z</time>
      </trkpt>
      <trkpt lat="46.07875" lon="6.4664">
        <ele>485.6</ele>
        <time>2022-02-05T13:59:49Z</time>
      </trkpt>
      <trkpt lat="46.07872" lon="6.46658">
        <ele>485.2</ele>
        <time>2022-02-05T13:59:50Z</time>
      </trkpt>
      <trkpt lat="46.07868" lon="6.46675">
        <ele>484.6</ele>
        <time>2022-02-05T13:59:51Z</time>
      </trkpt>
      <trkpt lat="46.07863" lon="6.46692">
        <ele>484.2</ele>
        <time>2022-02-05T13:59:52Z</time>
      </trkpt>
      <trkpt lat="46.07858" lon="6.46708">
        <ele>483.6</ele>
        <time>2022-02-05T13:59:53Z</time>
      </trkpt>
      <trkpt lat="46.07852" lon="6.46724">
        <ele>483.2</ele>
        <time>2022-02-05T13:59:54Z</time>
      </trkpt>
      <trkpt lat="46.07841" lon="6.46756">
        <ele>482.6</ele>
        <time>2022-02-05T13:59:56Z</time>
      </trkpt>
      <trkpt lat="46.07831" lon="6.46789">
        <ele>481.2</ele>
        <time>2022-02-05T13:59:58Z</time>
      </trkpt>
      <trkpt lat="46.07827" lon="6.46806">
        <ele>480.2</ele>
        <time>2022-02-05T13:59:59Z</time>
      </trkpt>
      <trkpt lat="46.07822" lon="6.46823">
        <ele>479.4</ele>
        <time>2022-02-05T14:00:00Z</time>
      </trkpt>
      <trkpt lat="46.07805" lon="6.4689">
        <ele>477.4</ele>
        <time>2022-02-05T14:00:04Z</time>
      </trkpt>
      <trkpt lat="46.07797" lon="6.46923">
        <ele>476</ele>
        <time>2022-02-05T14:00:06Z</time>
      </trkpt>
      <trkpt lat="46.07793" lon="6.46939">
        <ele>476</ele>
        <time>2022-02-05T14:00:07Z</time>
      </trkpt>
      <trkpt lat="46.07784" lon="6.4697">
        <ele>473.6</ele>
        <time>2022-02-05T14:00:09Z</time>
      </trkpt>
      <trkpt lat="46.07764" lon="6.47045">
        <ele>470.4</ele>
        <time>2022-02-05T14:00:14Z</time>
      </trkpt>
      <trkpt lat="46.07755" lon="6.47086">
        <ele>468.8</ele>
        <time>2022-02-05T14:00:17Z</time>
      </trkpt>
      <trkpt lat="46.07753" lon="6.471">
        <ele>468.6</ele>
        <time>2022-02-05T14:00:18Z</time>
      </trkpt>
      <trkpt lat="46.07752" lon="6.47113">
        <ele>468.4</ele>
        <time>2022-02-05T14:00:19Z</time>
      </trkpt>
      <trkpt lat="46.07751" lon="6.47154">
        <ele>468.4</ele>
        <time>2022-02-05T14:00:22Z</time>
      </trkpt>
      <trkpt lat="46.07753" lon="6.4718">
        <ele>468.4</ele>
        <time>2022-02-05T14:00:24Z</time>
      </trkpt>
      <trkpt lat="46.07765" lon="6.47268">
        <ele>469.4</ele>
        <time>2022-02-05T14:00:31Z</time>
      </trkpt>
      <trkpt lat="46.07769" lon="6.47293">
        <ele>469.8</ele>
        <time>2022-02-05T14:00:33Z</time>
      </trkpt>
      <trkpt lat="46.07779" lon="6.47366">
        <ele>470.4</ele>
        <time>2022-02-05T14:00:39Z</time>
      </trkpt>
      <trkpt lat="46.07783" lon="6.47391">
        <ele>470.4</ele>
        <time>2022-02-05T14:00:41Z</time>
      </trkpt>
      <trkpt lat="46.07794" lon="6.47467">
        <ele>470.4</ele>
        <time>2022-02-05T14:00:47Z</time>
      </trkpt>
      <trkpt lat="46.07798" lon="6.47493">
        <ele>470.2</ele>
        <time>2022-02-05T14:00:49Z</time>
      </trkpt>
      <trkpt lat="46.07805" lon="6.47533">
        <ele>470</ele>
        <time>2022-02-05T14:00:52Z</time>
      </trkpt>
      <trkpt lat="46.07815" lon="6.47595">
        <ele>469.6</ele>
        <time>2022-02-05T14:00:57Z</time>
      </trkpt>
      <trkpt lat="46.07825" lon="6.47677">
        <ele>469.4</ele>
        <time>2022-02-05T14:01:04Z</time>
      </trkpt>
      <trkpt lat="46.07836" lon="6.4776">
        <ele>469</ele>
        <time>2022-02-05T14:01:11Z</time>
      </trkpt>
      <trkpt lat="46.0784" lon="6.47797">
        <ele>468.8</ele>
        <time>2022-02-05T14:01:14Z</time>
      </trkpt>
      <trkpt lat="46.07849" lon="6.47871">
        <ele>468.6</ele>
        <time>2022-02-05T14:01:20Z</time>
      </trkpt>
      <trkpt lat="46.07851" lon="6.47882">
        <ele>468.6</ele>
        <time>2022-02-05T14:01:21Z</time>
      </trkpt>
      <trkpt lat="46.07858" lon="6.47939">
        <ele>469</ele>
        <time>2022-02-05T14:01:26Z</time>
      </trkpt>
      <trkpt lat="46.07867" lon="6.48017">
        <ele>469</ele>
        <time>2022-02-05T14:01:33Z</time>
      </trkpt>
      <trkpt lat="46.07869" lon="6.48028">
        <ele>469.2</ele>
        <time>2022-02-05T14:01:34Z</time>
      </trkpt>
      <trkpt lat="46.07879" lon="6.48114">
        <ele>469.6</ele>
        <time>2022-02-05T14:01:42Z</time>
      </trkpt>
      <trkpt lat="46.07882" lon="6.48135">
        <ele>469.8</ele>
        <time>2022-02-05T14:01:44Z</time>
      </trkpt>
      <trkpt lat="46.0789" lon="6.48177">
        <ele>470</ele>
        <time>2022-02-05T14:01:48Z</time>
      </trkpt>
      <trkpt lat="46.07898" lon="6.48209">
        <ele>470.2</ele>
        <time>2022-02-05T14:01:51Z</time>
      </trkpt>
      <trkpt lat="46.07921" lon="6.48282">
        <ele>470.4</ele>
        <time>2022-02-05T14:01:58Z</time>
      </trkpt>
      <trkpt lat="46.07945" lon="6.48356">
        <ele>471</ele>
        <time>2022-02-05T14:02:05Z</time>
      </trkpt>
      <trkpt lat="46.07955" lon="6.48389">
        <ele>471.2</ele>
        <time>2022-02-05T14:02:08Z</time>
      </trkpt>
      <trkpt lat="46.0796" lon="6.4841">
        <ele>471</ele>
        <time>2022-02-05T14:02:10Z</time>
      </trkpt>
      <trkpt lat="46.07974" lon="6.48463">
        <ele>471.2</ele>
        <time>2022-02-05T14:02:15Z</time>
      </trkpt>
      <trkpt lat="46.07992" lon="6.48537">
        <ele>471.6</ele>
        <time>2022-02-05T14:02:22Z</time>
      </trkpt>
      <trkpt lat="46.07999" lon="6.48567">
        <ele>472</ele>
        <time>2022-02-05T14:02:25Z</time>
      </trkpt>
      <trkpt lat="46.08006" lon="6.48595">
        <ele>472.4</ele>
        <time>2022-02-05T14:02:28Z</time>
      </trkpt>
      <trkpt lat="46.08007" lon="6.48613">
        <ele>472.6</ele>
        <time>2022-02-05T14:02:30Z</time>
      </trkpt>
      <trkpt lat="46.08001" lon="6.48632">
        <ele>472.8</ele>
        <time>2022-02-05T14:02:33Z</time>
      </trkpt>
      <trkpt lat="46.08003" lon="6.48645">
        <ele>473</ele>
        <time>2022-02-05T14:02:35Z</time>
      </trkpt>
      <trkpt lat="46.08007" lon="6.4865">
        <ele>473.2</ele>
        <time>2022-02-05T14:02:36Z</time>
      </trkpt>
      <trkpt lat="46.08034" lon="6.48673">
        <ele>473.4</ele>
        <time>2022-02-05T14:02:41Z</time>
      </trkpt>
      <trkpt lat="46.08073" lon="6.48717">
        <ele>473.4</ele>
        <time>2022-02-05T14:02:48Z</time>
      </trkpt>
      <trkpt lat="46.08115" lon="6.48779">
        <ele>473.6</ele>
        <time>2022-02-05T14:02:56Z</time>
      </trkpt>
      <trkpt lat="46.0812" lon="6.48787">
        <ele>473.6</ele>
        <time>2022-02-05T14:02:57Z</time>
      </trkpt>
      <trkpt lat="46.08142" lon="6.48818">
        <ele>473.6</ele>
        <time>2022-02-05T14:03:01Z</time>
      </trkpt>
      <trkpt lat="46.08174" lon="6.48861">
        <ele>474</ele>
        <time>2022-02-05T14:03:07Z</time>
      </trkpt>
      <trkpt lat="46.08185" lon="6.48875">
        <ele>474.2</ele>
        <time>2022-02-05T14:03:09Z</time>
      </trkpt>
      <trkpt lat="46.08223" lon="6.48921">
        <ele>475.2</ele>
        <time>2022-02-05T14:03:16Z</time>
      </trkpt>
      <trkpt lat="46.08228" lon="6.48927">
        <ele>475.6</ele>
        <time>2022-02-05T14:03:17Z</time>
      </trkpt>
      <trkpt lat="46.08268" lon="6.48974">
        <ele>476.4</ele>
        <time>2022-02-05T14:03:24Z</time>
      </trkpt>
      <trkpt lat="46.08303" lon="6.49015">
        <ele>477</ele>
        <time>2022-02-05T14:03:30Z</time>
      </trkpt>
      <trkpt lat="46.08326" lon="6.49042">
        <ele>477.4</ele>
        <time>2022-02-05T14:03:34Z</time>
      </trkpt>
      <trkpt lat="46.08354" lon="6.49077">
        <ele>477.6</ele>
        <time>2022-02-05T14:03:39Z</time>
      </trkpt>
      <trkpt lat="46.08382" lon="6.49111">
        <ele>478.2</ele>
        <time>2022-02-05T14:03:44Z</time>
      </trkpt>
      <trkpt lat="46.08424" lon="6.49159">
        <ele>478.8</ele>
        <time>2022-02-05T14:03:51Z</time>
      </trkpt>
      <trkpt lat="46.08463" lon="6.49187">
        <ele>478.8</ele>
        <time>2022-02-05T14:03:57Z</time>
      </trkpt>
      <trkpt lat="46.08515" lon="6.49222">
        <ele>479</ele>
        <time>2022-02-05T14:04:05Z</time>
      </trkpt>
      <trkpt lat="46.08528" lon="6.49231">
        <ele>479</ele>
        <time>2022-02-05T14:04:07Z</time>
      </trkpt>
      <trkpt lat="46.0858" lon="6.49268">
        <ele>479.6</ele>
        <time>2022-02-05T14:04:15Z</time>
      </trkpt>
      <trkpt lat="46.08593" lon="6.49279">
        <ele>479.8</ele>
        <time>2022-02-05T14:04:17Z</time>
      </trkpt>
      <trkpt lat="46.08613" lon="6.49297">
        <ele>480</ele>
        <time>2022-02-05T14:04:20Z</time>
      </trkpt>
      <trkpt lat="46.08647" lon="6.4933">
        <ele>480</ele>
        <time>2022-02-05T14:04:25Z</time>
      </trkpt>
      <trkpt lat="46.08655" lon="6.49337">
        <ele>479.8</ele>
        <time>2022-02-05T14:04:26Z</time>
      </trkpt>
      <trkpt lat="46.08704" lon="6.49385">
        <ele>479.4</ele>
        <time>2022-02-05T14:04:33Z</time>
      </trkpt>
      <trkpt lat="46.08748" lon="6.49425">
        <ele>478.8</ele>
        <time>2022-02-05T14:04:39Z</time>
      </trkpt>
      <trkpt lat="46.08773" lon="6.49455">
        <ele>478.4</ele>
        <time>2022-02-05T14:04:43Z</time>
      </trkpt>
      <trkpt lat="46.08779" lon="6.49464">
        <ele>478.4</ele>
        <time>2022-02-05T14:04:44Z</time>
      </trkpt>
      <trkpt lat="46.08784" lon="6.49474">
        <ele>478.4</ele>
        <time>2022-02-05T14:04:45Z</time>
      </trkpt>
      <trkpt lat="46.08812" lon="6.49538">
        <ele>478</ele>
        <time>2022-02-05T14:04:51Z</time>
      </trkpt>
      <trkpt lat="46.08841" lon="6.4961">
        <ele>476.8</ele>
        <time>2022-02-05T14:04:58Z</time>
      </trkpt>
      <trkpt lat="46.08845" lon="6.49619">
        <ele>476.8</ele>
        <time>2022-02-05T14:04:59Z</time>
      </trkpt>
      <trkpt lat="46.08849" lon="6.49629">
        <ele>476.8</ele>
        <time>2022-02-05T14:05:00Z</time>
      </trkpt>
      <trkpt lat="46.08876" lon="6.49698">
        <ele>477</ele>
        <time>2022-02-05T14:05:07Z</time>
      </trkpt>
      <trkpt lat="46.08889" lon="6.49727">
        <ele>477.6</ele>
        <time>2022-02-05T14:05:10Z</time>
      </trkpt>
      <trkpt lat="46.08916" lon="6.49797">
        <ele>478.2</ele>
        <time>2022-02-05T14:05:17Z</time>
      </trkpt>
      <trkpt lat="46.0892" lon="6.49807">
        <ele>478.4</ele>
        <time>2022-02-05T14:05:18Z</time>
      </trkpt>
      <trkpt lat="46.08928" lon="6.49826">
        <ele>478.6</ele>
        <time>2022-02-05T14:05:20Z</time>
      </trkpt>
      <trkpt lat="46.08952" lon="6.49884">
        <ele>478.6</ele>
        <time>2022-02-05T14:05:26Z</time>
      </trkpt>
      <trkpt lat="46.08972" lon="6.49935">
        <ele>479</ele>
        <time>2022-02-05T14:05:32Z</time>
      </trkpt>
      <trkpt lat="46.08994" lon="6.49989">
        <ele>479.4</ele>
        <time>2022-02-05T14:05:38Z</time>
      </trkpt>
      <trkpt lat="46.09005" lon="6.50016">
        <ele>479.6</ele>
        <time>2022-02-05T14:05:41Z</time>
      </trkpt>
      <trkpt lat="46.09007" lon="6.50035">
        <ele>479.6</ele>
        <time>2022-02-05T14:05:43Z</time>
      </trkpt>
      <trkpt lat="46.09011" lon="6.5005">
        <ele>479.6</ele>
        <time>2022-02-05T14:05:45Z</time>
      </trkpt>
      <trkpt lat="46.09016" lon="6.50055">
        <ele>479.8</ele>
        <time>2022-02-05T14:05:46Z</time>
      </trkpt>
      <trkpt lat="46.09024" lon="6.50065">
        <ele>479.8</ele>
        <time>2022-02-05T14:05:48Z</time>
      </trkpt>
      <trkpt lat="46.09031" lon="6.50078">
        <ele>480</ele>
        <time>2022-02-05T14:05:50Z</time>
      </trkpt>
      <trkpt lat="46.09056" lon="6.50138">
        <ele>480.4</ele>
        <time>2022-02-05T14:05:58Z</time>
      </trkpt>
      <trkpt lat="46.09079" lon="6.50193">
        <ele>480.6</ele>
        <time>2022-02-05T14:06:05Z</time>
      </trkpt>
      <trkpt lat="46.09097" lon="6.50239">
        <ele>481</ele>
        <time>2022-02-05T14:06:11Z</time>
      </trkpt>
      <trkpt lat="46.09102" lon="6.50242">
        <ele>481</ele>
        <time>2022-02-05T14:06:12Z</time>
      </trkpt>
      <trkpt lat="46.09108" lon="6.50242">
        <ele>481</ele>
        <time>2022-02-05T14:06:13Z</time>
      </trkpt>
      <trkpt lat="46.09113" lon="6.50239">
        <ele>481.2</ele>
        <time>2022-02-05T14:06:14Z</time>
      </trkpt>
      <trkpt lat="46.09129" lon="6.50225">
        <ele>481.2</ele>
        <time>2022-02-05T14:06:17Z</time>
      </trkpt>
      <trkpt lat="46.09157" lon="6.50199">
        <ele>481.2</ele>
        <time>2022-02-05T14:06:23Z</time>
      </trkpt>
      <trkpt lat="46.0916" lon="6.50195">
        <ele>481.2</ele>
        <time>2022-02-05T14:06:24Z</time>
      </trkpt>
      <trkpt lat="46.09167" lon="6.50181">
        <ele>481.4</ele>
        <time>2022-02-05T14:06:27Z</time>
      </trkpt>
      <trkpt lat="46.09169" lon="6.50176">
        <ele>481.4</ele>
        <time>2022-02-05T14:06:28Z</time>
      </trkpt>
      <trkpt lat="46.09175" lon="6.50154">
        <ele>482.4</ele>
        <time>2022-02-05T14:06:32Z</time>
      </trkpt>
      <trkpt lat="46.0918" lon="6.50133">
        <ele>483.4</ele>
        <time>2022-02-05T14:06:36Z</time>
      </trkpt>
      <trkpt lat="46.09182" lon="6.50128">
        <ele>483.8</ele>
        <time>2022-02-05T14:06:37Z</time>
      </trkpt>
      <trkpt lat="46.09187" lon="6.50108">
        <ele>485</ele>
        <time>2022-02-05T14:06:41Z</time>
      </trkpt>
      <trkpt lat="46.09195" lon="6.50082">
        <ele>486.2</ele>
        <time>2022-02-05T14:06:46Z</time>
      </trkpt>
      <trkpt lat="46.09202" lon="6.50043">
        <ele>488</ele>
        <time>2022-02-05T14:06:53Z</time>
      </trkpt>
      <trkpt lat="46.09201" lon="6.50031">
        <ele>488.8</ele>
        <time>2022-02-05T14:06:55Z</time>
      </trkpt>
      <trkpt lat="46.09198" lon="6.50019">
        <ele>489.4</ele>
        <time>2022-02-05T14:06:57Z</time>
      </trkpt>
      <trkpt lat="46.09197" lon="6.50013">
        <ele>489.4</ele>
        <time>2022-02-05T14:06:58Z</time>
      </trkpt>
      <trkpt lat="46.0919" lon="6.49978">
        <ele>490</ele>
        <time>2022-02-05T14:07:04Z</time>
      </trkpt>
      <trkpt lat="46.0919" lon="6.49966">
        <ele>490.2</ele>
        <time>2022-02-05T14:07:06Z</time>
      </trkpt>
      <trkpt lat="46.0919" lon="6.49937">
        <ele>490.4</ele>
        <time>2022-02-05T14:07:11Z</time>
      </trkpt>
      <trkpt lat="46.09188" lon="6.49926">
        <ele>491</ele>
        <time>2022-02-05T14:07:13Z</time>
      </trkpt>
      <trkpt lat="46.09182" lon="6.499">
        <ele>492</ele>
        <time>2022-02-05T14:07:18Z</time>
      </trkpt>
      <trkpt lat="46.09181" lon="6.4989">
        <ele>492</ele>
        <time>2022-02-05T14:07:20Z</time>
      </trkpt>
      <trkpt lat="46.09182" lon="6.49885">
        <ele>492.6</ele>
        <time>2022-02-05T14:07:21Z</time>
      </trkpt>
      <trkpt lat="46.09184" lon="6.49882">
        <ele>492.6</ele>
        <time>2022-02-05T14:07:22Z</time>
      </trkpt>
      <trkpt lat="46.0919" lon="6.49879">
        <ele>492.8</ele>
        <time>2022-02-05T14:07:24Z</time>
      </trkpt>
      <trkpt lat="46.09193" lon="6.49879">
        <ele>493</ele>
        <time>2022-02-05T14:07:25Z</time>
      </trkpt>
      <trkpt lat="46.09201" lon="6.49887">
        <ele>493.6</ele>
        <time>2022-02-05T14:07:28Z</time>
      </trkpt>
      <trkpt lat="46.09202" lon="6.49891">
        <ele>494</ele>
        <time>2022-02-05T14:07:29Z</time>
      </trkpt>
      <trkpt lat="46.09205" lon="6.4991">
        <ele>495.6</ele>
        <time>2022-02-05T14:07:33Z</time>
      </trkpt>
      <trkpt lat="46.09205" lon="6.49916">
        <ele>496</ele>
        <time>2022-02-05T14:07:34Z</time>
      </trkpt>
      <trkpt lat="46.09208" lon="6.49936">
        <ele>497</ele>
        <time>2022-02-05T14:07:38Z</time>
      </trkpt>
      <trkpt lat="46.09211" lon="6.49946">
        <ele>497.4</ele>
        <time>2022-02-05T14:07:40Z</time>
      </trkpt>
      <trkpt lat="46.09216" lon="6.49957">
        <ele>498.2</ele>
        <time>2022-02-05T14:07:43Z</time>
      </trkpt>
      <trkpt lat="46.0922" lon="6.49964">
        <ele>498.6</ele>
        <time>2022-02-05T14:07:45Z</time>
      </trkpt>
      <trkpt lat="46.09222" lon="6.49968">
        <ele>498.8</ele>
        <time>2022-02-05T14:07:46Z</time>
      </trkpt>
      <trkpt lat="46.09231" lon="6.49984">
        <ele>500</ele>
        <time>2022-02-05T14:07:50Z</time>
      </trkpt>
      <trkpt lat="46.09244" lon="6.50009">
        <ele>501.6</ele>
        <time>2022-02-05T14:07:56Z</time>
      </trkpt>
      <trkpt lat="46.09245" lon="6.50013">
        <ele>502</ele>
        <time>2022-02-05T14:07:57Z</time>
      </trkpt>
      <trkpt lat="46.09251" lon="6.5003">
        <ele>502.8</ele>
        <time>2022-02-05T14:08:01Z</time>
      </trkpt>
      <trkpt lat="46.09254" lon="6.50043">
        <ele>503.2</ele>
        <time>2022-02-05T14:08:04Z</time>
      </trkpt>
      <trkpt lat="46.09256" lon="6.50052">
        <ele>503.6</ele>
        <time>2022-02-05T14:08:06Z</time>
      </trkpt>
      <trkpt lat="46.0926" lon="6.50069">
        <ele>504.6</ele>
        <time>2022-02-05T14:08:10Z</time>
      </trkpt>
      <trkpt lat="46.09262" lon="6.50077">
        <ele>505.2</ele>
        <time>2022-02-05T14:08:12Z</time>
      </trkpt>
      <trkpt lat="46.09264" lon="6.50086">
        <ele>505.6</ele>
        <time>2022-02-05T14:08:14Z</time>
      </trkpt>
      <trkpt lat="46.09269" lon="6.50108">
        <ele>507</ele>
        <time>2022-02-05T14:08:19Z</time>
      </trkpt>
      <trkpt lat="46.0927" lon="6.50112">
        <ele>507.2</ele>
        <time>2022-02-05T14:08:20Z</time>
      </trkpt>
      <trkpt lat="46.09273" lon="6.50125">
        <ele>507.8</ele>
        <time>2022-02-05T14:08:23Z</time>
      </trkpt>
      <trkpt lat="46.09276" lon="6.50138">
        <ele>508.6</ele>
        <time>2022-02-05T14:08:26Z</time>
      </trkpt>
      <trkpt lat="46.0928" lon="6.50149">
        <ele>509.4</ele>
        <time>2022-02-05T14:08:29Z</time>
      </trkpt>
      <trkpt lat="46.09286" lon="6.50166">
        <ele>510.4</ele>
        <time>2022-02-05T14:08:33Z</time>
      </trkpt>
      <trkpt lat="46.09291" lon="6.50182">
        <ele>511.6</ele>
        <time>2022-02-05T14:08:37Z</time>
      </trkpt>
      <trkpt lat="46.09297" lon="6.50198">
        <ele>512.6</ele>
        <time>2022-02-05T14:08:41Z</time>
      </trkpt>
      <trkpt lat="46.09299" lon="6.50206">
        <ele>513.2</ele>
        <time>2022-02-05T14:08:43Z</time>
      </trkpt>
      <trkpt lat="46.09306" lon="6.50225">
        <ele>514.2</ele>
        <time>2022-02-05T14:08:48Z</time>
      </trkpt>
      <trkpt lat="46.09312" lon="6.5024">
        <ele>515</ele>
        <time>2022-02-05T14:08:52Z</time>
      </trkpt>
      <trkpt lat="46.09314" lon="6.50243">
        <ele>515.2</ele>
        <time>2022-02-05T14:08:53Z</time>
      </trkpt>
      <trkpt lat="46.09322" lon="6.50256">
        <ele>516</ele>
        <time>2022-02-05T14:08:57Z</time>
      </trkpt>
      <trkpt lat="46.09326" lon="6.50262">
        <ele>516.6</ele>
        <time>2022-02-05T14:08:59Z</time>
      </trkpt>
      <trkpt lat="46.0933" lon="6.50269">
        <ele>516.8</ele>
        <time>2022-02-05T14:09:01Z</time>
      </trkpt>
      <trkpt lat="46.09338" lon="6.50286">
        <ele>518.2</ele>
        <time>2022-02-05T14:09:06Z</time>
      </trkpt>
      <trkpt lat="46.09346" lon="6.50305">
        <ele>519.4</ele>
        <time>2022-02-05T14:09:11Z</time>
      </trkpt>
      <trkpt lat="46.09351" lon="6.50317">
        <ele>520.2</ele>
        <time>2022-02-05T14:09:14Z</time>
      </trkpt>
      <trkpt lat="46.09353" lon="6.50325">
        <ele>520.8</ele>
        <time>2022-02-05T14:09:16Z</time>
      </trkpt>
      <trkpt lat="46.0936" lon="6.50339">
        <ele>521.6</ele>
        <time>2022-02-05T14:09:20Z</time>
      </trkpt>
      <trkpt lat="46.09361" lon="6.50343">
        <ele>522</ele>
        <time>2022-02-05T14:09:21Z</time>
      </trkpt>
      <trkpt lat="46.0937" lon="6.5036">
        <ele>523</ele>
        <time>2022-02-05T14:09:26Z</time>
      </trkpt>
      <trkpt lat="46.09378" lon="6.50373">
        <ele>523.8</ele>
        <time>2022-02-05T14:09:30Z</time>
      </trkpt>
      <trkpt lat="46.09389" lon="6.50393">
        <ele>525.2</ele>
        <time>2022-02-05T14:09:36Z</time>
      </trkpt>
      <trkpt lat="46.09396" lon="6.50407">
        <ele>526</ele>
        <time>2022-02-05T14:09:40Z</time>
      </trkpt>
      <trkpt lat="46.09401" lon="6.50418">
        <ele>527</ele>
        <time>2022-02-05T14:09:43Z</time>
      </trkpt>
      <trkpt lat="46.09409" lon="6.50436">
        <ele>528.2</ele>
        <time>2022-02-05T14:09:48Z</time>
      </trkpt>
      <trkpt lat="46.09411" lon="6.5044">
        <ele>528.4</ele>
        <time>2022-02-05T14:09:49Z</time>
      </trkpt>
      <trkpt lat="46.09416" lon="6.50451">
        <ele>529</ele>
        <time>2022-02-05T14:09:52Z</time>
      </trkpt>
      <trkpt lat="46.09421" lon="6.50472">
        <ele>530.2</ele>
        <time>2022-02-05T14:09:57Z</time>
      </trkpt>
      <trkpt lat="46.09423" lon="6.50481">
        <ele>531</ele>
        <time>2022-02-05T14:09:59Z</time>
      </trkpt>
      <trkpt lat="46.09431" lon="6.50506">
        <ele>532</ele>
        <time>2022-02-05T14:10:05Z</time>
      </trkpt>
      <trkpt lat="46.09433" lon="6.50509">
        <ele>532</ele>
        <time>2022-02-05T14:10:06Z</time>
      </trkpt>
      <trkpt lat="46.09443" lon="6.50516">
        <ele>533</ele>
        <time>2022-02-05T14:10:10Z</time>
      </trkpt>
      <trkpt lat="46.09446" lon="6.50516">
        <ele>533.4</ele>
        <time>2022-02-05T14:10:11Z</time>
      </trkpt>
      <trkpt lat="46.09452" lon="6.5051">
        <ele>533.6</ele>
        <time>2022-02-05T14:10:14Z</time>
      </trkpt>
      <trkpt lat="46.09456" lon="6.50493">
        <ele>534.6</ele>
        <time>2022-02-05T14:10:18Z</time>
      </trkpt>
      <trkpt lat="46.09448" lon="6.50471">
        <ele>535.4</ele>
        <time>2022-02-05T14:10:23Z</time>
      </trkpt>
      <trkpt lat="46.09445" lon="6.50461">
        <ele>535.6</ele>
        <time>2022-02-05T14:10:25Z</time>
      </trkpt>
      <trkpt lat="46.09442" lon="6.50447">
        <ele>536.4</ele>
        <time>2022-02-05T14:10:28Z</time>
      </trkpt>
      <trkpt lat="46.0944" lon="6.50437">
        <ele>537</ele>
        <time>2022-02-05T14:10:30Z</time>
      </trkpt>
      <trkpt lat="46.09439" lon="6.50423">
        <ele>537.2</ele>
        <time>2022-02-05T14:10:33Z</time>
      </trkpt>
      <trkpt lat="46.09437" lon="6.50402">
        <ele>538.2</ele>
        <time>2022-02-05T14:10:38Z</time>
      </trkpt>
      <trkpt lat="46.09435" lon="6.50385">
        <ele>539.4</ele>
        <time>2022-02-05T14:10:42Z</time>
      </trkpt>
      <trkpt lat="46.09431" lon="6.50363">
        <ele>540.4</ele>
        <time>2022-02-05T14:10:47Z</time>
      </trkpt>
      <trkpt lat="46.09427" lon="6.50338">
        <ele>542.2</ele>
        <time>2022-02-05T14:10:53Z</time>
      </trkpt>
      <trkpt lat="46.09424" lon="6.50321">
        <ele>543</ele>
        <time>2022-02-05T14:10:57Z</time>
      </trkpt>
      <trkpt lat="46.09423" lon="6.50318">
        <ele>543</ele>
        <time>2022-02-05T14:10:58Z</time>
      </trkpt>
      <trkpt lat="46.09418" lon="6.50303">
        <ele>544</ele>
        <time>2022-02-05T14:11:02Z</time>
      </trkpt>
      <trkpt lat="46.09414" lon="6.50289">
        <ele>545.4</ele>
        <time>2022-02-05T14:11:06Z</time>
      </trkpt>
      <trkpt lat="46.09412" lon="6.50285">
        <ele>545.6</ele>
        <time>2022-02-05T14:11:07Z</time>
      </trkpt>
      <trkpt lat="46.09406" lon="6.50268">
        <ele>546.6</ele>
        <time>2022-02-05T14:11:12Z</time>
      </trkpt>
      <trkpt lat="46.09401" lon="6.50254">
        <ele>547.6</ele>
        <time>2022-02-05T14:11:16Z</time>
      </trkpt>
      <trkpt lat="46.09399" lon="6.50247">
        <ele>548</ele>
        <time>2022-02-05T14:11:18Z</time>
      </trkpt>
      <trkpt lat="46.09392" lon="6.50231">
        <ele>549</ele>
        <time>2022-02-05T14:11:23Z</time>
      </trkpt>
      <trkpt lat="46.09389" lon="6.50225">
        <ele>549.6</ele>
        <time>2022-02-05T14:11:25Z</time>
      </trkpt>
      <trkpt lat="46.09384" lon="6.50215">
        <ele>550.4</ele>
        <time>2022-02-05T14:11:28Z</time>
      </trkpt>
      <trkpt lat="46.09372" lon="6.50194">
        <ele>551.6</ele>
        <time>2022-02-05T14:11:35Z</time>
      </trkpt>
      <trkpt lat="46.09366" lon="6.50181">
        <ele>552.4</ele>
        <time>2022-02-05T14:11:39Z</time>
      </trkpt>
      <trkpt lat="46.09362" lon="6.50169">
        <ele>553.2</ele>
        <time>2022-02-05T14:11:43Z</time>
      </trkpt>
      <trkpt lat="46.09361" lon="6.50166">
        <ele>553.4</ele>
        <time>2022-02-05T14:11:44Z</time>
      </trkpt>
      <trkpt lat="46.09354" lon="6.50147">
        <ele>554.8</ele>
        <time>2022-02-05T14:11:50Z</time>
      </trkpt>
      <trkpt lat="46.09344" lon="6.50128">
        <ele>556</ele>
        <time>2022-02-05T14:11:56Z</time>
      </trkpt>
      <trkpt lat="46.09342" lon="6.50125">
        <ele>556.2</ele>
        <time>2022-02-05T14:11:57Z</time>
      </trkpt>
      <trkpt lat="46.09337" lon="6.50113">
        <ele>557</ele>
        <time>2022-02-05T14:12:01Z</time>
      </trkpt>
      <trkpt lat="46.09335" lon="6.50106">
        <ele>557.6</ele>
        <time>2022-02-05T14:12:03Z</time>
      </trkpt>
      <trkpt lat="46.09337" lon="6.50086">
        <ele>558.6</ele>
        <time>2022-02-05T14:12:08Z</time>
      </trkpt>
      <trkpt lat="46.09339" lon="6.50083">
        <ele>559</ele>
        <time>2022-02-05T14:12:09Z</time>
      </trkpt>
      <trkpt lat="46.09344" lon="6.50078">
        <ele>559.4</ele>
        <time>2022-02-05T14:12:11Z</time>
      </trkpt>
      <trkpt lat="46.0935" lon="6.50078">
        <ele>559.8</ele>
        <time>2022-02-05T14:12:13Z</time>
      </trkpt>
      <trkpt lat="46.09353" lon="6.50079">
        <ele>560</ele>
        <time>2022-02-05T14:12:14Z</time>
      </trkpt>
      <trkpt lat="46.09361" lon="6.50087">
        <ele>560.4</ele>
        <time>2022-02-05T14:12:18Z</time>
      </trkpt>
      <trkpt lat="46.0937" lon="6.50101">
        <ele>561.4</ele>
        <time>2022-02-05T14:12:23Z</time>
      </trkpt>
      <trkpt lat="46.09376" lon="6.5011">
        <ele>562.4</ele>
        <time>2022-02-05T14:12:26Z</time>
      </trkpt>
      <trkpt lat="46.09379" lon="6.50116">
        <ele>562.8</ele>
        <time>2022-02-05T14:12:28Z</time>
      </trkpt>
      <trkpt lat="46.09388" lon="6.50131">
        <ele>564.2</ele>
        <time>2022-02-05T14:12:33Z</time>
      </trkpt>
      <trkpt lat="46.09391" lon="6.50137">
        <ele>564.6</ele>
        <time>2022-02-05T14:12:35Z</time>
      </trkpt>
      <trkpt lat="46.094" lon="6.50146">
        <ele>565.4</ele>
        <time>2022-02-05T14:12:39Z</time>
      </trkpt>
      <trkpt lat="46.09402" lon="6.50148">
        <ele>565.8</ele>
        <time>2022-02-05T14:12:40Z</time>
      </trkpt>
      <trkpt lat="46.09412" lon="6.50162">
        <ele>566.6</ele>
        <time>2022-02-05T14:12:45Z</time>
      </trkpt>
      <trkpt lat="46.09419" lon="6.50173">
        <ele>567.6</ele>
        <time>2022-02-05T14:12:49Z</time>
      </trkpt>
      <trkpt lat="46.09423" lon="6.50178">
        <ele>568.2</ele>
        <time>2022-02-05T14:12:51Z</time>
      </trkpt>
      <trkpt lat="46.09432" lon="6.50195">
        <ele>569</ele>
        <time>2022-02-05T14:12:56Z</time>
      </trkpt>
      <trkpt lat="46.09438" lon="6.50203">
        <ele>569.2</ele>
        <time>2022-02-05T14:12:59Z</time>
      </trkpt>
      <trkpt lat="46.0944" lon="6.50206">
        <ele>569.6</ele>
        <time>2022-02-05T14:13:00Z</time>
      </trkpt>
      <trkpt lat="46.09442" lon="6.50209">
        <ele>569.8</ele>
        <time>2022-02-05T14:13:01Z</time>
      </trkpt>
      <trkpt lat="46.09451" lon="6.50224">
        <ele>570.8</ele>
        <time>2022-02-05T14:13:06Z</time>
      </trkpt>
      <trkpt lat="46.09453" lon="6.50226">
        <ele>571</ele>
        <time>2022-02-05T14:13:07Z</time>
      </trkpt>
      <trkpt lat="46.09461" lon="6.50241">
        <ele>572.4</ele>
        <time>2022-02-05T14:13:12Z</time>
      </trkpt>
      <trkpt lat="46.09468" lon="6.50252">
        <ele>573.2</ele>
        <time>2022-02-05T14:13:16Z</time>
      </trkpt>
      <trkpt lat="46.09471" lon="6.50257">
        <ele>573.6</ele>
        <time>2022-02-05T14:13:18Z</time>
      </trkpt>
      <trkpt lat="46.09479" lon="6.50269">
        <ele>574.4</ele>
        <time>2022-02-05T14:13:22Z</time>
      </trkpt>
      <trkpt lat="46.09483" lon="6.50279">
        <ele>575</ele>
        <time>2022-02-05T14:13:25Z</time>
      </trkpt>
      <trkpt lat="46.09488" lon="6.50289">
        <ele>575.6</ele>
        <time>2022-02-05T14:13:28Z</time>
      </trkpt>
      <trkpt lat="46.09491" lon="6.50296">
        <ele>575.8</ele>
        <time>2022-02-05T14:13:30Z</time>
      </trkpt>
      <trkpt lat="46.09501" lon="6.50317">
        <ele>577</ele>
        <time>2022-02-05T14:13:36Z</time>
      </trkpt>
      <trkpt lat="46.09512" lon="6.50334">
        <ele>578.4</ele>
        <time>2022-02-05T14:13:42Z</time>
      </trkpt>
      <trkpt lat="46.09523" lon="6.50347">
        <ele>579.2</ele>
        <time>2022-02-05T14:13:47Z</time>
      </trkpt>
      <trkpt lat="46.09529" lon="6.50355">
        <ele>579.8</ele>
        <time>2022-02-05T14:13:50Z</time>
      </trkpt>
      <trkpt lat="46.09533" lon="6.50361">
        <ele>580.2</ele>
        <time>2022-02-05T14:13:52Z</time>
      </trkpt>
      <trkpt lat="46.09541" lon="6.50378">
        <ele>581.4</ele>
        <time>2022-02-05T14:13:57Z</time>
      </trkpt>
      <trkpt lat="46.09543" lon="6.50382">
        <ele>581.6</ele>
        <time>2022-02-05T14:13:58Z</time>
      </trkpt>
      <trkpt lat="46.09553" lon="6.50396">
        <ele>582.6</ele>
        <time>2022-02-05T14:14:03Z</time>
      </trkpt>
      <trkpt lat="46.09555" lon="6.50399">
        <ele>583</ele>
        <time>2022-02-05T14:14:04Z</time>
      </trkpt>
      <trkpt lat="46.09564" lon="6.50411">
        <ele>583.8</ele>
        <time>2022-02-05T14:14:08Z</time>
      </trkpt>
      <trkpt lat="46.09571" lon="6.50418">
        <ele>584.4</ele>
        <time>2022-02-05T14:14:11Z</time>
      </trkpt>
      <trkpt lat="46.09577" lon="6.50428">
        <ele>585.2</ele>
        <time>2022-02-05T14:14:14Z</time>
      </trkpt>
      <trkpt lat="46.09583" lon="6.50437">
        <ele>585.8</ele>
        <time>2022-02-05T14:14:17Z</time>
      </trkpt>
      <trkpt lat="46.09588" lon="6.50443">
        <ele>586.2</ele>
        <time>2022-02-05T14:14:19Z</time>
      </trkpt>
      <trkpt lat="46.09599" lon="6.50456">
        <ele>587.2</ele>
        <time>2022-02-05T14:14:24Z</time>
      </trkpt>
      <trkpt lat="46.09603" lon="6.5046">
        <ele>587.4</ele>
        <time>2022-02-05T14:14:26Z</time>
      </trkpt>
      <trkpt lat="46.09616" lon="6.5047">
        <ele>588.4</ele>
        <time>2022-02-05T14:14:31Z</time>
      </trkpt>
      <trkpt lat="46.09627" lon="6.50477">
        <ele>589.2</ele>
        <time>2022-02-05T14:14:35Z</time>
      </trkpt>
      <trkpt lat="46.09629" lon="6.50479">
        <ele>589.4</ele>
        <time>2022-02-05T14:14:36Z</time>
      </trkpt>
      <trkpt lat="46.09637" lon="6.50485">
        <ele>590</ele>
        <time>2022-02-05T14:14:39Z</time>
      </trkpt>
      <trkpt lat="46.09645" lon="6.50491">
        <ele>590.8</ele>
        <time>2022-02-05T14:14:42Z</time>
      </trkpt>
      <trkpt lat="46.0965" lon="6.50494">
        <ele>591.2</ele>
        <time>2022-02-05T14:14:44Z</time>
      </trkpt>
      <trkpt lat="46.09662" lon="6.50503">
        <ele>592.4</ele>
        <time>2022-02-05T14:14:49Z</time>
      </trkpt>
      <trkpt lat="46.09665" lon="6.50505">
        <ele>592.8</ele>
        <time>2022-02-05T14:14:50Z</time>
      </trkpt>
      <trkpt lat="46.09676" lon="6.5051">
        <ele>593.8</ele>
        <time>2022-02-05T14:14:54Z</time>
      </trkpt>
      <trkpt lat="46.09684" lon="6.50514">
        <ele>594.4</ele>
        <time>2022-02-05T14:14:57Z</time>
      </trkpt>
      <trkpt lat="46.09689" lon="6.50515">
        <ele>595</ele>
        <time>2022-02-05T14:14:59Z</time>
      </trkpt>
      <trkpt lat="46.09706" lon="6.50513">
        <ele>596.4</ele>
        <time>2022-02-05T14:15:05Z</time>
      </trkpt>
      <trkpt lat="46.09719" lon="6.50502">
        <ele>597.4</ele>
        <time>2022-02-05T14:15:10Z</time>
      </trkpt>
      <trkpt lat="46.09723" lon="6.50496">
        <ele>598</ele>
        <time>2022-02-05T14:15:12Z</time>
      </trkpt>
      <trkpt lat="46.0973" lon="6.50487">
        <ele>598.6</ele>
        <time>2022-02-05T14:15:15Z</time>
      </trkpt>
      <trkpt lat="46.09744" lon="6.50467">
        <ele>600</ele>
        <time>2022-02-05T14:15:22Z</time>
      </trkpt>
      <trkpt lat="46.09755" lon="6.50454">
        <ele>601</ele>
        <time>2022-02-05T14:15:27Z</time>
      </trkpt>
      <trkpt lat="46.09765" lon="6.50447">
        <ele>601.8</ele>
        <time>2022-02-05T14:15:31Z</time>
      </trkpt>
      <trkpt lat="46.09778" lon="6.50444">
        <ele>602.6</ele>
        <time>2022-02-05T14:15:36Z</time>
      </trkpt>
      <trkpt lat="46.09784" lon="6.50444">
        <ele>603.4</ele>
        <time>2022-02-05T14:15:38Z</time>
      </trkpt>
      <trkpt lat="46.09789" lon="6.50444">
        <ele>603.8</ele>
        <time>2022-02-05T14:15:40Z</time>
      </trkpt>
      <trkpt lat="46.09801" lon="6.50441">
        <ele>605</ele>
        <time>2022-02-05T14:15:45Z</time>
      </trkpt>
      <trkpt lat="46.09804" lon="6.50441">
        <ele>605</ele>
        <time>2022-02-05T14:15:46Z</time>
      </trkpt>
      <trkpt lat="46.09821" lon="6.50432">
        <ele>606.6</ele>
        <time>2022-02-05T14:15:52Z</time>
      </trkpt>
      <trkpt lat="46.09823" lon="6.50429">
        <ele>606.8</ele>
        <time>2022-02-05T14:15:53Z</time>
      </trkpt>
      <trkpt lat="46.09842" lon="6.50418">
        <ele>608.4</ele>
        <time>2022-02-05T14:15:59Z</time>
      </trkpt>
      <trkpt lat="46.09863" lon="6.50418">
        <ele>609</ele>
        <time>2022-02-05T14:16:05Z</time>
      </trkpt>
      <trkpt lat="46.09873" lon="6.50419">
        <ele>609.2</ele>
        <time>2022-02-05T14:16:08Z</time>
      </trkpt>
      <trkpt lat="46.09883" lon="6.5042">
        <ele>609.2</ele>
        <time>2022-02-05T14:16:11Z</time>
      </trkpt>
      <trkpt lat="46.09899" lon="6.50422">
        <ele>610.2</ele>
        <time>2022-02-05T14:16:16Z</time>
      </trkpt>
      <trkpt lat="46.09924" lon="6.50431">
        <ele>611</ele>
        <time>2022-02-05T14:16:23Z</time>
      </trkpt>
      <trkpt lat="46.09951" lon="6.50433">
        <ele>611.8</ele>
        <time>2022-02-05T14:16:30Z</time>
      </trkpt>
      <trkpt lat="46.09967" lon="6.50427">
        <ele>612.2</ele>
        <time>2022-02-05T14:16:34Z</time>
      </trkpt>
      <trkpt lat="46.09978" lon="6.50421">
        <ele>612.6</ele>
        <time>2022-02-05T14:16:37Z</time>
      </trkpt>
      <trkpt lat="46.10004" lon="6.50402">
        <ele>613.2</ele>
        <time>2022-02-05T14:16:44Z</time>
      </trkpt>
      <trkpt lat="46.10015" lon="6.50393">
        <ele>613.6</ele>
        <time>2022-02-05T14:16:47Z</time>
      </trkpt>
      <trkpt lat="46.10022" lon="6.50386">
        <ele>613.6</ele>
        <time>2022-02-05T14:16:49Z</time>
      </trkpt>
      <trkpt lat="46.1003" lon="6.50381">
        <ele>613.8</ele>
        <time>2022-02-05T14:16:51Z</time>
      </trkpt>
      <trkpt lat="46.10053" lon="6.50369">
        <ele>614.4</ele>
        <time>2022-02-05T14:16:57Z</time>
      </trkpt>
      <trkpt lat="46.10062" lon="6.50365">
        <ele>614.4</ele>
        <time>2022-02-05T14:16:59Z</time>
      </trkpt>
      <trkpt lat="46.10077" lon="6.50357">
        <ele>614.8</ele>
        <time>2022-02-05T14:17:03Z</time>
      </trkpt>
      <trkpt lat="46.10084" lon="6.50349">
        <ele>615.2</ele>
        <time>2022-02-05T14:17:05Z</time>
      </trkpt>
      <trkpt lat="46.10089" lon="6.50339">
        <ele>615.2</ele>
        <time>2022-02-05T14:17:07Z</time>
      </trkpt>
      <trkpt lat="46.10093" lon="6.5032">
        <ele>615.6</ele>
        <time>2022-02-05T14:17:10Z</time>
      </trkpt>
      <trkpt lat="46.10095" lon="6.50307">
        <ele>615.8</ele>
        <time>2022-02-05T14:17:12Z</time>
      </trkpt>
      <trkpt lat="46.10104" lon="6.50269">
        <ele>616.2</ele>
        <time>2022-02-05T14:17:18Z</time>
      </trkpt>
      <trkpt lat="46.10106" lon="6.50264">
        <ele>616.2</ele>
        <time>2022-02-05T14:17:19Z</time>
      </trkpt>
      <trkpt lat="46.10109" lon="6.50259">
        <ele>616.4</ele>
        <time>2022-02-05T14:17:20Z</time>
      </trkpt>
      <trkpt lat="46.10121" lon="6.50247">
        <ele>616.4</ele>
        <time>2022-02-05T14:17:23Z</time>
      </trkpt>
      <trkpt lat="46.10133" lon="6.50237">
        <ele>616.4</ele>
        <time>2022-02-05T14:17:26Z</time>
      </trkpt>
      <trkpt lat="46.10164" lon="6.50209">
        <ele>617.4</ele>
        <time>2022-02-05T14:17:34Z</time>
      </trkpt>
      <trkpt lat="46.10168" lon="6.50206">
        <ele>617.4</ele>
        <time>2022-02-05T14:17:35Z</time>
      </trkpt>
      <trkpt lat="46.10193" lon="6.50183">
        <ele>618.2</ele>
        <time>2022-02-05T14:17:42Z</time>
      </trkpt>
      <trkpt lat="46.10196" lon="6.5018">
        <ele>618.4</ele>
        <time>2022-02-05T14:17:43Z</time>
      </trkpt>
      <trkpt lat="46.10211" lon="6.50169">
        <ele>619</ele>
        <time>2022-02-05T14:17:47Z</time>
      </trkpt>
      <trkpt lat="46.10216" lon="6.50166">
        <ele>619.2</ele>
        <time>2022-02-05T14:17:48Z</time>
      </trkpt>
      <trkpt lat="46.10237" lon="6.50152">
        <ele>619.6</ele>
        <time>2022-02-05T14:17:53Z</time>
      </trkpt>
      <trkpt lat="46.10242" lon="6.5015">
        <ele>619.8</ele>
        <time>2022-02-05T14:17:54Z</time>
      </trkpt>
      <trkpt lat="46.10247" lon="6.50147">
        <ele>620</ele>
        <time>2022-02-05T14:17:55Z</time>
      </trkpt>
      <trkpt lat="46.10259" lon="6.50141">
        <ele>620</ele>
        <time>2022-02-05T14:17:58Z</time>
      </trkpt>
      <trkpt lat="46.10275" lon="6.50134">
        <ele>620.6</ele>
        <time>2022-02-05T14:18:02Z</time>
      </trkpt>
      <trkpt lat="46.10288" lon="6.5013">
        <ele>621</ele>
        <time>2022-02-05T14:18:05Z</time>
      </trkpt>
      <trkpt lat="46.103" lon="6.50125">
        <ele>621.4</ele>
        <time>2022-02-05T14:18:08Z</time>
      </trkpt>
      <trkpt lat="46.10308" lon="6.50121">
        <ele>621.4</ele>
        <time>2022-02-05T14:18:10Z</time>
      </trkpt>
      <trkpt lat="46.10342" lon="6.50109">
        <ele>621.8</ele>
        <time>2022-02-05T14:18:17Z</time>
      </trkpt>
      <trkpt lat="46.10346" lon="6.50107">
        <ele>622</ele>
        <time>2022-02-05T14:18:18Z</time>
      </trkpt>
      <trkpt lat="46.10366" lon="6.50096">
        <ele>622.2</ele>
        <time>2022-02-05T14:18:22Z</time>
      </trkpt>
      <trkpt lat="46.1037" lon="6.50093">
        <ele>622.4</ele>
        <time>2022-02-05T14:18:23Z</time>
      </trkpt>
      <trkpt lat="46.10375" lon="6.5009">
        <ele>622.6</ele>
        <time>2022-02-05T14:18:24Z</time>
      </trkpt>
      <trkpt lat="46.10408" lon="6.50071">
        <ele>622.8</ele>
        <time>2022-02-05T14:18:31Z</time>
      </trkpt>
      <trkpt lat="46.10417" lon="6.50066">
        <ele>623</ele>
        <time>2022-02-05T14:18:33Z</time>
      </trkpt>
      <trkpt lat="46.1044" lon="6.50052">
        <ele>623.6</ele>
        <time>2022-02-05T14:18:38Z</time>
      </trkpt>
      <trkpt lat="46.10464" lon="6.50042">
        <ele>624.2</ele>
        <time>2022-02-05T14:18:43Z</time>
      </trkpt>
      <trkpt lat="46.10478" lon="6.50039">
        <ele>624.2</ele>
        <time>2022-02-05T14:18:46Z</time>
      </trkpt>
      <trkpt lat="46.1052" lon="6.50029">
        <ele>625.4</ele>
        <time>2022-02-05T14:18:55Z</time>
      </trkpt>
      <trkpt lat="46.10525" lon="6.50028">
        <ele>625.4</ele>
        <time>2022-02-05T14:18:56Z</time>
      </trkpt>
      <trkpt lat="46.10551" lon="6.50022">
        <ele>626.2</ele>
        <time>2022-02-05T14:19:02Z</time>
      </trkpt>
      <trkpt lat="46.10555" lon="6.5002">
        <ele>626.2</ele>
        <time>2022-02-05T14:19:03Z</time>
      </trkpt>
      <trkpt lat="46.10564" lon="6.50018">
        <ele>626.2</ele>
        <time>2022-02-05T14:19:05Z</time>
      </trkpt>
      <trkpt lat="46.10573" lon="6.50018">
        <ele>626.4</ele>
        <time>2022-02-05T14:19:07Z</time>
      </trkpt>
      <trkpt lat="46.10578" lon="6.50017">
        <ele>626.6</ele>
        <time>2022-02-05T14:19:08Z</time>
      </trkpt>
      <trkpt lat="46.10582" lon="6.50015">
        <ele>626.8</ele>
        <time>2022-02-05T14:19:09Z</time>
      </trkpt>
      <trkpt lat="46.1059" lon="6.50008">
        <ele>627</ele>
        <time>2022-02-05T14:19:11Z</time>
      </trkpt>
      <trkpt lat="46.10592" lon="6.50003">
        <ele>627.2</ele>
        <time>2022-02-05T14:19:12Z</time>
      </trkpt>
      <trkpt lat="46.10594" lon="6.49997">
        <ele>627.2</ele>
        <time>2022-02-05T14:19:13Z</time>
      </trkpt>
      <trkpt lat="46.10598" lon="6.49978">
        <ele>627.8</ele>
        <time>2022-02-05T14:19:16Z</time>
      </trkpt>
      <trkpt lat="46.10599" lon="6.49972">
        <ele>627.8</ele>
        <time>2022-02-05T14:19:17Z</time>
      </trkpt>
      <trkpt lat="46.10599" lon="6.49965">
        <ele>628</ele>
        <time>2022-02-05T14:19:18Z</time>
      </trkpt>
      <trkpt lat="46.10599" lon="6.49932">
        <ele>628.6</ele>
        <time>2022-02-05T14:19:23Z</time>
      </trkpt>
      <trkpt lat="46.106" lon="6.49926">
        <ele>628.8</ele>
        <time>2022-02-05T14:19:24Z</time>
      </trkpt>
      <trkpt lat="46.10604" lon="6.49915">
        <ele>629</ele>
        <time>2022-02-05T14:19:26Z</time>
      </trkpt>
      <trkpt lat="46.1061" lon="6.49907">
        <ele>629.2</ele>
        <time>2022-02-05T14:19:28Z</time>
      </trkpt>
      <trkpt lat="46.10618" lon="6.49902">
        <ele>629.4</ele>
        <time>2022-02-05T14:19:30Z</time>
      </trkpt>
      <trkpt lat="46.10622" lon="6.49901">
        <ele>629.4</ele>
        <time>2022-02-05T14:19:31Z</time>
      </trkpt>
      <trkpt lat="46.10627" lon="6.49902">
        <ele>629.6</ele>
        <time>2022-02-05T14:19:32Z</time>
      </trkpt>
      <trkpt lat="46.10631" lon="6.49904">
        <ele>629.8</ele>
        <time>2022-02-05T14:19:33Z</time>
      </trkpt>
      <trkpt lat="46.10639" lon="6.49912">
        <ele>630.2</ele>
        <time>2022-02-05T14:19:35Z</time>
      </trkpt>
      <trkpt lat="46.10643" lon="6.49917">
        <ele>630.2</ele>
        <time>2022-02-05T14:19:36Z</time>
      </trkpt>
      <trkpt lat="46.1066" lon="6.49946">
        <ele>631</ele>
        <time>2022-02-05T14:19:41Z</time>
      </trkpt>
      <trkpt lat="46.10664" lon="6.49951">
        <ele>630.8</ele>
        <time>2022-02-05T14:19:42Z</time>
      </trkpt>
      <trkpt lat="46.10668" lon="6.49955">
        <ele>631</ele>
        <time>2022-02-05T14:19:43Z</time>
      </trkpt>
      <trkpt lat="46.10679" lon="6.4996">
        <ele>631</ele>
        <time>2022-02-05T14:19:45Z</time>
      </trkpt>
      <trkpt lat="46.10685" lon="6.49959">
        <ele>631</ele>
        <time>2022-02-05T14:19:46Z</time>
      </trkpt>
      <trkpt lat="46.1069" lon="6.49957">
        <ele>631.2</ele>
        <time>2022-02-05T14:19:47Z</time>
      </trkpt>
      <trkpt lat="46.10695" lon="6.49953">
        <ele>631.2</ele>
        <time>2022-02-05T14:19:48Z</time>
      </trkpt>
      <trkpt lat="46.10706" lon="6.49944">
        <ele>631.4</ele>
        <time>2022-02-05T14:19:50Z</time>
      </trkpt>
      <trkpt lat="46.10727" lon="6.49925">
        <ele>631.6</ele>
        <time>2022-02-05T14:19:54Z</time>
      </trkpt>
      <trkpt lat="46.10738" lon="6.49914">
        <ele>631.8</ele>
        <time>2022-02-05T14:19:56Z</time>
      </trkpt>
      <trkpt lat="46.1075" lon="6.49904">
        <ele>631.8</ele>
        <time>2022-02-05T14:19:58Z</time>
      </trkpt>
      <trkpt lat="46.10755" lon="6.49899">
        <ele>631.8</ele>
        <time>2022-02-05T14:19:59Z</time>
      </trkpt>
      <trkpt lat="46.10785" lon="6.49869">
        <ele>631</ele>
        <time>2022-02-05T14:20:04Z</time>
      </trkpt>
      <trkpt lat="46.10791" lon="6.49863">
        <ele>630.6</ele>
        <time>2022-02-05T14:20:05Z</time>
      </trkpt>
      <trkpt lat="46.10798" lon="6.49857">
        <ele>630.6</ele>
        <time>2022-02-05T14:20:06Z</time>
      </trkpt>
      <trkpt lat="46.10805" lon="6.4985">
        <ele>630.6</ele>
        <time>2022-02-05T14:20:07Z</time>
      </trkpt>
      <trkpt lat="46.10829" lon="6.4983">
        <ele>630.4</ele>
        <time>2022-02-05T14:20:10Z</time>
      </trkpt>
      <trkpt lat="46.10837" lon="6.49823">
        <ele>630</ele>
        <time>2022-02-05T14:20:11Z</time>
      </trkpt>
      <trkpt lat="46.10862" lon="6.498">
        <ele>629.4</ele>
        <time>2022-02-05T14:20:14Z</time>
      </trkpt>
      <trkpt lat="46.10879" lon="6.49784">
        <ele>628</ele>
        <time>2022-02-05T14:20:16Z</time>
      </trkpt>
      <trkpt lat="46.10888" lon="6.49776">
        <ele>626.8</ele>
        <time>2022-02-05T14:20:17Z</time>
      </trkpt>
      <trkpt lat="46.10906" lon="6.4976">
        <ele>625.6</ele>
        <time>2022-02-05T14:20:19Z</time>
      </trkpt>
      <trkpt lat="46.10933" lon="6.49738">
        <ele>623.6</ele>
        <time>2022-02-05T14:20:22Z</time>
      </trkpt>
      <trkpt lat="46.10953" lon="6.49727">
        <ele>622.6</ele>
        <time>2022-02-05T14:20:24Z</time>
      </trkpt>
      <trkpt lat="46.11001" lon="6.49713">
        <ele>620</ele>
        <time>2022-02-05T14:20:29Z</time>
      </trkpt>
      <trkpt lat="46.1103" lon="6.49705">
        <ele>618.6</ele>
        <time>2022-02-05T14:20:32Z</time>
      </trkpt>
      <trkpt lat="46.11047" lon="6.49696">
        <ele>618.2</ele>
        <time>2022-02-05T14:20:34Z</time>
      </trkpt>
      <trkpt lat="46.11083" lon="6.49674">
        <ele>617.8</ele>
        <time>2022-02-05T14:20:38Z</time>
      </trkpt>
      <trkpt lat="46.11102" lon="6.49662">
        <ele>618</ele>
        <time>2022-02-05T14:20:40Z</time>
      </trkpt>
      <trkpt lat="46.11111" lon="6.49656">
        <ele>617.8</ele>
        <time>2022-02-05T14:20:41Z</time>
      </trkpt>
      <trkpt lat="46.11121" lon="6.4965">
        <ele>617.8</ele>
        <time>2022-02-05T14:20:42Z</time>
      </trkpt>
      <trkpt lat="46.11131" lon="6.49644">
        <ele>617.6</ele>
        <time>2022-02-05T14:20:43Z</time>
      </trkpt>
      <trkpt lat="46.11151" lon="6.4963">
        <ele>617.2</ele>
        <time>2022-02-05T14:20:45Z</time>
      </trkpt>
      <trkpt lat="46.11171" lon="6.49616">
        <ele>616.2</ele>
        <time>2022-02-05T14:20:47Z</time>
      </trkpt>
      <trkpt lat="46.11181" lon="6.49609">
        <ele>615.6</ele>
        <time>2022-02-05T14:20:48Z</time>
      </trkpt>
      <trkpt lat="46.11202" lon="6.49596">
        <ele>614</ele>
        <time>2022-02-05T14:20:50Z</time>
      </trkpt>
      <trkpt lat="46.11233" lon="6.49582">
        <ele>611.6</ele>
        <time>2022-02-05T14:20:53Z</time>
      </trkpt>
      <trkpt lat="46.11254" lon="6.49576">
        <ele>610.8</ele>
        <time>2022-02-05T14:20:55Z</time>
      </trkpt>
      <trkpt lat="46.11286" lon="6.49573">
        <ele>609.4</ele>
        <time>2022-02-05T14:20:58Z</time>
      </trkpt>
      <trkpt lat="46.11308" lon="6.49569">
        <ele>609.2</ele>
        <time>2022-02-05T14:21:00Z</time>
      </trkpt>
      <trkpt lat="46.11328" lon="6.49561">
        <ele>608.2</ele>
        <time>2022-02-05T14:21:02Z</time>
      </trkpt>
      <trkpt lat="46.1135" lon="6.49551">
        <ele>607.8</ele>
        <time>2022-02-05T14:21:04Z</time>
      </trkpt>
      <trkpt lat="46.1136" lon="6.49546">
        <ele>607.6</ele>
        <time>2022-02-05T14:21:05Z</time>
      </trkpt>
      <trkpt lat="46.11403" lon="6.49526">
        <ele>605.4</ele>
        <time>2022-02-05T14:21:09Z</time>
      </trkpt>
      <trkpt lat="46.11424" lon="6.49514">
        <ele>604</ele>
        <time>2022-02-05T14:21:11Z</time>
      </trkpt>
      <trkpt lat="46.11433" lon="6.49507">
        <ele>603.2</ele>
        <time>2022-02-05T14:21:12Z</time>
      </trkpt>
      <trkpt lat="46.11477" lon="6.49466">
        <ele>601.6</ele>
        <time>2022-02-05T14:21:17Z</time>
      </trkpt>
      <trkpt lat="46.11485" lon="6.49457">
        <ele>601.4</ele>
        <time>2022-02-05T14:21:18Z</time>
      </trkpt>
      <trkpt lat="46.11493" lon="6.49446">
        <ele>600.8</ele>
        <time>2022-02-05T14:21:19Z</time>
      </trkpt>
      <trkpt lat="46.11508" lon="6.49424">
        <ele>599.6</ele>
        <time>2022-02-05T14:21:21Z</time>
      </trkpt>
      <trkpt lat="46.11539" lon="6.49383">
        <ele>598.4</ele>
        <time>2022-02-05T14:21:25Z</time>
      </trkpt>
      <trkpt lat="46.11548" lon="6.49376">
        <ele>598.2</ele>
        <time>2022-02-05T14:21:26Z</time>
      </trkpt>
      <trkpt lat="46.11575" lon="6.49358">
        <ele>596.2</ele>
        <time>2022-02-05T14:21:29Z</time>
      </trkpt>
      <trkpt lat="46.11592" lon="6.49345">
        <ele>595.6</ele>
        <time>2022-02-05T14:21:31Z</time>
      </trkpt>
      <trkpt lat="46.11624" lon="6.4932">
        <ele>595</ele>
        <time>2022-02-05T14:21:35Z</time>
      </trkpt>
      <trkpt lat="46.11638" lon="6.49307">
        <ele>594.8</ele>
        <time>2022-02-05T14:21:37Z</time>
      </trkpt>
      <trkpt lat="46.1168" lon="6.49259">
        <ele>595.2</ele>
        <time>2022-02-05T14:21:44Z</time>
      </trkpt>
      <trkpt lat="46.11685" lon="6.49252">
        <ele>595.6</ele>
        <time>2022-02-05T14:21:45Z</time>
      </trkpt>
      <trkpt lat="46.11712" lon="6.49216">
        <ele>596.8</ele>
        <time>2022-02-05T14:21:50Z</time>
      </trkpt>
      <trkpt lat="46.11722" lon="6.49203">
        <ele>597.2</ele>
        <time>2022-02-05T14:21:52Z</time>
      </trkpt>
      <trkpt lat="46.11762" lon="6.49165">
        <ele>598.2</ele>
        <time>2022-02-05T14:21:59Z</time>
      </trkpt>
      <trkpt lat="46.11773" lon="6.49155">
        <ele>598.4</ele>
        <time>2022-02-05T14:22:01Z</time>
      </trkpt>
      <trkpt lat="46.11783" lon="6.49142">
        <ele>598.6</ele>
        <time>2022-02-05T14:22:03Z</time>
      </trkpt>
      <trkpt lat="46.11786" lon="6.49135">
        <ele>598.6</ele>
        <time>2022-02-05T14:22:04Z</time>
      </trkpt>
      <trkpt lat="46.11789" lon="6.49126">
        <ele>598.6</ele>
        <time>2022-02-05T14:22:05Z</time>
      </trkpt>
      <trkpt lat="46.11797" lon="6.49097">
        <ele>598.6</ele>
        <time>2022-02-05T14:22:08Z</time>
      </trkpt>
      <trkpt lat="46.11799" lon="6.49087">
        <ele>598.6</ele>
        <time>2022-02-05T14:22:09Z</time>
      </trkpt>
      <trkpt lat="46.11806" lon="6.49068">
        <ele>598.6</ele>
        <time>2022-02-05T14:22:11Z</time>
      </trkpt>
      <trkpt lat="46.11811" lon="6.49058">
        <ele>598.6</ele>
        <time>2022-02-05T14:22:12Z</time>
      </trkpt>
      <trkpt lat="46.11816" lon="6.4905">
        <ele>598.6</ele>
        <time>2022-02-05T14:22:13Z</time>
      </trkpt>
      <trkpt lat="46.11834" lon="6.49027">
        <ele>598.4</ele>
        <time>2022-02-05T14:22:16Z</time>
      </trkpt>
      <trkpt lat="46.11854" lon="6.49007">
        <ele>597.6</ele>
        <time>2022-02-05T14:22:19Z</time>
      </trkpt>
      <trkpt lat="46.11861" lon="6.49002">
        <ele>597.2</ele>
        <time>2022-02-05T14:22:20Z</time>
      </trkpt>
      <trkpt lat="46.11869" lon="6.49">
        <ele>596.8</ele>
        <time>2022-02-05T14:22:21Z</time>
      </trkpt>
      <trkpt lat="46.11877" lon="6.49001">
        <ele>596.4</ele>
        <time>2022-02-05T14:22:22Z</time>
      </trkpt>
      <trkpt lat="46.11885" lon="6.49003">
        <ele>596.4</ele>
        <time>2022-02-05T14:22:23Z</time>
      </trkpt>
      <trkpt lat="46.11908" lon="6.49014">
        <ele>595.8</ele>
        <time>2022-02-05T14:22:26Z</time>
      </trkpt>
      <trkpt lat="46.11915" lon="6.49017">
        <ele>595.4</ele>
        <time>2022-02-05T14:22:27Z</time>
      </trkpt>
      <trkpt lat="46.1193" lon="6.49018">
        <ele>595.6</ele>
        <time>2022-02-05T14:22:29Z</time>
      </trkpt>
      <trkpt lat="46.11937" lon="6.49016">
        <ele>595.6</ele>
        <time>2022-02-05T14:22:30Z</time>
      </trkpt>
      <trkpt lat="46.11956" lon="6.4901">
        <ele>595.6</ele>
        <time>2022-02-05T14:22:33Z</time>
      </trkpt>
      <trkpt lat="46.11966" lon="6.49007">
        <ele>595.6</ele>
        <time>2022-02-05T14:22:35Z</time>
      </trkpt>
      <trkpt lat="46.11979" lon="6.49001">
        <ele>595.8</ele>
        <time>2022-02-05T14:22:38Z</time>
      </trkpt>
      <trkpt lat="46.11983" lon="6.48999">
        <ele>596</ele>
        <time>2022-02-05T14:22:39Z</time>
      </trkpt>
      <trkpt lat="46.12002" lon="6.48988">
        <ele>597.2</ele>
        <time>2022-02-05T14:22:43Z</time>
      </trkpt>
      <trkpt lat="46.12039" lon="6.48962">
        <ele>599.4</ele>
        <time>2022-02-05T14:22:50Z</time>
      </trkpt>
      <trkpt lat="46.12091" lon="6.48924">
        <ele>599.4</ele>
        <time>2022-02-05T14:22:59Z</time>
      </trkpt>
      <trkpt lat="46.12097" lon="6.48919">
        <ele>599.4</ele>
        <time>2022-02-05T14:23:00Z</time>
      </trkpt>
      <trkpt lat="46.12119" lon="6.48903">
        <ele>599.4</ele>
        <time>2022-02-05T14:23:03Z</time>
      </trkpt>
      <trkpt lat="46.1214" lon="6.48886">
        <ele>599.2</ele>
        <time>2022-02-05T14:23:06Z</time>
      </trkpt>
      <trkpt lat="46.12173" lon="6.48847">
        <ele>598</ele>
        <time>2022-02-05T14:23:11Z</time>
      </trkpt>
      <trkpt lat="46.12183" lon="6.48828">
        <ele>597.2</ele>
        <time>2022-02-05T14:23:13Z</time>
      </trkpt>
      <trkpt lat="46.12188" lon="6.48818">
        <ele>596.8</ele>
        <time>2022-02-05T14:23:14Z</time>
      </trkpt>
      <trkpt lat="46.12195" lon="6.48798">
        <ele>596.4</ele>
        <time>2022-02-05T14:23:16Z</time>
      </trkpt>
      <trkpt lat="46.12218" lon="6.48725">
        <ele>595.4</ele>
        <time>2022-02-05T14:23:23Z</time>
      </trkpt>
      <trkpt lat="46.12221" lon="6.48715">
        <ele>595.4</ele>
        <time>2022-02-05T14:23:24Z</time>
      </trkpt>
      <trkpt lat="46.1223" lon="6.48681">
        <ele>595.4</ele>
        <time>2022-02-05T14:23:27Z</time>
      </trkpt>
      <trkpt lat="46.12238" lon="6.48643">
        <ele>595</ele>
        <time>2022-02-05T14:23:30Z</time>
      </trkpt>
      <trkpt lat="46.12252" lon="6.4861">
        <ele>594.2</ele>
        <time>2022-02-05T14:23:33Z</time>
      </trkpt>
      <trkpt lat="46.12257" lon="6.48602">
        <ele>594.2</ele>
        <time>2022-02-05T14:23:34Z</time>
      </trkpt>
      <trkpt lat="46.12275" lon="6.48582">
        <ele>593.4</ele>
        <time>2022-02-05T14:23:37Z</time>
      </trkpt>
      <trkpt lat="46.12286" lon="6.48572">
        <ele>593.4</ele>
        <time>2022-02-05T14:23:39Z</time>
      </trkpt>
      <trkpt lat="46.1229" lon="6.48567">
        <ele>593.2</ele>
        <time>2022-02-05T14:23:40Z</time>
      </trkpt>
      <trkpt lat="46.12307" lon="6.4855">
        <ele>593.2</ele>
        <time>2022-02-05T14:23:44Z</time>
      </trkpt>
      <trkpt lat="46.1231" lon="6.48546">
        <ele>593.2</ele>
        <time>2022-02-05T14:23:45Z</time>
      </trkpt>
      <trkpt lat="46.1232" lon="6.48535">
        <ele>594.4</ele>
        <time>2022-02-05T14:23:48Z</time>
      </trkpt>
      <trkpt lat="46.12335" lon="6.48518">
        <ele>596.2</ele>
        <time>2022-02-05T14:23:53Z</time>
      </trkpt>
      <trkpt lat="46.12338" lon="6.48516">
        <ele>596.4</ele>
        <time>2022-02-05T14:23:54Z</time>
      </trkpt>
      <trkpt lat="46.12344" lon="6.4851">
        <ele>597.2</ele>
        <time>2022-02-05T14:23:56Z</time>
      </trkpt>
      <trkpt lat="46.12356" lon="6.48497">
        <ele>598</ele>
        <time>2022-02-05T14:24:00Z</time>
      </trkpt>
      <trkpt lat="46.12361" lon="6.4849">
        <ele>598.4</ele>
        <time>2022-02-05T14:24:02Z</time>
      </trkpt>
      <trkpt lat="46.12368" lon="6.48479">
        <ele>599.4</ele>
        <time>2022-02-05T14:24:05Z</time>
      </trkpt>
      <trkpt lat="46.12374" lon="6.48469">
        <ele>600</ele>
        <time>2022-02-05T14:24:08Z</time>
      </trkpt>
      <trkpt lat="46.12378" lon="6.48462">
        <ele>600.4</ele>
        <time>2022-02-05T14:24:10Z</time>
      </trkpt>
      <trkpt lat="46.12388" lon="6.48447">
        <ele>602</ele>
        <time>2022-02-05T14:24:14Z</time>
      </trkpt>
      <trkpt lat="46.12391" lon="6.48443">
        <ele>602.2</ele>
        <time>2022-02-05T14:24:15Z</time>
      </trkpt>
      <trkpt lat="46.12401" lon="6.48432">
        <ele>603.2</ele>
        <time>2022-02-05T14:24:18Z</time>
      </trkpt>
      <trkpt lat="46.12405" lon="6.48429">
        <ele>603.4</ele>
        <time>2022-02-05T14:24:19Z</time>
      </trkpt>
      <trkpt lat="46.12413" lon="6.48422">
        <ele>603.8</ele>
        <time>2022-02-05T14:24:21Z</time>
      </trkpt>
      <trkpt lat="46.12439" lon="6.484">
        <ele>603.8</ele>
        <time>2022-02-05T14:24:27Z</time>
      </trkpt>
      <trkpt lat="46.12455" lon="6.48381">
        <ele>604.2</ele>
        <time>2022-02-05T14:24:31Z</time>
      </trkpt>
      <trkpt lat="46.12459" lon="6.48375">
        <ele>604.2</ele>
        <time>2022-02-05T14:24:32Z</time>
      </trkpt>
      <trkpt lat="46.12462" lon="6.48369">
        <ele>604</ele>
        <time>2022-02-05T14:24:33Z</time>
      </trkpt>
      <trkpt lat="46.12476" lon="6.48334">
        <ele>604.4</ele>
        <time>2022-02-05T14:24:39Z</time>
      </trkpt>
      <trkpt lat="46.12478" lon="6.48328">
        <ele>604.4</ele>
        <time>2022-02-05T14:24:40Z</time>
      </trkpt>
      <trkpt lat="46.12484" lon="6.48312">
        <ele>604.6</ele>
        <time>2022-02-05T14:24:43Z</time>
      </trkpt>
      <trkpt lat="46.12493" lon="6.48297">
        <ele>605</ele>
        <time>2022-02-05T14:24:46Z</time>
      </trkpt>
      <trkpt lat="46.12496" lon="6.48293">
        <ele>605.4</ele>
        <time>2022-02-05T14:24:47Z</time>
      </trkpt>
      <trkpt lat="46.1253" lon="6.48259">
        <ele>607</ele>
        <time>2022-02-05T14:24:55Z</time>
      </trkpt>
      <trkpt lat="46.12536" lon="6.48253">
        <ele>606.8</ele>
        <time>2022-02-05T14:24:56Z</time>
      </trkpt>
      <trkpt lat="46.12541" lon="6.48246">
        <ele>607</ele>
        <time>2022-02-05T14:24:57Z</time>
      </trkpt>
      <trkpt lat="46.12552" lon="6.48232">
        <ele>607</ele>
        <time>2022-02-05T14:24:59Z</time>
      </trkpt>
      <trkpt lat="46.12576" lon="6.48201">
        <ele>606.6</ele>
        <time>2022-02-05T14:25:03Z</time>
      </trkpt>
      <trkpt lat="46.12588" lon="6.48185">
        <ele>605.2</ele>
        <time>2022-02-05T14:25:05Z</time>
      </trkpt>
      <trkpt lat="46.12601" lon="6.48167">
        <ele>604</ele>
        <time>2022-02-05T14:25:07Z</time>
      </trkpt>
      <trkpt lat="46.12607" lon="6.48158">
        <ele>603.4</ele>
        <time>2022-02-05T14:25:08Z</time>
      </trkpt>
      <trkpt lat="46.12613" lon="6.48148">
        <ele>603.2</ele>
        <time>2022-02-05T14:25:09Z</time>
      </trkpt>
      <trkpt lat="46.12619" lon="6.48137">
        <ele>603</ele>
        <time>2022-02-05T14:25:10Z</time>
      </trkpt>
      <trkpt lat="46.12624" lon="6.48125">
        <ele>602.6</ele>
        <time>2022-02-05T14:25:11Z</time>
      </trkpt>
      <trkpt lat="46.12629" lon="6.48113">
        <ele>602</ele>
        <time>2022-02-05T14:25:12Z</time>
      </trkpt>
      <trkpt lat="46.12638" lon="6.4809">
        <ele>600.8</ele>
        <time>2022-02-05T14:25:14Z</time>
      </trkpt>
      <trkpt lat="46.12666" lon="6.48044">
        <ele>596.8</ele>
        <time>2022-02-05T14:25:19Z</time>
      </trkpt>
      <trkpt lat="46.12684" lon="6.4802">
        <ele>596.4</ele>
        <time>2022-02-05T14:25:22Z</time>
      </trkpt>
      <trkpt lat="46.12696" lon="6.48003">
        <ele>596</ele>
        <time>2022-02-05T14:25:24Z</time>
      </trkpt>
      <trkpt lat="46.12703" lon="6.47994">
        <ele>596</ele>
        <time>2022-02-05T14:25:25Z</time>
      </trkpt>
      <trkpt lat="46.1271" lon="6.47985">
        <ele>596</ele>
        <time>2022-02-05T14:25:26Z</time>
      </trkpt>
      <trkpt lat="46.12723" lon="6.47966">
        <ele>595.8</ele>
        <time>2022-02-05T14:25:28Z</time>
      </trkpt>
      <trkpt lat="46.12731" lon="6.47956">
        <ele>595.8</ele>
        <time>2022-02-05T14:25:29Z</time>
      </trkpt>
      <trkpt lat="46.12738" lon="6.47946">
        <ele>595.6</ele>
        <time>2022-02-05T14:25:30Z</time>
      </trkpt>
      <trkpt lat="46.12746" lon="6.47936">
        <ele>595.4</ele>
        <time>2022-02-05T14:25:31Z</time>
      </trkpt>
      <trkpt lat="46.12754" lon="6.47925">
        <ele>594.8</ele>
        <time>2022-02-05T14:25:32Z</time>
      </trkpt>
      <trkpt lat="46.12769" lon="6.47904">
        <ele>593.2</ele>
        <time>2022-02-05T14:25:34Z</time>
      </trkpt>
      <trkpt lat="46.12791" lon="6.47873">
        <ele>590.8</ele>
        <time>2022-02-05T14:25:37Z</time>
      </trkpt>
      <trkpt lat="46.12798" lon="6.47864">
        <ele>590.4</ele>
        <time>2022-02-05T14:25:38Z</time>
      </trkpt>
      <trkpt lat="46.12811" lon="6.4785">
        <ele>589.2</ele>
        <time>2022-02-05T14:25:40Z</time>
      </trkpt>
      <trkpt lat="46.12822" lon="6.47838">
        <ele>588.8</ele>
        <time>2022-02-05T14:25:42Z</time>
      </trkpt>
      <trkpt lat="46.12832" lon="6.47828">
        <ele>588.8</ele>
        <time>2022-02-05T14:25:44Z</time>
      </trkpt>
      <trkpt lat="46.1284" lon="6.4782">
        <ele>588.8</ele>
        <time>2022-02-05T14:25:46Z</time>
      </trkpt>
      <trkpt lat="46.12844" lon="6.47816">
        <ele>588.6</ele>
        <time>2022-02-05T14:25:47Z</time>
      </trkpt>
      <trkpt lat="46.12848" lon="6.47812">
        <ele>588.8</ele>
        <time>2022-02-05T14:25:48Z</time>
      </trkpt>
      <trkpt lat="46.12861" lon="6.47797">
        <ele>590.4</ele>
        <time>2022-02-05T14:25:52Z</time>
      </trkpt>
      <trkpt lat="46.12864" lon="6.47793">
        <ele>591</ele>
        <time>2022-02-05T14:25:53Z</time>
      </trkpt>
      <trkpt lat="46.1287" lon="6.47786">
        <ele>592</ele>
        <time>2022-02-05T14:25:55Z</time>
      </trkpt>
      <trkpt lat="46.12873" lon="6.47783">
        <ele>592.6</ele>
        <time>2022-02-05T14:25:56Z</time>
      </trkpt>
      <trkpt lat="46.1288" lon="6.47776">
        <ele>593.2</ele>
        <time>2022-02-05T14:25:58Z</time>
      </trkpt>
      <trkpt lat="46.12882" lon="6.47772">
        <ele>594</ele>
        <time>2022-02-05T14:25:59Z</time>
      </trkpt>
      <trkpt lat="46.12892" lon="6.47762">
        <ele>594.8</ele>
        <time>2022-02-05T14:26:02Z</time>
      </trkpt>
      <trkpt lat="46.12895" lon="6.47758">
        <ele>595</ele>
        <time>2022-02-05T14:26:03Z</time>
      </trkpt>
      <trkpt lat="46.12903" lon="6.47746">
        <ele>596</ele>
        <time>2022-02-05T14:26:06Z</time>
      </trkpt>
      <trkpt lat="46.12906" lon="6.47741">
        <ele>596.4</ele>
        <time>2022-02-05T14:26:07Z</time>
      </trkpt>
      <trkpt lat="46.1291" lon="6.47737">
        <ele>597</ele>
        <time>2022-02-05T14:26:08Z</time>
      </trkpt>
      <trkpt lat="46.12928" lon="6.47716">
        <ele>597.8</ele>
        <time>2022-02-05T14:26:13Z</time>
      </trkpt>
      <trkpt lat="46.12958" lon="6.47677">
        <ele>598.2</ele>
        <time>2022-02-05T14:26:21Z</time>
      </trkpt>
      <trkpt lat="46.12965" lon="6.47667">
        <ele>598.4</ele>
        <time>2022-02-05T14:26:23Z</time>
      </trkpt>
      <trkpt lat="46.12993" lon="6.47631">
        <ele>598.8</ele>
        <time>2022-02-05T14:26:30Z</time>
      </trkpt>
      <trkpt lat="46.13001" lon="6.47623">
        <ele>598.8</ele>
        <time>2022-02-05T14:26:32Z</time>
      </trkpt>
      <trkpt lat="46.1302" lon="6.47609">
        <ele>598.8</ele>
        <time>2022-02-05T14:26:36Z</time>
      </trkpt>
      <trkpt lat="46.13035" lon="6.47602">
        <ele>599.2</ele>
        <time>2022-02-05T14:26:39Z</time>
      </trkpt>
      <trkpt lat="46.1305" lon="6.47598">
        <ele>599.4</ele>
        <time>2022-02-05T14:26:42Z</time>
      </trkpt>
      <trkpt lat="46.13055" lon="6.47597">
        <ele>599.8</ele>
        <time>2022-02-05T14:26:43Z</time>
      </trkpt>
      <trkpt lat="46.13065" lon="6.47595">
        <ele>600.2</ele>
        <time>2022-02-05T14:26:45Z</time>
      </trkpt>
      <trkpt lat="46.13084" lon="6.47592">
        <ele>600.8</ele>
        <time>2022-02-05T14:26:49Z</time>
      </trkpt>
      <trkpt lat="46.13089" lon="6.47592">
        <ele>600.8</ele>
        <time>2022-02-05T14:26:50Z</time>
      </trkpt>
      <trkpt lat="46.13108" lon="6.47588">
        <ele>601.6</ele>
        <time>2022-02-05T14:26:54Z</time>
      </trkpt>
      <trkpt lat="46.13131" lon="6.47585">
        <ele>603.2</ele>
        <time>2022-02-05T14:26:58Z</time>
      </trkpt>
      <trkpt lat="46.13178" lon="6.47582">
        <ele>604.6</ele>
        <time>2022-02-05T14:27:08Z</time>
      </trkpt>
      <trkpt lat="46.13215" lon="6.4758">
        <ele>604.8</ele>
        <time>2022-02-05T14:27:14Z</time>
      </trkpt>
      <trkpt lat="46.13222" lon="6.4758">
        <ele>604.8</ele>
        <time>2022-02-05T14:27:15Z</time>
      </trkpt>
      <trkpt lat="46.13257" lon="6.47574">
        <ele>604.6</ele>
        <time>2022-02-05T14:27:20Z</time>
      </trkpt>
      <trkpt lat="46.13265" lon="6.47572">
        <ele>604.4</ele>
        <time>2022-02-05T14:27:21Z</time>
      </trkpt>
      <trkpt lat="46.13299" lon="6.47555">
        <ele>603.2</ele>
        <time>2022-02-05T14:27:26Z</time>
      </trkpt>
      <trkpt lat="46.13322" lon="6.47531">
        <ele>602.4</ele>
        <time>2022-02-05T14:27:30Z</time>
      </trkpt>
      <trkpt lat="46.13329" lon="6.47527">
        <ele>602.4</ele>
        <time>2022-02-05T14:27:31Z</time>
      </trkpt>
      <trkpt lat="46.13336" lon="6.47524">
        <ele>602.2</ele>
        <time>2022-02-05T14:27:32Z</time>
      </trkpt>
      <trkpt lat="46.1335" lon="6.47525">
        <ele>602</ele>
        <time>2022-02-05T14:27:34Z</time>
      </trkpt>
      <trkpt lat="46.13364" lon="6.47531">
        <ele>602</ele>
        <time>2022-02-05T14:27:36Z</time>
      </trkpt>
      <trkpt lat="46.13377" lon="6.47543">
        <ele>601.8</ele>
        <time>2022-02-05T14:27:38Z</time>
      </trkpt>
      <trkpt lat="46.13391" lon="6.47554">
        <ele>601.8</ele>
        <time>2022-02-05T14:27:40Z</time>
      </trkpt>
      <trkpt lat="46.13407" lon="6.47558">
        <ele>601.8</ele>
        <time>2022-02-05T14:27:42Z</time>
      </trkpt>
      <trkpt lat="46.13421" lon="6.47556">
        <ele>601.4</ele>
        <time>2022-02-05T14:27:44Z</time>
      </trkpt>
      <trkpt lat="46.13428" lon="6.47553">
        <ele>601.4</ele>
        <time>2022-02-05T14:27:45Z</time>
      </trkpt>
      <trkpt lat="46.13469" lon="6.47534">
        <ele>601.2</ele>
        <time>2022-02-05T14:27:51Z</time>
      </trkpt>
      <trkpt lat="46.13476" lon="6.47532">
        <ele>601.2</ele>
        <time>2022-02-05T14:27:52Z</time>
      </trkpt>
      <trkpt lat="46.13495" lon="6.4753">
        <ele>601.2</ele>
        <time>2022-02-05T14:27:55Z</time>
      </trkpt>
      <trkpt lat="46.13501" lon="6.4753">
        <ele>601.4</ele>
        <time>2022-02-05T14:27:56Z</time>
      </trkpt>
      <trkpt lat="46.13522" lon="6.47535">
        <ele>601.4</ele>
        <time>2022-02-05T14:27:59Z</time>
      </trkpt>
      <trkpt lat="46.13529" lon="6.47534">
        <ele>601.4</ele>
        <time>2022-02-05T14:28:00Z</time>
      </trkpt>
      <trkpt lat="46.13534" lon="6.47529">
        <ele>601.4</ele>
        <time>2022-02-05T14:28:01Z</time>
      </trkpt>
      <trkpt lat="46.13537" lon="6.47522">
        <ele>601.4</ele>
        <time>2022-02-05T14:28:02Z</time>
      </trkpt>
      <trkpt lat="46.13538" lon="6.47512">
        <ele>601.4</ele>
        <time>2022-02-05T14:28:03Z</time>
      </trkpt>
      <trkpt lat="46.13536" lon="6.47502">
        <ele>601.4</ele>
        <time>2022-02-05T14:28:04Z</time>
      </trkpt>
      <trkpt lat="46.13529" lon="6.47479">
        <ele>601.4</ele>
        <time>2022-02-05T14:28:06Z</time>
      </trkpt>
      <trkpt lat="46.13524" lon="6.47468">
        <ele>601.4</ele>
        <time>2022-02-05T14:28:07Z</time>
      </trkpt>
      <trkpt lat="46.13519" lon="6.47456">
        <ele>601.4</ele>
        <time>2022-02-05T14:28:08Z</time>
      </trkpt>
      <trkpt lat="46.13514" lon="6.47444">
        <ele>601.2</ele>
        <time>2022-02-05T14:28:09Z</time>
      </trkpt>
      <trkpt lat="46.13501" lon="6.47421">
        <ele>600.2</ele>
        <time>2022-02-05T14:28:11Z</time>
      </trkpt>
      <trkpt lat="46.13487" lon="6.47398">
        <ele>598.4</ele>
        <time>2022-02-05T14:28:13Z</time>
      </trkpt>
      <trkpt lat="46.13473" lon="6.47374">
        <ele>596.4</ele>
        <time>2022-02-05T14:28:15Z</time>
      </trkpt>
      <trkpt lat="46.13459" lon="6.47353">
        <ele>595.2</ele>
        <time>2022-02-05T14:28:16Z</time>
      </trkpt>
      <trkpt lat="46.13452" lon="6.47344">
        <ele>594</ele>
        <time>2022-02-05T14:28:17Z</time>
      </trkpt>
      <trkpt lat="46.13444" lon="6.47336">
        <ele>592.4</ele>
        <time>2022-02-05T14:28:18Z</time>
      </trkpt>
      <trkpt lat="46.13437" lon="6.47332">
        <ele>591.4</ele>
        <time>2022-02-05T14:28:19Z</time>
      </trkpt>
      <trkpt lat="46.13431" lon="6.47328">
        <ele>590.2</ele>
        <time>2022-02-05T14:28:20Z</time>
      </trkpt>
      <trkpt lat="46.13406" lon="6.4731">
        <ele>588.4</ele>
        <time>2022-02-05T14:28:22Z</time>
      </trkpt>
      <trkpt lat="46.13397" lon="6.47303">
        <ele>587</ele>
        <time>2022-02-05T14:28:24Z</time>
      </trkpt>
      <trkpt lat="46.13388" lon="6.47295">
        <ele>586.4</ele>
        <time>2022-02-05T14:28:25Z</time>
      </trkpt>
      <trkpt lat="46.1338" lon="6.47285">
        <ele>585.8</ele>
        <time>2022-02-05T14:28:26Z</time>
      </trkpt>
      <trkpt lat="46.1337" lon="6.47268">
        <ele>585</ele>
        <time>2022-02-05T14:28:27Z</time>
      </trkpt>
      <trkpt lat="46.13368" lon="6.47261">
        <ele>584.2</ele>
        <time>2022-02-05T14:28:28Z</time>
      </trkpt>
      <trkpt lat="46.1336" lon="6.47233">
        <ele>582.6</ele>
        <time>2022-02-05T14:28:30Z</time>
      </trkpt>
      <trkpt lat="46.13359" lon="6.47218">
        <ele>581.2</ele>
        <time>2022-02-05T14:28:31Z</time>
      </trkpt>
      <trkpt lat="46.13359" lon="6.47202">
        <ele>580.4</ele>
        <time>2022-02-05T14:28:32Z</time>
      </trkpt>
      <trkpt lat="46.13361" lon="6.47186">
        <ele>579.4</ele>
        <time>2022-02-05T14:28:33Z</time>
      </trkpt>
      <trkpt lat="46.13364" lon="6.47146">
        <ele>578.6</ele>
        <time>2022-02-05T14:28:34Z</time>
      </trkpt>
      <trkpt lat="46.13366" lon="6.47122">
        <ele>577.4</ele>
        <time>2022-02-05T14:28:36Z</time>
      </trkpt>
      <trkpt lat="46.13369" lon="6.47089">
        <ele>575.8</ele>
        <time>2022-02-05T14:28:38Z</time>
      </trkpt>
      <trkpt lat="46.13371" lon="6.47072">
        <ele>573.6</ele>
        <time>2022-02-05T14:28:40Z</time>
      </trkpt>
      <trkpt lat="46.13372" lon="6.47056">
        <ele>572.2</ele>
        <time>2022-02-05T14:28:41Z</time>
      </trkpt>
      <trkpt lat="46.13378" lon="6.46993">
        <ele>568.6</ele>
        <time>2022-02-05T14:28:45Z</time>
      </trkpt>
      <trkpt lat="46.13382" lon="6.46967">
        <ele>567.2</ele>
        <time>2022-02-05T14:28:47Z</time>
      </trkpt>
      <trkpt lat="46.13386" lon="6.46955">
        <ele>566.4</ele>
        <time>2022-02-05T14:28:48Z</time>
      </trkpt>
      <trkpt lat="46.13392" lon="6.46944">
        <ele>566</ele>
        <time>2022-02-05T14:28:49Z</time>
      </trkpt>
      <trkpt lat="46.13398" lon="6.46935">
        <ele>565.2</ele>
        <time>2022-02-05T14:28:50Z</time>
      </trkpt>
      <trkpt lat="46.13405" lon="6.46927">
        <ele>564.4</ele>
        <time>2022-02-05T14:28:51Z</time>
      </trkpt>
      <trkpt lat="46.13412" lon="6.46922">
        <ele>563.8</ele>
        <time>2022-02-05T14:28:52Z</time>
      </trkpt>
      <trkpt lat="46.1342" lon="6.46918">
        <ele>563.6</ele>
        <time>2022-02-05T14:28:53Z</time>
      </trkpt>
      <trkpt lat="46.13435" lon="6.46917">
        <ele>562.8</ele>
        <time>2022-02-05T14:28:55Z</time>
      </trkpt>
      <trkpt lat="46.13442" lon="6.46919">
        <ele>562.4</ele>
        <time>2022-02-05T14:28:56Z</time>
      </trkpt>
      <trkpt lat="46.13449" lon="6.46922">
        <ele>562</ele>
        <time>2022-02-05T14:28:57Z</time>
      </trkpt>
      <trkpt lat="46.13462" lon="6.46919">
        <ele>561</ele>
        <time>2022-02-05T14:28:59Z</time>
      </trkpt>
      <trkpt lat="46.13468" lon="6.46914">
        <ele>560.6</ele>
        <time>2022-02-05T14:29:00Z</time>
      </trkpt>
      <trkpt lat="46.13481" lon="6.46905">
        <ele>560.4</ele>
        <time>2022-02-05T14:29:02Z</time>
      </trkpt>
      <trkpt lat="46.13488" lon="6.46901">
        <ele>560.2</ele>
        <time>2022-02-05T14:29:03Z</time>
      </trkpt>
      <trkpt lat="46.13531" lon="6.46885">
        <ele>559.4</ele>
        <time>2022-02-05T14:29:09Z</time>
      </trkpt>
      <trkpt lat="46.13543" lon="6.46878">
        <ele>559.4</ele>
        <time>2022-02-05T14:29:11Z</time>
      </trkpt>
      <trkpt lat="46.13559" lon="6.46864">
        <ele>559.6</ele>
        <time>2022-02-05T14:29:14Z</time>
      </trkpt>
      <trkpt lat="46.13571" lon="6.46849">
        <ele>559.6</ele>
        <time>2022-02-05T14:29:17Z</time>
      </trkpt>
      <trkpt lat="46.13581" lon="6.46833">
        <ele>560</ele>
        <time>2022-02-05T14:29:20Z</time>
      </trkpt>
      <trkpt lat="46.13584" lon="6.46827">
        <ele>560.4</ele>
        <time>2022-02-05T14:29:21Z</time>
      </trkpt>
      <trkpt lat="46.13599" lon="6.46789">
        <ele>562.8</ele>
        <time>2022-02-05T14:29:27Z</time>
      </trkpt>
      <trkpt lat="46.1361" lon="6.46757">
        <ele>564</ele>
        <time>2022-02-05T14:29:32Z</time>
      </trkpt>
      <trkpt lat="46.13619" lon="6.46732">
        <ele>564.8</ele>
        <time>2022-02-05T14:29:36Z</time>
      </trkpt>
      <trkpt lat="46.1363" lon="6.46701">
        <ele>566</ele>
        <time>2022-02-05T14:29:41Z</time>
      </trkpt>
      <trkpt lat="46.13636" lon="6.46689">
        <ele>566.4</ele>
        <time>2022-02-05T14:29:43Z</time>
      </trkpt>
      <trkpt lat="46.13642" lon="6.46679">
        <ele>567</ele>
        <time>2022-02-05T14:29:45Z</time>
      </trkpt>
      <trkpt lat="46.13645" lon="6.46674">
        <ele>567.4</ele>
        <time>2022-02-05T14:29:46Z</time>
      </trkpt>
      <trkpt lat="46.13647" lon="6.46668">
        <ele>567.6</ele>
        <time>2022-02-05T14:29:47Z</time>
      </trkpt>
      <trkpt lat="46.13649" lon="6.46655">
        <ele>568.2</ele>
        <time>2022-02-05T14:29:49Z</time>
      </trkpt>
      <trkpt lat="46.13659" lon="6.46617">
        <ele>569.2</ele>
        <time>2022-02-05T14:29:55Z</time>
      </trkpt>
      <trkpt lat="46.13665" lon="6.46599">
        <ele>569.6</ele>
        <time>2022-02-05T14:29:58Z</time>
      </trkpt>
      <trkpt lat="46.13678" lon="6.46564">
        <ele>570.2</ele>
        <time>2022-02-05T14:30:04Z</time>
      </trkpt>
      <trkpt lat="46.13693" lon="6.46524">
        <ele>571.8</ele>
        <time>2022-02-05T14:30:11Z</time>
      </trkpt>
      <trkpt lat="46.13694" lon="6.46518">
        <ele>572</ele>
        <time>2022-02-05T14:30:12Z</time>
      </trkpt>
      <trkpt lat="46.13703" lon="6.46482">
        <ele>572.8</ele>
        <time>2022-02-05T14:30:18Z</time>
      </trkpt>
      <trkpt lat="46.13709" lon="6.46456">
        <ele>573.8</ele>
        <time>2022-02-05T14:30:22Z</time>
      </trkpt>
      <trkpt lat="46.1371" lon="6.46443">
        <ele>574</ele>
        <time>2022-02-05T14:30:23Z</time>
      </trkpt>
      <trkpt lat="46.13713" lon="6.4643">
        <ele>574.4</ele>
        <time>2022-02-05T14:30:26Z</time>
      </trkpt>
      <trkpt lat="46.13715" lon="6.46417">
        <ele>574.6</ele>
        <time>2022-02-05T14:30:28Z</time>
      </trkpt>
      <trkpt lat="46.13721" lon="6.46384">
        <ele>575.2</ele>
        <time>2022-02-05T14:30:32Z</time>
      </trkpt>
      <trkpt lat="46.13727" lon="6.46346">
        <ele>575.6</ele>
        <time>2022-02-05T14:30:39Z</time>
      </trkpt>
      <trkpt lat="46.1373" lon="6.46327">
        <ele>575.8</ele>
        <time>2022-02-05T14:30:41Z</time>
      </trkpt>
      <trkpt lat="46.13737" lon="6.46289">
        <ele>576.6</ele>
        <time>2022-02-05T14:30:48Z</time>
      </trkpt>
      <trkpt lat="46.13739" lon="6.46276">
        <ele>576.6</ele>
        <time>2022-02-05T14:30:49Z</time>
      </trkpt>
      <trkpt lat="46.13744" lon="6.46242">
        <ele>577.4</ele>
        <time>2022-02-05T14:30:54Z</time>
      </trkpt>
      <trkpt lat="46.13749" lon="6.46208">
        <ele>578.4</ele>
        <time>2022-02-05T14:31:00Z</time>
      </trkpt>
      <trkpt lat="46.13752" lon="6.46188">
        <ele>578.8</ele>
        <time>2022-02-05T14:31:02Z</time>
      </trkpt>
      <trkpt lat="46.13757" lon="6.4616">
        <ele>579.6</ele>
        <time>2022-02-05T14:31:06Z</time>
      </trkpt>
      <trkpt lat="46.13764" lon="6.46113">
        <ele>580.8</ele>
        <time>2022-02-05T14:31:13Z</time>
      </trkpt>
      <trkpt lat="46.13768" lon="6.46093">
        <ele>581.4</ele>
        <time>2022-02-05T14:31:17Z</time>
      </trkpt>
      <trkpt lat="46.13775" lon="6.46056">
        <ele>582</ele>
        <time>2022-02-05T14:31:23Z</time>
      </trkpt>
      <trkpt lat="46.13779" lon="6.46034">
        <ele>582.8</ele>
        <time>2022-02-05T14:31:27Z</time>
      </trkpt>
      <trkpt lat="46.13782" lon="6.46023">
        <ele>583</ele>
        <time>2022-02-05T14:31:28Z</time>
      </trkpt>
      <trkpt lat="46.13786" lon="6.46013">
        <ele>583.6</ele>
        <time>2022-02-05T14:31:31Z</time>
      </trkpt>
      <trkpt lat="46.13792" lon="6.45998">
        <ele>584.4</ele>
        <time>2022-02-05T14:31:34Z</time>
      </trkpt>
      <trkpt lat="46.13794" lon="6.45993">
        <ele>584.8</ele>
        <time>2022-02-05T14:31:35Z</time>
      </trkpt>
      <trkpt lat="46.13802" lon="6.45974">
        <ele>585.6</ele>
        <time>2022-02-05T14:31:39Z</time>
      </trkpt>
      <trkpt lat="46.13806" lon="6.4597">
        <ele>585.8</ele>
        <time>2022-02-05T14:31:40Z</time>
      </trkpt>
      <trkpt lat="46.13808" lon="6.45966">
        <ele>585.8</ele>
        <time>2022-02-05T14:31:41Z</time>
      </trkpt>
      <trkpt lat="46.13812" lon="6.45945">
        <ele>586.4</ele>
        <time>2022-02-05T14:31:45Z</time>
      </trkpt>
      <trkpt lat="46.13812" lon="6.45939">
        <ele>586.4</ele>
        <time>2022-02-05T14:31:46Z</time>
      </trkpt>
      <trkpt lat="46.13814" lon="6.45914">
        <ele>587.4</ele>
        <time>2022-02-05T14:31:50Z</time>
      </trkpt>
      <trkpt lat="46.13814" lon="6.45907">
        <ele>587.4</ele>
        <time>2022-02-05T14:31:51Z</time>
      </trkpt>
      <trkpt lat="46.13817" lon="6.45883">
        <ele>587.6</ele>
        <time>2022-02-05T14:31:55Z</time>
      </trkpt>
      <trkpt lat="46.1382" lon="6.45869">
        <ele>588.2</ele>
        <time>2022-02-05T14:31:57Z</time>
      </trkpt>
      <trkpt lat="46.13821" lon="6.45862">
        <ele>588.2</ele>
        <time>2022-02-05T14:31:58Z</time>
      </trkpt>
      <trkpt lat="46.13833" lon="6.45816">
        <ele>589.2</ele>
        <time>2022-02-05T14:32:04Z</time>
      </trkpt>
      <trkpt lat="46.13837" lon="6.45802">
        <ele>589.4</ele>
        <time>2022-02-05T14:32:06Z</time>
      </trkpt>
      <trkpt lat="46.1385" lon="6.45755">
        <ele>589.6</ele>
        <time>2022-02-05T14:32:13Z</time>
      </trkpt>
      <trkpt lat="46.13853" lon="6.4574">
        <ele>589.6</ele>
        <time>2022-02-05T14:32:15Z</time>
      </trkpt>
      <trkpt lat="46.13857" lon="6.45687">
        <ele>590.2</ele>
        <time>2022-02-05T14:32:22Z</time>
      </trkpt>
      <trkpt lat="46.13858" lon="6.45668">
        <ele>590</ele>
        <time>2022-02-05T14:32:24Z</time>
      </trkpt>
      <trkpt lat="46.13857" lon="6.45614">
        <ele>590</ele>
        <time>2022-02-05T14:32:28Z</time>
      </trkpt>
      <trkpt lat="46.13857" lon="6.45603">
        <ele>590</ele>
        <time>2022-02-05T14:32:29Z</time>
      </trkpt>
      <trkpt lat="46.13854" lon="6.4557">
        <ele>589.8</ele>
        <time>2022-02-05T14:32:32Z</time>
      </trkpt>
      <trkpt lat="46.13853" lon="6.45559">
        <ele>589.4</ele>
        <time>2022-02-05T14:32:34Z</time>
      </trkpt>
      <trkpt lat="46.1385" lon="6.45536">
        <ele>589</ele>
        <time>2022-02-05T14:32:36Z</time>
      </trkpt>
      <trkpt lat="46.13843" lon="6.45503">
        <ele>588.2</ele>
        <time>2022-02-05T14:32:39Z</time>
      </trkpt>
      <trkpt lat="46.13831" lon="6.4546">
        <ele>587</ele>
        <time>2022-02-05T14:32:42Z</time>
      </trkpt>
      <trkpt lat="46.13807" lon="6.4539">
        <ele>585.8</ele>
        <time>2022-02-05T14:32:49Z</time>
      </trkpt>
      <trkpt lat="46.13803" lon="6.4538">
        <ele>585.4</ele>
        <time>2022-02-05T14:32:50Z</time>
      </trkpt>
      <trkpt lat="46.13787" lon="6.45334">
        <ele>584.2</ele>
        <time>2022-02-05T14:32:55Z</time>
      </trkpt>
      <trkpt lat="46.13781" lon="6.45316">
        <ele>584.4</ele>
        <time>2022-02-05T14:32:58Z</time>
      </trkpt>
      <trkpt lat="46.13759" lon="6.45253">
        <ele>585</ele>
        <time>2022-02-05T14:33:05Z</time>
      </trkpt>
      <trkpt lat="46.13744" lon="6.45209">
        <ele>585.8</ele>
        <time>2022-02-05T14:33:11Z</time>
      </trkpt>
      <trkpt lat="46.13739" lon="6.45195">
        <ele>586</ele>
        <time>2022-02-05T14:33:14Z</time>
      </trkpt>
      <trkpt lat="46.13724" lon="6.45153">
        <ele>586.6</ele>
        <time>2022-02-05T14:33:19Z</time>
      </trkpt>
      <trkpt lat="46.13715" lon="6.45125">
        <ele>587.8</ele>
        <time>2022-02-05T14:33:23Z</time>
      </trkpt>
      <trkpt lat="46.13702" lon="6.4509">
        <ele>588.6</ele>
        <time>2022-02-05T14:33:29Z</time>
      </trkpt>
      <trkpt lat="46.13693" lon="6.45062">
        <ele>589.4</ele>
        <time>2022-02-05T14:33:33Z</time>
      </trkpt>
      <trkpt lat="46.13691" lon="6.45055">
        <ele>589.4</ele>
        <time>2022-02-05T14:33:34Z</time>
      </trkpt>
      <trkpt lat="46.13673" lon="6.45001">
        <ele>590.6</ele>
        <time>2022-02-05T14:33:42Z</time>
      </trkpt>
      <trkpt lat="46.13662" lon="6.44967">
        <ele>591.4</ele>
        <time>2022-02-05T14:33:47Z</time>
      </trkpt>
      <trkpt lat="46.13648" lon="6.44929">
        <ele>592.4</ele>
        <time>2022-02-05T14:33:52Z</time>
      </trkpt>
      <trkpt lat="46.13634" lon="6.44887">
        <ele>594</ele>
        <time>2022-02-05T14:33:59Z</time>
      </trkpt>
      <trkpt lat="46.13625" lon="6.44862">
        <ele>594.6</ele>
        <time>2022-02-05T14:34:04Z</time>
      </trkpt>
      <trkpt lat="46.13621" lon="6.4485">
        <ele>595</ele>
        <time>2022-02-05T14:34:06Z</time>
      </trkpt>
      <trkpt lat="46.13613" lon="6.44826">
        <ele>595.8</ele>
        <time>2022-02-05T14:34:10Z</time>
      </trkpt>
      <trkpt lat="46.13603" lon="6.44796">
        <ele>596.6</ele>
        <time>2022-02-05T14:34:14Z</time>
      </trkpt>
      <trkpt lat="46.13601" lon="6.44789">
        <ele>596.8</ele>
        <time>2022-02-05T14:34:16Z</time>
      </trkpt>
      <trkpt lat="46.13596" lon="6.44769">
        <ele>597.2</ele>
        <time>2022-02-05T14:34:18Z</time>
      </trkpt>
      <trkpt lat="46.13589" lon="6.44737">
        <ele>598.2</ele>
        <time>2022-02-05T14:34:24Z</time>
      </trkpt>
      <trkpt lat="46.13588" lon="6.4473">
        <ele>598.2</ele>
        <time>2022-02-05T14:34:25Z</time>
      </trkpt>
      <trkpt lat="46.13576" lon="6.44676">
        <ele>599.6</ele>
        <time>2022-02-05T14:34:32Z</time>
      </trkpt>
      <trkpt lat="46.13575" lon="6.4467">
        <ele>600</ele>
        <time>2022-02-05T14:34:34Z</time>
      </trkpt>
      <trkpt lat="46.13571" lon="6.4465">
        <ele>600.4</ele>
        <time>2022-02-05T14:34:37Z</time>
      </trkpt>
      <trkpt lat="46.13562" lon="6.44604">
        <ele>601.6</ele>
        <time>2022-02-05T14:34:43Z</time>
      </trkpt>
      <trkpt lat="46.13561" lon="6.44598">
        <ele>601.6</ele>
        <time>2022-02-05T14:34:44Z</time>
      </trkpt>
      <trkpt lat="46.1355" lon="6.44547">
        <ele>603</ele>
        <time>2022-02-05T14:34:52Z</time>
      </trkpt>
      <trkpt lat="46.13549" lon="6.4454">
        <ele>603.2</ele>
        <time>2022-02-05T14:34:53Z</time>
      </trkpt>
      <trkpt lat="46.13543" lon="6.44514">
        <ele>603.6</ele>
        <time>2022-02-05T14:34:57Z</time>
      </trkpt>
      <trkpt lat="46.13534" lon="6.44467">
        <ele>604.8</ele>
        <time>2022-02-05T14:35:04Z</time>
      </trkpt>
      <trkpt lat="46.13524" lon="6.44421">
        <ele>606</ele>
        <time>2022-02-05T14:35:11Z</time>
      </trkpt>
      <trkpt lat="46.13518" lon="6.44388">
        <ele>606.8</ele>
        <time>2022-02-05T14:35:16Z</time>
      </trkpt>
      <trkpt lat="46.13516" lon="6.44382">
        <ele>606.8</ele>
        <time>2022-02-05T14:35:17Z</time>
      </trkpt>
      <trkpt lat="46.1351" lon="6.44335">
        <ele>607.8</ele>
        <time>2022-02-05T14:35:24Z</time>
      </trkpt>
      <trkpt lat="46.13509" lon="6.44328">
        <ele>608.2</ele>
        <time>2022-02-05T14:35:25Z</time>
      </trkpt>
      <trkpt lat="46.13509" lon="6.44307">
        <ele>608.6</ele>
        <time>2022-02-05T14:35:28Z</time>
      </trkpt>
      <trkpt lat="46.13511" lon="6.44286">
        <ele>609</ele>
        <time>2022-02-05T14:35:32Z</time>
      </trkpt>
      <trkpt lat="46.13515" lon="6.44265">
        <ele>609.4</ele>
        <time>2022-02-05T14:35:34Z</time>
      </trkpt>
      <trkpt lat="46.13521" lon="6.4422">
        <ele>610.2</ele>
        <time>2022-02-05T14:35:40Z</time>
      </trkpt>
      <trkpt lat="46.13529" lon="6.44174">
        <ele>610.8</ele>
        <time>2022-02-05T14:35:46Z</time>
      </trkpt>
      <trkpt lat="46.13532" lon="6.44158">
        <ele>611.2</ele>
        <time>2022-02-05T14:35:48Z</time>
      </trkpt>
      <trkpt lat="46.13548" lon="6.44078">
        <ele>611.6</ele>
        <time>2022-02-05T14:35:58Z</time>
      </trkpt>
      <trkpt lat="46.13548" lon="6.44078">
        <ele>611.8</ele>
        <time>2022-02-05T14:35:59Z</time>
      </trkpt>
      <trkpt lat="46.13554" lon="6.44046">
        <ele>612.2</ele>
        <time>2022-02-05T14:36:02Z</time>
      </trkpt>
      <trkpt lat="46.13563" lon="6.43991">
        <ele>612.4</ele>
        <time>2022-02-05T14:36:09Z</time>
      </trkpt>
      <trkpt lat="46.13571" lon="6.43942">
        <ele>613</ele>
        <time>2022-02-05T14:36:15Z</time>
      </trkpt>
      <trkpt lat="46.13576" lon="6.43919">
        <ele>613.6</ele>
        <time>2022-02-05T14:36:18Z</time>
      </trkpt>
      <trkpt lat="46.1358" lon="6.43896">
        <ele>613.8</ele>
        <time>2022-02-05T14:36:21Z</time>
      </trkpt>
      <trkpt lat="46.13586" lon="6.43872">
        <ele>614.4</ele>
        <time>2022-02-05T14:36:26Z</time>
      </trkpt>
      <trkpt lat="46.13586" lon="6.43865">
        <ele>614.8</ele>
        <time>2022-02-05T14:36:29Z</time>
      </trkpt>
      <trkpt lat="46.13585" lon="6.43863">
        <ele>616.6</ele>
        <time>2022-02-05T14:36:44Z</time>
      </trkpt>
      <trkpt lat="46.13584" lon="6.43861">
        <ele>616.6</ele>
        <time>2022-02-05T14:36:45Z</time>
      </trkpt>
      <trkpt lat="46.13572" lon="6.43843">
        <ele>616.6</ele>
        <time>2022-02-05T14:36:51Z</time>
      </trkpt>
      <trkpt lat="46.13567" lon="6.43819">
        <ele>616.8</ele>
        <time>2022-02-05T14:36:57Z</time>
      </trkpt>
      <trkpt lat="46.13564" lon="6.43778">
        <ele>617.2</ele>
        <time>2022-02-05T14:37:03Z</time>
      </trkpt>
      <trkpt lat="46.1356" lon="6.4373">
        <ele>617</ele>
        <time>2022-02-05T14:37:09Z</time>
      </trkpt>
      <trkpt lat="46.13558" lon="6.43695">
        <ele>616.8</ele>
        <time>2022-02-05T14:37:13Z</time>
      </trkpt>
      <trkpt lat="46.1356" lon="6.43679">
        <ele>616.6</ele>
        <time>2022-02-05T14:37:15Z</time>
      </trkpt>
      <trkpt lat="46.13564" lon="6.43664">
        <ele>616.6</ele>
        <time>2022-02-05T14:37:18Z</time>
      </trkpt>
      <trkpt lat="46.13569" lon="6.43653">
        <ele>616.4</ele>
        <time>2022-02-05T14:37:19Z</time>
      </trkpt>
      <trkpt lat="46.13571" lon="6.43649">
        <ele>616.6</ele>
        <time>2022-02-05T14:37:20Z</time>
      </trkpt>
      <trkpt lat="46.13578" lon="6.43639">
        <ele>616.4</ele>
        <time>2022-02-05T14:37:23Z</time>
      </trkpt>
      <trkpt lat="46.1358" lon="6.43636">
        <ele>616.6</ele>
        <time>2022-02-05T14:37:24Z</time>
      </trkpt>
      <trkpt lat="46.13585" lon="6.43631">
        <ele>617</ele>
        <time>2022-02-05T14:37:26Z</time>
      </trkpt>
      <trkpt lat="46.13592" lon="6.43623">
        <ele>618.6</ele>
        <time>2022-02-05T14:37:29Z</time>
      </trkpt>
      <trkpt lat="46.13595" lon="6.4362">
        <ele>619</ele>
        <time>2022-02-05T14:37:30Z</time>
      </trkpt>
      <trkpt lat="46.13599" lon="6.43615">
        <ele>620</ele>
        <time>2022-02-05T14:37:32Z</time>
      </trkpt>
      <trkpt lat="46.13605" lon="6.43608">
        <ele>621.2</ele>
        <time>2022-02-05T14:37:35Z</time>
      </trkpt>
      <trkpt lat="46.13607" lon="6.43606">
        <ele>621.6</ele>
        <time>2022-02-05T14:37:36Z</time>
      </trkpt>
      <trkpt lat="46.13612" lon="6.43598">
        <ele>623</ele>
        <time>2022-02-05T14:37:39Z</time>
      </trkpt>
      <trkpt lat="46.13619" lon="6.43585">
        <ele>624.6</ele>
        <time>2022-02-05T14:37:43Z</time>
      </trkpt>
      <trkpt lat="46.13621" lon="6.43578">
        <ele>624.8</ele>
        <time>2022-02-05T14:37:45Z</time>
      </trkpt>
      <trkpt lat="46.13623" lon="6.43563">
        <ele>626</ele>
        <time>2022-02-05T14:37:49Z</time>
      </trkpt>
      <trkpt lat="46.13623" lon="6.43563">
        <ele>626.4</ele>
        <time>2022-02-05T14:37:50Z</time>
      </trkpt>
      <trkpt lat="46.13622" lon="6.43546">
        <ele>626.8</ele>
        <time>2022-02-05T14:37:53Z</time>
      </trkpt>
      <trkpt lat="46.1362" lon="6.43534">
        <ele>627.8</ele>
        <time>2022-02-05T14:37:56Z</time>
      </trkpt>
      <trkpt lat="46.13611" lon="6.43512">
        <ele>630</ele>
        <time>2022-02-05T14:38:02Z</time>
      </trkpt>
      <trkpt lat="46.13609" lon="6.43509">
        <ele>630.2</ele>
        <time>2022-02-05T14:38:03Z</time>
      </trkpt>
      <trkpt lat="46.13603" lon="6.435">
        <ele>630.8</ele>
        <time>2022-02-05T14:38:06Z</time>
      </trkpt>
      <trkpt lat="46.13591" lon="6.43486">
        <ele>631.2</ele>
        <time>2022-02-05T14:38:11Z</time>
      </trkpt>
      <trkpt lat="46.13588" lon="6.43484">
        <ele>631.4</ele>
        <time>2022-02-05T14:38:12Z</time>
      </trkpt>
      <trkpt lat="46.13574" lon="6.43467">
        <ele>632.8</ele>
        <time>2022-02-05T14:38:18Z</time>
      </trkpt>
      <trkpt lat="46.13565" lon="6.43456">
        <ele>633.8</ele>
        <time>2022-02-05T14:38:22Z</time>
      </trkpt>
      <trkpt lat="46.13563" lon="6.43453">
        <ele>634</ele>
        <time>2022-02-05T14:38:23Z</time>
      </trkpt>
      <trkpt lat="46.13548" lon="6.43438">
        <ele>635.2</ele>
        <time>2022-02-05T14:38:30Z</time>
      </trkpt>
      <trkpt lat="46.13541" lon="6.43431">
        <ele>635.8</ele>
        <time>2022-02-05T14:38:32Z</time>
      </trkpt>
      <trkpt lat="46.13537" lon="6.43425">
        <ele>636</ele>
        <time>2022-02-05T14:38:34Z</time>
      </trkpt>
      <trkpt lat="46.13531" lon="6.43411">
        <ele>636.6</ele>
        <time>2022-02-05T14:38:38Z</time>
      </trkpt>
      <trkpt lat="46.13526" lon="6.43406">
        <ele>637</ele>
        <time>2022-02-05T14:38:40Z</time>
      </trkpt>
      <trkpt lat="46.13518" lon="6.43402">
        <ele>637.8</ele>
        <time>2022-02-05T14:38:43Z</time>
      </trkpt>
      <trkpt lat="46.13515" lon="6.43402">
        <ele>638</ele>
        <time>2022-02-05T14:38:44Z</time>
      </trkpt>
      <trkpt lat="46.13509" lon="6.43401">
        <ele>638.6</ele>
        <time>2022-02-05T14:38:46Z</time>
      </trkpt>
      <trkpt lat="46.13496" lon="6.43397">
        <ele>639.2</ele>
        <time>2022-02-05T14:38:50Z</time>
      </trkpt>
      <trkpt lat="46.13493" lon="6.43397">
        <ele>639.6</ele>
        <time>2022-02-05T14:38:51Z</time>
      </trkpt>
      <trkpt lat="46.13463" lon="6.43395">
        <ele>641.2</ele>
        <time>2022-02-05T14:39:00Z</time>
      </trkpt>
      <trkpt lat="46.13451" lon="6.43397">
        <ele>641.6</ele>
        <time>2022-02-05T14:39:03Z</time>
      </trkpt>
      <trkpt lat="46.13434" lon="6.43399">
        <ele>642</ele>
        <time>2022-02-05T14:39:07Z</time>
      </trkpt>
      <trkpt lat="46.1342" lon="6.434">
        <ele>642</ele>
        <time>2022-02-05T14:39:10Z</time>
      </trkpt>
      <trkpt lat="46.13401" lon="6.434">
        <ele>642.4</ele>
        <time>2022-02-05T14:39:14Z</time>
      </trkpt>
      <trkpt lat="46.13387" lon="6.43396">
        <ele>642.6</ele>
        <time>2022-02-05T14:39:17Z</time>
      </trkpt>
      <trkpt lat="46.13369" lon="6.43385">
        <ele>642.8</ele>
        <time>2022-02-05T14:39:21Z</time>
      </trkpt>
      <trkpt lat="46.13361" lon="6.43377">
        <ele>642.8</ele>
        <time>2022-02-05T14:39:23Z</time>
      </trkpt>
      <trkpt lat="46.13357" lon="6.43372">
        <ele>643</ele>
        <time>2022-02-05T14:39:24Z</time>
      </trkpt>
      <trkpt lat="46.13339" lon="6.43345">
        <ele>643.2</ele>
        <time>2022-02-05T14:39:29Z</time>
      </trkpt>
      <trkpt lat="46.13326" lon="6.43311">
        <ele>643.4</ele>
        <time>2022-02-05T14:39:34Z</time>
      </trkpt>
      <trkpt lat="46.13324" lon="6.43303">
        <ele>643.6</ele>
        <time>2022-02-05T14:39:35Z</time>
      </trkpt>
      <trkpt lat="46.13316" lon="6.43245">
        <ele>644.2</ele>
        <time>2022-02-05T14:39:42Z</time>
      </trkpt>
      <trkpt lat="46.13314" lon="6.43183">
        <ele>644.2</ele>
        <time>2022-02-05T14:39:49Z</time>
      </trkpt>
      <trkpt lat="46.13316" lon="6.43155">
        <ele>644.2</ele>
        <time>2022-02-05T14:39:52Z</time>
      </trkpt>
      <trkpt lat="46.13318" lon="6.43136">
        <ele>644</ele>
        <time>2022-02-05T14:39:54Z</time>
      </trkpt>
      <trkpt lat="46.13321" lon="6.43127">
        <ele>644</ele>
        <time>2022-02-05T14:39:55Z</time>
      </trkpt>
      <trkpt lat="46.13324" lon="6.43118">
        <ele>643.8</ele>
        <time>2022-02-05T14:39:56Z</time>
      </trkpt>
      <trkpt lat="46.1333" lon="6.43099">
        <ele>643.8</ele>
        <time>2022-02-05T14:39:58Z</time>
      </trkpt>
      <trkpt lat="46.13332" lon="6.43089">
        <ele>643.8</ele>
        <time>2022-02-05T14:39:59Z</time>
      </trkpt>
      <trkpt lat="46.13333" lon="6.43078">
        <ele>643.6</ele>
        <time>2022-02-05T14:40:00Z</time>
      </trkpt>
      <trkpt lat="46.13335" lon="6.43057">
        <ele>642.8</ele>
        <time>2022-02-05T14:40:02Z</time>
      </trkpt>
      <trkpt lat="46.13335" lon="6.43046">
        <ele>642.4</ele>
        <time>2022-02-05T14:40:03Z</time>
      </trkpt>
      <trkpt lat="46.13332" lon="6.43036">
        <ele>642</ele>
        <time>2022-02-05T14:40:04Z</time>
      </trkpt>
      <trkpt lat="46.13319" lon="6.43008">
        <ele>641</ele>
        <time>2022-02-05T14:40:07Z</time>
      </trkpt>
      <trkpt lat="46.13311" lon="6.42974">
        <ele>640</ele>
        <time>2022-02-05T14:40:10Z</time>
      </trkpt>
      <trkpt lat="46.13309" lon="6.42962">
        <ele>639.6</ele>
        <time>2022-02-05T14:40:11Z</time>
      </trkpt>
      <trkpt lat="46.13306" lon="6.4295">
        <ele>639.2</ele>
        <time>2022-02-05T14:40:12Z</time>
      </trkpt>
      <trkpt lat="46.13304" lon="6.42938">
        <ele>638.8</ele>
        <time>2022-02-05T14:40:14Z</time>
      </trkpt>
      <trkpt lat="46.13294" lon="6.42889">
        <ele>637.6</ele>
        <time>2022-02-05T14:40:17Z</time>
      </trkpt>
      <trkpt lat="46.13292" lon="6.42877">
        <ele>637</ele>
        <time>2022-02-05T14:40:18Z</time>
      </trkpt>
      <trkpt lat="46.1328" lon="6.42816">
        <ele>634</ele>
        <time>2022-02-05T14:40:23Z</time>
      </trkpt>
      <trkpt lat="46.13278" lon="6.42791">
        <ele>633.2</ele>
        <time>2022-02-05T14:40:25Z</time>
      </trkpt>
      <trkpt lat="46.13275" lon="6.42754">
        <ele>631.8</ele>
        <time>2022-02-05T14:40:28Z</time>
      </trkpt>
      <trkpt lat="46.1327" lon="6.42707">
        <ele>630.6</ele>
        <time>2022-02-05T14:40:32Z</time>
      </trkpt>
      <trkpt lat="46.13268" lon="6.42663">
        <ele>629.6</ele>
        <time>2022-02-05T14:40:36Z</time>
      </trkpt>
      <trkpt lat="46.13267" lon="6.42641">
        <ele>629.4</ele>
        <time>2022-02-05T14:40:38Z</time>
      </trkpt>
      <trkpt lat="46.13266" lon="6.42598">
        <ele>629.2</ele>
        <time>2022-02-05T14:40:42Z</time>
      </trkpt>
      <trkpt lat="46.13262" lon="6.42516">
        <ele>628.8</ele>
        <time>2022-02-05T14:40:50Z</time>
      </trkpt>
      <trkpt lat="46.13261" lon="6.42506">
        <ele>628.2</ele>
        <time>2022-02-05T14:40:51Z</time>
      </trkpt>
      <trkpt lat="46.13256" lon="6.42439">
        <ele>627.2</ele>
        <time>2022-02-05T14:40:58Z</time>
      </trkpt>
      <trkpt lat="46.13253" lon="6.42432">
        <ele>627.2</ele>
        <time>2022-02-05T14:40:59Z</time>
      </trkpt>
      <trkpt lat="46.1325" lon="6.42417">
        <ele>627.2</ele>
        <time>2022-02-05T14:41:01Z</time>
      </trkpt>
      <trkpt lat="46.13248" lon="6.42414">
        <ele>627.2</ele>
        <time>2022-02-05T14:41:02Z</time>
      </trkpt>
      <trkpt lat="46.13247" lon="6.42411">
        <ele>627.2</ele>
        <time>2022-02-05T14:41:03Z</time>
      </trkpt>
      <trkpt lat="46.13239" lon="6.4241">
        <ele>627.2</ele>
        <time>2022-02-05T14:41:04Z</time>
      </trkpt>
      <trkpt lat="46.13218" lon="6.42419">
        <ele>627.4</ele>
        <time>2022-02-05T14:41:10Z</time>
      </trkpt>
      <trkpt lat="46.13194" lon="6.42424">
        <ele>630.6</ele>
        <time>2022-02-05T14:41:17Z</time>
      </trkpt>
      <trkpt lat="46.13159" lon="6.42434">
        <ele>630.8</ele>
        <time>2022-02-05T14:41:24Z</time>
      </trkpt>
      <trkpt lat="46.13116" lon="6.42445">
        <ele>630.8</ele>
        <time>2022-02-05T14:41:32Z</time>
      </trkpt>
      <trkpt lat="46.1308" lon="6.42453">
        <ele>630.6</ele>
        <time>2022-02-05T14:41:38Z</time>
      </trkpt>
      <trkpt lat="46.13025" lon="6.42465">
        <ele>630.6</ele>
        <time>2022-02-05T14:41:47Z</time>
      </trkpt>
      <trkpt lat="46.13019" lon="6.42466">
        <ele>630.6</ele>
        <time>2022-02-05T14:41:48Z</time>
      </trkpt>
      <trkpt lat="46.12982" lon="6.42475">
        <ele>630.8</ele>
        <time>2022-02-05T14:41:54Z</time>
      </trkpt>
      <trkpt lat="46.12946" lon="6.42483">
        <ele>631</ele>
        <time>2022-02-05T14:42:00Z</time>
      </trkpt>
      <trkpt lat="46.12935" lon="6.42485">
        <ele>631.2</ele>
        <time>2022-02-05T14:42:02Z</time>
      </trkpt>
      <trkpt lat="46.12913" lon="6.4249">
        <ele>631.8</ele>
        <time>2022-02-05T14:42:06Z</time>
      </trkpt>
      <trkpt lat="46.12904" lon="6.42492">
        <ele>631.8</ele>
        <time>2022-02-05T14:42:08Z</time>
      </trkpt>
      <trkpt lat="46.12899" lon="6.42494">
        <ele>632</ele>
        <time>2022-02-05T14:42:09Z</time>
      </trkpt>
      <trkpt lat="46.12872" lon="6.42495">
        <ele>633.2</ele>
        <time>2022-02-05T14:42:15Z</time>
      </trkpt>
      <trkpt lat="46.12864" lon="6.42492">
        <ele>633.8</ele>
        <time>2022-02-05T14:42:17Z</time>
      </trkpt>
      <trkpt lat="46.12856" lon="6.42486">
        <ele>634.4</ele>
        <time>2022-02-05T14:42:19Z</time>
      </trkpt>
      <trkpt lat="46.12853" lon="6.42482">
        <ele>634.8</ele>
        <time>2022-02-05T14:42:20Z</time>
      </trkpt>
      <trkpt lat="46.1285" lon="6.42478">
        <ele>635.2</ele>
        <time>2022-02-05T14:42:21Z</time>
      </trkpt>
      <trkpt lat="46.12839" lon="6.42458">
        <ele>636</ele>
        <time>2022-02-05T14:42:25Z</time>
      </trkpt>
      <trkpt lat="46.12831" lon="6.42442">
        <ele>636.4</ele>
        <time>2022-02-05T14:42:28Z</time>
      </trkpt>
      <trkpt lat="46.12813" lon="6.42402">
        <ele>636.6</ele>
        <time>2022-02-05T14:42:35Z</time>
      </trkpt>
      <trkpt lat="46.12811" lon="6.42397">
        <ele>636.6</ele>
        <time>2022-02-05T14:42:36Z</time>
      </trkpt>
      <trkpt lat="46.12791" lon="6.42354">
        <ele>637.8</ele>
        <time>2022-02-05T14:42:44Z</time>
      </trkpt>
      <trkpt lat="46.12789" lon="6.42349">
        <ele>638</ele>
        <time>2022-02-05T14:42:45Z</time>
      </trkpt>
      <trkpt lat="46.12784" lon="6.42339">
        <ele>638.2</ele>
        <time>2022-02-05T14:42:47Z</time>
      </trkpt>
      <trkpt lat="46.1277" lon="6.42308">
        <ele>639.2</ele>
        <time>2022-02-05T14:42:53Z</time>
      </trkpt>
      <trkpt lat="46.1276" lon="6.42289">
        <ele>640.8</ele>
        <time>2022-02-05T14:42:57Z</time>
      </trkpt>
      <trkpt lat="46.1275" lon="6.42266">
        <ele>642</ele>
        <time>2022-02-05T14:43:02Z</time>
      </trkpt>
      <trkpt lat="46.12745" lon="6.42257">
        <ele>642.2</ele>
        <time>2022-02-05T14:43:04Z</time>
      </trkpt>
      <trkpt lat="46.12736" lon="6.4224">
        <ele>643.4</ele>
        <time>2022-02-05T14:43:08Z</time>
      </trkpt>
      <trkpt lat="46.12734" lon="6.42236">
        <ele>643.6</ele>
        <time>2022-02-05T14:43:09Z</time>
      </trkpt>
      <trkpt lat="46.12732" lon="6.42232">
        <ele>643.8</ele>
        <time>2022-02-05T14:43:10Z</time>
      </trkpt>
      <trkpt lat="46.12725" lon="6.4222">
        <ele>644.2</ele>
        <time>2022-02-05T14:43:13Z</time>
      </trkpt>
      <trkpt lat="46.12717" lon="6.42204">
        <ele>645.4</ele>
        <time>2022-02-05T14:43:17Z</time>
      </trkpt>
      <trkpt lat="46.12713" lon="6.42196">
        <ele>646</ele>
        <time>2022-02-05T14:43:19Z</time>
      </trkpt>
      <trkpt lat="46.12704" lon="6.42181">
        <ele>646.8</ele>
        <time>2022-02-05T14:43:23Z</time>
      </trkpt>
      <trkpt lat="46.127" lon="6.42174">
        <ele>647.2</ele>
        <time>2022-02-05T14:43:25Z</time>
      </trkpt>
      <trkpt lat="46.12692" lon="6.42159">
        <ele>647.8</ele>
        <time>2022-02-05T14:43:29Z</time>
      </trkpt>
      <trkpt lat="46.12682" lon="6.4214">
        <ele>649</ele>
        <time>2022-02-05T14:43:34Z</time>
      </trkpt>
      <trkpt lat="46.1267" lon="6.42118">
        <ele>650.6</ele>
        <time>2022-02-05T14:43:40Z</time>
      </trkpt>
      <trkpt lat="46.12664" lon="6.42107">
        <ele>651.4</ele>
        <time>2022-02-05T14:43:43Z</time>
      </trkpt>
      <trkpt lat="46.1266" lon="6.42099">
        <ele>651.6</ele>
        <time>2022-02-05T14:43:45Z</time>
      </trkpt>
      <trkpt lat="46.12652" lon="6.42085">
        <ele>652.6</ele>
        <time>2022-02-05T14:43:49Z</time>
      </trkpt>
      <trkpt lat="46.12646" lon="6.42074">
        <ele>653.4</ele>
        <time>2022-02-05T14:43:52Z</time>
      </trkpt>
      <trkpt lat="46.12642" lon="6.42067">
        <ele>653.6</ele>
        <time>2022-02-05T14:43:54Z</time>
      </trkpt>
      <trkpt lat="46.12632" lon="6.42048">
        <ele>655</ele>
        <time>2022-02-05T14:43:59Z</time>
      </trkpt>
      <trkpt lat="46.12628" lon="6.42041">
        <ele>655.4</ele>
        <time>2022-02-05T14:44:01Z</time>
      </trkpt>
      <trkpt lat="46.12622" lon="6.4203">
        <ele>656.2</ele>
        <time>2022-02-05T14:44:04Z</time>
      </trkpt>
      <trkpt lat="46.12613" lon="6.42012">
        <ele>657.2</ele>
        <time>2022-02-05T14:44:09Z</time>
      </trkpt>
      <trkpt lat="46.12611" lon="6.42009">
        <ele>657.4</ele>
        <time>2022-02-05T14:44:10Z</time>
      </trkpt>
      <trkpt lat="46.12605" lon="6.41998">
        <ele>658.2</ele>
        <time>2022-02-05T14:44:13Z</time>
      </trkpt>
      <trkpt lat="46.12595" lon="6.41981">
        <ele>659.2</ele>
        <time>2022-02-05T14:44:18Z</time>
      </trkpt>
      <trkpt lat="46.12588" lon="6.41971">
        <ele>660</ele>
        <time>2022-02-05T14:44:21Z</time>
      </trkpt>
      <trkpt lat="46.12581" lon="6.41961">
        <ele>661</ele>
        <time>2022-02-05T14:44:24Z</time>
      </trkpt>
      <trkpt lat="46.12574" lon="6.41952">
        <ele>661.4</ele>
        <time>2022-02-05T14:44:27Z</time>
      </trkpt>
      <trkpt lat="46.12565" lon="6.41939">
        <ele>661.8</ele>
        <time>2022-02-05T14:44:31Z</time>
      </trkpt>
      <trkpt lat="46.12563" lon="6.41935">
        <ele>661.8</ele>
        <time>2022-02-05T14:44:32Z</time>
      </trkpt>
      <trkpt lat="46.12545" lon="6.41909">
        <ele>664.4</ele>
        <time>2022-02-05T14:44:40Z</time>
      </trkpt>
      <trkpt lat="46.12543" lon="6.41906">
        <ele>664.6</ele>
        <time>2022-02-05T14:44:41Z</time>
      </trkpt>
      <trkpt lat="46.12534" lon="6.41893">
        <ele>665.2</ele>
        <time>2022-02-05T14:44:45Z</time>
      </trkpt>
      <trkpt lat="46.12522" lon="6.41875">
        <ele>666</ele>
        <time>2022-02-05T14:44:50Z</time>
      </trkpt>
      <trkpt lat="46.12519" lon="6.41872">
        <ele>666</ele>
        <time>2022-02-05T14:44:51Z</time>
      </trkpt>
      <trkpt lat="46.12507" lon="6.41855">
        <ele>667.2</ele>
        <time>2022-02-05T14:44:56Z</time>
      </trkpt>
      <trkpt lat="46.12496" lon="6.41837">
        <ele>668.6</ele>
        <time>2022-02-05T14:45:01Z</time>
      </trkpt>
      <trkpt lat="46.12493" lon="6.41833">
        <ele>669</ele>
        <time>2022-02-05T14:45:02Z</time>
      </trkpt>
      <trkpt lat="46.12473" lon="6.41798">
        <ele>670.8</ele>
        <time>2022-02-05T14:45:11Z</time>
      </trkpt>
      <trkpt lat="46.12471" lon="6.41794">
        <ele>670.8</ele>
        <time>2022-02-05T14:45:12Z</time>
      </trkpt>
      <trkpt lat="46.12463" lon="6.41759">
        <ele>671.6</ele>
        <time>2022-02-05T14:45:19Z</time>
      </trkpt>
      <trkpt lat="46.12451" lon="6.41709">
        <ele>672.2</ele>
        <time>2022-02-05T14:45:28Z</time>
      </trkpt>
      <trkpt lat="46.12449" lon="6.41698">
        <ele>672.2</ele>
        <time>2022-02-05T14:45:30Z</time>
      </trkpt>
      <trkpt lat="46.12438" lon="6.41657">
        <ele>672.8</ele>
        <time>2022-02-05T14:45:37Z</time>
      </trkpt>
      <trkpt lat="46.12432" lon="6.41632">
        <ele>673</ele>
        <time>2022-02-05T14:45:41Z</time>
      </trkpt>
      <trkpt lat="46.12423" lon="6.41604">
        <ele>673.2</ele>
        <time>2022-02-05T14:45:46Z</time>
      </trkpt>
      <trkpt lat="46.12409" lon="6.41571">
        <ele>674.4</ele>
        <time>2022-02-05T14:45:52Z</time>
      </trkpt>
      <trkpt lat="46.12405" lon="6.4156">
        <ele>674.6</ele>
        <time>2022-02-05T14:45:54Z</time>
      </trkpt>
      <trkpt lat="46.12398" lon="6.41545">
        <ele>674.8</ele>
        <time>2022-02-05T14:45:57Z</time>
      </trkpt>
      <trkpt lat="46.12382" lon="6.41509">
        <ele>676.4</ele>
        <time>2022-02-05T14:46:04Z</time>
      </trkpt>
      <trkpt lat="46.1238" lon="6.41504">
        <ele>676.4</ele>
        <time>2022-02-05T14:46:05Z</time>
      </trkpt>
      <trkpt lat="46.12361" lon="6.41464">
        <ele>678</ele>
        <time>2022-02-05T14:46:13Z</time>
      </trkpt>
      <trkpt lat="46.12359" lon="6.41459">
        <ele>678.4</ele>
        <time>2022-02-05T14:46:14Z</time>
      </trkpt>
      <trkpt lat="46.12344" lon="6.4144">
        <ele>679.2</ele>
        <time>2022-02-05T14:46:19Z</time>
      </trkpt>
      <trkpt lat="46.12338" lon="6.41433">
        <ele>679.4</ele>
        <time>2022-02-05T14:46:21Z</time>
      </trkpt>
      <trkpt lat="46.12329" lon="6.41422">
        <ele>680.4</ele>
        <time>2022-02-05T14:46:24Z</time>
      </trkpt>
      <trkpt lat="46.12314" lon="6.41397">
        <ele>681.2</ele>
        <time>2022-02-05T14:46:30Z</time>
      </trkpt>
      <trkpt lat="46.12311" lon="6.41393">
        <ele>681.6</ele>
        <time>2022-02-05T14:46:31Z</time>
      </trkpt>
      <trkpt lat="46.12294" lon="6.41365">
        <ele>682.8</ele>
        <time>2022-02-05T14:46:38Z</time>
      </trkpt>
      <trkpt lat="46.12291" lon="6.41361">
        <ele>682.8</ele>
        <time>2022-02-05T14:46:39Z</time>
      </trkpt>
      <trkpt lat="46.12281" lon="6.41345">
        <ele>683.6</ele>
        <time>2022-02-05T14:46:43Z</time>
      </trkpt>
      <trkpt lat="46.12273" lon="6.41326">
        <ele>684.6</ele>
        <time>2022-02-05T14:46:47Z</time>
      </trkpt>
      <trkpt lat="46.12265" lon="6.41285">
        <ele>685.8</ele>
        <time>2022-02-05T14:46:54Z</time>
      </trkpt>
      <trkpt lat="46.12261" lon="6.41242">
        <ele>686.2</ele>
        <time>2022-02-05T14:47:00Z</time>
      </trkpt>
      <trkpt lat="46.1226" lon="6.41229">
        <ele>686.2</ele>
        <time>2022-02-05T14:47:02Z</time>
      </trkpt>
      <trkpt lat="46.1226" lon="6.41204">
        <ele>686.4</ele>
        <time>2022-02-05T14:47:06Z</time>
      </trkpt>
      <trkpt lat="46.12261" lon="6.41198">
        <ele>686.4</ele>
        <time>2022-02-05T14:47:07Z</time>
      </trkpt>
      <trkpt lat="46.12261" lon="6.41177">
        <ele>686.8</ele>
        <time>2022-02-05T14:47:11Z</time>
      </trkpt>
      <trkpt lat="46.12261" lon="6.41156">
        <ele>688</ele>
        <time>2022-02-05T14:47:15Z</time>
      </trkpt>
      <trkpt lat="46.12261" lon="6.41146">
        <ele>688.4</ele>
        <time>2022-02-05T14:47:17Z</time>
      </trkpt>
      <trkpt lat="46.12263" lon="6.41116">
        <ele>690.2</ele>
        <time>2022-02-05T14:47:23Z</time>
      </trkpt>
      <trkpt lat="46.12263" lon="6.41091">
        <ele>691.2</ele>
        <time>2022-02-05T14:47:28Z</time>
      </trkpt>
      <trkpt lat="46.12263" lon="6.41073">
        <ele>691.8</ele>
        <time>2022-02-05T14:47:32Z</time>
      </trkpt>
      <trkpt lat="46.12263" lon="6.41068">
        <ele>692.2</ele>
        <time>2022-02-05T14:47:33Z</time>
      </trkpt>
      <trkpt lat="46.12264" lon="6.41031">
        <ele>694</ele>
        <time>2022-02-05T14:47:41Z</time>
      </trkpt>
      <trkpt lat="46.12265" lon="6.41022">
        <ele>694.4</ele>
        <time>2022-02-05T14:47:43Z</time>
      </trkpt>
      <trkpt lat="46.12269" lon="6.40999">
        <ele>695.2</ele>
        <time>2022-02-05T14:47:48Z</time>
      </trkpt>
      <trkpt lat="46.12271" lon="6.40986">
        <ele>696</ele>
        <time>2022-02-05T14:47:51Z</time>
      </trkpt>
      <trkpt lat="46.12274" lon="6.40977">
        <ele>696.6</ele>
        <time>2022-02-05T14:47:53Z</time>
      </trkpt>
      <trkpt lat="46.12282" lon="6.40945">
        <ele>697.4</ele>
        <time>2022-02-05T14:48:00Z</time>
      </trkpt>
      <trkpt lat="46.12283" lon="6.4094">
        <ele>697.4</ele>
        <time>2022-02-05T14:48:01Z</time>
      </trkpt>
      <trkpt lat="46.12285" lon="6.4092">
        <ele>698.4</ele>
        <time>2022-02-05T14:48:05Z</time>
      </trkpt>
      <trkpt lat="46.12287" lon="6.40896">
        <ele>699.2</ele>
        <time>2022-02-05T14:48:10Z</time>
      </trkpt>
      <trkpt lat="46.12287" lon="6.40891">
        <ele>699.6</ele>
        <time>2022-02-05T14:48:11Z</time>
      </trkpt>
      <trkpt lat="46.1229" lon="6.40847">
        <ele>701.6</ele>
        <time>2022-02-05T14:48:20Z</time>
      </trkpt>
      <trkpt lat="46.1229" lon="6.40823">
        <ele>702</ele>
        <time>2022-02-05T14:48:25Z</time>
      </trkpt>
      <trkpt lat="46.12287" lon="6.40815">
        <ele>702.4</ele>
        <time>2022-02-05T14:48:27Z</time>
      </trkpt>
      <trkpt lat="46.12282" lon="6.40807">
        <ele>702.8</ele>
        <time>2022-02-05T14:48:29Z</time>
      </trkpt>
      <trkpt lat="46.12272" lon="6.40797">
        <ele>703.6</ele>
        <time>2022-02-05T14:48:33Z</time>
      </trkpt>
      <trkpt lat="46.12269" lon="6.40795">
        <ele>704</ele>
        <time>2022-02-05T14:48:34Z</time>
      </trkpt>
      <trkpt lat="46.12256" lon="6.40793">
        <ele>705</ele>
        <time>2022-02-05T14:48:38Z</time>
      </trkpt>
      <trkpt lat="46.12253" lon="6.40793">
        <ele>705.2</ele>
        <time>2022-02-05T14:48:39Z</time>
      </trkpt>
      <trkpt lat="46.1224" lon="6.40798">
        <ele>706.4</ele>
        <time>2022-02-05T14:48:43Z</time>
      </trkpt>
      <trkpt lat="46.12235" lon="6.40801">
        <ele>707</ele>
        <time>2022-02-05T14:48:45Z</time>
      </trkpt>
      <trkpt lat="46.12226" lon="6.40804">
        <ele>707.8</ele>
        <time>2022-02-05T14:48:48Z</time>
      </trkpt>
      <trkpt lat="46.12209" lon="6.40812">
        <ele>708.8</ele>
        <time>2022-02-05T14:48:54Z</time>
      </trkpt>
      <trkpt lat="46.122" lon="6.40816">
        <ele>709.6</ele>
        <time>2022-02-05T14:48:57Z</time>
      </trkpt>
      <trkpt lat="46.12189" lon="6.40822">
        <ele>710.4</ele>
        <time>2022-02-05T14:49:01Z</time>
      </trkpt>
      <trkpt lat="46.12174" lon="6.40828">
        <ele>711</ele>
        <time>2022-02-05T14:49:06Z</time>
      </trkpt>
      <trkpt lat="46.12172" lon="6.40829">
        <ele>711.2</ele>
        <time>2022-02-05T14:49:07Z</time>
      </trkpt>
      <trkpt lat="46.1216" lon="6.40833">
        <ele>712.2</ele>
        <time>2022-02-05T14:49:11Z</time>
      </trkpt>
      <trkpt lat="46.12148" lon="6.40831">
        <ele>713.2</ele>
        <time>2022-02-05T14:49:15Z</time>
      </trkpt>
      <trkpt lat="46.12133" lon="6.40818">
        <ele>714.2</ele>
        <time>2022-02-05T14:49:20Z</time>
      </trkpt>
      <trkpt lat="46.12111" lon="6.40782">
        <ele>714.8</ele>
        <time>2022-02-05T14:49:28Z</time>
      </trkpt>
      <trkpt lat="46.12096" lon="6.40758">
        <ele>714.8</ele>
        <time>2022-02-05T14:49:33Z</time>
      </trkpt>
      <trkpt lat="46.12087" lon="6.40744">
        <ele>714.8</ele>
        <time>2022-02-05T14:49:36Z</time>
      </trkpt>
      <trkpt lat="46.12077" lon="6.40724">
        <ele>715</ele>
        <time>2022-02-05T14:49:40Z</time>
      </trkpt>
      <trkpt lat="46.12068" lon="6.40706">
        <ele>715.4</ele>
        <time>2022-02-05T14:49:44Z</time>
      </trkpt>
      <trkpt lat="46.12065" lon="6.40697">
        <ele>715.8</ele>
        <time>2022-02-05T14:49:46Z</time>
      </trkpt>
      <trkpt lat="46.12059" lon="6.40683">
        <ele>716.2</ele>
        <time>2022-02-05T14:49:49Z</time>
      </trkpt>
      <trkpt lat="46.12053" lon="6.4067">
        <ele>717</ele>
        <time>2022-02-05T14:49:52Z</time>
      </trkpt>
      <trkpt lat="46.12049" lon="6.40661">
        <ele>717.4</ele>
        <time>2022-02-05T14:49:54Z</time>
      </trkpt>
      <trkpt lat="46.1204" lon="6.4064">
        <ele>718.6</ele>
        <time>2022-02-05T14:49:59Z</time>
      </trkpt>
      <trkpt lat="46.12038" lon="6.40636">
        <ele>718.8</ele>
        <time>2022-02-05T14:50:00Z</time>
      </trkpt>
      <trkpt lat="46.12029" lon="6.40615">
        <ele>720.2</ele>
        <time>2022-02-05T14:50:05Z</time>
      </trkpt>
      <trkpt lat="46.12023" lon="6.406">
        <ele>721.2</ele>
        <time>2022-02-05T14:50:09Z</time>
      </trkpt>
      <trkpt lat="46.12021" lon="6.40596">
        <ele>721.4</ele>
        <time>2022-02-05T14:50:10Z</time>
      </trkpt>
      <trkpt lat="46.12014" lon="6.4058">
        <ele>722.6</ele>
        <time>2022-02-05T14:50:14Z</time>
      </trkpt>
      <trkpt lat="46.12007" lon="6.40564">
        <ele>723.4</ele>
        <time>2022-02-05T14:50:18Z</time>
      </trkpt>
      <trkpt lat="46.11996" lon="6.4054">
        <ele>725.2</ele>
        <time>2022-02-05T14:50:24Z</time>
      </trkpt>
      <trkpt lat="46.1199" lon="6.40528">
        <ele>726</ele>
        <time>2022-02-05T14:50:27Z</time>
      </trkpt>
      <trkpt lat="46.11976" lon="6.40512">
        <ele>727.2</ele>
        <time>2022-02-05T14:50:32Z</time>
      </trkpt>
      <trkpt lat="46.11969" lon="6.40506">
        <ele>727.4</ele>
        <time>2022-02-05T14:50:34Z</time>
      </trkpt>
      <trkpt lat="46.1196" lon="6.40503">
        <ele>727.6</ele>
        <time>2022-02-05T14:50:36Z</time>
      </trkpt>
      <trkpt lat="46.11955" lon="6.40503">
        <ele>727.6</ele>
        <time>2022-02-05T14:50:37Z</time>
      </trkpt>
      <trkpt lat="46.1195" lon="6.40504">
        <ele>727.4</ele>
        <time>2022-02-05T14:50:38Z</time>
      </trkpt>
      <trkpt lat="46.11938" lon="6.40509">
        <ele>727.4</ele>
        <time>2022-02-05T14:50:40Z</time>
      </trkpt>
      <trkpt lat="46.11932" lon="6.40513">
        <ele>727.6</ele>
        <time>2022-02-05T14:50:41Z</time>
      </trkpt>
      <trkpt lat="46.11926" lon="6.40518">
        <ele>727.6</ele>
        <time>2022-02-05T14:50:42Z</time>
      </trkpt>
      <trkpt lat="46.1192" lon="6.40523">
        <ele>727.6</ele>
        <time>2022-02-05T14:50:43Z</time>
      </trkpt>
      <trkpt lat="46.11908" lon="6.40536">
        <ele>727.4</ele>
        <time>2022-02-05T14:50:45Z</time>
      </trkpt>
      <trkpt lat="46.11901" lon="6.40542">
        <ele>727.2</ele>
        <time>2022-02-05T14:50:46Z</time>
      </trkpt>
      <trkpt lat="46.11862" lon="6.40566">
        <ele>724.2</ele>
        <time>2022-02-05T14:50:52Z</time>
      </trkpt>
      <trkpt lat="46.11849" lon="6.4057">
        <ele>723.2</ele>
        <time>2022-02-05T14:50:54Z</time>
      </trkpt>
      <trkpt lat="46.11829" lon="6.40573">
        <ele>723</ele>
        <time>2022-02-05T14:50:57Z</time>
      </trkpt>
      <trkpt lat="46.11775" lon="6.40584">
        <ele>722.8</ele>
        <time>2022-02-05T14:51:05Z</time>
      </trkpt>
      <trkpt lat="46.11727" lon="6.40607">
        <ele>722.6</ele>
        <time>2022-02-05T14:51:12Z</time>
      </trkpt>
      <trkpt lat="46.11714" lon="6.40612">
        <ele>722.6</ele>
        <time>2022-02-05T14:51:14Z</time>
      </trkpt>
      <trkpt lat="46.11703" lon="6.40608">
        <ele>722.6</ele>
        <time>2022-02-05T14:51:16Z</time>
      </trkpt>
      <trkpt lat="46.11695" lon="6.40596">
        <ele>722.4</ele>
        <time>2022-02-05T14:51:18Z</time>
      </trkpt>
      <trkpt lat="46.11694" lon="6.40588">
        <ele>722.4</ele>
        <time>2022-02-05T14:51:19Z</time>
      </trkpt>
      <trkpt lat="46.11693" lon="6.40581">
        <ele>722.4</ele>
        <time>2022-02-05T14:51:20Z</time>
      </trkpt>
      <trkpt lat="46.11696" lon="6.40567">
        <ele>722.6</ele>
        <time>2022-02-05T14:51:22Z</time>
      </trkpt>
      <trkpt lat="46.11705" lon="6.40543">
        <ele>724</ele>
        <time>2022-02-05T14:51:26Z</time>
      </trkpt>
      <trkpt lat="46.11711" lon="6.40519">
        <ele>724.6</ele>
        <time>2022-02-05T14:51:30Z</time>
      </trkpt>
      <trkpt lat="46.11712" lon="6.40513">
        <ele>725</ele>
        <time>2022-02-05T14:51:31Z</time>
      </trkpt>
      <trkpt lat="46.11712" lon="6.40501">
        <ele>725.8</ele>
        <time>2022-02-05T14:51:33Z</time>
      </trkpt>
      <trkpt lat="46.1171" lon="6.4049">
        <ele>726.4</ele>
        <time>2022-02-05T14:51:35Z</time>
      </trkpt>
      <trkpt lat="46.11707" lon="6.40481">
        <ele>727</ele>
        <time>2022-02-05T14:51:37Z</time>
      </trkpt>
      <trkpt lat="46.11699" lon="6.40464">
        <ele>727.4</ele>
        <time>2022-02-05T14:51:41Z</time>
      </trkpt>
      <trkpt lat="46.11691" lon="6.40455">
        <ele>728.4</ele>
        <time>2022-02-05T14:51:44Z</time>
      </trkpt>
      <trkpt lat="46.11682" lon="6.40451">
        <ele>729.2</ele>
        <time>2022-02-05T14:51:47Z</time>
      </trkpt>
      <trkpt lat="46.11679" lon="6.40451">
        <ele>729.6</ele>
        <time>2022-02-05T14:51:48Z</time>
      </trkpt>
      <trkpt lat="46.11668" lon="6.40453">
        <ele>730.8</ele>
        <time>2022-02-05T14:51:52Z</time>
      </trkpt>
      <trkpt lat="46.11662" lon="6.40457">
        <ele>731.4</ele>
        <time>2022-02-05T14:51:54Z</time>
      </trkpt>
      <trkpt lat="46.11656" lon="6.40464">
        <ele>732.2</ele>
        <time>2022-02-05T14:51:57Z</time>
      </trkpt>
      <trkpt lat="46.11646" lon="6.40475">
        <ele>733.6</ele>
        <time>2022-02-05T14:52:01Z</time>
      </trkpt>
      <trkpt lat="46.11642" lon="6.4048">
        <ele>734</ele>
        <time>2022-02-05T14:52:03Z</time>
      </trkpt>
      <trkpt lat="46.11635" lon="6.40487">
        <ele>734.8</ele>
        <time>2022-02-05T14:52:06Z</time>
      </trkpt>
      <trkpt lat="46.11621" lon="6.40502">
        <ele>736.4</ele>
        <time>2022-02-05T14:52:12Z</time>
      </trkpt>
      <trkpt lat="46.11617" lon="6.40507">
        <ele>736.6</ele>
        <time>2022-02-05T14:52:14Z</time>
      </trkpt>
      <trkpt lat="46.11608" lon="6.40518">
        <ele>737.2</ele>
        <time>2022-02-05T14:52:18Z</time>
      </trkpt>
      <trkpt lat="46.11596" lon="6.40535">
        <ele>738.4</ele>
        <time>2022-02-05T14:52:24Z</time>
      </trkpt>
      <trkpt lat="46.11594" lon="6.40539">
        <ele>738.8</ele>
        <time>2022-02-05T14:52:25Z</time>
      </trkpt>
      <trkpt lat="46.11586" lon="6.40556">
        <ele>740</ele>
        <time>2022-02-05T14:52:30Z</time>
      </trkpt>
      <trkpt lat="46.11581" lon="6.40571">
        <ele>740.8</ele>
        <time>2022-02-05T14:52:34Z</time>
      </trkpt>
      <trkpt lat="46.11578" lon="6.40578">
        <ele>741.2</ele>
        <time>2022-02-05T14:52:36Z</time>
      </trkpt>
      <trkpt lat="46.11567" lon="6.4059">
        <ele>742</ele>
        <time>2022-02-05T14:52:41Z</time>
      </trkpt>
      <trkpt lat="46.11553" lon="6.40592">
        <ele>743</ele>
        <time>2022-02-05T14:52:46Z</time>
      </trkpt>
      <trkpt lat="46.1155" lon="6.40591">
        <ele>743.4</ele>
        <time>2022-02-05T14:52:47Z</time>
      </trkpt>
      <trkpt lat="46.1154" lon="6.40584">
        <ele>744.2</ele>
        <time>2022-02-05T14:52:51Z</time>
      </trkpt>
      <trkpt lat="46.11538" lon="6.40581">
        <ele>744.6</ele>
        <time>2022-02-05T14:52:52Z</time>
      </trkpt>
      <trkpt lat="46.11533" lon="6.40572">
        <ele>745.2</ele>
        <time>2022-02-05T14:52:55Z</time>
      </trkpt>
      <trkpt lat="46.1153" lon="6.40561">
        <ele>746</ele>
        <time>2022-02-05T14:52:58Z</time>
      </trkpt>
      <trkpt lat="46.1153" lon="6.40557">
        <ele>746.2</ele>
        <time>2022-02-05T14:52:59Z</time>
      </trkpt>
      <trkpt lat="46.11528" lon="6.40528">
        <ele>747.8</ele>
        <time>2022-02-05T14:53:06Z</time>
      </trkpt>
      <trkpt lat="46.11525" lon="6.40517">
        <ele>748.6</ele>
        <time>2022-02-05T14:53:09Z</time>
      </trkpt>
      <trkpt lat="46.11521" lon="6.40507">
        <ele>748.8</ele>
        <time>2022-02-05T14:53:12Z</time>
      </trkpt>
      <trkpt lat="46.11509" lon="6.4049">
        <ele>750</ele>
        <time>2022-02-05T14:53:18Z</time>
      </trkpt>
      <trkpt lat="46.11502" lon="6.40483">
        <ele>751</ele>
        <time>2022-02-05T14:53:21Z</time>
      </trkpt>
      <trkpt lat="46.11497" lon="6.40478">
        <ele>751.4</ele>
        <time>2022-02-05T14:53:23Z</time>
      </trkpt>
      <trkpt lat="46.11486" lon="6.40466">
        <ele>752.2</ele>
        <time>2022-02-05T14:53:28Z</time>
      </trkpt>
      <trkpt lat="46.11478" lon="6.40459">
        <ele>752.8</ele>
        <time>2022-02-05T14:53:31Z</time>
      </trkpt>
      <trkpt lat="46.11466" lon="6.4045">
        <ele>753.8</ele>
        <time>2022-02-05T14:53:36Z</time>
      </trkpt>
      <trkpt lat="46.11463" lon="6.40449">
        <ele>753.8</ele>
        <time>2022-02-05T14:53:37Z</time>
      </trkpt>
      <trkpt lat="46.11452" lon="6.40447">
        <ele>754.4</ele>
        <time>2022-02-05T14:53:41Z</time>
      </trkpt>
      <trkpt lat="46.11441" lon="6.40444">
        <ele>755.2</ele>
        <time>2022-02-05T14:53:45Z</time>
      </trkpt>
      <trkpt lat="46.11422" lon="6.40438">
        <ele>756.8</ele>
        <time>2022-02-05T14:53:52Z</time>
      </trkpt>
      <trkpt lat="46.11417" lon="6.40435">
        <ele>757.2</ele>
        <time>2022-02-05T14:53:54Z</time>
      </trkpt>
      <trkpt lat="46.11409" lon="6.4043">
        <ele>758</ele>
        <time>2022-02-05T14:53:57Z</time>
      </trkpt>
      <trkpt lat="46.11397" lon="6.4042">
        <ele>759</ele>
        <time>2022-02-05T14:54:02Z</time>
      </trkpt>
      <trkpt lat="46.11395" lon="6.40418">
        <ele>759.2</ele>
        <time>2022-02-05T14:54:03Z</time>
      </trkpt>
      <trkpt lat="46.11388" lon="6.40402">
        <ele>760.2</ele>
        <time>2022-02-05T14:54:08Z</time>
      </trkpt>
      <trkpt lat="46.11387" lon="6.40398">
        <ele>760.4</ele>
        <time>2022-02-05T14:54:09Z</time>
      </trkpt>
      <trkpt lat="46.11389" lon="6.40383">
        <ele>761.2</ele>
        <time>2022-02-05T14:54:13Z</time>
      </trkpt>
      <trkpt lat="46.1139" lon="6.40376">
        <ele>761.4</ele>
        <time>2022-02-05T14:54:15Z</time>
      </trkpt>
      <trkpt lat="46.11391" lon="6.40368">
        <ele>762</ele>
        <time>2022-02-05T14:54:17Z</time>
      </trkpt>
      <trkpt lat="46.11394" lon="6.40353">
        <ele>762.8</ele>
        <time>2022-02-05T14:54:21Z</time>
      </trkpt>
      <trkpt lat="46.11396" lon="6.40338">
        <ele>763.8</ele>
        <time>2022-02-05T14:54:25Z</time>
      </trkpt>
      <trkpt lat="46.11392" lon="6.40311">
        <ele>765.4</ele>
        <time>2022-02-05T14:54:32Z</time>
      </trkpt>
      <trkpt lat="46.11391" lon="6.40308">
        <ele>765.8</ele>
        <time>2022-02-05T14:54:33Z</time>
      </trkpt>
      <trkpt lat="46.11386" lon="6.40294">
        <ele>766.8</ele>
        <time>2022-02-05T14:54:37Z</time>
      </trkpt>
      <trkpt lat="46.11381" lon="6.40276">
        <ele>767.6</ele>
        <time>2022-02-05T14:54:42Z</time>
      </trkpt>
      <trkpt lat="46.11376" lon="6.40255">
        <ele>769.4</ele>
        <time>2022-02-05T14:54:48Z</time>
      </trkpt>
      <trkpt lat="46.11373" lon="6.4024">
        <ele>770</ele>
        <time>2022-02-05T14:54:52Z</time>
      </trkpt>
      <trkpt lat="46.11372" lon="6.40237">
        <ele>770.4</ele>
        <time>2022-02-05T14:54:53Z</time>
      </trkpt>
      <trkpt lat="46.11368" lon="6.40214">
        <ele>771.2</ele>
        <time>2022-02-05T14:54:59Z</time>
      </trkpt>
      <trkpt lat="46.11365" lon="6.40199">
        <ele>772</ele>
        <time>2022-02-05T14:55:03Z</time>
      </trkpt>
      <trkpt lat="46.11363" lon="6.40184">
        <ele>773</ele>
        <time>2022-02-05T14:55:07Z</time>
      </trkpt>
      <trkpt lat="46.11363" lon="6.40165">
        <ele>774</ele>
        <time>2022-02-05T14:55:12Z</time>
      </trkpt>
      <trkpt lat="46.11362" lon="6.40161">
        <ele>774.4</ele>
        <time>2022-02-05T14:55:13Z</time>
      </trkpt>
      <trkpt lat="46.11362" lon="6.40143">
        <ele>775.8</ele>
        <time>2022-02-05T14:55:18Z</time>
      </trkpt>
      <trkpt lat="46.11362" lon="6.40128">
        <ele>776.6</ele>
        <time>2022-02-05T14:55:22Z</time>
      </trkpt>
      <trkpt lat="46.11362" lon="6.40109">
        <ele>777.8</ele>
        <time>2022-02-05T14:55:27Z</time>
      </trkpt>
      <trkpt lat="46.11361" lon="6.40091">
        <ele>779</ele>
        <time>2022-02-05T14:55:32Z</time>
      </trkpt>
      <trkpt lat="46.11361" lon="6.40087">
        <ele>779.2</ele>
        <time>2022-02-05T14:55:33Z</time>
      </trkpt>
      <trkpt lat="46.11355" lon="6.40062">
        <ele>781</ele>
        <time>2022-02-05T14:55:40Z</time>
      </trkpt>
      <trkpt lat="46.11352" lon="6.40056">
        <ele>781.4</ele>
        <time>2022-02-05T14:55:42Z</time>
      </trkpt>
      <trkpt lat="46.11349" lon="6.40049">
        <ele>781.8</ele>
        <time>2022-02-05T14:55:44Z</time>
      </trkpt>
      <trkpt lat="46.11341" lon="6.40035">
        <ele>782.6</ele>
        <time>2022-02-05T14:55:49Z</time>
      </trkpt>
      <trkpt lat="46.11337" lon="6.4003">
        <ele>783</ele>
        <time>2022-02-05T14:55:51Z</time>
      </trkpt>
      <trkpt lat="46.11328" lon="6.40021">
        <ele>784</ele>
        <time>2022-02-05T14:55:55Z</time>
      </trkpt>
      <trkpt lat="46.11319" lon="6.40013">
        <ele>785.2</ele>
        <time>2022-02-05T14:55:59Z</time>
      </trkpt>
      <trkpt lat="46.11315" lon="6.40009">
        <ele>785.6</ele>
        <time>2022-02-05T14:56:01Z</time>
      </trkpt>
      <trkpt lat="46.11304" lon="6.39999">
        <ele>786.6</ele>
        <time>2022-02-05T14:56:06Z</time>
      </trkpt>
      <trkpt lat="46.11291" lon="6.39986">
        <ele>788</ele>
        <time>2022-02-05T14:56:12Z</time>
      </trkpt>
      <trkpt lat="46.11282" lon="6.39978">
        <ele>788.8</ele>
        <time>2022-02-05T14:56:16Z</time>
      </trkpt>
      <trkpt lat="46.11279" lon="6.39976">
        <ele>788.8</ele>
        <time>2022-02-05T14:56:17Z</time>
      </trkpt>
      <trkpt lat="46.11268" lon="6.39965">
        <ele>790</ele>
        <time>2022-02-05T14:56:22Z</time>
      </trkpt>
      <trkpt lat="46.11261" lon="6.39959">
        <ele>790.6</ele>
        <time>2022-02-05T14:56:25Z</time>
      </trkpt>
      <trkpt lat="46.11256" lon="6.39955">
        <ele>791</ele>
        <time>2022-02-05T14:56:27Z</time>
      </trkpt>
      <trkpt lat="46.1125" lon="6.39948">
        <ele>792</ele>
        <time>2022-02-05T14:56:30Z</time>
      </trkpt>
      <trkpt lat="46.11245" lon="6.39944">
        <ele>792.4</ele>
        <time>2022-02-05T14:56:32Z</time>
      </trkpt>
      <trkpt lat="46.11235" lon="6.39937">
        <ele>793.2</ele>
        <time>2022-02-05T14:56:36Z</time>
      </trkpt>
      <trkpt lat="46.11225" lon="6.3993">
        <ele>794.6</ele>
        <time>2022-02-05T14:56:40Z</time>
      </trkpt>
      <trkpt lat="46.11223" lon="6.39929">
        <ele>794.8</ele>
        <time>2022-02-05T14:56:41Z</time>
      </trkpt>
      <trkpt lat="46.11206" lon="6.39918">
        <ele>796</ele>
        <time>2022-02-05T14:56:48Z</time>
      </trkpt>
      <trkpt lat="46.11198" lon="6.39914">
        <ele>796.8</ele>
        <time>2022-02-05T14:56:51Z</time>
      </trkpt>
      <trkpt lat="46.11191" lon="6.39909">
        <ele>797.4</ele>
        <time>2022-02-05T14:56:54Z</time>
      </trkpt>
      <trkpt lat="46.11182" lon="6.39902">
        <ele>798.4</ele>
        <time>2022-02-05T14:56:58Z</time>
      </trkpt>
      <trkpt lat="46.11179" lon="6.39901">
        <ele>798.4</ele>
        <time>2022-02-05T14:56:59Z</time>
      </trkpt>
      <trkpt lat="46.11166" lon="6.39888">
        <ele>799.8</ele>
        <time>2022-02-05T14:57:05Z</time>
      </trkpt>
      <trkpt lat="46.11164" lon="6.39886">
        <ele>800.2</ele>
        <time>2022-02-05T14:57:06Z</time>
      </trkpt>
      <trkpt lat="46.11157" lon="6.39879">
        <ele>800.6</ele>
        <time>2022-02-05T14:57:09Z</time>
      </trkpt>
      <trkpt lat="46.11147" lon="6.39867">
        <ele>802</ele>
        <time>2022-02-05T14:57:14Z</time>
      </trkpt>
      <trkpt lat="46.11145" lon="6.39865">
        <ele>802</ele>
        <time>2022-02-05T14:57:15Z</time>
      </trkpt>
      <trkpt lat="46.11138" lon="6.39855">
        <ele>803.2</ele>
        <time>2022-02-05T14:57:19Z</time>
      </trkpt>
      <trkpt lat="46.11134" lon="6.39845">
        <ele>804</ele>
        <time>2022-02-05T14:57:22Z</time>
      </trkpt>
      <trkpt lat="46.1113" lon="6.39832">
        <ele>805</ele>
        <time>2022-02-05T14:57:26Z</time>
      </trkpt>
      <trkpt lat="46.11128" lon="6.39829">
        <ele>805.2</ele>
        <time>2022-02-05T14:57:27Z</time>
      </trkpt>
      <trkpt lat="46.11125" lon="6.39812">
        <ele>805.8</ele>
        <time>2022-02-05T14:57:32Z</time>
      </trkpt>
      <trkpt lat="46.11124" lon="6.39809">
        <ele>806</ele>
        <time>2022-02-05T14:57:33Z</time>
      </trkpt>
      <trkpt lat="46.11123" lon="6.39798">
        <ele>806.6</ele>
        <time>2022-02-05T14:57:36Z</time>
      </trkpt>
      <trkpt lat="46.11122" lon="6.39782">
        <ele>807.4</ele>
        <time>2022-02-05T14:57:40Z</time>
      </trkpt>
      <trkpt lat="46.11123" lon="6.39754">
        <ele>808.6</ele>
        <time>2022-02-05T14:57:46Z</time>
      </trkpt>
      <trkpt lat="46.11125" lon="6.39744">
        <ele>809</ele>
        <time>2022-02-05T14:57:48Z</time>
      </trkpt>
      <trkpt lat="46.11131" lon="6.39733">
        <ele>809.2</ele>
        <time>2022-02-05T14:57:51Z</time>
      </trkpt>
      <trkpt lat="46.11149" lon="6.39703">
        <ele>809.8</ele>
        <time>2022-02-05T14:57:59Z</time>
      </trkpt>
      <trkpt lat="46.11154" lon="6.39696">
        <ele>810.2</ele>
        <time>2022-02-05T14:58:01Z</time>
      </trkpt>
      <trkpt lat="46.11159" lon="6.39688">
        <ele>810</ele>
        <time>2022-02-05T14:58:03Z</time>
      </trkpt>
      <trkpt lat="46.11163" lon="6.3968">
        <ele>810.2</ele>
        <time>2022-02-05T14:58:05Z</time>
      </trkpt>
      <trkpt lat="46.11175" lon="6.39652">
        <ele>810.6</ele>
        <time>2022-02-05T14:58:12Z</time>
      </trkpt>
      <trkpt lat="46.11177" lon="6.3965">
        <ele>811</ele>
        <time>2022-02-05T14:58:16Z</time>
      </trkpt>
      <trkpt lat="46.11177" lon="6.3965">
        <ele>811.6</ele>
        <time>2022-02-05T14:58:29Z</time>
      </trkpt>
      <trkpt lat="46.11177" lon="6.3965">
        <ele>811.6</ele>
        <time>2022-02-05T14:58:43Z</time>
      </trkpt>
      <trkpt lat="46.11177" lon="6.3965">
        <ele>811.4</ele>
        <time>2022-02-05T14:58:56Z</time>
      </trkpt>
      <trkpt lat="46.11177" lon="6.39649">
        <ele>811.6</ele>
        <time>2022-02-05T14:58:59Z</time>
      </trkpt>
      <trkpt lat="46.11179" lon="6.39642">
        <ele>811.6</ele>
        <time>2022-02-05T14:59:02Z</time>
      </trkpt>
      <trkpt lat="46.11187" lon="6.39625">
        <ele>811.4</ele>
        <time>2022-02-05T14:59:07Z</time>
      </trkpt>
      <trkpt lat="46.11195" lon="6.39609">
        <ele>811.6</ele>
        <time>2022-02-05T14:59:11Z</time>
      </trkpt>
      <trkpt lat="46.11201" lon="6.39595">
        <ele>811.6</ele>
        <time>2022-02-05T14:59:14Z</time>
      </trkpt>
      <trkpt lat="46.11218" lon="6.3956">
        <ele>811.8</ele>
        <time>2022-02-05T14:59:21Z</time>
      </trkpt>
      <trkpt lat="46.11228" lon="6.39542">
        <ele>812</ele>
        <time>2022-02-05T14:59:25Z</time>
      </trkpt>
      <trkpt lat="46.11238" lon="6.39528">
        <ele>812.2</ele>
        <time>2022-02-05T14:59:28Z</time>
      </trkpt>
      <trkpt lat="46.11248" lon="6.39514">
        <ele>812.4</ele>
        <time>2022-02-05T14:59:31Z</time>
      </trkpt>
      <trkpt lat="46.11254" lon="6.39503">
        <ele>812.6</ele>
        <time>2022-02-05T14:59:33Z</time>
      </trkpt>
      <trkpt lat="46.11256" lon="6.39498">
        <ele>812.6</ele>
        <time>2022-02-05T14:59:34Z</time>
      </trkpt>
      <trkpt lat="46.11272" lon="6.39468">
        <ele>812.6</ele>
        <time>2022-02-05T14:59:40Z</time>
      </trkpt>
      <trkpt lat="46.11275" lon="6.39463">
        <ele>812.6</ele>
        <time>2022-02-05T14:59:41Z</time>
      </trkpt>
      <trkpt lat="46.11299" lon="6.3942">
        <ele>812</ele>
        <time>2022-02-05T14:59:48Z</time>
      </trkpt>
      <trkpt lat="46.11318" lon="6.39375">
        <ele>811.6</ele>
        <time>2022-02-05T14:59:54Z</time>
      </trkpt>
      <trkpt lat="46.11324" lon="6.3936">
        <ele>811.4</ele>
        <time>2022-02-05T14:59:56Z</time>
      </trkpt>
      <trkpt lat="46.11339" lon="6.39324">
        <ele>810.8</ele>
        <time>2022-02-05T15:00:00Z</time>
      </trkpt>
      <trkpt lat="46.11347" lon="6.39305">
        <ele>810.6</ele>
        <time>2022-02-05T15:00:02Z</time>
      </trkpt>
      <trkpt lat="46.1136" lon="6.39273">
        <ele>809.8</ele>
        <time>2022-02-05T15:00:05Z</time>
      </trkpt>
      <trkpt lat="46.11369" lon="6.39252">
        <ele>809.6</ele>
        <time>2022-02-05T15:00:07Z</time>
      </trkpt>
      <trkpt lat="46.11373" lon="6.39241">
        <ele>809.4</ele>
        <time>2022-02-05T15:00:08Z</time>
      </trkpt>
      <trkpt lat="46.11382" lon="6.39219">
        <ele>808</ele>
        <time>2022-02-05T15:00:10Z</time>
      </trkpt>
      <trkpt lat="46.11401" lon="6.39172">
        <ele>805.8</ele>
        <time>2022-02-05T15:00:14Z</time>
      </trkpt>
      <trkpt lat="46.11414" lon="6.39135">
        <ele>803.8</ele>
        <time>2022-02-05T15:00:17Z</time>
      </trkpt>
      <trkpt lat="46.11422" lon="6.39109">
        <ele>803</ele>
        <time>2022-02-05T15:00:19Z</time>
      </trkpt>
      <trkpt lat="46.11431" lon="6.39068">
        <ele>802.2</ele>
        <time>2022-02-05T15:00:22Z</time>
      </trkpt>
      <trkpt lat="46.1144" lon="6.39028">
        <ele>801.8</ele>
        <time>2022-02-05T15:00:25Z</time>
      </trkpt>
      <trkpt lat="46.11452" lon="6.38973">
        <ele>800.2</ele>
        <time>2022-02-05T15:00:29Z</time>
      </trkpt>
      <trkpt lat="46.11465" lon="6.38905">
        <ele>798.6</ele>
        <time>2022-02-05T15:00:34Z</time>
      </trkpt>
      <trkpt lat="46.11473" lon="6.38849">
        <ele>797.6</ele>
        <time>2022-02-05T15:00:38Z</time>
      </trkpt>
      <trkpt lat="46.11483" lon="6.38783">
        <ele>796</ele>
        <time>2022-02-05T15:00:43Z</time>
      </trkpt>
      <trkpt lat="46.11485" lon="6.3877">
        <ele>795.8</ele>
        <time>2022-02-05T15:00:44Z</time>
      </trkpt>
      <trkpt lat="46.11489" lon="6.38744">
        <ele>795.6</ele>
        <time>2022-02-05T15:00:46Z</time>
      </trkpt>
      <trkpt lat="46.11492" lon="6.38731">
        <ele>795.4</ele>
        <time>2022-02-05T15:00:47Z</time>
      </trkpt>
      <trkpt lat="46.11501" lon="6.38693">
        <ele>794.6</ele>
        <time>2022-02-05T15:00:50Z</time>
      </trkpt>
      <trkpt lat="46.1151" lon="6.3867">
        <ele>794.4</ele>
        <time>2022-02-05T15:00:52Z</time>
      </trkpt>
      <trkpt lat="46.11518" lon="6.38646">
        <ele>794.2</ele>
        <time>2022-02-05T15:00:54Z</time>
      </trkpt>
      <trkpt lat="46.11531" lon="6.38609">
        <ele>793</ele>
        <time>2022-02-05T15:00:57Z</time>
      </trkpt>
      <trkpt lat="46.11544" lon="6.38571">
        <ele>792.4</ele>
        <time>2022-02-05T15:01:00Z</time>
      </trkpt>
      <trkpt lat="46.1156" lon="6.38535">
        <ele>791.4</ele>
        <time>2022-02-05T15:01:03Z</time>
      </trkpt>
      <trkpt lat="46.1158" lon="6.38503">
        <ele>790.8</ele>
        <time>2022-02-05T15:01:06Z</time>
      </trkpt>
      <trkpt lat="46.11594" lon="6.38482">
        <ele>790.4</ele>
        <time>2022-02-05T15:01:08Z</time>
      </trkpt>
      <trkpt lat="46.11601" lon="6.3847">
        <ele>789.6</ele>
        <time>2022-02-05T15:01:09Z</time>
      </trkpt>
      <trkpt lat="46.11613" lon="6.38446">
        <ele>788.8</ele>
        <time>2022-02-05T15:01:11Z</time>
      </trkpt>
      <trkpt lat="46.11618" lon="6.38433">
        <ele>788</ele>
        <time>2022-02-05T15:01:12Z</time>
      </trkpt>
      <trkpt lat="46.11629" lon="6.38406">
        <ele>787</ele>
        <time>2022-02-05T15:01:14Z</time>
      </trkpt>
      <trkpt lat="46.11651" lon="6.38353">
        <ele>784.2</ele>
        <time>2022-02-05T15:01:18Z</time>
      </trkpt>
      <trkpt lat="46.11662" lon="6.38327">
        <ele>783.2</ele>
        <time>2022-02-05T15:01:20Z</time>
      </trkpt>
      <trkpt lat="46.11679" lon="6.38286">
        <ele>782</ele>
        <time>2022-02-05T15:01:23Z</time>
      </trkpt>
      <trkpt lat="46.1169" lon="6.38259">
        <ele>781.2</ele>
        <time>2022-02-05T15:01:25Z</time>
      </trkpt>
      <trkpt lat="46.11702" lon="6.38232">
        <ele>780.6</ele>
        <time>2022-02-05T15:01:27Z</time>
      </trkpt>
      <trkpt lat="46.11708" lon="6.38218">
        <ele>780</ele>
        <time>2022-02-05T15:01:28Z</time>
      </trkpt>
      <trkpt lat="46.11713" lon="6.38204">
        <ele>779.8</ele>
        <time>2022-02-05T15:01:29Z</time>
      </trkpt>
      <trkpt lat="46.11725" lon="6.38177">
        <ele>778.6</ele>
        <time>2022-02-05T15:01:31Z</time>
      </trkpt>
      <trkpt lat="46.11742" lon="6.38136">
        <ele>776.6</ele>
        <time>2022-02-05T15:01:34Z</time>
      </trkpt>
      <trkpt lat="46.11748" lon="6.38122">
        <ele>776.2</ele>
        <time>2022-02-05T15:01:35Z</time>
      </trkpt>
      <trkpt lat="46.11753" lon="6.38109">
        <ele>775.6</ele>
        <time>2022-02-05T15:01:36Z</time>
      </trkpt>
      <trkpt lat="46.11759" lon="6.38095">
        <ele>774.8</ele>
        <time>2022-02-05T15:01:37Z</time>
      </trkpt>
      <trkpt lat="46.11788" lon="6.38026">
        <ele>771.6</ele>
        <time>2022-02-05T15:01:42Z</time>
      </trkpt>
      <trkpt lat="46.11794" lon="6.38012">
        <ele>770.4</ele>
        <time>2022-02-05T15:01:43Z</time>
      </trkpt>
      <trkpt lat="46.11822" lon="6.37944">
        <ele>765.8</ele>
        <time>2022-02-05T15:01:48Z</time>
      </trkpt>
      <trkpt lat="46.11833" lon="6.37917">
        <ele>764.8</ele>
        <time>2022-02-05T15:01:50Z</time>
      </trkpt>
      <trkpt lat="46.11838" lon="6.37903">
        <ele>764.4</ele>
        <time>2022-02-05T15:01:51Z</time>
      </trkpt>
      <trkpt lat="46.11854" lon="6.37863">
        <ele>763.2</ele>
        <time>2022-02-05T15:01:54Z</time>
      </trkpt>
      <trkpt lat="46.11864" lon="6.37836">
        <ele>762.6</ele>
        <time>2022-02-05T15:01:56Z</time>
      </trkpt>
      <trkpt lat="46.11879" lon="6.37796">
        <ele>761.6</ele>
        <time>2022-02-05T15:01:59Z</time>
      </trkpt>
      <trkpt lat="46.11895" lon="6.37757">
        <ele>760.6</ele>
        <time>2022-02-05T15:02:02Z</time>
      </trkpt>
      <trkpt lat="46.11914" lon="6.37705">
        <ele>759.6</ele>
        <time>2022-02-05T15:02:06Z</time>
      </trkpt>
      <trkpt lat="46.11918" lon="6.37692">
        <ele>759.6</ele>
        <time>2022-02-05T15:02:07Z</time>
      </trkpt>
      <trkpt lat="46.11922" lon="6.37679">
        <ele>759.4</ele>
        <time>2022-02-05T15:02:08Z</time>
      </trkpt>
      <trkpt lat="46.11928" lon="6.37636">
        <ele>758.2</ele>
        <time>2022-02-05T15:02:11Z</time>
      </trkpt>
      <trkpt lat="46.11932" lon="6.37591">
        <ele>756.6</ele>
        <time>2022-02-05T15:02:14Z</time>
      </trkpt>
      <trkpt lat="46.11938" lon="6.37545">
        <ele>756</ele>
        <time>2022-02-05T15:02:17Z</time>
      </trkpt>
      <trkpt lat="46.11942" lon="6.37513">
        <ele>755.8</ele>
        <time>2022-02-05T15:02:19Z</time>
      </trkpt>
      <trkpt lat="46.11944" lon="6.37497">
        <ele>755.8</ele>
        <time>2022-02-05T15:02:20Z</time>
      </trkpt>
      <trkpt lat="46.11945" lon="6.37481">
        <ele>755.6</ele>
        <time>2022-02-05T15:02:21Z</time>
      </trkpt>
      <trkpt lat="46.11949" lon="6.3745">
        <ele>755.4</ele>
        <time>2022-02-05T15:02:23Z</time>
      </trkpt>
      <trkpt lat="46.11956" lon="6.3739">
        <ele>754</ele>
        <time>2022-02-05T15:02:27Z</time>
      </trkpt>
      <trkpt lat="46.11956" lon="6.37375">
        <ele>753.6</ele>
        <time>2022-02-05T15:02:28Z</time>
      </trkpt>
      <trkpt lat="46.11955" lon="6.37361">
        <ele>752.8</ele>
        <time>2022-02-05T15:02:29Z</time>
      </trkpt>
      <trkpt lat="46.11953" lon="6.37346">
        <ele>751.8</ele>
        <time>2022-02-05T15:02:30Z</time>
      </trkpt>
      <trkpt lat="46.11948" lon="6.37316">
        <ele>750.6</ele>
        <time>2022-02-05T15:02:32Z</time>
      </trkpt>
      <trkpt lat="46.11947" lon="6.37302">
        <ele>750.2</ele>
        <time>2022-02-05T15:02:33Z</time>
      </trkpt>
      <trkpt lat="46.11948" lon="6.37288">
        <ele>750</ele>
        <time>2022-02-05T15:02:34Z</time>
      </trkpt>
      <trkpt lat="46.11951" lon="6.37276">
        <ele>749.6</ele>
        <time>2022-02-05T15:02:35Z</time>
      </trkpt>
      <trkpt lat="46.11957" lon="6.37267">
        <ele>749.4</ele>
        <time>2022-02-05T15:02:36Z</time>
      </trkpt>
      <trkpt lat="46.11965" lon="6.37261">
        <ele>749.4</ele>
        <time>2022-02-05T15:02:37Z</time>
      </trkpt>
      <trkpt lat="46.11974" lon="6.3726">
        <ele>749.4</ele>
        <time>2022-02-05T15:02:38Z</time>
      </trkpt>
      <trkpt lat="46.12003" lon="6.37262">
        <ele>748.8</ele>
        <time>2022-02-05T15:02:41Z</time>
      </trkpt>
      <trkpt lat="46.12023" lon="6.37264">
        <ele>748</ele>
        <time>2022-02-05T15:02:43Z</time>
      </trkpt>
      <trkpt lat="46.12043" lon="6.37264">
        <ele>747.2</ele>
        <time>2022-02-05T15:02:45Z</time>
      </trkpt>
      <trkpt lat="46.12054" lon="6.37262">
        <ele>746.2</ele>
        <time>2022-02-05T15:02:46Z</time>
      </trkpt>
      <trkpt lat="46.12064" lon="6.37259">
        <ele>745.8</ele>
        <time>2022-02-05T15:02:47Z</time>
      </trkpt>
      <trkpt lat="46.12074" lon="6.37254">
        <ele>745.6</ele>
        <time>2022-02-05T15:02:48Z</time>
      </trkpt>
      <trkpt lat="46.12093" lon="6.37238">
        <ele>744.6</ele>
        <time>2022-02-05T15:02:50Z</time>
      </trkpt>
      <trkpt lat="46.12118" lon="6.37209">
        <ele>743.6</ele>
        <time>2022-02-05T15:02:53Z</time>
      </trkpt>
      <trkpt lat="46.12142" lon="6.3718">
        <ele>741.8</ele>
        <time>2022-02-05T15:02:56Z</time>
      </trkpt>
      <trkpt lat="46.12186" lon="6.37117">
        <ele>740</ele>
        <time>2022-02-05T15:03:02Z</time>
      </trkpt>
      <trkpt lat="46.12199" lon="6.37092">
        <ele>739.4</ele>
        <time>2022-02-05T15:03:04Z</time>
      </trkpt>
      <trkpt lat="46.12207" lon="6.37082">
        <ele>739.2</ele>
        <time>2022-02-05T15:03:05Z</time>
      </trkpt>
      <trkpt lat="46.12216" lon="6.37073">
        <ele>739</ele>
        <time>2022-02-05T15:03:06Z</time>
      </trkpt>
      <trkpt lat="46.12234" lon="6.37058">
        <ele>738.6</ele>
        <time>2022-02-05T15:03:08Z</time>
      </trkpt>
      <trkpt lat="46.12249" lon="6.37039">
        <ele>738.4</ele>
        <time>2022-02-05T15:03:10Z</time>
      </trkpt>
      <trkpt lat="46.1226" lon="6.37014">
        <ele>737.4</ele>
        <time>2022-02-05T15:03:12Z</time>
      </trkpt>
      <trkpt lat="46.12269" lon="6.36988">
        <ele>736</ele>
        <time>2022-02-05T15:03:14Z</time>
      </trkpt>
      <trkpt lat="46.12282" lon="6.36947">
        <ele>735</ele>
        <time>2022-02-05T15:03:17Z</time>
      </trkpt>
      <trkpt lat="46.12286" lon="6.36933">
        <ele>734.6</ele>
        <time>2022-02-05T15:03:18Z</time>
      </trkpt>
      <trkpt lat="46.1229" lon="6.36919">
        <ele>734.2</ele>
        <time>2022-02-05T15:03:19Z</time>
      </trkpt>
      <trkpt lat="46.12299" lon="6.3689">
        <ele>733.4</ele>
        <time>2022-02-05T15:03:21Z</time>
      </trkpt>
      <trkpt lat="46.12305" lon="6.36877">
        <ele>733</ele>
        <time>2022-02-05T15:03:22Z</time>
      </trkpt>
      <trkpt lat="46.12312" lon="6.36864">
        <ele>732.6</ele>
        <time>2022-02-05T15:03:23Z</time>
      </trkpt>
      <trkpt lat="46.1232" lon="6.36852">
        <ele>732</ele>
        <time>2022-02-05T15:03:24Z</time>
      </trkpt>
      <trkpt lat="46.12338" lon="6.36828">
        <ele>731.6</ele>
        <time>2022-02-05T15:03:26Z</time>
      </trkpt>
      <trkpt lat="46.12355" lon="6.36805">
        <ele>729.6</ele>
        <time>2022-02-05T15:03:28Z</time>
      </trkpt>
      <trkpt lat="46.12364" lon="6.36793">
        <ele>728.6</ele>
        <time>2022-02-05T15:03:29Z</time>
      </trkpt>
      <trkpt lat="46.12373" lon="6.36782">
        <ele>728</ele>
        <time>2022-02-05T15:03:30Z</time>
      </trkpt>
      <trkpt lat="46.12381" lon="6.3677">
        <ele>727.6</ele>
        <time>2022-02-05T15:03:31Z</time>
      </trkpt>
      <trkpt lat="46.1239" lon="6.36758">
        <ele>726.6</ele>
        <time>2022-02-05T15:03:32Z</time>
      </trkpt>
      <trkpt lat="46.12414" lon="6.36719">
        <ele>725</ele>
        <time>2022-02-05T15:03:35Z</time>
      </trkpt>
      <trkpt lat="46.12422" lon="6.36706">
        <ele>724.4</ele>
        <time>2022-02-05T15:03:36Z</time>
      </trkpt>
      <trkpt lat="46.12436" lon="6.3668">
        <ele>721.2</ele>
        <time>2022-02-05T15:03:38Z</time>
      </trkpt>
      <trkpt lat="46.12449" lon="6.36655">
        <ele>719.6</ele>
        <time>2022-02-05T15:03:40Z</time>
      </trkpt>
      <trkpt lat="46.12455" lon="6.36642">
        <ele>718.4</ele>
        <time>2022-02-05T15:03:41Z</time>
      </trkpt>
      <trkpt lat="46.12461" lon="6.36628">
        <ele>717.6</ele>
        <time>2022-02-05T15:03:42Z</time>
      </trkpt>
      <trkpt lat="46.12469" lon="6.36597">
        <ele>716.2</ele>
        <time>2022-02-05T15:03:44Z</time>
      </trkpt>
      <trkpt lat="46.12481" lon="6.36532">
        <ele>714</ele>
        <time>2022-02-05T15:03:48Z</time>
      </trkpt>
      <trkpt lat="46.12487" lon="6.36499">
        <ele>711.2</ele>
        <time>2022-02-05T15:03:50Z</time>
      </trkpt>
      <trkpt lat="46.12501" lon="6.36454">
        <ele>707.8</ele>
        <time>2022-02-05T15:03:53Z</time>
      </trkpt>
      <trkpt lat="46.12508" lon="6.3644">
        <ele>707</ele>
        <time>2022-02-05T15:03:54Z</time>
      </trkpt>
      <trkpt lat="46.12515" lon="6.36426">
        <ele>706.2</ele>
        <time>2022-02-05T15:03:55Z</time>
      </trkpt>
      <trkpt lat="46.1253" lon="6.36399">
        <ele>705.4</ele>
        <time>2022-02-05T15:03:57Z</time>
      </trkpt>
      <trkpt lat="46.12545" lon="6.36374">
        <ele>703.6</ele>
        <time>2022-02-05T15:03:59Z</time>
      </trkpt>
      <trkpt lat="46.12551" lon="6.36362">
        <ele>702.8</ele>
        <time>2022-02-05T15:04:00Z</time>
      </trkpt>
      <trkpt lat="46.12561" lon="6.36338">
        <ele>702</ele>
        <time>2022-02-05T15:04:02Z</time>
      </trkpt>
      <trkpt lat="46.12564" lon="6.36325">
        <ele>701.2</ele>
        <time>2022-02-05T15:04:03Z</time>
      </trkpt>
      <trkpt lat="46.12564" lon="6.36312">
        <ele>700.2</ele>
        <time>2022-02-05T15:04:04Z</time>
      </trkpt>
      <trkpt lat="46.12563" lon="6.36298">
        <ele>699.2</ele>
        <time>2022-02-05T15:04:05Z</time>
      </trkpt>
      <trkpt lat="46.1256" lon="6.36283">
        <ele>698</ele>
        <time>2022-02-05T15:04:06Z</time>
      </trkpt>
      <trkpt lat="46.12556" lon="6.36269">
        <ele>696.8</ele>
        <time>2022-02-05T15:04:07Z</time>
      </trkpt>
      <trkpt lat="46.12552" lon="6.36255">
        <ele>696.2</ele>
        <time>2022-02-05T15:04:08Z</time>
      </trkpt>
      <trkpt lat="46.12548" lon="6.3624">
        <ele>695.2</ele>
        <time>2022-02-05T15:04:09Z</time>
      </trkpt>
      <trkpt lat="46.12536" lon="6.36197">
        <ele>693.2</ele>
        <time>2022-02-05T15:04:12Z</time>
      </trkpt>
      <trkpt lat="46.12533" lon="6.36184">
        <ele>692.6</ele>
        <time>2022-02-05T15:04:13Z</time>
      </trkpt>
      <trkpt lat="46.12529" lon="6.36164">
        <ele>691.4</ele>
        <time>2022-02-05T15:04:15Z</time>
      </trkpt>
      <trkpt lat="46.12528" lon="6.36157">
        <ele>690.4</ele>
        <time>2022-02-05T15:04:16Z</time>
      </trkpt>
      <trkpt lat="46.12529" lon="6.36151">
        <ele>689.2</ele>
        <time>2022-02-05T15:04:17Z</time>
      </trkpt>
      <trkpt lat="46.12533" lon="6.36146">
        <ele>688.2</ele>
        <time>2022-02-05T15:04:18Z</time>
      </trkpt>
      <trkpt lat="46.12537" lon="6.36143">
        <ele>687.6</ele>
        <time>2022-02-05T15:04:19Z</time>
      </trkpt>
      <trkpt lat="46.12542" lon="6.36143">
        <ele>687</ele>
        <time>2022-02-05T15:04:20Z</time>
      </trkpt>
      <trkpt lat="46.12547" lon="6.36143">
        <ele>686.2</ele>
        <time>2022-02-05T15:04:21Z</time>
      </trkpt>
      <trkpt lat="46.12552" lon="6.36143">
        <ele>685.2</ele>
        <time>2022-02-05T15:04:22Z</time>
      </trkpt>
      <trkpt lat="46.12575" lon="6.36142">
        <ele>683.6</ele>
        <time>2022-02-05T15:04:27Z</time>
      </trkpt>
      <trkpt lat="46.12579" lon="6.36142">
        <ele>683.4</ele>
        <time>2022-02-05T15:04:28Z</time>
      </trkpt>
      <trkpt lat="46.12604" lon="6.36143">
        <ele>683.2</ele>
        <time>2022-02-05T15:04:33Z</time>
      </trkpt>
      <trkpt lat="46.12619" lon="6.36144">
        <ele>683.6</ele>
        <time>2022-02-05T15:04:36Z</time>
      </trkpt>
      <trkpt lat="46.12634" lon="6.36146">
        <ele>684.4</ele>
        <time>2022-02-05T15:04:39Z</time>
      </trkpt>
      <trkpt lat="46.12663" lon="6.3615">
        <ele>685.4</ele>
        <time>2022-02-05T15:04:45Z</time>
      </trkpt>
      <trkpt lat="46.12672" lon="6.36151">
        <ele>686</ele>
        <time>2022-02-05T15:04:47Z</time>
      </trkpt>
      <trkpt lat="46.12685" lon="6.36155">
        <ele>686.8</ele>
        <time>2022-02-05T15:04:50Z</time>
      </trkpt>
      <trkpt lat="46.12698" lon="6.3616">
        <ele>687.4</ele>
        <time>2022-02-05T15:04:53Z</time>
      </trkpt>
      <trkpt lat="46.12703" lon="6.36162">
        <ele>687.4</ele>
        <time>2022-02-05T15:04:54Z</time>
      </trkpt>
      <trkpt lat="46.1273" lon="6.36176">
        <ele>689.2</ele>
        <time>2022-02-05T15:05:01Z</time>
      </trkpt>
      <trkpt lat="46.12734" lon="6.36179">
        <ele>689.6</ele>
        <time>2022-02-05T15:05:02Z</time>
      </trkpt>
      <trkpt lat="46.12752" lon="6.36194">
        <ele>690.6</ele>
        <time>2022-02-05T15:05:07Z</time>
      </trkpt>
      <trkpt lat="46.12763" lon="6.36203">
        <ele>691</ele>
        <time>2022-02-05T15:05:10Z</time>
      </trkpt>
      <trkpt lat="46.12767" lon="6.36206">
        <ele>691.2</ele>
        <time>2022-02-05T15:05:11Z</time>
      </trkpt>
      <trkpt lat="46.1277" lon="6.36209">
        <ele>691.8</ele>
        <time>2022-02-05T15:05:12Z</time>
      </trkpt>
      <trkpt lat="46.12787" lon="6.36226">
        <ele>692.8</ele>
        <time>2022-02-05T15:05:17Z</time>
      </trkpt>
      <trkpt lat="46.12791" lon="6.36228">
        <ele>693.2</ele>
        <time>2022-02-05T15:05:18Z</time>
      </trkpt>
      <trkpt lat="46.12795" lon="6.36228">
        <ele>693.4</ele>
        <time>2022-02-05T15:05:19Z</time>
      </trkpt>
      <trkpt lat="46.12799" lon="6.36227">
        <ele>693.6</ele>
        <time>2022-02-05T15:05:20Z</time>
      </trkpt>
      <trkpt lat="46.12802" lon="6.36224">
        <ele>693.8</ele>
        <time>2022-02-05T15:05:21Z</time>
      </trkpt>
      <trkpt lat="46.12809" lon="6.36215">
        <ele>694.2</ele>
        <time>2022-02-05T15:05:23Z</time>
      </trkpt>
      <trkpt lat="46.12812" lon="6.3621">
        <ele>694.2</ele>
        <time>2022-02-05T15:05:24Z</time>
      </trkpt>
      <trkpt lat="46.12844" lon="6.36157">
        <ele>695.2</ele>
        <time>2022-02-05T15:05:33Z</time>
      </trkpt>
      <trkpt lat="46.12879" lon="6.36098">
        <ele>695</ele>
        <time>2022-02-05T15:05:42Z</time>
      </trkpt>
      <trkpt lat="46.12913" lon="6.36044">
        <ele>695.2</ele>
        <time>2022-02-05T15:05:50Z</time>
      </trkpt>
      <trkpt lat="46.1294" lon="6.36015">
        <ele>695.2</ele>
        <time>2022-02-05T15:05:55Z</time>
      </trkpt>
      <trkpt lat="46.12982" lon="6.35979">
        <ele>695.4</ele>
        <time>2022-02-05T15:06:02Z</time>
      </trkpt>
      <trkpt lat="46.12996" lon="6.35967">
        <ele>695.2</ele>
        <time>2022-02-05T15:06:04Z</time>
      </trkpt>
      <trkpt lat="46.13011" lon="6.35955">
        <ele>695.2</ele>
        <time>2022-02-05T15:06:06Z</time>
      </trkpt>
      <trkpt lat="46.13025" lon="6.35943">
        <ele>695.2</ele>
        <time>2022-02-05T15:06:08Z</time>
      </trkpt>
      <trkpt lat="46.1304" lon="6.35931">
        <ele>695</ele>
        <time>2022-02-05T15:06:10Z</time>
      </trkpt>
      <trkpt lat="46.13055" lon="6.35919">
        <ele>694.2</ele>
        <time>2022-02-05T15:06:12Z</time>
      </trkpt>
      <trkpt lat="46.13084" lon="6.35895">
        <ele>693.4</ele>
        <time>2022-02-05T15:06:16Z</time>
      </trkpt>
      <trkpt lat="46.13107" lon="6.35878">
        <ele>693</ele>
        <time>2022-02-05T15:06:19Z</time>
      </trkpt>
      <trkpt lat="46.13138" lon="6.35862">
        <ele>692.6</ele>
        <time>2022-02-05T15:06:23Z</time>
      </trkpt>
      <trkpt lat="46.13147" lon="6.35859">
        <ele>692.6</ele>
        <time>2022-02-05T15:06:24Z</time>
      </trkpt>
      <trkpt lat="46.13203" lon="6.35839">
        <ele>691.8</ele>
        <time>2022-02-05T15:06:31Z</time>
      </trkpt>
      <trkpt lat="46.13211" lon="6.35837">
        <ele>691.8</ele>
        <time>2022-02-05T15:06:32Z</time>
      </trkpt>
      <trkpt lat="46.13254" lon="6.35821">
        <ele>691.8</ele>
        <time>2022-02-05T15:06:38Z</time>
      </trkpt>
      <trkpt lat="46.13261" lon="6.35819">
        <ele>692</ele>
        <time>2022-02-05T15:06:39Z</time>
      </trkpt>
      <trkpt lat="46.13311" lon="6.35806">
        <ele>692.2</ele>
        <time>2022-02-05T15:06:46Z</time>
      </trkpt>
      <trkpt lat="46.13318" lon="6.35805">
        <ele>692.6</ele>
        <time>2022-02-05T15:06:47Z</time>
      </trkpt>
      <trkpt lat="46.13362" lon="6.358">
        <ele>694</ele>
        <time>2022-02-05T15:06:53Z</time>
      </trkpt>
      <trkpt lat="46.13421" lon="6.35798">
        <ele>695</ele>
        <time>2022-02-05T15:07:01Z</time>
      </trkpt>
      <trkpt lat="46.13428" lon="6.35796">
        <ele>695</ele>
        <time>2022-02-05T15:07:02Z</time>
      </trkpt>
      <trkpt lat="46.13465" lon="6.35782">
        <ele>695.4</ele>
        <time>2022-02-05T15:07:07Z</time>
      </trkpt>
      <trkpt lat="46.1351" lon="6.35763">
        <ele>695.6</ele>
        <time>2022-02-05T15:07:13Z</time>
      </trkpt>
      <trkpt lat="46.13534" lon="6.35755">
        <ele>695.4</ele>
        <time>2022-02-05T15:07:16Z</time>
      </trkpt>
      <trkpt lat="46.13573" lon="6.35738">
        <ele>695</ele>
        <time>2022-02-05T15:07:21Z</time>
      </trkpt>
      <trkpt lat="46.1358" lon="6.35733">
        <ele>695</ele>
        <time>2022-02-05T15:07:22Z</time>
      </trkpt>
      <trkpt lat="46.13587" lon="6.35726">
        <ele>694.8</ele>
        <time>2022-02-05T15:07:23Z</time>
      </trkpt>
      <trkpt lat="46.13601" lon="6.35714">
        <ele>694.4</ele>
        <time>2022-02-05T15:07:25Z</time>
      </trkpt>
      <trkpt lat="46.13615" lon="6.35702">
        <ele>694.2</ele>
        <time>2022-02-05T15:07:27Z</time>
      </trkpt>
      <trkpt lat="46.13623" lon="6.35698">
        <ele>693.8</ele>
        <time>2022-02-05T15:07:28Z</time>
      </trkpt>
      <trkpt lat="46.1363" lon="6.35695">
        <ele>693.6</ele>
        <time>2022-02-05T15:07:29Z</time>
      </trkpt>
      <trkpt lat="46.13638" lon="6.35693">
        <ele>693.2</ele>
        <time>2022-02-05T15:07:30Z</time>
      </trkpt>
      <trkpt lat="46.13646" lon="6.35691">
        <ele>692.4</ele>
        <time>2022-02-05T15:07:31Z</time>
      </trkpt>
      <trkpt lat="46.13677" lon="6.35687">
        <ele>690.2</ele>
        <time>2022-02-05T15:07:35Z</time>
      </trkpt>
      <trkpt lat="46.13692" lon="6.35684">
        <ele>690</ele>
        <time>2022-02-05T15:07:37Z</time>
      </trkpt>
      <trkpt lat="46.13707" lon="6.35679">
        <ele>689.2</ele>
        <time>2022-02-05T15:07:39Z</time>
      </trkpt>
      <trkpt lat="46.13722" lon="6.35671">
        <ele>689</ele>
        <time>2022-02-05T15:07:41Z</time>
      </trkpt>
      <trkpt lat="46.1373" lon="6.35666">
        <ele>688.8</ele>
        <time>2022-02-05T15:07:42Z</time>
      </trkpt>
      <trkpt lat="46.13762" lon="6.35642">
        <ele>688.6</ele>
        <time>2022-02-05T15:07:46Z</time>
      </trkpt>
      <trkpt lat="46.1377" lon="6.35636">
        <ele>688.6</ele>
        <time>2022-02-05T15:07:47Z</time>
      </trkpt>
      <trkpt lat="46.13778" lon="6.3563">
        <ele>688.4</ele>
        <time>2022-02-05T15:07:48Z</time>
      </trkpt>
      <trkpt lat="46.13803" lon="6.35613">
        <ele>687.8</ele>
        <time>2022-02-05T15:07:51Z</time>
      </trkpt>
      <trkpt lat="46.13821" lon="6.35605">
        <ele>687.6</ele>
        <time>2022-02-05T15:07:53Z</time>
      </trkpt>
      <trkpt lat="46.1383" lon="6.35602">
        <ele>687.2</ele>
        <time>2022-02-05T15:07:54Z</time>
      </trkpt>
      <trkpt lat="46.1384" lon="6.35601">
        <ele>687</ele>
        <time>2022-02-05T15:07:55Z</time>
      </trkpt>
      <trkpt lat="46.1386" lon="6.35599">
        <ele>685.8</ele>
        <time>2022-02-05T15:07:57Z</time>
      </trkpt>
      <trkpt lat="46.1388" lon="6.35599">
        <ele>685.2</ele>
        <time>2022-02-05T15:07:59Z</time>
      </trkpt>
      <trkpt lat="46.1389" lon="6.35598">
        <ele>684.4</ele>
        <time>2022-02-05T15:08:00Z</time>
      </trkpt>
      <trkpt lat="46.13921" lon="6.35597">
        <ele>683.4</ele>
        <time>2022-02-05T15:08:03Z</time>
      </trkpt>
      <trkpt lat="46.13951" lon="6.35595">
        <ele>681.6</ele>
        <time>2022-02-05T15:08:06Z</time>
      </trkpt>
      <trkpt lat="46.13971" lon="6.35591">
        <ele>680.4</ele>
        <time>2022-02-05T15:08:08Z</time>
      </trkpt>
      <trkpt lat="46.13981" lon="6.35589">
        <ele>680</ele>
        <time>2022-02-05T15:08:09Z</time>
      </trkpt>
      <trkpt lat="46.14001" lon="6.35581">
        <ele>679.2</ele>
        <time>2022-02-05T15:08:11Z</time>
      </trkpt>
      <trkpt lat="46.14038" lon="6.35561">
        <ele>677.6</ele>
        <time>2022-02-05T15:08:15Z</time>
      </trkpt>
      <trkpt lat="46.14048" lon="6.35556">
        <ele>677.4</ele>
        <time>2022-02-05T15:08:16Z</time>
      </trkpt>
      <trkpt lat="46.14067" lon="6.35545">
        <ele>674.8</ele>
        <time>2022-02-05T15:08:18Z</time>
      </trkpt>
      <trkpt lat="46.14105" lon="6.35525">
        <ele>673.8</ele>
        <time>2022-02-05T15:08:22Z</time>
      </trkpt>
      <trkpt lat="46.14124" lon="6.35514">
        <ele>673.4</ele>
        <time>2022-02-05T15:08:24Z</time>
      </trkpt>
      <trkpt lat="46.14152" lon="6.35499">
        <ele>672</ele>
        <time>2022-02-05T15:08:27Z</time>
      </trkpt>
      <trkpt lat="46.14161" lon="6.35494">
        <ele>671.6</ele>
        <time>2022-02-05T15:08:28Z</time>
      </trkpt>
      <trkpt lat="46.1418" lon="6.35485">
        <ele>671.2</ele>
        <time>2022-02-05T15:08:30Z</time>
      </trkpt>
      <trkpt lat="46.14207" lon="6.35476">
        <ele>669.4</ele>
        <time>2022-02-05T15:08:33Z</time>
      </trkpt>
      <trkpt lat="46.14244" lon="6.35463">
        <ele>667.8</ele>
        <time>2022-02-05T15:08:37Z</time>
      </trkpt>
      <trkpt lat="46.14253" lon="6.35459">
        <ele>667.6</ele>
        <time>2022-02-05T15:08:38Z</time>
      </trkpt>
      <trkpt lat="46.1428" lon="6.35448">
        <ele>667</ele>
        <time>2022-02-05T15:08:41Z</time>
      </trkpt>
      <trkpt lat="46.14324" lon="6.3544">
        <ele>665.8</ele>
        <time>2022-02-05T15:08:46Z</time>
      </trkpt>
      <trkpt lat="46.14332" lon="6.35438">
        <ele>665.8</ele>
        <time>2022-02-05T15:08:47Z</time>
      </trkpt>
      <trkpt lat="46.1434" lon="6.35436">
        <ele>665.4</ele>
        <time>2022-02-05T15:08:48Z</time>
      </trkpt>
      <trkpt lat="46.14356" lon="6.35431">
        <ele>665.2</ele>
        <time>2022-02-05T15:08:50Z</time>
      </trkpt>
      <trkpt lat="46.14388" lon="6.35424">
        <ele>665.2</ele>
        <time>2022-02-05T15:08:54Z</time>
      </trkpt>
      <trkpt lat="46.14397" lon="6.35423">
        <ele>665.2</ele>
        <time>2022-02-05T15:08:55Z</time>
      </trkpt>
      <trkpt lat="46.14415" lon="6.35425">
        <ele>665</ele>
        <time>2022-02-05T15:08:57Z</time>
      </trkpt>
      <trkpt lat="46.14424" lon="6.35428">
        <ele>665</ele>
        <time>2022-02-05T15:08:58Z</time>
      </trkpt>
      <trkpt lat="46.14434" lon="6.3543">
        <ele>665</ele>
        <time>2022-02-05T15:08:59Z</time>
      </trkpt>
      <trkpt lat="46.14453" lon="6.35435">
        <ele>665</ele>
        <time>2022-02-05T15:09:01Z</time>
      </trkpt>
      <trkpt lat="46.14463" lon="6.35435">
        <ele>664.8</ele>
        <time>2022-02-05T15:09:02Z</time>
      </trkpt>
      <trkpt lat="46.14473" lon="6.35435">
        <ele>664.8</ele>
        <time>2022-02-05T15:09:03Z</time>
      </trkpt>
      <trkpt lat="46.14482" lon="6.35434">
        <ele>664.8</ele>
        <time>2022-02-05T15:09:04Z</time>
      </trkpt>
      <trkpt lat="46.14492" lon="6.35434">
        <ele>664.4</ele>
        <time>2022-02-05T15:09:05Z</time>
      </trkpt>
      <trkpt lat="46.14519" lon="6.35434">
        <ele>662</ele>
        <time>2022-02-05T15:09:08Z</time>
      </trkpt>
      <trkpt lat="46.14535" lon="6.35434">
        <ele>660</ele>
        <time>2022-02-05T15:09:10Z</time>
      </trkpt>
      <trkpt lat="46.1455" lon="6.35432">
        <ele>659</ele>
        <time>2022-02-05T15:09:12Z</time>
      </trkpt>
      <trkpt lat="46.14556" lon="6.3543">
        <ele>658</ele>
        <time>2022-02-05T15:09:13Z</time>
      </trkpt>
      <trkpt lat="46.14563" lon="6.35428">
        <ele>657.2</ele>
        <time>2022-02-05T15:09:14Z</time>
      </trkpt>
      <trkpt lat="46.14575" lon="6.3543">
        <ele>656</ele>
        <time>2022-02-05T15:09:16Z</time>
      </trkpt>
      <trkpt lat="46.14588" lon="6.35438">
        <ele>655.6</ele>
        <time>2022-02-05T15:09:18Z</time>
      </trkpt>
      <trkpt lat="46.14594" lon="6.35444">
        <ele>655.4</ele>
        <time>2022-02-05T15:09:19Z</time>
      </trkpt>
      <trkpt lat="46.14609" lon="6.35469">
        <ele>654</ele>
        <time>2022-02-05T15:09:23Z</time>
      </trkpt>
      <trkpt lat="46.14613" lon="6.35473">
        <ele>653.4</ele>
        <time>2022-02-05T15:09:24Z</time>
      </trkpt>
      <trkpt lat="46.14619" lon="6.35475">
        <ele>652.8</ele>
        <time>2022-02-05T15:09:25Z</time>
      </trkpt>
      <trkpt lat="46.14644" lon="6.35483">
        <ele>650.8</ele>
        <time>2022-02-05T15:09:29Z</time>
      </trkpt>
      <trkpt lat="46.14657" lon="6.35493">
        <ele>650.2</ele>
        <time>2022-02-05T15:09:31Z</time>
      </trkpt>
      <trkpt lat="46.14677" lon="6.35509">
        <ele>649</ele>
        <time>2022-02-05T15:09:34Z</time>
      </trkpt>
      <trkpt lat="46.14692" lon="6.35518">
        <ele>648</ele>
        <time>2022-02-05T15:09:36Z</time>
      </trkpt>
      <trkpt lat="46.14701" lon="6.35522">
        <ele>647.8</ele>
        <time>2022-02-05T15:09:37Z</time>
      </trkpt>
      <trkpt lat="46.14709" lon="6.35524">
        <ele>647.6</ele>
        <time>2022-02-05T15:09:38Z</time>
      </trkpt>
      <trkpt lat="46.14718" lon="6.35526">
        <ele>647.4</ele>
        <time>2022-02-05T15:09:39Z</time>
      </trkpt>
      <trkpt lat="46.14728" lon="6.35526">
        <ele>647</ele>
        <time>2022-02-05T15:09:40Z</time>
      </trkpt>
      <trkpt lat="46.14747" lon="6.35524">
        <ele>646.4</ele>
        <time>2022-02-05T15:09:42Z</time>
      </trkpt>
      <trkpt lat="46.14757" lon="6.35522">
        <ele>645.8</ele>
        <time>2022-02-05T15:09:43Z</time>
      </trkpt>
      <trkpt lat="46.14767" lon="6.3552">
        <ele>645.6</ele>
        <time>2022-02-05T15:09:44Z</time>
      </trkpt>
      <trkpt lat="46.14788" lon="6.35516">
        <ele>644.2</ele>
        <time>2022-02-05T15:09:46Z</time>
      </trkpt>
      <trkpt lat="46.1481" lon="6.35511">
        <ele>642.2</ele>
        <time>2022-02-05T15:09:48Z</time>
      </trkpt>
      <trkpt lat="46.14821" lon="6.35509">
        <ele>641.4</ele>
        <time>2022-02-05T15:09:49Z</time>
      </trkpt>
      <trkpt lat="46.14855" lon="6.35506">
        <ele>639</ele>
        <time>2022-02-05T15:09:52Z</time>
      </trkpt>
      <trkpt lat="46.14879" lon="6.35507">
        <ele>637.8</ele>
        <time>2022-02-05T15:09:54Z</time>
      </trkpt>
      <trkpt lat="46.14914" lon="6.35504">
        <ele>634.8</ele>
        <time>2022-02-05T15:09:57Z</time>
      </trkpt>
      <trkpt lat="46.14925" lon="6.35502">
        <ele>633.6</ele>
        <time>2022-02-05T15:09:58Z</time>
      </trkpt>
      <trkpt lat="46.14948" lon="6.35496">
        <ele>632.2</ele>
        <time>2022-02-05T15:10:00Z</time>
      </trkpt>
      <trkpt lat="46.14971" lon="6.35492">
        <ele>631.2</ele>
        <time>2022-02-05T15:10:02Z</time>
      </trkpt>
      <trkpt lat="46.14983" lon="6.35492">
        <ele>630.2</ele>
        <time>2022-02-05T15:10:03Z</time>
      </trkpt>
      <trkpt lat="46.14993" lon="6.35495">
        <ele>629.4</ele>
        <time>2022-02-05T15:10:04Z</time>
      </trkpt>
      <trkpt lat="46.15004" lon="6.35501">
        <ele>628.8</ele>
        <time>2022-02-05T15:10:05Z</time>
      </trkpt>
      <trkpt lat="46.15013" lon="6.35509">
        <ele>628.2</ele>
        <time>2022-02-05T15:10:06Z</time>
      </trkpt>
      <trkpt lat="46.15022" lon="6.35518">
        <ele>627.4</ele>
        <time>2022-02-05T15:10:07Z</time>
      </trkpt>
      <trkpt lat="46.1503" lon="6.35529">
        <ele>626.6</ele>
        <time>2022-02-05T15:10:08Z</time>
      </trkpt>
      <trkpt lat="46.15038" lon="6.35539">
        <ele>625.6</ele>
        <time>2022-02-05T15:10:09Z</time>
      </trkpt>
      <trkpt lat="46.15063" lon="6.35566">
        <ele>624</ele>
        <time>2022-02-05T15:10:12Z</time>
      </trkpt>
      <trkpt lat="46.15072" lon="6.35573">
        <ele>623.8</ele>
        <time>2022-02-05T15:10:13Z</time>
      </trkpt>
      <trkpt lat="46.1509" lon="6.35585">
        <ele>622.4</ele>
        <time>2022-02-05T15:10:15Z</time>
      </trkpt>
      <trkpt lat="46.15098" lon="6.35591">
        <ele>621.4</ele>
        <time>2022-02-05T15:10:16Z</time>
      </trkpt>
      <trkpt lat="46.15107" lon="6.35598">
        <ele>620.4</ele>
        <time>2022-02-05T15:10:17Z</time>
      </trkpt>
      <trkpt lat="46.15116" lon="6.35605">
        <ele>619.8</ele>
        <time>2022-02-05T15:10:18Z</time>
      </trkpt>
      <trkpt lat="46.15124" lon="6.35612">
        <ele>619.4</ele>
        <time>2022-02-05T15:10:19Z</time>
      </trkpt>
      <trkpt lat="46.15154" lon="6.35633">
        <ele>617.2</ele>
        <time>2022-02-05T15:10:23Z</time>
      </trkpt>
      <trkpt lat="46.15164" lon="6.35639">
        <ele>615.8</ele>
        <time>2022-02-05T15:10:25Z</time>
      </trkpt>
      <trkpt lat="46.15167" lon="6.35641">
        <ele>614.4</ele>
        <time>2022-02-05T15:10:26Z</time>
      </trkpt>
      <trkpt lat="46.15177" lon="6.35649">
        <ele>611.8</ele>
        <time>2022-02-05T15:10:31Z</time>
      </trkpt>
      <trkpt lat="46.1518" lon="6.35648">
        <ele>611.6</ele>
        <time>2022-02-05T15:10:32Z</time>
      </trkpt>
      <trkpt lat="46.15181" lon="6.35638">
        <ele>611.6</ele>
        <time>2022-02-05T15:10:34Z</time>
      </trkpt>
      <trkpt lat="46.1518" lon="6.35632">
        <ele>611.6</ele>
        <time>2022-02-05T15:10:35Z</time>
      </trkpt>
      <trkpt lat="46.15176" lon="6.35606">
        <ele>611.2</ele>
        <time>2022-02-05T15:10:38Z</time>
      </trkpt>
      <trkpt lat="46.15172" lon="6.35585">
        <ele>611.2</ele>
        <time>2022-02-05T15:10:40Z</time>
      </trkpt>
      <trkpt lat="46.15168" lon="6.35563">
        <ele>611.2</ele>
        <time>2022-02-05T15:10:42Z</time>
      </trkpt>
      <trkpt lat="46.15166" lon="6.35551">
        <ele>611.2</ele>
        <time>2022-02-05T15:10:43Z</time>
      </trkpt>
      <trkpt lat="46.15161" lon="6.35527">
        <ele>610.8</ele>
        <time>2022-02-05T15:10:45Z</time>
      </trkpt>
      <trkpt lat="46.15156" lon="6.355">
        <ele>610</ele>
        <time>2022-02-05T15:10:47Z</time>
      </trkpt>
      <trkpt lat="46.15153" lon="6.35486">
        <ele>610</ele>
        <time>2022-02-05T15:10:48Z</time>
      </trkpt>
      <trkpt lat="46.1515" lon="6.35472">
        <ele>609.4</ele>
        <time>2022-02-05T15:10:49Z</time>
      </trkpt>
      <trkpt lat="46.15147" lon="6.35457">
        <ele>608.8</ele>
        <time>2022-02-05T15:10:50Z</time>
      </trkpt>
      <trkpt lat="46.15136" lon="6.35395">
        <ele>606</ele>
        <time>2022-02-05T15:10:54Z</time>
      </trkpt>
      <trkpt lat="46.15134" lon="6.35379">
        <ele>605.2</ele>
        <time>2022-02-05T15:10:55Z</time>
      </trkpt>
      <trkpt lat="46.15131" lon="6.35362">
        <ele>604.2</ele>
        <time>2022-02-05T15:10:56Z</time>
      </trkpt>
      <trkpt lat="46.15128" lon="6.35345">
        <ele>603.2</ele>
        <time>2022-02-05T15:10:57Z</time>
      </trkpt>
      <trkpt lat="46.15121" lon="6.35294">
        <ele>601.2</ele>
        <time>2022-02-05T15:11:00Z</time>
      </trkpt>
      <trkpt lat="46.15119" lon="6.35276">
        <ele>600.8</ele>
        <time>2022-02-05T15:11:01Z</time>
      </trkpt>
      <trkpt lat="46.15116" lon="6.35258">
        <ele>600.4</ele>
        <time>2022-02-05T15:11:02Z</time>
      </trkpt>
      <trkpt lat="46.15103" lon="6.35168">
        <ele>595.4</ele>
        <time>2022-02-05T15:11:07Z</time>
      </trkpt>
      <trkpt lat="46.15101" lon="6.3515">
        <ele>594.8</ele>
        <time>2022-02-05T15:11:08Z</time>
      </trkpt>
      <trkpt lat="46.15098" lon="6.35132">
        <ele>594.2</ele>
        <time>2022-02-05T15:11:09Z</time>
      </trkpt>
      <trkpt lat="46.15096" lon="6.35115">
        <ele>594</ele>
        <time>2022-02-05T15:11:10Z</time>
      </trkpt>
      <trkpt lat="46.15087" lon="6.35044">
        <ele>591.8</ele>
        <time>2022-02-05T15:11:14Z</time>
      </trkpt>
      <trkpt lat="46.15085" lon="6.35027">
        <ele>591.6</ele>
        <time>2022-02-05T15:11:15Z</time>
      </trkpt>
      <trkpt lat="46.15084" lon="6.3501">
        <ele>591.4</ele>
        <time>2022-02-05T15:11:16Z</time>
      </trkpt>
      <trkpt lat="46.15084" lon="6.34993">
        <ele>591.2</ele>
        <time>2022-02-05T15:11:17Z</time>
      </trkpt>
      <trkpt lat="46.15086" lon="6.34976">
        <ele>591</ele>
        <time>2022-02-05T15:11:18Z</time>
      </trkpt>
      <trkpt lat="46.15092" lon="6.34946">
        <ele>589</ele>
        <time>2022-02-05T15:11:20Z</time>
      </trkpt>
      <trkpt lat="46.15097" lon="6.34933">
        <ele>588.4</ele>
        <time>2022-02-05T15:11:21Z</time>
      </trkpt>
      <trkpt lat="46.15103" lon="6.34922">
        <ele>588.2</ele>
        <time>2022-02-05T15:11:22Z</time>
      </trkpt>
      <trkpt lat="46.15124" lon="6.34891">
        <ele>587</ele>
        <time>2022-02-05T15:11:25Z</time>
      </trkpt>
      <trkpt lat="46.15143" lon="6.3486">
        <ele>584.8</ele>
        <time>2022-02-05T15:11:28Z</time>
      </trkpt>
      <trkpt lat="46.15156" lon="6.34838">
        <ele>584</ele>
        <time>2022-02-05T15:11:30Z</time>
      </trkpt>
      <trkpt lat="46.15163" lon="6.34827">
        <ele>583.6</ele>
        <time>2022-02-05T15:11:31Z</time>
      </trkpt>
      <trkpt lat="46.15176" lon="6.34804">
        <ele>583</ele>
        <time>2022-02-05T15:11:33Z</time>
      </trkpt>
      <trkpt lat="46.1519" lon="6.34781">
        <ele>582.2</ele>
        <time>2022-02-05T15:11:35Z</time>
      </trkpt>
      <trkpt lat="46.15204" lon="6.34757">
        <ele>581</ele>
        <time>2022-02-05T15:11:37Z</time>
      </trkpt>
      <trkpt lat="46.15211" lon="6.34745">
        <ele>580.6</ele>
        <time>2022-02-05T15:11:38Z</time>
      </trkpt>
      <trkpt lat="46.15218" lon="6.34733">
        <ele>579.8</ele>
        <time>2022-02-05T15:11:39Z</time>
      </trkpt>
      <trkpt lat="46.15225" lon="6.34721">
        <ele>579.2</ele>
        <time>2022-02-05T15:11:40Z</time>
      </trkpt>
      <trkpt lat="46.15253" lon="6.34677">
        <ele>577.6</ele>
        <time>2022-02-05T15:11:44Z</time>
      </trkpt>
      <trkpt lat="46.15273" lon="6.34642">
        <ele>575</ele>
        <time>2022-02-05T15:11:48Z</time>
      </trkpt>
      <trkpt lat="46.15276" lon="6.34633">
        <ele>574.4</ele>
        <time>2022-02-05T15:11:49Z</time>
      </trkpt>
      <trkpt lat="46.15278" lon="6.34613">
        <ele>573.4</ele>
        <time>2022-02-05T15:11:51Z</time>
      </trkpt>
      <trkpt lat="46.15278" lon="6.34602">
        <ele>572.8</ele>
        <time>2022-02-05T15:11:52Z</time>
      </trkpt>
      <trkpt lat="46.15275" lon="6.34579">
        <ele>572.6</ele>
        <time>2022-02-05T15:11:54Z</time>
      </trkpt>
      <trkpt lat="46.15274" lon="6.34568">
        <ele>572.6</ele>
        <time>2022-02-05T15:11:55Z</time>
      </trkpt>
      <trkpt lat="46.15267" lon="6.34496">
        <ele>571.8</ele>
        <time>2022-02-05T15:12:02Z</time>
      </trkpt>
      <trkpt lat="46.15265" lon="6.34482">
        <ele>571.4</ele>
        <time>2022-02-05T15:12:06Z</time>
      </trkpt>
      <trkpt lat="46.15264" lon="6.34476">
        <ele>571.2</ele>
        <time>2022-02-05T15:12:11Z</time>
      </trkpt>
      <trkpt lat="46.15264" lon="6.34451">
        <ele>571.2</ele>
        <time>2022-02-05T15:12:17Z</time>
      </trkpt>
      <trkpt lat="46.15263" lon="6.34444">
        <ele>571.2</ele>
        <time>2022-02-05T15:12:18Z</time>
      </trkpt>
      <trkpt lat="46.1526" lon="6.34427">
        <ele>571.2</ele>
        <time>2022-02-05T15:12:20Z</time>
      </trkpt>
      <trkpt lat="46.15259" lon="6.34418">
        <ele>571.2</ele>
        <time>2022-02-05T15:12:21Z</time>
      </trkpt>
      <trkpt lat="46.15257" lon="6.344">
        <ele>571</ele>
        <time>2022-02-05T15:12:23Z</time>
      </trkpt>
      <trkpt lat="46.15261" lon="6.34388">
        <ele>570.8</ele>
        <time>2022-02-05T15:12:25Z</time>
      </trkpt>
      <trkpt lat="46.15265" lon="6.34388">
        <ele>570.4</ele>
        <time>2022-02-05T15:12:26Z</time>
      </trkpt>
      <trkpt lat="46.15269" lon="6.34391">
        <ele>570</ele>
        <time>2022-02-05T15:12:27Z</time>
      </trkpt>
      <trkpt lat="46.1529" lon="6.34411">
        <ele>567.8</ele>
        <time>2022-02-05T15:12:31Z</time>
      </trkpt>
      <trkpt lat="46.15304" lon="6.34422">
        <ele>567.2</ele>
        <time>2022-02-05T15:12:33Z</time>
      </trkpt>
      <trkpt lat="46.1532" lon="6.34433">
        <ele>566</ele>
        <time>2022-02-05T15:12:35Z</time>
      </trkpt>
      <trkpt lat="46.15328" lon="6.34437">
        <ele>565.6</ele>
        <time>2022-02-05T15:12:36Z</time>
      </trkpt>
      <trkpt lat="46.15338" lon="6.34438">
        <ele>565.6</ele>
        <time>2022-02-05T15:12:37Z</time>
      </trkpt>
      <trkpt lat="46.15346" lon="6.34437">
        <ele>565.2</ele>
        <time>2022-02-05T15:12:38Z</time>
      </trkpt>
      <trkpt lat="46.15362" lon="6.34429">
        <ele>563.8</ele>
        <time>2022-02-05T15:12:41Z</time>
      </trkpt>
      <trkpt lat="46.15371" lon="6.34424">
        <ele>560.2</ele>
        <time>2022-02-05T15:12:45Z</time>
      </trkpt>
      <trkpt lat="46.15371" lon="6.34424">
        <ele>558.2</ele>
        <time>2022-02-05T15:12:57Z</time>
      </trkpt>
      <trkpt lat="46.15373" lon="6.34419">
        <ele>558.2</ele>
        <time>2022-02-05T15:13:01Z</time>
      </trkpt>
      <trkpt lat="46.15372" lon="6.34401">
        <ele>558.2</ele>
        <time>2022-02-05T15:13:05Z</time>
      </trkpt>
      <trkpt lat="46.15365" lon="6.34385">
        <ele>558.2</ele>
        <time>2022-02-05T15:13:07Z</time>
      </trkpt>
      <trkpt lat="46.15362" lon="6.34376">
        <ele>558.2</ele>
        <time>2022-02-05T15:13:08Z</time>
      </trkpt>
      <trkpt lat="46.15357" lon="6.34367">
        <ele>558.2</ele>
        <time>2022-02-05T15:13:09Z</time>
      </trkpt>
      <trkpt lat="46.15353" lon="6.34356">
        <ele>558</ele>
        <time>2022-02-05T15:13:10Z</time>
      </trkpt>
      <trkpt lat="46.15339" lon="6.34322">
        <ele>557.8</ele>
        <time>2022-02-05T15:13:13Z</time>
      </trkpt>
      <trkpt lat="46.15329" lon="6.34297">
        <ele>557.4</ele>
        <time>2022-02-05T15:13:15Z</time>
      </trkpt>
      <trkpt lat="46.15318" lon="6.34271">
        <ele>556.2</ele>
        <time>2022-02-05T15:13:17Z</time>
      </trkpt>
      <trkpt lat="46.15308" lon="6.34243">
        <ele>555.2</ele>
        <time>2022-02-05T15:13:19Z</time>
      </trkpt>
      <trkpt lat="46.15297" lon="6.34214">
        <ele>554.2</ele>
        <time>2022-02-05T15:13:21Z</time>
      </trkpt>
      <trkpt lat="46.15293" lon="6.34197">
        <ele>553.8</ele>
        <time>2022-02-05T15:13:22Z</time>
      </trkpt>
      <trkpt lat="46.15291" lon="6.3418">
        <ele>553.4</ele>
        <time>2022-02-05T15:13:23Z</time>
      </trkpt>
      <trkpt lat="46.1529" lon="6.34162">
        <ele>553</ele>
        <time>2022-02-05T15:13:24Z</time>
      </trkpt>
      <trkpt lat="46.15291" lon="6.34144">
        <ele>552.4</ele>
        <time>2022-02-05T15:13:25Z</time>
      </trkpt>
      <trkpt lat="46.15292" lon="6.34125">
        <ele>551.8</ele>
        <time>2022-02-05T15:13:26Z</time>
      </trkpt>
      <trkpt lat="46.15293" lon="6.34105">
        <ele>551</ele>
        <time>2022-02-05T15:13:27Z</time>
      </trkpt>
      <trkpt lat="46.15294" lon="6.34085">
        <ele>550.4</ele>
        <time>2022-02-05T15:13:28Z</time>
      </trkpt>
      <trkpt lat="46.15294" lon="6.34065">
        <ele>550</ele>
        <time>2022-02-05T15:13:29Z</time>
      </trkpt>
      <trkpt lat="46.15292" lon="6.34045">
        <ele>549.4</ele>
        <time>2022-02-05T15:13:30Z</time>
      </trkpt>
      <trkpt lat="46.15289" lon="6.34026">
        <ele>548.2</ele>
        <time>2022-02-05T15:13:31Z</time>
      </trkpt>
      <trkpt lat="46.1528" lon="6.33991">
        <ele>546</ele>
        <time>2022-02-05T15:13:33Z</time>
      </trkpt>
      <trkpt lat="46.15271" lon="6.33959">
        <ele>544.2</ele>
        <time>2022-02-05T15:13:35Z</time>
      </trkpt>
      <trkpt lat="46.15263" lon="6.33932">
        <ele>541.6</ele>
        <time>2022-02-05T15:13:37Z</time>
      </trkpt>
      <trkpt lat="46.1526" lon="6.3392">
        <ele>541</ele>
        <time>2022-02-05T15:13:38Z</time>
      </trkpt>
      <trkpt lat="46.15257" lon="6.33907">
        <ele>540.6</ele>
        <time>2022-02-05T15:13:39Z</time>
      </trkpt>
      <trkpt lat="46.15253" lon="6.33882">
        <ele>540.4</ele>
        <time>2022-02-05T15:13:41Z</time>
      </trkpt>
      <trkpt lat="46.15251" lon="6.33869">
        <ele>540.4</ele>
        <time>2022-02-05T15:13:42Z</time>
      </trkpt>
      <trkpt lat="46.15239" lon="6.33795">
        <ele>541.6</ele>
        <time>2022-02-05T15:13:48Z</time>
      </trkpt>
      <trkpt lat="46.15235" lon="6.33769">
        <ele>543</ele>
        <time>2022-02-05T15:13:50Z</time>
      </trkpt>
      <trkpt lat="46.15219" lon="6.33693">
        <ele>544.6</ele>
        <time>2022-02-05T15:13:56Z</time>
      </trkpt>
      <trkpt lat="46.15216" lon="6.33681">
        <ele>544.6</ele>
        <time>2022-02-05T15:13:57Z</time>
      </trkpt>
      <trkpt lat="46.15198" lon="6.33633">
        <ele>544.6</ele>
        <time>2022-02-05T15:14:01Z</time>
      </trkpt>
      <trkpt lat="46.15193" lon="6.33621">
        <ele>544.6</ele>
        <time>2022-02-05T15:14:02Z</time>
      </trkpt>
      <trkpt lat="46.15189" lon="6.33608">
        <ele>544.6</ele>
        <time>2022-02-05T15:14:03Z</time>
      </trkpt>
      <trkpt lat="46.1518" lon="6.33568">
        <ele>544.2</ele>
        <time>2022-02-05T15:14:06Z</time>
      </trkpt>
      <trkpt lat="46.15179" lon="6.33539">
        <ele>543.8</ele>
        <time>2022-02-05T15:14:08Z</time>
      </trkpt>
      <trkpt lat="46.1518" lon="6.33524">
        <ele>543.8</ele>
        <time>2022-02-05T15:14:09Z</time>
      </trkpt>
      <trkpt lat="46.15182" lon="6.3351">
        <ele>543.4</ele>
        <time>2022-02-05T15:14:10Z</time>
      </trkpt>
      <trkpt lat="46.1519" lon="6.33483">
        <ele>542.4</ele>
        <time>2022-02-05T15:14:12Z</time>
      </trkpt>
      <trkpt lat="46.15203" lon="6.33445">
        <ele>540.8</ele>
        <time>2022-02-05T15:14:15Z</time>
      </trkpt>
      <trkpt lat="46.15213" lon="6.3342">
        <ele>540.2</ele>
        <time>2022-02-05T15:14:17Z</time>
      </trkpt>
      <trkpt lat="46.15226" lon="6.33383">
        <ele>538</ele>
        <time>2022-02-05T15:14:20Z</time>
      </trkpt>
      <trkpt lat="46.15232" lon="6.33358">
        <ele>537.4</ele>
        <time>2022-02-05T15:14:22Z</time>
      </trkpt>
      <trkpt lat="46.15234" lon="6.33332">
        <ele>537.2</ele>
        <time>2022-02-05T15:14:24Z</time>
      </trkpt>
      <trkpt lat="46.15234" lon="6.33306">
        <ele>537.2</ele>
        <time>2022-02-05T15:14:26Z</time>
      </trkpt>
      <trkpt lat="46.15229" lon="6.33282">
        <ele>537.4</ele>
        <time>2022-02-05T15:14:28Z</time>
      </trkpt>
      <trkpt lat="46.15222" lon="6.33259">
        <ele>537.4</ele>
        <time>2022-02-05T15:14:30Z</time>
      </trkpt>
      <trkpt lat="46.15212" lon="6.33239">
        <ele>537.8</ele>
        <time>2022-02-05T15:14:32Z</time>
      </trkpt>
      <trkpt lat="46.15203" lon="6.3322">
        <ele>537.8</ele>
        <time>2022-02-05T15:14:34Z</time>
      </trkpt>
      <trkpt lat="46.15202" lon="6.33209">
        <ele>538</ele>
        <time>2022-02-05T15:14:35Z</time>
      </trkpt>
      <trkpt lat="46.15204" lon="6.33198">
        <ele>537.8</ele>
        <time>2022-02-05T15:14:36Z</time>
      </trkpt>
      <trkpt lat="46.15212" lon="6.33178">
        <ele>538</ele>
        <time>2022-02-05T15:14:38Z</time>
      </trkpt>
      <trkpt lat="46.15246" lon="6.33114">
        <ele>536</ele>
        <time>2022-02-05T15:14:45Z</time>
      </trkpt>
      <trkpt lat="46.1525" lon="6.33106">
        <ele>535.6</ele>
        <time>2022-02-05T15:14:46Z</time>
      </trkpt>
      <trkpt lat="46.15259" lon="6.3309">
        <ele>535.4</ele>
        <time>2022-02-05T15:14:48Z</time>
      </trkpt>
      <trkpt lat="46.15262" lon="6.33082">
        <ele>535.4</ele>
        <time>2022-02-05T15:14:49Z</time>
      </trkpt>
      <trkpt lat="46.15268" lon="6.33065">
        <ele>535.2</ele>
        <time>2022-02-05T15:14:51Z</time>
      </trkpt>
      <trkpt lat="46.1527" lon="6.33057">
        <ele>535.4</ele>
        <time>2022-02-05T15:14:52Z</time>
      </trkpt>
      <trkpt lat="46.15275" lon="6.3304">
        <ele>535.4</ele>
        <time>2022-02-05T15:14:54Z</time>
      </trkpt>
      <trkpt lat="46.15277" lon="6.33031">
        <ele>535.6</ele>
        <time>2022-02-05T15:14:55Z</time>
      </trkpt>
      <trkpt lat="46.15282" lon="6.33014">
        <ele>537.2</ele>
        <time>2022-02-05T15:14:57Z</time>
      </trkpt>
      <trkpt lat="46.15284" lon="6.33006">
        <ele>537.8</ele>
        <time>2022-02-05T15:14:58Z</time>
      </trkpt>
      <trkpt lat="46.15292" lon="6.32981">
        <ele>539.2</ele>
        <time>2022-02-05T15:15:01Z</time>
      </trkpt>
      <trkpt lat="46.15311" lon="6.32925">
        <ele>542</ele>
        <time>2022-02-05T15:15:08Z</time>
      </trkpt>
      <trkpt lat="46.15324" lon="6.32882">
        <ele>542.6</ele>
        <time>2022-02-05T15:15:13Z</time>
      </trkpt>
      <trkpt lat="46.1533" lon="6.32864">
        <ele>542.6</ele>
        <time>2022-02-05T15:15:15Z</time>
      </trkpt>
      <trkpt lat="46.15337" lon="6.32847">
        <ele>542.6</ele>
        <time>2022-02-05T15:15:17Z</time>
      </trkpt>
      <trkpt lat="46.15345" lon="6.32832">
        <ele>542.6</ele>
        <time>2022-02-05T15:15:19Z</time>
      </trkpt>
      <trkpt lat="46.1535" lon="6.32824">
        <ele>542.2</ele>
        <time>2022-02-05T15:15:20Z</time>
      </trkpt>
      <trkpt lat="46.15376" lon="6.3278">
        <ele>541.4</ele>
        <time>2022-02-05T15:15:26Z</time>
      </trkpt>
      <trkpt lat="46.15395" lon="6.32745">
        <ele>540.8</ele>
        <time>2022-02-05T15:15:30Z</time>
      </trkpt>
      <trkpt lat="46.15399" lon="6.32734">
        <ele>540.8</ele>
        <time>2022-02-05T15:15:31Z</time>
      </trkpt>
      <trkpt lat="46.15401" lon="6.32723">
        <ele>540.8</ele>
        <time>2022-02-05T15:15:32Z</time>
      </trkpt>
      <trkpt lat="46.15402" lon="6.3271">
        <ele>540.6</ele>
        <time>2022-02-05T15:15:33Z</time>
      </trkpt>
      <trkpt lat="46.15402" lon="6.32697">
        <ele>540.6</ele>
        <time>2022-02-05T15:15:34Z</time>
      </trkpt>
      <trkpt lat="46.154" lon="6.32684">
        <ele>540.4</ele>
        <time>2022-02-05T15:15:35Z</time>
      </trkpt>
      <trkpt lat="46.15398" lon="6.32655">
        <ele>540.4</ele>
        <time>2022-02-05T15:15:37Z</time>
      </trkpt>
      <trkpt lat="46.15399" lon="6.3264">
        <ele>540</ele>
        <time>2022-02-05T15:15:38Z</time>
      </trkpt>
      <trkpt lat="46.15401" lon="6.32625">
        <ele>539.6</ele>
        <time>2022-02-05T15:15:39Z</time>
      </trkpt>
      <trkpt lat="46.1541" lon="6.32598">
        <ele>539</ele>
        <time>2022-02-05T15:15:41Z</time>
      </trkpt>
      <trkpt lat="46.15416" lon="6.32586">
        <ele>538.4</ele>
        <time>2022-02-05T15:15:42Z</time>
      </trkpt>
      <trkpt lat="46.15423" lon="6.32575">
        <ele>537.4</ele>
        <time>2022-02-05T15:15:43Z</time>
      </trkpt>
      <trkpt lat="46.15431" lon="6.32566">
        <ele>536.8</ele>
        <time>2022-02-05T15:15:44Z</time>
      </trkpt>
      <trkpt lat="46.15454" lon="6.32538">
        <ele>534.8</ele>
        <time>2022-02-05T15:15:47Z</time>
      </trkpt>
      <trkpt lat="46.1546" lon="6.32526">
        <ele>533.6</ele>
        <time>2022-02-05T15:15:48Z</time>
      </trkpt>
      <trkpt lat="46.15481" lon="6.32462">
        <ele>531.4</ele>
        <time>2022-02-05T15:15:53Z</time>
      </trkpt>
      <trkpt lat="46.15489" lon="6.32438">
        <ele>531</ele>
        <time>2022-02-05T15:15:55Z</time>
      </trkpt>
      <trkpt lat="46.155" lon="6.32406">
        <ele>530.8</ele>
        <time>2022-02-05T15:15:58Z</time>
      </trkpt>
      <trkpt lat="46.15504" lon="6.32396">
        <ele>531</ele>
        <time>2022-02-05T15:15:59Z</time>
      </trkpt>
      <trkpt lat="46.15507" lon="6.32387">
        <ele>531</ele>
        <time>2022-02-05T15:16:00Z</time>
      </trkpt>
      <trkpt lat="46.1551" lon="6.32379">
        <ele>530.8</ele>
        <time>2022-02-05T15:16:01Z</time>
      </trkpt>
      <trkpt lat="46.15515" lon="6.32372">
        <ele>530.8</ele>
        <time>2022-02-05T15:16:02Z</time>
      </trkpt>
      <trkpt lat="46.1552" lon="6.32367">
        <ele>531</ele>
        <time>2022-02-05T15:16:03Z</time>
      </trkpt>
      <trkpt lat="46.15525" lon="6.32363">
        <ele>531.2</ele>
        <time>2022-02-05T15:16:04Z</time>
      </trkpt>
      <trkpt lat="46.15544" lon="6.32357">
        <ele>532.4</ele>
        <time>2022-02-05T15:16:07Z</time>
      </trkpt>
      <trkpt lat="46.15566" lon="6.32351">
        <ele>534.2</ele>
        <time>2022-02-05T15:16:10Z</time>
      </trkpt>
      <trkpt lat="46.15573" lon="6.32347">
        <ele>534.6</ele>
        <time>2022-02-05T15:16:11Z</time>
      </trkpt>
      <trkpt lat="46.1558" lon="6.32341">
        <ele>535.2</ele>
        <time>2022-02-05T15:16:12Z</time>
      </trkpt>
      <trkpt lat="46.15598" lon="6.3232">
        <ele>535.4</ele>
        <time>2022-02-05T15:16:15Z</time>
      </trkpt>
      <trkpt lat="46.15607" lon="6.32305">
        <ele>535.6</ele>
        <time>2022-02-05T15:16:17Z</time>
      </trkpt>
      <trkpt lat="46.15623" lon="6.32276">
        <ele>535.8</ele>
        <time>2022-02-05T15:16:21Z</time>
      </trkpt>
      <trkpt lat="46.15627" lon="6.32268">
        <ele>535.8</ele>
        <time>2022-02-05T15:16:22Z</time>
      </trkpt>
      <trkpt lat="46.15644" lon="6.32226">
        <ele>536.4</ele>
        <time>2022-02-05T15:16:27Z</time>
      </trkpt>
      <trkpt lat="46.15674" lon="6.32158">
        <ele>537.4</ele>
        <time>2022-02-05T15:16:35Z</time>
      </trkpt>
      <trkpt lat="46.15678" lon="6.3215">
        <ele>537.4</ele>
        <time>2022-02-05T15:16:36Z</time>
      </trkpt>
      <trkpt lat="46.15689" lon="6.32128">
        <ele>537.6</ele>
        <time>2022-02-05T15:16:39Z</time>
      </trkpt>
      <trkpt lat="46.15697" lon="6.32115">
        <ele>537.6</ele>
        <time>2022-02-05T15:16:41Z</time>
      </trkpt>
      <trkpt lat="46.15725" lon="6.32089">
        <ele>538.4</ele>
        <time>2022-02-05T15:16:46Z</time>
      </trkpt>
      <trkpt lat="46.15744" lon="6.32077">
        <ele>538.6</ele>
        <time>2022-02-05T15:16:49Z</time>
      </trkpt>
      <trkpt lat="46.15751" lon="6.32072">
        <ele>538.4</ele>
        <time>2022-02-05T15:16:50Z</time>
      </trkpt>
      <trkpt lat="46.15758" lon="6.32067">
        <ele>538.6</ele>
        <time>2022-02-05T15:16:51Z</time>
      </trkpt>
      <trkpt lat="46.15766" lon="6.32062">
        <ele>538.6</ele>
        <time>2022-02-05T15:16:52Z</time>
      </trkpt>
      <trkpt lat="46.15773" lon="6.32056">
        <ele>538.6</ele>
        <time>2022-02-05T15:16:53Z</time>
      </trkpt>
      <trkpt lat="46.15789" lon="6.32045">
        <ele>538.6</ele>
        <time>2022-02-05T15:16:55Z</time>
      </trkpt>
      <trkpt lat="46.15815" lon="6.3203">
        <ele>538</ele>
        <time>2022-02-05T15:16:58Z</time>
      </trkpt>
      <trkpt lat="46.15872" lon="6.31999">
        <ele>533.2</ele>
        <time>2022-02-05T15:17:05Z</time>
      </trkpt>
      <trkpt lat="46.1588" lon="6.31995">
        <ele>532.8</ele>
        <time>2022-02-05T15:17:06Z</time>
      </trkpt>
      <trkpt lat="46.15934" lon="6.31965">
        <ele>531.6</ele>
        <time>2022-02-05T15:17:13Z</time>
      </trkpt>
      <trkpt lat="46.15942" lon="6.3196">
        <ele>531.4</ele>
        <time>2022-02-05T15:17:14Z</time>
      </trkpt>
      <trkpt lat="46.15949" lon="6.31956">
        <ele>531.4</ele>
        <time>2022-02-05T15:17:15Z</time>
      </trkpt>
      <trkpt lat="46.15956" lon="6.3195">
        <ele>531.2</ele>
        <time>2022-02-05T15:17:16Z</time>
      </trkpt>
      <trkpt lat="46.15968" lon="6.31934">
        <ele>531</ele>
        <time>2022-02-05T15:17:18Z</time>
      </trkpt>
      <trkpt lat="46.15973" lon="6.31924">
        <ele>531</ele>
        <time>2022-02-05T15:17:19Z</time>
      </trkpt>
      <trkpt lat="46.15989" lon="6.31882">
        <ele>530.6</ele>
        <time>2022-02-05T15:17:23Z</time>
      </trkpt>
      <trkpt lat="46.16011" lon="6.31828">
        <ele>530</ele>
        <time>2022-02-05T15:17:28Z</time>
      </trkpt>
      <trkpt lat="46.16023" lon="6.31796">
        <ele>529.6</ele>
        <time>2022-02-05T15:17:31Z</time>
      </trkpt>
      <trkpt lat="46.16055" lon="6.31726">
        <ele>529.2</ele>
        <time>2022-02-05T15:17:38Z</time>
      </trkpt>
      <trkpt lat="46.16083" lon="6.31682">
        <ele>528.8</ele>
        <time>2022-02-05T15:17:43Z</time>
      </trkpt>
      <trkpt lat="46.16089" lon="6.31675">
        <ele>528.8</ele>
        <time>2022-02-05T15:17:44Z</time>
      </trkpt>
      <trkpt lat="46.16101" lon="6.31665">
        <ele>528.4</ele>
        <time>2022-02-05T15:17:46Z</time>
      </trkpt>
      <trkpt lat="46.16114" lon="6.31658">
        <ele>528.4</ele>
        <time>2022-02-05T15:17:48Z</time>
      </trkpt>
      <trkpt lat="46.16131" lon="6.31651">
        <ele>528</ele>
        <time>2022-02-05T15:17:51Z</time>
      </trkpt>
      <trkpt lat="46.16141" lon="6.31646">
        <ele>527.6</ele>
        <time>2022-02-05T15:17:53Z</time>
      </trkpt>
      <trkpt lat="46.16146" lon="6.31632">
        <ele>527.4</ele>
        <time>2022-02-05T15:17:55Z</time>
      </trkpt>
      <trkpt lat="46.16147" lon="6.31624">
        <ele>527.2</ele>
        <time>2022-02-05T15:17:56Z</time>
      </trkpt>
      <trkpt lat="46.16152" lon="6.31585">
        <ele>525.8</ele>
        <time>2022-02-05T15:18:00Z</time>
      </trkpt>
      <trkpt lat="46.16153" lon="6.31574">
        <ele>525.6</ele>
        <time>2022-02-05T15:18:01Z</time>
      </trkpt>
      <trkpt lat="46.16156" lon="6.31554">
        <ele>524.8</ele>
        <time>2022-02-05T15:18:03Z</time>
      </trkpt>
      <trkpt lat="46.16159" lon="6.31545">
        <ele>525</ele>
        <time>2022-02-05T15:18:04Z</time>
      </trkpt>
      <trkpt lat="46.16162" lon="6.31536">
        <ele>525</ele>
        <time>2022-02-05T15:18:05Z</time>
      </trkpt>
      <trkpt lat="46.1617" lon="6.3152">
        <ele>525</ele>
        <time>2022-02-05T15:18:07Z</time>
      </trkpt>
      <trkpt lat="46.16173" lon="6.31512">
        <ele>524.8</ele>
        <time>2022-02-05T15:18:08Z</time>
      </trkpt>
      <trkpt lat="46.16183" lon="6.31487">
        <ele>525</ele>
        <time>2022-02-05T15:18:11Z</time>
      </trkpt>
      <trkpt lat="46.16186" lon="6.31466">
        <ele>525</ele>
        <time>2022-02-05T15:18:13Z</time>
      </trkpt>
      <trkpt lat="46.16183" lon="6.31445">
        <ele>525</ele>
        <time>2022-02-05T15:18:15Z</time>
      </trkpt>
      <trkpt lat="46.1618" lon="6.31434">
        <ele>525</ele>
        <time>2022-02-05T15:18:16Z</time>
      </trkpt>
      <trkpt lat="46.16169" lon="6.31392">
        <ele>525.4</ele>
        <time>2022-02-05T15:18:20Z</time>
      </trkpt>
      <trkpt lat="46.1616" lon="6.31363">
        <ele>525.8</ele>
        <time>2022-02-05T15:18:23Z</time>
      </trkpt>
      <trkpt lat="46.16158" lon="6.31354">
        <ele>525.6</ele>
        <time>2022-02-05T15:18:24Z</time>
      </trkpt>
      <trkpt lat="46.16151" lon="6.31328">
        <ele>526</ele>
        <time>2022-02-05T15:18:27Z</time>
      </trkpt>
      <trkpt lat="46.1615" lon="6.3132">
        <ele>525.8</ele>
        <time>2022-02-05T15:18:28Z</time>
      </trkpt>
      <trkpt lat="46.16149" lon="6.31312">
        <ele>526.2</ele>
        <time>2022-02-05T15:18:29Z</time>
      </trkpt>
      <trkpt lat="46.16152" lon="6.31295">
        <ele>525.8</ele>
        <time>2022-02-05T15:18:31Z</time>
      </trkpt>
      <trkpt lat="46.16154" lon="6.31287">
        <ele>526.2</ele>
        <time>2022-02-05T15:18:32Z</time>
      </trkpt>
      <trkpt lat="46.16158" lon="6.31278">
        <ele>526.4</ele>
        <time>2022-02-05T15:18:33Z</time>
      </trkpt>
      <trkpt lat="46.16161" lon="6.3127">
        <ele>527</ele>
        <time>2022-02-05T15:18:34Z</time>
      </trkpt>
      <trkpt lat="46.16164" lon="6.31261">
        <ele>527</ele>
        <time>2022-02-05T15:18:35Z</time>
      </trkpt>
      <trkpt lat="46.16184" lon="6.31204">
        <ele>527.8</ele>
        <time>2022-02-05T15:18:41Z</time>
      </trkpt>
      <trkpt lat="46.16188" lon="6.31194">
        <ele>527.8</ele>
        <time>2022-02-05T15:18:42Z</time>
      </trkpt>
      <trkpt lat="46.16193" lon="6.31185">
        <ele>527.8</ele>
        <time>2022-02-05T15:18:43Z</time>
      </trkpt>
      <trkpt lat="46.16224" lon="6.31136">
        <ele>527.4</ele>
        <time>2022-02-05T15:18:49Z</time>
      </trkpt>
      <trkpt lat="46.16261" lon="6.31097">
        <ele>525</ele>
        <time>2022-02-05T15:18:55Z</time>
      </trkpt>
      <trkpt lat="46.16286" lon="6.31074">
        <ele>524.8</ele>
        <time>2022-02-05T15:18:59Z</time>
      </trkpt>
      <trkpt lat="46.16292" lon="6.31067">
        <ele>524.8</ele>
        <time>2022-02-05T15:19:00Z</time>
      </trkpt>
      <trkpt lat="46.16297" lon="6.31059">
        <ele>524.6</ele>
        <time>2022-02-05T15:19:01Z</time>
      </trkpt>
      <trkpt lat="46.16329" lon="6.30999">
        <ele>524.6</ele>
        <time>2022-02-05T15:19:08Z</time>
      </trkpt>
      <trkpt lat="46.16362" lon="6.30942">
        <ele>524.4</ele>
        <time>2022-02-05T15:19:15Z</time>
      </trkpt>
      <trkpt lat="46.16399" lon="6.30892">
        <ele>524.4</ele>
        <time>2022-02-05T15:19:22Z</time>
      </trkpt>
      <trkpt lat="46.16409" lon="6.30878">
        <ele>524.4</ele>
        <time>2022-02-05T15:19:24Z</time>
      </trkpt>
      <trkpt lat="46.16414" lon="6.30871">
        <ele>524.4</ele>
        <time>2022-02-05T15:19:25Z</time>
      </trkpt>
      <trkpt lat="46.16429" lon="6.30851">
        <ele>524.2</ele>
        <time>2022-02-05T15:19:28Z</time>
      </trkpt>
      <trkpt lat="46.1644" lon="6.30837">
        <ele>524</ele>
        <time>2022-02-05T15:19:30Z</time>
      </trkpt>
      <trkpt lat="46.16477" lon="6.30803">
        <ele>523.6</ele>
        <time>2022-02-05T15:19:36Z</time>
      </trkpt>
      <trkpt lat="46.16503" lon="6.30782">
        <ele>523.4</ele>
        <time>2022-02-05T15:19:40Z</time>
      </trkpt>
      <trkpt lat="46.16516" lon="6.30772">
        <ele>523.4</ele>
        <time>2022-02-05T15:19:42Z</time>
      </trkpt>
      <trkpt lat="46.16534" lon="6.30757">
        <ele>523.2</ele>
        <time>2022-02-05T15:19:45Z</time>
      </trkpt>
      <trkpt lat="46.16557" lon="6.30737">
        <ele>523.2</ele>
        <time>2022-02-05T15:19:49Z</time>
      </trkpt>
      <trkpt lat="46.16573" lon="6.30718">
        <ele>523</ele>
        <time>2022-02-05T15:19:52Z</time>
      </trkpt>
      <trkpt lat="46.16583" lon="6.30705">
        <ele>523</ele>
        <time>2022-02-05T15:19:54Z</time>
      </trkpt>
      <trkpt lat="46.16616" lon="6.30654">
        <ele>522.8</ele>
        <time>2022-02-05T15:20:01Z</time>
      </trkpt>
      <trkpt lat="46.16619" lon="6.30646">
        <ele>523</ele>
        <time>2022-02-05T15:20:02Z</time>
      </trkpt>
      <trkpt lat="46.16631" lon="6.30608">
        <ele>522.8</ele>
        <time>2022-02-05T15:20:06Z</time>
      </trkpt>
      <trkpt lat="46.16639" lon="6.30581">
        <ele>522.2</ele>
        <time>2022-02-05T15:20:09Z</time>
      </trkpt>
      <trkpt lat="46.16641" lon="6.30564">
        <ele>522.2</ele>
        <time>2022-02-05T15:20:11Z</time>
      </trkpt>
      <trkpt lat="46.16641" lon="6.30549">
        <ele>521.8</ele>
        <time>2022-02-05T15:20:13Z</time>
      </trkpt>
      <trkpt lat="46.16638" lon="6.30536">
        <ele>521.8</ele>
        <time>2022-02-05T15:20:15Z</time>
      </trkpt>
      <trkpt lat="46.16636" lon="6.30531">
        <ele>521.8</ele>
        <time>2022-02-05T15:20:16Z</time>
      </trkpt>
      <trkpt lat="46.16633" lon="6.30525">
        <ele>521.6</ele>
        <time>2022-02-05T15:20:17Z</time>
      </trkpt>
      <trkpt lat="46.16624" lon="6.30514">
        <ele>521.2</ele>
        <time>2022-02-05T15:20:19Z</time>
      </trkpt>
      <trkpt lat="46.16613" lon="6.30504">
        <ele>521</ele>
        <time>2022-02-05T15:20:21Z</time>
      </trkpt>
      <trkpt lat="46.16599" lon="6.30492">
        <ele>520.8</ele>
        <time>2022-02-05T15:20:23Z</time>
      </trkpt>
      <trkpt lat="46.16591" lon="6.30486">
        <ele>520.6</ele>
        <time>2022-02-05T15:20:24Z</time>
      </trkpt>
      <trkpt lat="46.16584" lon="6.30478">
        <ele>520.2</ele>
        <time>2022-02-05T15:20:25Z</time>
      </trkpt>
      <trkpt lat="46.16578" lon="6.30468">
        <ele>520.2</ele>
        <time>2022-02-05T15:20:26Z</time>
      </trkpt>
      <trkpt lat="46.16571" lon="6.30458">
        <ele>519.8</ele>
        <time>2022-02-05T15:20:27Z</time>
      </trkpt>
      <trkpt lat="46.16551" lon="6.30426">
        <ele>517.8</ele>
        <time>2022-02-05T15:20:30Z</time>
      </trkpt>
      <trkpt lat="46.16544" lon="6.30414">
        <ele>517.2</ele>
        <time>2022-02-05T15:20:31Z</time>
      </trkpt>
      <trkpt lat="46.16537" lon="6.30402">
        <ele>516.6</ele>
        <time>2022-02-05T15:20:32Z</time>
      </trkpt>
      <trkpt lat="46.16524" lon="6.30378">
        <ele>514.8</ele>
        <time>2022-02-05T15:20:34Z</time>
      </trkpt>
      <trkpt lat="46.16498" lon="6.30329">
        <ele>511</ele>
        <time>2022-02-05T15:20:38Z</time>
      </trkpt>
      <trkpt lat="46.16478" lon="6.30293">
        <ele>509</ele>
        <time>2022-02-05T15:20:41Z</time>
      </trkpt>
      <trkpt lat="46.1645" lon="6.30244">
        <ele>505.8</ele>
        <time>2022-02-05T15:20:45Z</time>
      </trkpt>
      <trkpt lat="46.16442" lon="6.30233">
        <ele>505.6</ele>
        <time>2022-02-05T15:20:46Z</time>
      </trkpt>
      <trkpt lat="46.16435" lon="6.30221">
        <ele>505</ele>
        <time>2022-02-05T15:20:47Z</time>
      </trkpt>
      <trkpt lat="46.16399" lon="6.30162">
        <ele>502.4</ele>
        <time>2022-02-05T15:20:52Z</time>
      </trkpt>
      <trkpt lat="46.16385" lon="6.30139">
        <ele>501.8</ele>
        <time>2022-02-05T15:20:54Z</time>
      </trkpt>
      <trkpt lat="46.16349" lon="6.30081">
        <ele>501.2</ele>
        <time>2022-02-05T15:20:59Z</time>
      </trkpt>
      <trkpt lat="46.16335" lon="6.30057">
        <ele>501.2</ele>
        <time>2022-02-05T15:21:01Z</time>
      </trkpt>
      <trkpt lat="46.16322" lon="6.30035">
        <ele>501</ele>
        <time>2022-02-05T15:21:03Z</time>
      </trkpt>
      <trkpt lat="46.16298" lon="6.29991">
        <ele>500.8</ele>
        <time>2022-02-05T15:21:07Z</time>
      </trkpt>
      <trkpt lat="46.16276" lon="6.29948">
        <ele>500.8</ele>
        <time>2022-02-05T15:21:11Z</time>
      </trkpt>
      <trkpt lat="46.16271" lon="6.29936">
        <ele>500.6</ele>
        <time>2022-02-05T15:21:12Z</time>
      </trkpt>
      <trkpt lat="46.16254" lon="6.29887">
        <ele>499.6</ele>
        <time>2022-02-05T15:21:16Z</time>
      </trkpt>
      <trkpt lat="46.16244" lon="6.29849">
        <ele>499</ele>
        <time>2022-02-05T15:21:19Z</time>
      </trkpt>
      <trkpt lat="46.16228" lon="6.29786">
        <ele>498</ele>
        <time>2022-02-05T15:21:24Z</time>
      </trkpt>
      <trkpt lat="46.16211" lon="6.29715">
        <ele>497.2</ele>
        <time>2022-02-05T15:21:30Z</time>
      </trkpt>
      <trkpt lat="46.1621" lon="6.29703">
        <ele>497</ele>
        <time>2022-02-05T15:21:31Z</time>
      </trkpt>
      <trkpt lat="46.1621" lon="6.29678">
        <ele>496.8</ele>
        <time>2022-02-05T15:21:33Z</time>
      </trkpt>
      <trkpt lat="46.16213" lon="6.29655">
        <ele>496.8</ele>
        <time>2022-02-05T15:21:35Z</time>
      </trkpt>
      <trkpt lat="46.16219" lon="6.29609">
        <ele>496.4</ele>
        <time>2022-02-05T15:21:39Z</time>
      </trkpt>
      <trkpt lat="46.16221" lon="6.29574">
        <ele>496.2</ele>
        <time>2022-02-05T15:21:42Z</time>
      </trkpt>
      <trkpt lat="46.16219" lon="6.29514">
        <ele>495.6</ele>
        <time>2022-02-05T15:21:47Z</time>
      </trkpt>
      <trkpt lat="46.16219" lon="6.29502">
        <ele>495.4</ele>
        <time>2022-02-05T15:21:48Z</time>
      </trkpt>
      <trkpt lat="46.16218" lon="6.29491">
        <ele>495.6</ele>
        <time>2022-02-05T15:21:49Z</time>
      </trkpt>
      <trkpt lat="46.16216" lon="6.29447">
        <ele>495.2</ele>
        <time>2022-02-05T15:21:53Z</time>
      </trkpt>
      <trkpt lat="46.16212" lon="6.29413">
        <ele>495</ele>
        <time>2022-02-05T15:21:56Z</time>
      </trkpt>
      <trkpt lat="46.16201" lon="6.29366">
        <ele>494.8</ele>
        <time>2022-02-05T15:22:00Z</time>
      </trkpt>
      <trkpt lat="46.16194" lon="6.29342">
        <ele>494.6</ele>
        <time>2022-02-05T15:22:02Z</time>
      </trkpt>
      <trkpt lat="46.16175" lon="6.29265">
        <ele>494</ele>
        <time>2022-02-05T15:22:08Z</time>
      </trkpt>
      <trkpt lat="46.16168" lon="6.2924">
        <ele>492.4</ele>
        <time>2022-02-05T15:22:10Z</time>
      </trkpt>
      <trkpt lat="46.16152" lon="6.29177">
        <ele>491.6</ele>
        <time>2022-02-05T15:22:15Z</time>
      </trkpt>
      <trkpt lat="46.16136" lon="6.29114">
        <ele>489.8</ele>
        <time>2022-02-05T15:22:20Z</time>
      </trkpt>
      <trkpt lat="46.16125" lon="6.29076">
        <ele>488.6</ele>
        <time>2022-02-05T15:22:23Z</time>
      </trkpt>
      <trkpt lat="46.16115" lon="6.29037">
        <ele>488.4</ele>
        <time>2022-02-05T15:22:26Z</time>
      </trkpt>
      <trkpt lat="46.16104" lon="6.28998">
        <ele>488</ele>
        <time>2022-02-05T15:22:29Z</time>
      </trkpt>
      <trkpt lat="46.16101" lon="6.28985">
        <ele>488</ele>
        <time>2022-02-05T15:22:30Z</time>
      </trkpt>
      <trkpt lat="46.16097" lon="6.28973">
        <ele>487.6</ele>
        <time>2022-02-05T15:22:31Z</time>
      </trkpt>
      <trkpt lat="46.16087" lon="6.28936">
        <ele>486.4</ele>
        <time>2022-02-05T15:22:34Z</time>
      </trkpt>
      <trkpt lat="46.16077" lon="6.28902">
        <ele>484.2</ele>
        <time>2022-02-05T15:22:37Z</time>
      </trkpt>
      <trkpt lat="46.16074" lon="6.2889">
        <ele>484</ele>
        <time>2022-02-05T15:22:38Z</time>
      </trkpt>
      <trkpt lat="46.16052" lon="6.28824">
        <ele>483.8</ele>
        <time>2022-02-05T15:22:44Z</time>
      </trkpt>
      <trkpt lat="46.16021" lon="6.28753">
        <ele>484.2</ele>
        <time>2022-02-05T15:22:51Z</time>
      </trkpt>
      <trkpt lat="46.16016" lon="6.28743">
        <ele>484.2</ele>
        <time>2022-02-05T15:22:52Z</time>
      </trkpt>
      <trkpt lat="46.15999" lon="6.28713">
        <ele>484.4</ele>
        <time>2022-02-05T15:22:55Z</time>
      </trkpt>
      <trkpt lat="46.15981" lon="6.28683">
        <ele>484.4</ele>
        <time>2022-02-05T15:22:58Z</time>
      </trkpt>
      <trkpt lat="46.15975" lon="6.28672">
        <ele>484.2</ele>
        <time>2022-02-05T15:22:59Z</time>
      </trkpt>
      <trkpt lat="46.15962" lon="6.28651">
        <ele>484.2</ele>
        <time>2022-02-05T15:23:01Z</time>
      </trkpt>
      <trkpt lat="46.15948" lon="6.28629">
        <ele>483.6</ele>
        <time>2022-02-05T15:23:03Z</time>
      </trkpt>
      <trkpt lat="46.15941" lon="6.28618">
        <ele>483.2</ele>
        <time>2022-02-05T15:23:04Z</time>
      </trkpt>
      <trkpt lat="46.15934" lon="6.28607">
        <ele>482.8</ele>
        <time>2022-02-05T15:23:05Z</time>
      </trkpt>
      <trkpt lat="46.15898" lon="6.28558">
        <ele>480.4</ele>
        <time>2022-02-05T15:23:10Z</time>
      </trkpt>
      <trkpt lat="46.15892" lon="6.28549">
        <ele>479.6</ele>
        <time>2022-02-05T15:23:11Z</time>
      </trkpt>
      <trkpt lat="46.15876" lon="6.28529">
        <ele>477.2</ele>
        <time>2022-02-05T15:23:14Z</time>
      </trkpt>
      <trkpt lat="46.1587" lon="6.2852">
        <ele>476.6</ele>
        <time>2022-02-05T15:23:16Z</time>
      </trkpt>
      <trkpt lat="46.15869" lon="6.28517">
        <ele>476.4</ele>
        <time>2022-02-05T15:23:17Z</time>
      </trkpt>
      <trkpt lat="46.15869" lon="6.28515">
        <ele>476.6</ele>
        <time>2022-02-05T15:23:18Z</time>
      </trkpt>
      <trkpt lat="46.15871" lon="6.28503">
        <ele>476.4</ele>
        <time>2022-02-05T15:23:21Z</time>
      </trkpt>
      <trkpt lat="46.15878" lon="6.28474">
        <ele>476.6</ele>
        <time>2022-02-05T15:23:26Z</time>
      </trkpt>
      <trkpt lat="46.15893" lon="6.28425">
        <ele>476.8</ele>
        <time>2022-02-05T15:23:33Z</time>
      </trkpt>
      <trkpt lat="46.15895" lon="6.28419">
        <ele>476.8</ele>
        <time>2022-02-05T15:23:34Z</time>
      </trkpt>
      <trkpt lat="46.15898" lon="6.28412">
        <ele>476.6</ele>
        <time>2022-02-05T15:23:35Z</time>
      </trkpt>
      <trkpt lat="46.15903" lon="6.28399">
        <ele>476.6</ele>
        <time>2022-02-05T15:23:37Z</time>
      </trkpt>
      <trkpt lat="46.15915" lon="6.28372">
        <ele>476.6</ele>
        <time>2022-02-05T15:23:41Z</time>
      </trkpt>
      <trkpt lat="46.15921" lon="6.28359">
        <ele>476.8</ele>
        <time>2022-02-05T15:23:43Z</time>
      </trkpt>
      <trkpt lat="46.15932" lon="6.28338">
        <ele>478</ele>
        <time>2022-02-05T15:23:46Z</time>
      </trkpt>
      <trkpt lat="46.15939" lon="6.28324">
        <ele>478.6</ele>
        <time>2022-02-05T15:23:48Z</time>
      </trkpt>
      <trkpt lat="46.1595" lon="6.28303">
        <ele>479.4</ele>
        <time>2022-02-05T15:23:51Z</time>
      </trkpt>
      <trkpt lat="46.15973" lon="6.28258">
        <ele>479.4</ele>
        <time>2022-02-05T15:23:57Z</time>
      </trkpt>
      <trkpt lat="46.16004" lon="6.28195">
        <ele>480.2</ele>
        <time>2022-02-05T15:24:05Z</time>
      </trkpt>
      <trkpt lat="46.16017" lon="6.28161">
        <ele>480.4</ele>
        <time>2022-02-05T15:24:09Z</time>
      </trkpt>
      <trkpt lat="46.16035" lon="6.28116">
        <ele>480.6</ele>
        <time>2022-02-05T15:24:14Z</time>
      </trkpt>
      <trkpt lat="46.16063" lon="6.28043">
        <ele>481.6</ele>
        <time>2022-02-05T15:24:22Z</time>
      </trkpt>
      <trkpt lat="46.16066" lon="6.28034">
        <ele>481.4</ele>
        <time>2022-02-05T15:24:23Z</time>
      </trkpt>
      <trkpt lat="46.16095" lon="6.2796">
        <ele>481.4</ele>
        <time>2022-02-05T15:24:31Z</time>
      </trkpt>
      <trkpt lat="46.16098" lon="6.27952">
        <ele>481.6</ele>
        <time>2022-02-05T15:24:32Z</time>
      </trkpt>
      <trkpt lat="46.16101" lon="6.27943">
        <ele>481.4</ele>
        <time>2022-02-05T15:24:33Z</time>
      </trkpt>
      <trkpt lat="46.16115" lon="6.27908">
        <ele>480.8</ele>
        <time>2022-02-05T15:24:37Z</time>
      </trkpt>
      <trkpt lat="46.16129" lon="6.27872">
        <ele>481</ele>
        <time>2022-02-05T15:24:41Z</time>
      </trkpt>
      <trkpt lat="46.16132" lon="6.27862">
        <ele>481</ele>
        <time>2022-02-05T15:24:42Z</time>
      </trkpt>
      <trkpt lat="46.16161" lon="6.27787">
        <ele>481.6</ele>
        <time>2022-02-05T15:24:50Z</time>
      </trkpt>
      <trkpt lat="46.16168" lon="6.27769">
        <ele>481.8</ele>
        <time>2022-02-05T15:24:52Z</time>
      </trkpt>
      <trkpt lat="46.16182" lon="6.27732">
        <ele>482.2</ele>
        <time>2022-02-05T15:24:56Z</time>
      </trkpt>
      <trkpt lat="46.16192" lon="6.27706">
        <ele>482.2</ele>
        <time>2022-02-05T15:24:59Z</time>
      </trkpt>
      <trkpt lat="46.16195" lon="6.27697">
        <ele>482.4</ele>
        <time>2022-02-05T15:25:00Z</time>
      </trkpt>
      <trkpt lat="46.16198" lon="6.27688">
        <ele>482.2</ele>
        <time>2022-02-05T15:25:01Z</time>
      </trkpt>
      <trkpt lat="46.16207" lon="6.27664">
        <ele>482.2</ele>
        <time>2022-02-05T15:25:04Z</time>
      </trkpt>
      <trkpt lat="46.16213" lon="6.27651">
        <ele>482.4</ele>
        <time>2022-02-05T15:25:06Z</time>
      </trkpt>
      <trkpt lat="46.1622" lon="6.27641">
        <ele>482.2</ele>
        <time>2022-02-05T15:25:08Z</time>
      </trkpt>
      <trkpt lat="46.16226" lon="6.27634">
        <ele>482.2</ele>
        <time>2022-02-05T15:25:10Z</time>
      </trkpt>
      <trkpt lat="46.16235" lon="6.27624">
        <ele>482.2</ele>
        <time>2022-02-05T15:25:13Z</time>
      </trkpt>
      <trkpt lat="46.16237" lon="6.27618">
        <ele>482.2</ele>
        <time>2022-02-05T15:25:14Z</time>
      </trkpt>
      <trkpt lat="46.16237" lon="6.27612">
        <ele>482.4</ele>
        <time>2022-02-05T15:25:15Z</time>
      </trkpt>
      <trkpt lat="46.16238" lon="6.27595">
        <ele>482.2</ele>
        <time>2022-02-05T15:25:17Z</time>
      </trkpt>
      <trkpt lat="46.16242" lon="6.27578">
        <ele>482.6</ele>
        <time>2022-02-05T15:25:19Z</time>
      </trkpt>
      <trkpt lat="46.16248" lon="6.27561">
        <ele>482.6</ele>
        <time>2022-02-05T15:25:21Z</time>
      </trkpt>
      <trkpt lat="46.16251" lon="6.27552">
        <ele>482.6</ele>
        <time>2022-02-05T15:25:22Z</time>
      </trkpt>
      <trkpt lat="46.16276" lon="6.27488">
        <ele>483</ele>
        <time>2022-02-05T15:25:29Z</time>
      </trkpt>
      <trkpt lat="46.16296" lon="6.27435">
        <ele>483</ele>
        <time>2022-02-05T15:25:35Z</time>
      </trkpt>
      <trkpt lat="46.16303" lon="6.27418">
        <ele>483.2</ele>
        <time>2022-02-05T15:25:37Z</time>
      </trkpt>
      <trkpt lat="46.16329" lon="6.27349">
        <ele>483.2</ele>
        <time>2022-02-05T15:25:45Z</time>
      </trkpt>
      <trkpt lat="46.16332" lon="6.2734">
        <ele>483.2</ele>
        <time>2022-02-05T15:25:46Z</time>
      </trkpt>
      <trkpt lat="46.16352" lon="6.27288">
        <ele>483.4</ele>
        <time>2022-02-05T15:25:52Z</time>
      </trkpt>
      <trkpt lat="46.16361" lon="6.27272">
        <ele>483.2</ele>
        <time>2022-02-05T15:25:54Z</time>
      </trkpt>
      <trkpt lat="46.16373" lon="6.27257">
        <ele>483.2</ele>
        <time>2022-02-05T15:25:56Z</time>
      </trkpt>
      <trkpt lat="46.16387" lon="6.27244">
        <ele>483.4</ele>
        <time>2022-02-05T15:25:58Z</time>
      </trkpt>
      <trkpt lat="46.16395" lon="6.27239">
        <ele>483.4</ele>
        <time>2022-02-05T15:25:59Z</time>
      </trkpt>
      <trkpt lat="46.16403" lon="6.27234">
        <ele>483.2</ele>
        <time>2022-02-05T15:26:00Z</time>
      </trkpt>
      <trkpt lat="46.16421" lon="6.27229">
        <ele>483</ele>
        <time>2022-02-05T15:26:02Z</time>
      </trkpt>
      <trkpt lat="46.1644" lon="6.2723">
        <ele>482.8</ele>
        <time>2022-02-05T15:26:04Z</time>
      </trkpt>
      <trkpt lat="46.16449" lon="6.27232">
        <ele>482.6</ele>
        <time>2022-02-05T15:26:05Z</time>
      </trkpt>
      <trkpt lat="46.16458" lon="6.27234">
        <ele>482.4</ele>
        <time>2022-02-05T15:26:06Z</time>
      </trkpt>
      <trkpt lat="46.16515" lon="6.27253">
        <ele>479.2</ele>
        <time>2022-02-05T15:26:12Z</time>
      </trkpt>
      <trkpt lat="46.16525" lon="6.27256">
        <ele>478.4</ele>
        <time>2022-02-05T15:26:13Z</time>
      </trkpt>
      <trkpt lat="46.16544" lon="6.27262">
        <ele>477</ele>
        <time>2022-02-05T15:26:15Z</time>
      </trkpt>
      <trkpt lat="46.16572" lon="6.27275">
        <ele>476.4</ele>
        <time>2022-02-05T15:26:18Z</time>
      </trkpt>
      <trkpt lat="46.1658" lon="6.27281">
        <ele>476.2</ele>
        <time>2022-02-05T15:26:19Z</time>
      </trkpt>
      <trkpt lat="46.16605" lon="6.27305">
        <ele>475.4</ele>
        <time>2022-02-05T15:26:22Z</time>
      </trkpt>
      <trkpt lat="46.16621" lon="6.27323">
        <ele>474.4</ele>
        <time>2022-02-05T15:26:24Z</time>
      </trkpt>
      <trkpt lat="46.1663" lon="6.27331">
        <ele>473.8</ele>
        <time>2022-02-05T15:26:25Z</time>
      </trkpt>
      <trkpt lat="46.16639" lon="6.27337">
        <ele>473.4</ele>
        <time>2022-02-05T15:26:26Z</time>
      </trkpt>
      <trkpt lat="46.1665" lon="6.27343">
        <ele>473</ele>
        <time>2022-02-05T15:26:27Z</time>
      </trkpt>
      <trkpt lat="46.1666" lon="6.27347">
        <ele>472.6</ele>
        <time>2022-02-05T15:26:28Z</time>
      </trkpt>
      <trkpt lat="46.1667" lon="6.2735">
        <ele>472.4</ele>
        <time>2022-02-05T15:26:29Z</time>
      </trkpt>
      <trkpt lat="46.16701" lon="6.27357">
        <ele>471.2</ele>
        <time>2022-02-05T15:26:32Z</time>
      </trkpt>
      <trkpt lat="46.16711" lon="6.27358">
        <ele>470.8</ele>
        <time>2022-02-05T15:26:33Z</time>
      </trkpt>
      <trkpt lat="46.16732" lon="6.27362">
        <ele>469.6</ele>
        <time>2022-02-05T15:26:35Z</time>
      </trkpt>
      <trkpt lat="46.16762" lon="6.27368">
        <ele>467.6</ele>
        <time>2022-02-05T15:26:38Z</time>
      </trkpt>
      <trkpt lat="46.16783" lon="6.27371">
        <ele>466.8</ele>
        <time>2022-02-05T15:26:40Z</time>
      </trkpt>
      <trkpt lat="46.16793" lon="6.2737">
        <ele>466.6</ele>
        <time>2022-02-05T15:26:41Z</time>
      </trkpt>
      <trkpt lat="46.16812" lon="6.27361">
        <ele>465.4</ele>
        <time>2022-02-05T15:26:43Z</time>
      </trkpt>
      <trkpt lat="46.16821" lon="6.27353">
        <ele>465.2</ele>
        <time>2022-02-05T15:26:44Z</time>
      </trkpt>
      <trkpt lat="46.16829" lon="6.27343">
        <ele>464.8</ele>
        <time>2022-02-05T15:26:45Z</time>
      </trkpt>
      <trkpt lat="46.16835" lon="6.27331">
        <ele>464.2</ele>
        <time>2022-02-05T15:26:46Z</time>
      </trkpt>
      <trkpt lat="46.1684" lon="6.27319">
        <ele>463.6</ele>
        <time>2022-02-05T15:26:47Z</time>
      </trkpt>
      <trkpt lat="46.16844" lon="6.27305">
        <ele>462.8</ele>
        <time>2022-02-05T15:26:48Z</time>
      </trkpt>
      <trkpt lat="46.16847" lon="6.27291">
        <ele>462.4</ele>
        <time>2022-02-05T15:26:49Z</time>
      </trkpt>
      <trkpt lat="46.16852" lon="6.27251">
        <ele>461.6</ele>
        <time>2022-02-05T15:26:52Z</time>
      </trkpt>
      <trkpt lat="46.16855" lon="6.27225">
        <ele>460.8</ele>
        <time>2022-02-05T15:26:54Z</time>
      </trkpt>
      <trkpt lat="46.1686" lon="6.27177">
        <ele>460.2</ele>
        <time>2022-02-05T15:26:58Z</time>
      </trkpt>
      <trkpt lat="46.16858" lon="6.27165">
        <ele>460</ele>
        <time>2022-02-05T15:26:59Z</time>
      </trkpt>
      <trkpt lat="46.16854" lon="6.27155">
        <ele>460</ele>
        <time>2022-02-05T15:27:00Z</time>
      </trkpt>
      <trkpt lat="46.16848" lon="6.27146">
        <ele>459.8</ele>
        <time>2022-02-05T15:27:01Z</time>
      </trkpt>
      <trkpt lat="46.1684" lon="6.2714">
        <ele>459.6</ele>
        <time>2022-02-05T15:27:02Z</time>
      </trkpt>
      <trkpt lat="46.16832" lon="6.27136">
        <ele>459.6</ele>
        <time>2022-02-05T15:27:03Z</time>
      </trkpt>
      <trkpt lat="46.16808" lon="6.27125">
        <ele>459.4</ele>
        <time>2022-02-05T15:27:06Z</time>
      </trkpt>
      <trkpt lat="46.16786" lon="6.27117">
        <ele>459.2</ele>
        <time>2022-02-05T15:27:09Z</time>
      </trkpt>
      <trkpt lat="46.1678" lon="6.27113">
        <ele>459.2</ele>
        <time>2022-02-05T15:27:10Z</time>
      </trkpt>
      <trkpt lat="46.16775" lon="6.27109">
        <ele>459.2</ele>
        <time>2022-02-05T15:27:11Z</time>
      </trkpt>
      <trkpt lat="46.16766" lon="6.27099">
        <ele>459.2</ele>
        <time>2022-02-05T15:27:13Z</time>
      </trkpt>
      <trkpt lat="46.16763" lon="6.27095">
        <ele>459.2</ele>
        <time>2022-02-05T15:27:14Z</time>
      </trkpt>
      <trkpt lat="46.16758" lon="6.27088">
        <ele>459.2</ele>
        <time>2022-02-05T15:27:16Z</time>
      </trkpt>
      <trkpt lat="46.16753" lon="6.2708">
        <ele>459.6</ele>
        <time>2022-02-05T15:27:18Z</time>
      </trkpt>
      <trkpt lat="46.1675" lon="6.27078">
        <ele>460.2</ele>
        <time>2022-02-05T15:27:19Z</time>
      </trkpt>
      <trkpt lat="46.16743" lon="6.27069">
        <ele>462.4</ele>
        <time>2022-02-05T15:27:22Z</time>
      </trkpt>
      <trkpt lat="46.16736" lon="6.27062">
        <ele>464</ele>
        <time>2022-02-05T15:27:25Z</time>
      </trkpt>
      <trkpt lat="46.16734" lon="6.27059">
        <ele>464.2</ele>
        <time>2022-02-05T15:27:26Z</time>
      </trkpt>
      <trkpt lat="46.16727" lon="6.2705">
        <ele>465.6</ele>
        <time>2022-02-05T15:27:29Z</time>
      </trkpt>
      <trkpt lat="46.16724" lon="6.27041">
        <ele>466.4</ele>
        <time>2022-02-05T15:27:31Z</time>
      </trkpt>
      <trkpt lat="46.16723" lon="6.27032">
        <ele>466.8</ele>
        <time>2022-02-05T15:27:33Z</time>
      </trkpt>
      <trkpt lat="46.16725" lon="6.27018">
        <ele>467.8</ele>
        <time>2022-02-05T15:27:36Z</time>
      </trkpt>
      <trkpt lat="46.16728" lon="6.27009">
        <ele>468.6</ele>
        <time>2022-02-05T15:27:38Z</time>
      </trkpt>
      <trkpt lat="46.16736" lon="6.26991">
        <ele>469.8</ele>
        <time>2022-02-05T15:27:42Z</time>
      </trkpt>
      <trkpt lat="46.16738" lon="6.26988">
        <ele>470</ele>
        <time>2022-02-05T15:27:43Z</time>
      </trkpt>
      <trkpt lat="46.16746" lon="6.26978">
        <ele>470.8</ele>
        <time>2022-02-05T15:27:46Z</time>
      </trkpt>
      <trkpt lat="46.16759" lon="6.26963">
        <ele>472</ele>
        <time>2022-02-05T15:27:51Z</time>
      </trkpt>
      <trkpt lat="46.16761" lon="6.26959">
        <ele>472.4</ele>
        <time>2022-02-05T15:27:52Z</time>
      </trkpt>
      <trkpt lat="46.16774" lon="6.26945">
        <ele>473.8</ele>
        <time>2022-02-05T15:27:57Z</time>
      </trkpt>
      <trkpt lat="46.16783" lon="6.26938">
        <ele>474.4</ele>
        <time>2022-02-05T15:28:00Z</time>
      </trkpt>
      <trkpt lat="46.16786" lon="6.26935">
        <ele>474.6</ele>
        <time>2022-02-05T15:28:01Z</time>
      </trkpt>
      <trkpt lat="46.16802" lon="6.26924">
        <ele>475.8</ele>
        <time>2022-02-05T15:28:07Z</time>
      </trkpt>
      <trkpt lat="46.16807" lon="6.2692">
        <ele>476.4</ele>
        <time>2022-02-05T15:28:09Z</time>
      </trkpt>
      <trkpt lat="46.16813" lon="6.26917">
        <ele>476.8</ele>
        <time>2022-02-05T15:28:11Z</time>
      </trkpt>
      <trkpt lat="46.16829" lon="6.26906">
        <ele>478</ele>
        <time>2022-02-05T15:28:17Z</time>
      </trkpt>
      <trkpt lat="46.16834" lon="6.26903">
        <ele>478.4</ele>
        <time>2022-02-05T15:28:19Z</time>
      </trkpt>
      <trkpt lat="46.16839" lon="6.26899">
        <ele>479.2</ele>
        <time>2022-02-05T15:28:21Z</time>
      </trkpt>
      <trkpt lat="46.16847" lon="6.26894">
        <ele>480</ele>
        <time>2022-02-05T15:28:24Z</time>
      </trkpt>
      <trkpt lat="46.16852" lon="6.26889">
        <ele>480.2</ele>
        <time>2022-02-05T15:28:26Z</time>
      </trkpt>
      <trkpt lat="46.16862" lon="6.26877">
        <ele>481.2</ele>
        <time>2022-02-05T15:28:30Z</time>
      </trkpt>
      <trkpt lat="46.16869" lon="6.26867">
        <ele>481.8</ele>
        <time>2022-02-05T15:28:33Z</time>
      </trkpt>
      <trkpt lat="46.16882" lon="6.26848">
        <ele>482.8</ele>
        <time>2022-02-05T15:28:38Z</time>
      </trkpt>
      <trkpt lat="46.16886" lon="6.26839">
        <ele>483.2</ele>
        <time>2022-02-05T15:28:40Z</time>
      </trkpt>
      <trkpt lat="46.16896" lon="6.26816">
        <ele>484</ele>
        <time>2022-02-05T15:28:45Z</time>
      </trkpt>
      <trkpt lat="46.16907" lon="6.2677">
        <ele>485.2</ele>
        <time>2022-02-05T15:28:53Z</time>
      </trkpt>
      <trkpt lat="46.16908" lon="6.26757">
        <ele>485.2</ele>
        <time>2022-02-05T15:28:55Z</time>
      </trkpt>
      <trkpt lat="46.16909" lon="6.26744">
        <ele>485.6</ele>
        <time>2022-02-05T15:28:57Z</time>
      </trkpt>
      <trkpt lat="46.1691" lon="6.26731">
        <ele>485.4</ele>
        <time>2022-02-05T15:28:59Z</time>
      </trkpt>
      <trkpt lat="46.1691" lon="6.26724">
        <ele>485.4</ele>
        <time>2022-02-05T15:29:00Z</time>
      </trkpt>
      <trkpt lat="46.16912" lon="6.2671">
        <ele>485.6</ele>
        <time>2022-02-05T15:29:02Z</time>
      </trkpt>
      <trkpt lat="46.16917" lon="6.26697">
        <ele>485.6</ele>
        <time>2022-02-05T15:29:04Z</time>
      </trkpt>
      <trkpt lat="46.16919" lon="6.26691">
        <ele>485.8</ele>
        <time>2022-02-05T15:29:05Z</time>
      </trkpt>
      <trkpt lat="46.16934" lon="6.2666">
        <ele>486</ele>
        <time>2022-02-05T15:29:10Z</time>
      </trkpt>
      <trkpt lat="46.16956" lon="6.26624">
        <ele>486</ele>
        <time>2022-02-05T15:29:16Z</time>
      </trkpt>
      <trkpt lat="46.16978" lon="6.26586">
        <ele>486.4</ele>
        <time>2022-02-05T15:29:22Z</time>
      </trkpt>
      <trkpt lat="46.16992" lon="6.26562">
        <ele>486.4</ele>
        <time>2022-02-05T15:29:26Z</time>
      </trkpt>
      <trkpt lat="46.16996" lon="6.26557">
        <ele>486.6</ele>
        <time>2022-02-05T15:29:27Z</time>
      </trkpt>
      <trkpt lat="46.17002" lon="6.26546">
        <ele>486.6</ele>
        <time>2022-02-05T15:29:29Z</time>
      </trkpt>
      <trkpt lat="46.17014" lon="6.26528">
        <ele>487.4</ele>
        <time>2022-02-05T15:29:33Z</time>
      </trkpt>
      <trkpt lat="46.17022" lon="6.26515">
        <ele>488</ele>
        <time>2022-02-05T15:29:36Z</time>
      </trkpt>
      <trkpt lat="46.17031" lon="6.26499">
        <ele>489.6</ele>
        <time>2022-02-05T15:29:40Z</time>
      </trkpt>
      <trkpt lat="46.17034" lon="6.26495">
        <ele>490</ele>
        <time>2022-02-05T15:29:41Z</time>
      </trkpt>
      <trkpt lat="46.1704" lon="6.26483">
        <ele>491</ele>
        <time>2022-02-05T15:29:44Z</time>
      </trkpt>
      <trkpt lat="46.17052" lon="6.26463">
        <ele>493</ele>
        <time>2022-02-05T15:29:49Z</time>
      </trkpt>
      <trkpt lat="46.17055" lon="6.2646">
        <ele>493.2</ele>
        <time>2022-02-05T15:29:50Z</time>
      </trkpt>
      <trkpt lat="46.17067" lon="6.2644">
        <ele>494.8</ele>
        <time>2022-02-05T15:29:55Z</time>
      </trkpt>
      <trkpt lat="46.17079" lon="6.26421">
        <ele>495.6</ele>
        <time>2022-02-05T15:30:00Z</time>
      </trkpt>
      <trkpt lat="46.17088" lon="6.26411">
        <ele>496.4</ele>
        <time>2022-02-05T15:30:03Z</time>
      </trkpt>
      <trkpt lat="46.17092" lon="6.2641">
        <ele>496.6</ele>
        <time>2022-02-05T15:30:04Z</time>
      </trkpt>
      <trkpt lat="46.1711" lon="6.26411">
        <ele>497.6</ele>
        <time>2022-02-05T15:30:09Z</time>
      </trkpt>
      <trkpt lat="46.17122" lon="6.26413">
        <ele>497.8</ele>
        <time>2022-02-05T15:30:12Z</time>
      </trkpt>
      <trkpt lat="46.17126" lon="6.26413">
        <ele>498</ele>
        <time>2022-02-05T15:30:13Z</time>
      </trkpt>
      <trkpt lat="46.17138" lon="6.26413">
        <ele>498.6</ele>
        <time>2022-02-05T15:30:16Z</time>
      </trkpt>
      <trkpt lat="46.17156" lon="6.26411">
        <ele>499.2</ele>
        <time>2022-02-05T15:30:20Z</time>
      </trkpt>
      <trkpt lat="46.1719" lon="6.26411">
        <ele>500.2</ele>
        <time>2022-02-05T15:30:27Z</time>
      </trkpt>
      <trkpt lat="46.17205" lon="6.26409">
        <ele>500.2</ele>
        <time>2022-02-05T15:30:31Z</time>
      </trkpt>
      <trkpt lat="46.17209" lon="6.26405">
        <ele>500.4</ele>
        <time>2022-02-05T15:30:33Z</time>
      </trkpt>
      <trkpt lat="46.17209" lon="6.264">
        <ele>500.4</ele>
        <time>2022-02-05T15:30:34Z</time>
      </trkpt>
      <trkpt lat="46.17208" lon="6.26395">
        <ele>500.2</ele>
        <time>2022-02-05T15:30:35Z</time>
      </trkpt>
      <trkpt lat="46.17207" lon="6.26389">
        <ele>500.2</ele>
        <time>2022-02-05T15:30:36Z</time>
      </trkpt>
      <trkpt lat="46.17207" lon="6.26383">
        <ele>500</ele>
        <time>2022-02-05T15:30:37Z</time>
      </trkpt>
      <trkpt lat="46.17207" lon="6.26376">
        <ele>500</ele>
        <time>2022-02-05T15:30:38Z</time>
      </trkpt>
      <trkpt lat="46.17206" lon="6.26369">
        <ele>500</ele>
        <time>2022-02-05T15:30:39Z</time>
      </trkpt>
      <trkpt lat="46.17203" lon="6.26356">
        <ele>499.8</ele>
        <time>2022-02-05T15:30:42Z</time>
      </trkpt>
      <trkpt lat="46.17202" lon="6.26353">
        <ele>499.2</ele>
        <time>2022-02-05T15:30:46Z</time>
      </trkpt>
      <trkpt lat="46.17202" lon="6.26353">
        <ele>498.8</ele>
        <time>2022-02-05T15:31:00Z</time>
      </trkpt>
      <trkpt lat="46.17202" lon="6.26353">
        <ele>498.8</ele>
        <time>2022-02-05T15:31:08Z</time>
      </trkpt>
      <trkpt lat="46.17202" lon="6.26352">
        <ele>498.8</ele>
        <time>2022-02-05T15:31:19Z</time>
      </trkpt>
      <trkpt lat="46.17202" lon="6.26352">
        <ele>498.8</ele>
        <time>2022-02-05T15:31:41Z</time>
      </trkpt>
      <trkpt lat="46.17203" lon="6.26352">
        <ele>498.6</ele>
        <time>2022-02-05T15:31:50Z</time>
      </trkpt>
      <trkpt lat="46.17203" lon="6.26352">
        <ele>498.6</ele>
        <time>2022-02-05T15:32:13Z</time>
      </trkpt>
      <trkpt lat="46.17203" lon="6.26352">
        <ele>498.8</ele>
        <time>2022-02-05T15:32:32Z</time>
      </trkpt>
      <trkpt lat="46.17203" lon="6.26352">
        <ele>498.8</ele>
        <time>2022-02-05T15:32:39Z</time>
      </trkpt>
      <trkpt lat="46.17204" lon="6.26348">
        <ele>498.8</ele>
        <time>2022-02-05T15:32:41Z</time>
      </trkpt>
      <trkpt lat="46.17204" lon="6.26345">
        <ele>498.8</ele>
        <time>2022-02-05T15:32:43Z</time>
      </trkpt>
      <trkpt lat="46.17204" lon="6.26341">
        <ele>498.8</ele>
        <time>2022-02-05T15:32:45Z</time>
      </trkpt>
      <trkpt lat="46.17205" lon="6.26338">
        <ele>498.8</ele>
        <time>2022-02-05T15:32:46Z</time>
      </trkpt>
      <trkpt lat="46.17208" lon="6.26317">
        <ele>498.8</ele>
        <time>2022-02-05T15:32:51Z</time>
      </trkpt>
      <trkpt lat="46.1721" lon="6.26297">
        <ele>498.6</ele>
        <time>2022-02-05T15:32:54Z</time>
      </trkpt>
      <trkpt lat="46.17213" lon="6.26275">
        <ele>498.6</ele>
        <time>2022-02-05T15:32:57Z</time>
      </trkpt>
      <trkpt lat="46.17218" lon="6.26245">
        <ele>498.4</ele>
        <time>2022-02-05T15:33:01Z</time>
      </trkpt>
      <trkpt lat="46.1722" lon="6.26217">
        <ele>498.4</ele>
        <time>2022-02-05T15:33:05Z</time>
      </trkpt>
      <trkpt lat="46.1722" lon="6.26211">
        <ele>498.4</ele>
        <time>2022-02-05T15:33:06Z</time>
      </trkpt>
      <trkpt lat="46.1722" lon="6.26193">
        <ele>498.6</ele>
        <time>2022-02-05T15:33:10Z</time>
      </trkpt>
      <trkpt lat="46.17226" lon="6.2618">
        <ele>499.6</ele>
        <time>2022-02-05T15:33:13Z</time>
      </trkpt>
      <trkpt lat="46.17229" lon="6.26175">
        <ele>499.8</ele>
        <time>2022-02-05T15:33:14Z</time>
      </trkpt>
      <trkpt lat="46.17246" lon="6.26148">
        <ele>500.4</ele>
        <time>2022-02-05T15:33:19Z</time>
      </trkpt>
      <trkpt lat="46.1725" lon="6.26142">
        <ele>500.4</ele>
        <time>2022-02-05T15:33:20Z</time>
      </trkpt>
      <trkpt lat="46.17264" lon="6.26113">
        <ele>500.2</ele>
        <time>2022-02-05T15:33:24Z</time>
      </trkpt>
      <trkpt lat="46.1727" lon="6.26099">
        <ele>500.4</ele>
        <time>2022-02-05T15:33:26Z</time>
      </trkpt>
      <trkpt lat="46.17274" lon="6.26094">
        <ele>499.4</ele>
        <time>2022-02-05T15:33:29Z</time>
      </trkpt>
      <trkpt lat="46.17276" lon="6.26093">
        <ele>498.2</ele>
        <time>2022-02-05T15:33:34Z</time>
      </trkpt>
      <trkpt lat="46.17281" lon="6.26081">
        <ele>497.8</ele>
        <time>2022-02-05T15:33:38Z</time>
      </trkpt>
      <trkpt lat="46.17285" lon="6.26071">
        <ele>497.6</ele>
        <time>2022-02-05T15:33:40Z</time>
      </trkpt>
      <trkpt lat="46.17288" lon="6.26067">
        <ele>497.6</ele>
        <time>2022-02-05T15:33:41Z</time>
      </trkpt>
      <trkpt lat="46.17292" lon="6.26062">
        <ele>497.4</ele>
        <time>2022-02-05T15:33:42Z</time>
      </trkpt>
      <trkpt lat="46.17296" lon="6.26056">
        <ele>497.4</ele>
        <time>2022-02-05T15:33:43Z</time>
      </trkpt>
      <trkpt lat="46.17308" lon="6.26034">
        <ele>497.2</ele>
        <time>2022-02-05T15:33:46Z</time>
      </trkpt>
      <trkpt lat="46.17312" lon="6.26025">
        <ele>497</ele>
        <time>2022-02-05T15:33:47Z</time>
      </trkpt>
      <trkpt lat="46.1732" lon="6.26008">
        <ele>496</ele>
        <time>2022-02-05T15:33:49Z</time>
      </trkpt>
      <trkpt lat="46.17333" lon="6.25982">
        <ele>495</ele>
        <time>2022-02-05T15:33:52Z</time>
      </trkpt>
      <trkpt lat="46.17348" lon="6.25948">
        <ele>493.4</ele>
        <time>2022-02-05T15:33:56Z</time>
      </trkpt>
      <trkpt lat="46.17355" lon="6.2593">
        <ele>493</ele>
        <time>2022-02-05T15:33:58Z</time>
      </trkpt>
      <trkpt lat="46.17361" lon="6.25913">
        <ele>493</ele>
        <time>2022-02-05T15:34:00Z</time>
      </trkpt>
      <trkpt lat="46.17376" lon="6.25882">
        <ele>493</ele>
        <time>2022-02-05T15:34:04Z</time>
      </trkpt>
      <trkpt lat="46.1738" lon="6.25876">
        <ele>493</ele>
        <time>2022-02-05T15:34:05Z</time>
      </trkpt>
      <trkpt lat="46.17385" lon="6.25871">
        <ele>493</ele>
        <time>2022-02-05T15:34:06Z</time>
      </trkpt>
      <trkpt lat="46.17403" lon="6.25851">
        <ele>494</ele>
        <time>2022-02-05T15:34:10Z</time>
      </trkpt>
      <trkpt lat="46.17408" lon="6.25846">
        <ele>494.2</ele>
        <time>2022-02-05T15:34:11Z</time>
      </trkpt>
      <trkpt lat="46.17416" lon="6.25834">
        <ele>494.4</ele>
        <time>2022-02-05T15:34:13Z</time>
      </trkpt>
      <trkpt lat="46.17421" lon="6.2582">
        <ele>495</ele>
        <time>2022-02-05T15:34:15Z</time>
      </trkpt>
      <trkpt lat="46.17424" lon="6.25802">
        <ele>495.6</ele>
        <time>2022-02-05T15:34:17Z</time>
      </trkpt>
      <trkpt lat="46.1743" lon="6.25786">
        <ele>496</ele>
        <time>2022-02-05T15:34:19Z</time>
      </trkpt>
      <trkpt lat="46.17445" lon="6.2577">
        <ele>496.6</ele>
        <time>2022-02-05T15:34:22Z</time>
      </trkpt>
      <trkpt lat="46.17449" lon="6.25764">
        <ele>497</ele>
        <time>2022-02-05T15:34:23Z</time>
      </trkpt>
      <trkpt lat="46.17454" lon="6.25758">
        <ele>497</ele>
        <time>2022-02-05T15:34:24Z</time>
      </trkpt>
      <trkpt lat="46.17459" lon="6.25752">
        <ele>497</ele>
        <time>2022-02-05T15:34:25Z</time>
      </trkpt>
      <trkpt lat="46.17472" lon="6.25741">
        <ele>497</ele>
        <time>2022-02-05T15:34:27Z</time>
      </trkpt>
      <trkpt lat="46.17485" lon="6.2573">
        <ele>497</ele>
        <time>2022-02-05T15:34:29Z</time>
      </trkpt>
      <trkpt lat="46.17492" lon="6.25724">
        <ele>497</ele>
        <time>2022-02-05T15:34:30Z</time>
      </trkpt>
      <trkpt lat="46.17506" lon="6.25712">
        <ele>497</ele>
        <time>2022-02-05T15:34:32Z</time>
      </trkpt>
      <trkpt lat="46.17513" lon="6.25706">
        <ele>497.2</ele>
        <time>2022-02-05T15:34:33Z</time>
      </trkpt>
      <trkpt lat="46.1752" lon="6.257">
        <ele>496.8</ele>
        <time>2022-02-05T15:34:34Z</time>
      </trkpt>
      <trkpt lat="46.17551" lon="6.25674">
        <ele>494.4</ele>
        <time>2022-02-05T15:34:38Z</time>
      </trkpt>
      <trkpt lat="46.17568" lon="6.25661">
        <ele>492.8</ele>
        <time>2022-02-05T15:34:40Z</time>
      </trkpt>
      <trkpt lat="46.17594" lon="6.25646">
        <ele>490.6</ele>
        <time>2022-02-05T15:34:43Z</time>
      </trkpt>
      <trkpt lat="46.17621" lon="6.25632">
        <ele>489.4</ele>
        <time>2022-02-05T15:34:46Z</time>
      </trkpt>
      <trkpt lat="46.17656" lon="6.25612">
        <ele>487.6</ele>
        <time>2022-02-05T15:34:50Z</time>
      </trkpt>
      <trkpt lat="46.17681" lon="6.25598">
        <ele>486.2</ele>
        <time>2022-02-05T15:34:53Z</time>
      </trkpt>
      <trkpt lat="46.1769" lon="6.25593">
        <ele>486.2</ele>
        <time>2022-02-05T15:34:54Z</time>
      </trkpt>
      <trkpt lat="46.17716" lon="6.2558">
        <ele>485.4</ele>
        <time>2022-02-05T15:34:57Z</time>
      </trkpt>
      <trkpt lat="46.17766" lon="6.25557">
        <ele>483.6</ele>
        <time>2022-02-05T15:35:03Z</time>
      </trkpt>
      <trkpt lat="46.17807" lon="6.2555">
        <ele>482.4</ele>
        <time>2022-02-05T15:35:08Z</time>
      </trkpt>
      <trkpt lat="46.1783" lon="6.25548">
        <ele>482.4</ele>
        <time>2022-02-05T15:35:11Z</time>
      </trkpt>
      <trkpt lat="46.17851" lon="6.2555">
        <ele>482.4</ele>
        <time>2022-02-05T15:35:14Z</time>
      </trkpt>
      <trkpt lat="46.17863" lon="6.25552">
        <ele>482.4</ele>
        <time>2022-02-05T15:35:16Z</time>
      </trkpt>
      <trkpt lat="46.17886" lon="6.25554">
        <ele>483</ele>
        <time>2022-02-05T15:35:20Z</time>
      </trkpt>
      <trkpt lat="46.17891" lon="6.25554">
        <ele>483.2</ele>
        <time>2022-02-05T15:35:21Z</time>
      </trkpt>
      <trkpt lat="46.17913" lon="6.25553">
        <ele>485.4</ele>
        <time>2022-02-05T15:35:25Z</time>
      </trkpt>
      <trkpt lat="46.1794" lon="6.25547">
        <ele>486.6</ele>
        <time>2022-02-05T15:35:30Z</time>
      </trkpt>
      <trkpt lat="46.17954" lon="6.25543">
        <ele>487.4</ele>
        <time>2022-02-05T15:35:33Z</time>
      </trkpt>
      <trkpt lat="46.17991" lon="6.25526">
        <ele>489</ele>
        <time>2022-02-05T15:35:40Z</time>
      </trkpt>
      <trkpt lat="46.18024" lon="6.255">
        <ele>489.6</ele>
        <time>2022-02-05T15:35:46Z</time>
      </trkpt>
      <trkpt lat="46.18041" lon="6.25482">
        <ele>489.8</ele>
        <time>2022-02-05T15:35:49Z</time>
      </trkpt>
      <trkpt lat="46.18052" lon="6.25466">
        <ele>489.8</ele>
        <time>2022-02-05T15:35:51Z</time>
      </trkpt>
      <trkpt lat="46.1807" lon="6.2544">
        <ele>489.6</ele>
        <time>2022-02-05T15:35:54Z</time>
      </trkpt>
      <trkpt lat="46.18084" lon="6.25423">
        <ele>489</ele>
        <time>2022-02-05T15:35:56Z</time>
      </trkpt>
      <trkpt lat="46.18109" lon="6.25403">
        <ele>487.8</ele>
        <time>2022-02-05T15:35:59Z</time>
      </trkpt>
      <trkpt lat="46.18127" lon="6.25392">
        <ele>486.6</ele>
        <time>2022-02-05T15:36:01Z</time>
      </trkpt>
      <trkpt lat="46.18136" lon="6.25386">
        <ele>486.4</ele>
        <time>2022-02-05T15:36:02Z</time>
      </trkpt>
      <trkpt lat="46.1817" lon="6.25365">
        <ele>483.8</ele>
        <time>2022-02-05T15:36:06Z</time>
      </trkpt>
      <trkpt lat="46.18187" lon="6.25355">
        <ele>483</ele>
        <time>2022-02-05T15:36:08Z</time>
      </trkpt>
      <trkpt lat="46.18238" lon="6.25321">
        <ele>480.8</ele>
        <time>2022-02-05T15:36:14Z</time>
      </trkpt>
      <trkpt lat="46.18246" lon="6.25315">
        <ele>480.8</ele>
        <time>2022-02-05T15:36:15Z</time>
      </trkpt>
      <trkpt lat="46.1828" lon="6.25293">
        <ele>480.2</ele>
        <time>2022-02-05T15:36:19Z</time>
      </trkpt>
      <trkpt lat="46.18298" lon="6.25281">
        <ele>480.2</ele>
        <time>2022-02-05T15:36:21Z</time>
      </trkpt>
      <trkpt lat="46.18324" lon="6.25264">
        <ele>480.2</ele>
        <time>2022-02-05T15:36:24Z</time>
      </trkpt>
      <trkpt lat="46.18352" lon="6.25245">
        <ele>479.4</ele>
        <time>2022-02-05T15:36:27Z</time>
      </trkpt>
      <trkpt lat="46.18371" lon="6.25233">
        <ele>478.2</ele>
        <time>2022-02-05T15:36:29Z</time>
      </trkpt>
      <trkpt lat="46.18418" lon="6.25204">
        <ele>476</ele>
        <time>2022-02-05T15:36:34Z</time>
      </trkpt>
      <trkpt lat="46.18437" lon="6.25196">
        <ele>474.8</ele>
        <time>2022-02-05T15:36:36Z</time>
      </trkpt>
      <trkpt lat="46.18446" lon="6.25192">
        <ele>474.2</ele>
        <time>2022-02-05T15:36:37Z</time>
      </trkpt>
      <trkpt lat="46.18494" lon="6.25179">
        <ele>472.2</ele>
        <time>2022-02-05T15:36:42Z</time>
      </trkpt>
      <trkpt lat="46.18532" lon="6.2517">
        <ele>471</ele>
        <time>2022-02-05T15:36:46Z</time>
      </trkpt>
      <trkpt lat="46.18565" lon="6.25163">
        <ele>470.6</ele>
        <time>2022-02-05T15:36:50Z</time>
      </trkpt>
      <trkpt lat="46.1857" lon="6.25162">
        <ele>470.4</ele>
        <time>2022-02-05T15:36:51Z</time>
      </trkpt>
      <trkpt lat="46.18578" lon="6.2516">
        <ele>470.4</ele>
        <time>2022-02-05T15:36:53Z</time>
      </trkpt>
      <trkpt lat="46.18604" lon="6.25155">
        <ele>469.8</ele>
        <time>2022-02-05T15:36:58Z</time>
      </trkpt>
      <trkpt lat="46.1861" lon="6.25154">
        <ele>469.8</ele>
        <time>2022-02-05T15:36:59Z</time>
      </trkpt>
      <trkpt lat="46.18623" lon="6.25149">
        <ele>469.6</ele>
        <time>2022-02-05T15:37:01Z</time>
      </trkpt>
      <trkpt lat="46.18637" lon="6.25144">
        <ele>469</ele>
        <time>2022-02-05T15:37:03Z</time>
      </trkpt>
      <trkpt lat="46.18674" lon="6.25128">
        <ele>468.4</ele>
        <time>2022-02-05T15:37:08Z</time>
      </trkpt>
      <trkpt lat="46.18689" lon="6.25121">
        <ele>468</ele>
        <time>2022-02-05T15:37:10Z</time>
      </trkpt>
      <trkpt lat="46.18697" lon="6.25118">
        <ele>467.8</ele>
        <time>2022-02-05T15:37:11Z</time>
      </trkpt>
      <trkpt lat="46.18744" lon="6.25097">
        <ele>466.6</ele>
        <time>2022-02-05T15:37:17Z</time>
      </trkpt>
      <trkpt lat="46.18777" lon="6.25087">
        <ele>465.2</ele>
        <time>2022-02-05T15:37:21Z</time>
      </trkpt>
      <trkpt lat="46.18785" lon="6.25086">
        <ele>465.2</ele>
        <time>2022-02-05T15:37:22Z</time>
      </trkpt>
      <trkpt lat="46.18826" lon="6.25082">
        <ele>463.8</ele>
        <time>2022-02-05T15:37:27Z</time>
      </trkpt>
      <trkpt lat="46.18851" lon="6.25082">
        <ele>463.2</ele>
        <time>2022-02-05T15:37:30Z</time>
      </trkpt>
      <trkpt lat="46.18885" lon="6.25081">
        <ele>462.4</ele>
        <time>2022-02-05T15:37:34Z</time>
      </trkpt>
      <trkpt lat="46.18901" lon="6.25081">
        <ele>462</ele>
        <time>2022-02-05T15:37:36Z</time>
      </trkpt>
      <trkpt lat="46.18943" lon="6.25076">
        <ele>461.2</ele>
        <time>2022-02-05T15:37:41Z</time>
      </trkpt>
      <trkpt lat="46.18959" lon="6.25072">
        <ele>461</ele>
        <time>2022-02-05T15:37:43Z</time>
      </trkpt>
      <trkpt lat="46.18967" lon="6.25071">
        <ele>460.8</ele>
        <time>2022-02-05T15:37:44Z</time>
      </trkpt>
      <trkpt lat="46.18983" lon="6.25073">
        <ele>460.8</ele>
        <time>2022-02-05T15:37:46Z</time>
      </trkpt>
      <trkpt lat="46.18991" lon="6.25076">
        <ele>460.4</ele>
        <time>2022-02-05T15:37:47Z</time>
      </trkpt>
      <trkpt lat="46.19007" lon="6.25082">
        <ele>460</ele>
        <time>2022-02-05T15:37:49Z</time>
      </trkpt>
      <trkpt lat="46.19014" lon="6.25086">
        <ele>460.2</ele>
        <time>2022-02-05T15:37:50Z</time>
      </trkpt>
      <trkpt lat="46.1902" lon="6.25091">
        <ele>459.6</ele>
        <time>2022-02-05T15:37:51Z</time>
      </trkpt>
      <trkpt lat="46.1903" lon="6.25101">
        <ele>459</ele>
        <time>2022-02-05T15:37:53Z</time>
      </trkpt>
      <trkpt lat="46.1904" lon="6.25105">
        <ele>458.4</ele>
        <time>2022-02-05T15:37:55Z</time>
      </trkpt>
      <trkpt lat="46.19078" lon="6.25118">
        <ele>457.4</ele>
        <time>2022-02-05T15:38:03Z</time>
      </trkpt>
      <trkpt lat="46.19099" lon="6.25115">
        <ele>457.2</ele>
        <time>2022-02-05T15:38:07Z</time>
      </trkpt>
      <trkpt lat="46.19102" lon="6.25114">
        <ele>457</ele>
        <time>2022-02-05T15:38:08Z</time>
      </trkpt>
      <trkpt lat="46.19106" lon="6.25112">
        <ele>457.2</ele>
        <time>2022-02-05T15:38:09Z</time>
      </trkpt>
      <trkpt lat="46.19115" lon="6.25108">
        <ele>457.4</ele>
        <time>2022-02-05T15:38:12Z</time>
      </trkpt>
      <trkpt lat="46.1912" lon="6.25106">
        <ele>457.6</ele>
        <time>2022-02-05T15:38:14Z</time>
      </trkpt>
      <trkpt lat="46.19129" lon="6.25105">
        <ele>458.2</ele>
        <time>2022-02-05T15:38:17Z</time>
      </trkpt>
      <trkpt lat="46.19133" lon="6.25107">
        <ele>458.8</ele>
        <time>2022-02-05T15:38:18Z</time>
      </trkpt>
      <trkpt lat="46.19142" lon="6.25112">
        <ele>459.6</ele>
        <time>2022-02-05T15:38:20Z</time>
      </trkpt>
      <trkpt lat="46.19152" lon="6.25112">
        <ele>460.2</ele>
        <time>2022-02-05T15:38:22Z</time>
      </trkpt>
      <trkpt lat="46.19162" lon="6.25106">
        <ele>460.4</ele>
        <time>2022-02-05T15:38:24Z</time>
      </trkpt>
      <trkpt lat="46.19166" lon="6.25101">
        <ele>460.4</ele>
        <time>2022-02-05T15:38:25Z</time>
      </trkpt>
      <trkpt lat="46.1917" lon="6.25094">
        <ele>460.4</ele>
        <time>2022-02-05T15:38:26Z</time>
      </trkpt>
      <trkpt lat="46.1918" lon="6.25085">
        <ele>460.4</ele>
        <time>2022-02-05T15:38:28Z</time>
      </trkpt>
      <trkpt lat="46.19192" lon="6.25089">
        <ele>460.4</ele>
        <time>2022-02-05T15:38:30Z</time>
      </trkpt>
      <trkpt lat="46.19205" lon="6.25109">
        <ele>460.2</ele>
        <time>2022-02-05T15:38:33Z</time>
      </trkpt>
      <trkpt lat="46.1921" lon="6.25114">
        <ele>459.8</ele>
        <time>2022-02-05T15:38:34Z</time>
      </trkpt>
      <trkpt lat="46.19216" lon="6.25117">
        <ele>459.4</ele>
        <time>2022-02-05T15:38:35Z</time>
      </trkpt>
      <trkpt lat="46.1923" lon="6.25118">
        <ele>459.2</ele>
        <time>2022-02-05T15:38:37Z</time>
      </trkpt>
      <trkpt lat="46.19237" lon="6.25118">
        <ele>459</ele>
        <time>2022-02-05T15:38:38Z</time>
      </trkpt>
      <trkpt lat="46.19274" lon="6.25111">
        <ele>457.8</ele>
        <time>2022-02-05T15:38:44Z</time>
      </trkpt>
      <trkpt lat="46.19278" lon="6.25103">
        <ele>457</ele>
        <time>2022-02-05T15:38:46Z</time>
      </trkpt>
      <trkpt lat="46.19279" lon="6.251">
        <ele>456.6</ele>
        <time>2022-02-05T15:38:47Z</time>
      </trkpt>
      <trkpt lat="46.19278" lon="6.251">
        <ele>456.4</ele>
        <time>2022-02-05T15:38:51Z</time>
      </trkpt>
      <trkpt lat="46.19278" lon="6.251">
        <ele>456.8</ele>
        <time>2022-02-05T15:39:06Z</time>
      </trkpt>
      <trkpt lat="46.19279" lon="6.25097">
        <ele>456.6</ele>
        <time>2022-02-05T15:39:08Z</time>
      </trkpt>
      <trkpt lat="46.1928" lon="6.2509">
        <ele>456.8</ele>
        <time>2022-02-05T15:39:11Z</time>
      </trkpt>
      <trkpt lat="46.19283" lon="6.25068">
        <ele>456.8</ele>
        <time>2022-02-05T15:39:16Z</time>
      </trkpt>
      <trkpt lat="46.19289" lon="6.25034">
        <ele>456.6</ele>
        <time>2022-02-05T15:39:22Z</time>
      </trkpt>
      <trkpt lat="46.19292" lon="6.25026">
        <ele>456.4</ele>
        <time>2022-02-05T15:39:24Z</time>
      </trkpt>
      <trkpt lat="46.19295" lon="6.25022">
        <ele>456.2</ele>
        <time>2022-02-05T15:39:26Z</time>
      </trkpt>
      <trkpt lat="46.19297" lon="6.25022">
        <ele>456.2</ele>
        <time>2022-02-05T15:39:27Z</time>
      </trkpt>
      <trkpt lat="46.19298" lon="6.25023">
        <ele>455.8</ele>
        <time>2022-02-05T15:39:30Z</time>
      </trkpt>
      <trkpt lat="46.193" lon="6.25024">
        <ele>455.4</ele>
        <time>2022-02-05T15:39:35Z</time>
      </trkpt>
      <trkpt lat="46.19301" lon="6.25024">
        <ele>455</ele>
        <time>2022-02-05T15:39:41Z</time>
      </trkpt>
      <trkpt lat="46.19301" lon="6.25023">
        <ele>455</ele>
        <time>2022-02-05T15:39:43Z</time>
      </trkpt>
      <trkpt lat="46.19302" lon="6.25022">
        <ele>454.8</ele>
        <time>2022-02-05T15:39:48Z</time>
      </trkpt>
      <trkpt lat="46.19302" lon="6.25022">
        <ele>454.8</ele>
        <time>2022-02-05T15:39:49Z</time>
      </trkpt>
    </trkseg>
  </trk>
</gpx>